<?xml version='1.0' encoding='UTF-8'?><gpx version="1.1" creator="JPX - https://github.com/jenetics/jpx" xmlns="http://www.topografix.com/GPX/1/1"><trk><trkseg><trkpt lat="42.78112302929085" lon="10.350651330450654"><ele>70.0</ele><time>2026-04-26T08:30:55.999Z</time></trkpt><trkpt lat="42.78117457965613" lon="10.350718696983797"><ele>70.0</ele><time>2026-04-26T08:30:56.999Z</time></trkpt><trkpt lat="42.78127457496329" lon="10.350835307073908"><ele>70.0</ele><time>2026-04-26T08:30:58.999Z</time></trkpt><trkpt lat="42.7813784961254" lon="10.350915929553494"><ele>70.0</ele><time>2026-04-26T08:31:00.999Z</time></trkpt><trkpt lat="42.78147438414693" lon="10.350982106097042"><ele>70.0</ele><time>2026-04-26T08:31:02.999Z</time></trkpt><trkpt lat="42.781545255367675" lon="10.351036381414433"><ele>70.0</ele><time>2026-04-26T08:31:04.999Z</time></trkpt><trkpt lat="42.78164022595728" lon="10.351108384856119"><ele>70.0</ele><time>2026-04-26T08:31:06.999Z</time></trkpt><trkpt lat="42.78174519522004" lon="10.351183056325029"><ele>70.0</ele><time>2026-04-26T08:31:08.999Z</time></trkpt><trkpt lat="42.7818082998442" lon="10.351224555011393"><ele>70.0</ele><time>2026-04-26T08:31:10.999Z</time></trkpt><trkpt lat="42.781865971532355" lon="10.35127417468435"><ele>70.0</ele><time>2026-04-26T08:31:12.999Z</time></trkpt><trkpt lat="42.78192472175676" lon="10.35130608035601"><ele>70.0</ele><time>2026-04-26T08:31:14.999Z</time></trkpt><trkpt lat="42.78198633263355" lon="10.351351780215447"><ele>69.6</ele><time>2026-04-26T08:31:16.999Z</time></trkpt><trkpt lat="42.78206732118088" lon="10.351412342057845"><ele>69.2</ele><time>2026-04-26T08:31:17.999Z</time></trkpt><trkpt lat="42.782153694521355" lon="10.351482552523835"><ele>68.8</ele><time>2026-04-26T08:31:18.999Z</time></trkpt><trkpt lat="42.78223881649411" lon="10.351572217617445"><ele>68.4</ele><time>2026-04-26T08:31:19.999Z</time></trkpt><trkpt lat="42.782314491526456" lon="10.351664624697237"><ele>68.0</ele><time>2026-04-26T08:31:20.999Z</time></trkpt><trkpt lat="42.78236738109058" lon="10.35173078240114"><ele>68.0</ele><time>2026-04-26T08:31:21.999Z</time></trkpt><trkpt lat="42.78242696204244" lon="10.351798661259517"><ele>68.0</ele><time>2026-04-26T08:31:23.999Z</time></trkpt><trkpt lat="42.782581682047955" lon="10.351794419343522"><ele>68.0</ele><time>2026-04-26T08:31:26.999Z</time></trkpt><trkpt lat="42.782650997595404" lon="10.351815313341989"><ele>68.0</ele><time>2026-04-26T08:31:27.999Z</time></trkpt><trkpt lat="42.78278759713837" lon="10.351762361105862"><ele>68.0</ele><time>2026-04-26T08:31:29.998Z</time></trkpt><trkpt lat="42.78286437109258" lon="10.351729682212293"><ele>67.83333333333334</ele><time>2026-04-26T08:31:30.998Z</time></trkpt><trkpt lat="42.78293760567884" lon="10.351702485630405"><ele>67.66666666666667</ele><time>2026-04-26T08:31:31.998Z</time></trkpt><trkpt lat="42.78301389473255" lon="10.351679748146044"><ele>67.5</ele><time>2026-04-26T08:31:32.998Z</time></trkpt><trkpt lat="42.78308641575544" lon="10.351657458265695"><ele>67.33333333333333</ele><time>2026-04-26T08:31:33.998Z</time></trkpt><trkpt lat="42.783152453750006" lon="10.351634723530637"><ele>67.16666666666666</ele><time>2026-04-26T08:31:34.998Z</time></trkpt><trkpt lat="42.78322688940241" lon="10.35160697340178"><ele>67.0</ele><time>2026-04-26T08:31:35.998Z</time></trkpt><trkpt lat="42.7833108756645" lon="10.351573577502391"><ele>67.0</ele><time>2026-04-26T08:31:36.998Z</time></trkpt><trkpt lat="42.783395643282866" lon="10.351537797545099"><ele>67.0</ele><time>2026-04-26T08:31:37.998Z</time></trkpt><trkpt lat="42.78346406852892" lon="10.351505509412393"><ele>67.0</ele><time>2026-04-26T08:31:38.998Z</time></trkpt><trkpt lat="42.78352807685405" lon="10.351474672352243"><ele>67.0</ele><time>2026-04-26T08:31:39.998Z</time></trkpt><trkpt lat="42.78360112976459" lon="10.351437310817854"><ele>67.0</ele><time>2026-04-26T08:31:40.998Z</time></trkpt><trkpt lat="42.78367286709378" lon="10.351378571465167"><ele>67.0</ele><time>2026-04-26T08:31:41.998Z</time></trkpt><trkpt lat="42.78373599189133" lon="10.351340397356418"><ele>67.16666666666666</ele><time>2026-04-26T08:31:42.998Z</time></trkpt><trkpt lat="42.78381418692012" lon="10.351312637247824"><ele>67.33333333333333</ele><time>2026-04-26T08:31:43.998Z</time></trkpt><trkpt lat="42.78387585105313" lon="10.351270741521972"><ele>67.5</ele><time>2026-04-26T08:31:44.998Z</time></trkpt><trkpt lat="42.78393379705986" lon="10.351230308512742"><ele>67.66666666666667</ele><time>2026-04-26T08:31:45.998Z</time></trkpt><trkpt lat="42.78399699106886" lon="10.35118492345111"><ele>67.83333333333334</ele><time>2026-04-26T08:31:46.998Z</time></trkpt><trkpt lat="42.78407745865456" lon="10.351104130963042"><ele>68.0</ele><time>2026-04-26T08:31:48.998Z</time></trkpt><trkpt lat="42.784169109015764" lon="10.351056428346665"><ele>67.99999999999999</ele><time>2026-04-26T08:32:12Z</time></trkpt><trkpt lat="42.78422555513568" lon="10.351012475714356"><ele>68.0</ele><time>2026-04-26T08:32:13Z</time></trkpt><trkpt lat="42.78429261690025" lon="10.35096242635637"><ele>68.0</ele><time>2026-04-26T08:32:14Z</time></trkpt><trkpt lat="42.784356845980085" lon="10.350915460573225"><ele>68.0</ele><time>2026-04-26T08:32:15Z</time></trkpt><trkpt lat="42.78441398466772" lon="10.35087304400022"><ele>68.0</ele><time>2026-04-26T08:32:16Z</time></trkpt><trkpt lat="42.784471889799015" lon="10.350829530760452"><ele>67.99999999999999</ele><time>2026-04-26T08:32:17Z</time></trkpt><trkpt lat="42.784520306369075" lon="10.350768209360222"><ele>68.0</ele><time>2026-04-26T08:32:18Z</time></trkpt><trkpt lat="42.784581199792555" lon="10.350740156194934"><ele>67.99999999999999</ele><time>2026-04-26T08:32:19Z</time></trkpt><trkpt lat="42.78464092608852" lon="10.350683526636107"><ele>68.0</ele><time>2026-04-26T08:32:20Z</time></trkpt><trkpt lat="42.78470348885425" lon="10.350637825406245"><ele>68.0</ele><time>2026-04-26T08:32:21Z</time></trkpt><trkpt lat="42.78476781531545" lon="10.350581451243974"><ele>68.0</ele><time>2026-04-26T08:32:22Z</time></trkpt><trkpt lat="42.784824863866326" lon="10.350534114290046"><ele>68.0</ele><time>2026-04-26T08:32:23Z</time></trkpt><trkpt lat="42.784888292066064" lon="10.350481298364931"><ele>67.99999999999999</ele><time>2026-04-26T08:32:24Z</time></trkpt><trkpt lat="42.78494363853439" lon="10.35043569300993"><ele>68.0</ele><time>2026-04-26T08:32:25Z</time></trkpt><trkpt lat="42.78500583649565" lon="10.350384442070578"><ele>68.0</ele><time>2026-04-26T08:32:26Z</time></trkpt><trkpt lat="42.78507317472753" lon="10.350328955634497"><ele>68.0</ele><time>2026-04-26T08:32:27Z</time></trkpt><trkpt lat="42.78513375213165" lon="10.350279272852658"><ele>68.0</ele><time>2026-04-26T08:32:28Z</time></trkpt><trkpt lat="42.78519249578166" lon="10.350231891171823"><ele>68.0</ele><time>2026-04-26T08:32:29Z</time></trkpt><trkpt lat="42.78529186138524" lon="10.350127876668267"><ele>68.0</ele><time>2026-04-26T08:32:31Z</time></trkpt><trkpt lat="42.785360463753165" lon="10.350096817358937"><ele>68.0</ele><time>2026-04-26T08:32:32Z</time></trkpt><trkpt lat="42.785413658759055" lon="10.350050477768368"><ele>66.16666666666667</ele><time>2026-04-26T08:32:33Z</time></trkpt><trkpt lat="42.785476625695814" lon="10.349995483995738"><ele>64.33333333333334</ele><time>2026-04-26T08:32:34Z</time></trkpt><trkpt lat="42.78553964853703" lon="10.349937625086667"><ele>62.5</ele><time>2026-04-26T08:32:35Z</time></trkpt><trkpt lat="42.785627718911236" lon="10.349823359254518"><ele>60.66666666666667</ele><time>2026-04-26T08:32:37Z</time></trkpt><trkpt lat="42.7856857951356" lon="10.34978291099678"><ele>58.833333333333336</ele><time>2026-04-26T08:32:38Z</time></trkpt><trkpt lat="42.78575176434282" lon="10.349725379355961"><ele>57.0</ele><time>2026-04-26T08:32:39Z</time></trkpt><trkpt lat="42.78580521722246" lon="10.349671096766912"><ele>57.0</ele><time>2026-04-26T08:32:40Z</time></trkpt><trkpt lat="42.785887043956876" lon="10.349589862105459"><ele>57.0</ele><time>2026-04-26T08:32:42Z</time></trkpt><trkpt lat="42.78599721096656" lon="10.349497794300287"><ele>57.0</ele><time>2026-04-26T08:32:44Z</time></trkpt><trkpt lat="42.78604620497997" lon="10.349433188135189"><ele>57.0</ele><time>2026-04-26T08:32:45Z</time></trkpt><trkpt lat="42.78613252585605" lon="10.349356681636921"><ele>57.0</ele><time>2026-04-26T08:32:47Z</time></trkpt><trkpt lat="42.78620901291999" lon="10.349291843070533"><ele>53.0</ele><time>2026-04-26T08:32:49Z</time></trkpt><trkpt lat="42.78629943461596" lon="10.34924788762641"><ele>49.0</ele><time>2026-04-26T08:32:51Z</time></trkpt><trkpt lat="42.78637483294135" lon="10.349175235079684"><ele>45.0</ele><time>2026-04-26T08:32:53Z</time></trkpt><trkpt lat="42.78648242908939" lon="10.349119201449225"><ele>41.0</ele><time>2026-04-26T08:32:54.999Z</time></trkpt><trkpt lat="42.78657595941825" lon="10.349027247829564"><ele>37.0</ele><time>2026-04-26T08:32:56.999Z</time></trkpt><trkpt lat="42.78665213089793" lon="10.348933068082392"><ele>36.6</ele><time>2026-04-26T08:32:58.999Z</time></trkpt><trkpt lat="42.786733362427576" lon="10.348844354975956"><ele>36.2</ele><time>2026-04-26T08:33:00.999Z</time></trkpt><trkpt lat="42.78683361929419" lon="10.348766443590186"><ele>35.8</ele><time>2026-04-26T08:33:02.999Z</time></trkpt><trkpt lat="42.786921732775305" lon="10.348686255537553"><ele>35.4</ele><time>2026-04-26T08:33:04.999Z</time></trkpt><trkpt lat="42.78701886649707" lon="10.348651954350222"><ele>35.0</ele><time>2026-04-26T08:33:06.999Z</time></trkpt><trkpt lat="42.787103690708584" lon="10.34861903478376"><ele>31.8</ele><time>2026-04-26T08:33:08.999Z</time></trkpt><trkpt lat="42.78719301341594" lon="10.348575674537777"><ele>28.6</ele><time>2026-04-26T08:33:10.999Z</time></trkpt><trkpt lat="42.787285895829164" lon="10.348581851736466"><ele>25.4</ele><time>2026-04-26T08:33:12.999Z</time></trkpt><trkpt lat="42.78740156562577" lon="10.348563399477284"><ele>22.2</ele><time>2026-04-26T08:33:14.999Z</time></trkpt><trkpt lat="42.78750353813668" lon="10.348542592198871"><ele>19.0</ele><time>2026-04-26T08:33:16.999Z</time></trkpt><trkpt lat="42.787608421158595" lon="10.348514184076029"><ele>17.599999999999998</ele><time>2026-04-26T08:33:18.999Z</time></trkpt><trkpt lat="42.787718994478226" lon="10.348526823906564"><ele>16.2</ele><time>2026-04-26T08:33:20.999Z</time></trkpt><trkpt lat="42.78782904734856" lon="10.348548904414669"><ele>14.799999999999999</ele><time>2026-04-26T08:33:22.999Z</time></trkpt><trkpt lat="42.78789188630131" lon="10.348585962548386"><ele>13.399999999999999</ele><time>2026-04-26T08:33:23.999Z</time></trkpt><trkpt lat="42.7879965154357" lon="10.34861059809474"><ele>12.0</ele><time>2026-04-26T08:33:25.999Z</time></trkpt><trkpt lat="42.78807902127712" lon="10.348585926043313"><ele>12.0</ele><time>2026-04-26T08:33:28.999Z</time></trkpt><trkpt lat="42.788118555348504" lon="10.348497375285794"><ele>12.0</ele><time>2026-04-26T08:33:29.999Z</time></trkpt><trkpt lat="42.7881235054931" lon="10.348392627504339"><ele>12.0</ele><time>2026-04-26T08:33:30.999Z</time></trkpt><trkpt lat="42.78813615518433" lon="10.348280978231852"><ele>12.0</ele><time>2026-04-26T08:33:31.999Z</time></trkpt><trkpt lat="42.78815422564497" lon="10.348164068806366"><ele>12.0</ele><time>2026-04-26T08:33:32.999Z</time></trkpt><trkpt lat="42.788177422605436" lon="10.348043002658642"><ele>12.0</ele><time>2026-04-26T08:33:33.999Z</time></trkpt><trkpt lat="42.78820809663845" lon="10.347907188905705"><ele>12.0</ele><time>2026-04-26T08:33:34.999Z</time></trkpt><trkpt lat="42.78823824927792" lon="10.34777937695716"><ele>12.0</ele><time>2026-04-26T08:33:35.999Z</time></trkpt><trkpt lat="42.78827116966073" lon="10.34763983302986"><ele>12.0</ele><time>2026-04-26T08:33:36.999Z</time></trkpt><trkpt lat="42.78830687211016" lon="10.347488496490506"><ele>12.0</ele><time>2026-04-26T08:33:37.999Z</time></trkpt><trkpt lat="42.78834090395955" lon="10.347335332244674"><ele>12.0</ele><time>2026-04-26T08:33:38.999Z</time></trkpt><trkpt lat="42.78836929197196" lon="10.34720282701154"><ele>12.333333333333334</ele><time>2026-04-26T08:33:39.999Z</time></trkpt><trkpt lat="42.78839350908829" lon="10.347089790205764"><ele>12.666666666666668</ele><time>2026-04-26T08:33:40.998Z</time></trkpt><trkpt lat="42.78841893471874" lon="10.34697111239008"><ele>13.0</ele><time>2026-04-26T08:33:41.998Z</time></trkpt><trkpt lat="42.78844494024497" lon="10.34685868000612"><ele>13.333333333333334</ele><time>2026-04-26T08:33:42.998Z</time></trkpt><trkpt lat="42.78846637492419" lon="10.346767156025614"><ele>13.666666666666668</ele><time>2026-04-26T08:33:43.998Z</time></trkpt><trkpt lat="42.78848572330352" lon="10.346684540383812"><ele>14.0</ele><time>2026-04-26T08:33:44.998Z</time></trkpt><trkpt lat="42.78850999481838" lon="10.346580903464682"><ele>14.0</ele><time>2026-04-26T08:33:45.998Z</time></trkpt><trkpt lat="42.788531555379464" lon="10.346488842114827"><ele>14.0</ele><time>2026-04-26T08:33:46.998Z</time></trkpt><trkpt lat="42.78854866111435" lon="10.346405404843242"><ele>14.0</ele><time>2026-04-26T08:33:47.997Z</time></trkpt><trkpt lat="42.78856887894578" lon="10.346306636511954"><ele>14.0</ele><time>2026-04-26T08:33:48.997Z</time></trkpt><trkpt lat="42.78859245364515" lon="10.34620768117476"><ele>14.0</ele><time>2026-04-26T08:33:49.997Z</time></trkpt><trkpt lat="42.788618420878514" lon="10.346119674076434"><ele>14.0</ele><time>2026-04-26T08:33:50.997Z</time></trkpt><trkpt lat="42.78865690664544" lon="10.346016840430488"><ele>14.0</ele><time>2026-04-26T08:33:52.997Z</time></trkpt><trkpt lat="42.78869070716407" lon="10.345923784172628"><ele>14.2</ele><time>2026-04-26T08:33:57.997Z</time></trkpt><trkpt lat="42.788544367733515" lon="10.345814956309622"><ele>14.399999999999999</ele><time>2026-04-26T08:33:59.997Z</time></trkpt><trkpt lat="42.788483678683775" lon="10.345755592584464"><ele>14.6</ele><time>2026-04-26T08:34:00.997Z</time></trkpt><trkpt lat="42.78841109878629" lon="10.345697054657697"><ele>14.8</ele><time>2026-04-26T08:34:01.997Z</time></trkpt><trkpt lat="42.788321837965185" lon="10.34562506302205"><ele>15.0</ele><time>2026-04-26T08:34:02.997Z</time></trkpt><trkpt lat="42.78822472196003" lon="10.345564767999253"><ele>15.8</ele><time>2026-04-26T08:34:03.997Z</time></trkpt><trkpt lat="42.788170666636795" lon="10.345503095017323"><ele>16.6</ele><time>2026-04-26T08:34:04.997Z</time></trkpt><trkpt lat="42.78806914730744" lon="10.345433161574075"><ele>17.4</ele><time>2026-04-26T08:34:06.997Z</time></trkpt><trkpt lat="42.78795674330306" lon="10.34534657377229"><ele>18.2</ele><time>2026-04-26T08:34:08.997Z</time></trkpt><trkpt lat="42.787868871316554" lon="10.345276201781694"><ele>19.0</ele><time>2026-04-26T08:34:10.997Z</time></trkpt><trkpt lat="42.787743675061066" lon="10.345177718028857"><ele>19.6</ele><time>2026-04-26T08:34:12.997Z</time></trkpt><trkpt lat="42.78766265494352" lon="10.345106213910073"><ele>20.2</ele><time>2026-04-26T08:34:14.997Z</time></trkpt><trkpt lat="42.787593327618346" lon="10.345049727577985"><ele>20.8</ele><time>2026-04-26T08:34:16.999Z</time></trkpt><trkpt lat="42.78752854181819" lon="10.344977875239092"><ele>21.400000000000002</ele><time>2026-04-26T08:34:17.999Z</time></trkpt><trkpt lat="42.78743543500452" lon="10.344899805662083"><ele>22.0</ele><time>2026-04-26T08:34:18.999Z</time></trkpt><trkpt lat="42.78733213248843" lon="10.344813084756385"><ele>22.0</ele><time>2026-04-26T08:34:19.999Z</time></trkpt><trkpt lat="42.78721367149514" lon="10.344712955652748"><ele>22.0</ele><time>2026-04-26T08:34:20.999Z</time></trkpt><trkpt lat="42.78709107348459" lon="10.344635321002956"><ele>22.0</ele><time>2026-04-26T08:34:21.999Z</time></trkpt><trkpt lat="42.78698243508974" lon="10.344553356464035"><ele>22.0</ele><time>2026-04-26T08:34:22.999Z</time></trkpt><trkpt lat="42.786921852100505" lon="10.344467790096502"><ele>22.400000000000002</ele><time>2026-04-26T08:34:23.999Z</time></trkpt><trkpt lat="42.78687476049981" lon="10.344350737341683"><ele>22.8</ele><time>2026-04-26T08:34:25.999Z</time></trkpt><trkpt lat="42.78683917128721" lon="10.3442743894683"><ele>23.2</ele><time>2026-04-26T08:34:26.999Z</time></trkpt><trkpt lat="42.78687266816808" lon="10.34412456687716"><ele>23.6</ele><time>2026-04-26T08:34:27.999Z</time></trkpt><trkpt lat="42.786866564675904" lon="10.343947568877793"><ele>24.0</ele><time>2026-04-26T08:34:28.999Z</time></trkpt><trkpt lat="42.786860877867355" lon="10.343757587378935"><ele>24.75</ele><time>2026-04-26T08:34:29.999Z</time></trkpt><trkpt lat="42.78685596508499" lon="10.34358384338274"><ele>25.5</ele><time>2026-04-26T08:34:30.999Z</time></trkpt><trkpt lat="42.78684869437309" lon="10.343398285988348"><ele>26.25</ele><time>2026-04-26T08:34:31.999Z</time></trkpt><trkpt lat="42.786840524990545" lon="10.343243275794483"><ele>27.0</ele><time>2026-04-26T08:34:32.999Z</time></trkpt><trkpt lat="42.786831289319714" lon="10.343104186409741"><ele>28.200000000000003</ele><time>2026-04-26T08:34:33.999Z</time></trkpt><trkpt lat="42.78682270404981" lon="10.342972287725303"><ele>29.400000000000002</ele><time>2026-04-26T08:34:34.999Z</time></trkpt><trkpt lat="42.78681613034302" lon="10.342871293410107"><ele>30.599999999999998</ele><time>2026-04-26T08:34:35.999Z</time></trkpt><trkpt lat="42.786809186458896" lon="10.342764611879122"><ele>31.799999999999997</ele><time>2026-04-26T08:34:36.999Z</time></trkpt><trkpt lat="42.78680175845635" lon="10.342650494409417"><ele>33.0</ele><time>2026-04-26T08:34:37.999Z</time></trkpt><trkpt lat="42.78678914197969" lon="10.342490538820533"><ele>33.0</ele><time>2026-04-26T08:34:38.999Z</time></trkpt><trkpt lat="42.78677607129578" lon="10.342324364268974"><ele>33.0</ele><time>2026-04-26T08:34:39.999Z</time></trkpt><trkpt lat="42.78676419124222" lon="10.342173326694976"><ele>33.0</ele><time>2026-04-26T08:34:40.999Z</time></trkpt><trkpt lat="42.786754521987" lon="10.342050396278337"><ele>33.0</ele><time>2026-04-26T08:34:41.999Z</time></trkpt><trkpt lat="42.78674564850765" lon="10.341927780777358"><ele>33.0</ele><time>2026-04-26T08:34:42.999Z</time></trkpt><trkpt lat="42.78673692880522" lon="10.341802727520891"><ele>33.5</ele><time>2026-04-26T08:34:43.999Z</time></trkpt><trkpt lat="42.78672670685276" lon="10.34165612994412"><ele>34.0</ele><time>2026-04-26T08:34:44.999Z</time></trkpt><trkpt lat="42.78671676358209" lon="10.341501490736682"><ele>34.5</ele><time>2026-04-26T08:34:45.999Z</time></trkpt><trkpt lat="42.78670887560613" lon="10.341343617383497"><ele>35.0</ele><time>2026-04-26T08:34:46.999Z</time></trkpt><trkpt lat="42.78670340037788" lon="10.341191255018755"><ele>35.5</ele><time>2026-04-26T08:34:47.999Z</time></trkpt><trkpt lat="42.78669895135577" lon="10.341052311151763"><ele>36.0</ele><time>2026-04-26T08:34:48.999Z</time></trkpt><trkpt lat="42.78669617385998" lon="10.340921880064254"><ele>36.5</ele><time>2026-04-26T08:34:49.999Z</time></trkpt><trkpt lat="42.78669005505605" lon="10.340794979936698"><ele>37.0</ele><time>2026-04-26T08:34:50.999Z</time></trkpt><trkpt lat="42.786681879550365" lon="10.340698028128939"><ele>37.5</ele><time>2026-04-26T08:34:51.999Z</time></trkpt><trkpt lat="42.78664795234838" lon="10.340593420447046"><ele>38.0</ele><time>2026-04-26T08:34:53.999Z</time></trkpt><trkpt lat="42.78655460429326" lon="10.340581968071103"><ele>38.0</ele><time>2026-04-26T08:34:54.999Z</time></trkpt><trkpt lat="42.78648099341272" lon="10.340580182492836"><ele>38.0</ele><time>2026-04-26T08:34:55.999Z</time></trkpt><trkpt lat="42.78639507461755" lon="10.34056766079822"><ele>38.0</ele><time>2026-04-26T08:34:56.999Z</time></trkpt><trkpt lat="42.786305352428805" lon="10.340529053177994"><ele>38.0</ele><time>2026-04-26T08:34:57.999Z</time></trkpt><trkpt lat="42.786222532067335" lon="10.340465078062579"><ele>38.0</ele><time>2026-04-26T08:34:58.999Z</time></trkpt><trkpt lat="42.78614458257769" lon="10.34038515296051"><ele>38.0</ele><time>2026-04-26T08:34:59.999Z</time></trkpt><trkpt lat="42.786060736800096" lon="10.340282642571038"><ele>40.0</ele><time>2026-04-26T08:35:00.999Z</time></trkpt><trkpt lat="42.78598254792568" lon="10.340168953567682"><ele>42.0</ele><time>2026-04-26T08:35:01.999Z</time></trkpt><trkpt lat="42.78590749915429" lon="10.34003835073073"><ele>44.0</ele><time>2026-04-26T08:35:02.999Z</time></trkpt><trkpt lat="42.78583881384817" lon="10.339924525283543"><ele>46.0</ele><time>2026-04-26T08:35:03.999Z</time></trkpt><trkpt lat="42.785804860899006" lon="10.33984547614644"><ele>48.0</ele><time>2026-04-26T08:35:04.999Z</time></trkpt><trkpt lat="42.785793285637155" lon="10.339751129745775"><ele>48.666666666666664</ele><time>2026-04-26T08:35:06.999Z</time></trkpt><trkpt lat="42.78570852714624" lon="10.339632741034348"><ele>49.33333333333333</ele><time>2026-04-26T08:35:08.999Z</time></trkpt><trkpt lat="42.785686344199064" lon="10.33954872174076"><ele>50.0</ele><time>2026-04-26T08:35:09.998Z</time></trkpt><trkpt lat="42.785650413047634" lon="10.339470136691014"><ele>50.666666666666664</ele><time>2026-04-26T08:35:10.998Z</time></trkpt><trkpt lat="42.78561058839201" lon="10.339382622159121"><ele>51.33333333333333</ele><time>2026-04-26T08:35:11.998Z</time></trkpt><trkpt lat="42.78558164782303" lon="10.339265966930302"><ele>52.0</ele><time>2026-04-26T08:35:12.998Z</time></trkpt><trkpt lat="42.78552140103435" lon="10.33915570462374"><ele>52.0</ele><time>2026-04-26T08:35:13.998Z</time></trkpt><trkpt lat="42.78545144264115" lon="10.339062485884359"><ele>52.0</ele><time>2026-04-26T08:35:14.998Z</time></trkpt><trkpt lat="42.78537445467008" lon="10.33896185852104"><ele>52.0</ele><time>2026-04-26T08:35:15.998Z</time></trkpt><trkpt lat="42.7852925391972" lon="10.338880476725599"><ele>52.0</ele><time>2026-04-26T08:35:16.998Z</time></trkpt><trkpt lat="42.7852187426599" lon="10.338798239090055"><ele>52.0</ele><time>2026-04-26T08:35:17.998Z</time></trkpt><trkpt lat="42.785160958794535" lon="10.338711816709589"><ele>52.666666666666664</ele><time>2026-04-26T08:35:18.998Z</time></trkpt><trkpt lat="42.785099033619076" lon="10.338645522138648"><ele>53.33333333333333</ele><time>2026-04-26T08:35:19.998Z</time></trkpt><trkpt lat="42.78503161480459" lon="10.338561304592421"><ele>54.0</ele><time>2026-04-26T08:35:20.998Z</time></trkpt><trkpt lat="42.78497484487943" lon="10.338459082948946"><ele>54.66666666666667</ele><time>2026-04-26T08:35:21.998Z</time></trkpt><trkpt lat="42.7848994342416" lon="10.338384169965611"><ele>55.333333333333336</ele><time>2026-04-26T08:35:22.998Z</time></trkpt><trkpt lat="42.784842260505414" lon="10.338315271068641"><ele>56.0</ele><time>2026-04-26T08:35:23.998Z</time></trkpt><trkpt lat="42.78480350724551" lon="10.338219803376798"><ele>56.00000000000001</ele><time>2026-04-26T08:35:24.998Z</time></trkpt><trkpt lat="42.78478499871741" lon="10.338131684306832"><ele>56.0</ele><time>2026-04-26T08:35:25.998Z</time></trkpt><trkpt lat="42.78477912800713" lon="10.338031216626405"><ele>56.0</ele><time>2026-04-26T08:35:26.998Z</time></trkpt><trkpt lat="42.78475481739773" lon="10.337901612656653"><ele>56.0</ele><time>2026-04-26T08:35:27.998Z</time></trkpt><trkpt lat="42.784721382069435" lon="10.337778900101682"><ele>56.00000000000001</ele><time>2026-04-26T08:35:28.998Z</time></trkpt><trkpt lat="42.78471723052791" lon="10.337651695556795"><ele>56.0</ele><time>2026-04-26T08:35:29.998Z</time></trkpt><trkpt lat="42.78470231860068" lon="10.337536252332562"><ele>57.16666666666667</ele><time>2026-04-26T08:35:30.998Z</time></trkpt><trkpt lat="42.784687615237644" lon="10.337413180093387"><ele>58.333333333333336</ele><time>2026-04-26T08:35:31.998Z</time></trkpt><trkpt lat="42.78467763021799" lon="10.33731171700415"><ele>59.5</ele><time>2026-04-26T08:35:32.998Z</time></trkpt><trkpt lat="42.784672939172054" lon="10.337222369155123"><ele>60.66666666666667</ele><time>2026-04-26T08:35:33.998Z</time></trkpt><trkpt lat="42.78467575320925" lon="10.337133354905394"><ele>61.833333333333336</ele><time>2026-04-26T08:35:34.998Z</time></trkpt><trkpt lat="42.784681591774486" lon="10.336970309775154"><ele>63.0</ele><time>2026-04-26T08:35:36.998Z</time></trkpt><trkpt lat="42.78480633349599" lon="10.336940117536356"><ele>63.0</ele><time>2026-04-26T08:35:38.998Z</time></trkpt><trkpt lat="42.78490616796179" lon="10.336976292430712"><ele>63.0</ele><time>2026-04-26T08:35:40.998Z</time></trkpt><trkpt lat="42.78499518462266" lon="10.337161643636934"><ele>63.0</ele><time>2026-04-26T08:35:42.998Z</time></trkpt><trkpt lat="42.78505028006924" lon="10.337270062578625"><ele>63.0</ele><time>2026-04-26T08:35:43.998Z</time></trkpt><trkpt lat="42.78513200009924" lon="10.337304234840605"><ele>63.0</ele><time>2026-04-26T08:35:45.998Z</time></trkpt><trkpt lat="42.78522431728461" lon="10.337319304949759"><ele>64.33333333333333</ele><time>2026-04-26T08:35:46.998Z</time></trkpt><trkpt lat="42.78531323345908" lon="10.337330341703778"><ele>65.66666666666667</ele><time>2026-04-26T08:35:47.998Z</time></trkpt><trkpt lat="42.785399639982174" lon="10.337358630970698"><ele>67.0</ele><time>2026-04-26T08:35:48.998Z</time></trkpt><trkpt lat="42.785485325107324" lon="10.33735054032651"><ele>68.33333333333334</ele><time>2026-04-26T08:35:49.998Z</time></trkpt><trkpt lat="42.78556517625847" lon="10.337361785846703"><ele>69.66666666666667</ele><time>2026-04-26T08:35:50.998Z</time></trkpt><trkpt lat="42.78563655150287" lon="10.337377736756528"><ele>71.0</ele><time>2026-04-26T08:35:51.998Z</time></trkpt><trkpt lat="42.78569035621646" lon="10.337423502602093"><ele>71.0</ele><time>2026-04-26T08:35:52.998Z</time></trkpt><trkpt lat="42.78575326539402" lon="10.337504855204717"><ele>71.0</ele><time>2026-04-26T08:35:54.998Z</time></trkpt><trkpt lat="42.78574655613912" lon="10.337607230538955"><ele>71.0</ele><time>2026-04-26T08:35:55.998Z</time></trkpt><trkpt lat="42.785767598108315" lon="10.337707915725229"><ele>71.0</ele><time>2026-04-26T08:35:56.997Z</time></trkpt><trkpt lat="42.78576679576536" lon="10.337809716450339"><ele>71.0</ele><time>2026-04-26T08:35:57.997Z</time></trkpt><trkpt lat="42.7857737153458" lon="10.33790808065836"><ele>71.0</ele><time>2026-04-26T08:35:58.997Z</time></trkpt><trkpt lat="42.785812306813014" lon="10.337979148578833"><ele>71.0</ele><time>2026-04-26T08:35:59.997Z</time></trkpt><trkpt lat="42.785879446155704" lon="10.338038682314792"><ele>71.0</ele><time>2026-04-26T08:36:00.997Z</time></trkpt><trkpt lat="42.78595827908514" lon="10.338054917521115"><ele>71.0</ele><time>2026-04-26T08:36:01.997Z</time></trkpt><trkpt lat="42.7860414351215" lon="10.338027526380225"><ele>71.0</ele><time>2026-04-26T08:36:02.997Z</time></trkpt><trkpt lat="42.78611496825718" lon="10.337981352616797"><ele>71.0</ele><time>2026-04-26T08:36:03.997Z</time></trkpt><trkpt lat="42.786192134706326" lon="10.33786943601943"><ele>71.0</ele><time>2026-04-26T08:36:05.997Z</time></trkpt><trkpt lat="42.78620954786852" lon="10.337759627180239"><ele>70.66666666666667</ele><time>2026-04-26T08:36:06.997Z</time></trkpt><trkpt lat="42.78622666785159" lon="10.337667424259953"><ele>70.33333333333334</ele><time>2026-04-26T08:36:07.997Z</time></trkpt><trkpt lat="42.78623395587248" lon="10.337575652929631"><ele>70.0</ele><time>2026-04-26T08:36:08.997Z</time></trkpt><trkpt lat="42.7862645688984" lon="10.337459230744502"><ele>69.66666666666667</ele><time>2026-04-26T08:36:10.997Z</time></trkpt><trkpt lat="42.78628048026454" lon="10.337356927218366"><ele>69.33333333333333</ele><time>2026-04-26T08:36:13.997Z</time></trkpt><trkpt lat="42.786280976588614" lon="10.337247628233316"><ele>69.0</ele><time>2026-04-26T08:36:14.997Z</time></trkpt><trkpt lat="42.786289436676206" lon="10.33712157183824"><ele>69.0</ele><time>2026-04-26T08:36:15.997Z</time></trkpt><trkpt lat="42.78630125136502" lon="10.336986224328003"><ele>69.0</ele><time>2026-04-26T08:36:16.997Z</time></trkpt><trkpt lat="42.78628162871518" lon="10.336877107596832"><ele>69.0</ele><time>2026-04-26T08:36:17.997Z</time></trkpt><trkpt lat="42.78629348351651" lon="10.336781170120208"><ele>69.0</ele><time>2026-04-26T08:36:18.997Z</time></trkpt><trkpt lat="42.78630362988255" lon="10.336654787697293"><ele>69.0</ele><time>2026-04-26T08:36:20.997Z</time></trkpt><trkpt lat="42.78631918617031" lon="10.336496522723484"><ele>70.2</ele><time>2026-04-26T08:36:22.999Z</time></trkpt><trkpt lat="42.78639251682352" lon="10.3363695294716"><ele>71.4</ele><time>2026-04-26T08:36:24.999Z</time></trkpt><trkpt lat="42.78642092266546" lon="10.336278715703665"><ele>72.6</ele><time>2026-04-26T08:36:25.999Z</time></trkpt><trkpt lat="42.786436143816104" lon="10.336179176288184"><ele>73.8</ele><time>2026-04-26T08:36:26.999Z</time></trkpt><trkpt lat="42.78642488264514" lon="10.336015495597483"><ele>75.0</ele><time>2026-04-26T08:36:28.999Z</time></trkpt><trkpt lat="42.786400460195914" lon="10.335918538893559"><ele>74.99999999999999</ele><time>2026-04-26T08:36:29.999Z</time></trkpt><trkpt lat="42.78637607049554" lon="10.335831870373301"><ele>75.0</ele><time>2026-04-26T08:36:30.999Z</time></trkpt><trkpt lat="42.78634716515972" lon="10.335748238814658"><ele>75.0</ele><time>2026-04-26T08:36:31.999Z</time></trkpt><trkpt lat="42.78630960302162" lon="10.335644811958172"><ele>75.0</ele><time>2026-04-26T08:36:32.999Z</time></trkpt><trkpt lat="42.78627837256886" lon="10.335561534905922"><ele>75.0</ele><time>2026-04-26T08:36:33.999Z</time></trkpt><trkpt lat="42.78624062515978" lon="10.335476250918285"><ele>74.99999999999999</ele><time>2026-04-26T08:36:35.999Z</time></trkpt><trkpt lat="42.78621340216926" lon="10.335388289160198"><ele>75.0</ele><time>2026-04-26T08:36:37.999Z</time></trkpt><trkpt lat="42.786169694935865" lon="10.335311800757834"><ele>75.0</ele><time>2026-04-26T08:36:38.999Z</time></trkpt><trkpt lat="42.786148618822466" lon="10.335215542175627"><ele>75.0</ele><time>2026-04-26T08:36:39.999Z</time></trkpt><trkpt lat="42.786114579206696" lon="10.335124774346182"><ele>75.0</ele><time>2026-04-26T08:36:40.999Z</time></trkpt><trkpt lat="42.786061059187745" lon="10.335030073465674"><ele>75.0</ele><time>2026-04-26T08:36:41.999Z</time></trkpt><trkpt lat="42.78603667641226" lon="10.334906528961806"><ele>75.0</ele><time>2026-04-26T08:36:42.999Z</time></trkpt><trkpt lat="42.78600078640579" lon="10.33480117855624"><ele>75.0</ele><time>2026-04-26T08:36:43.999Z</time></trkpt><trkpt lat="42.78596865660003" lon="10.334698715704748"><ele>79.0</ele><time>2026-04-26T08:36:44.999Z</time></trkpt><trkpt lat="42.78593738208649" lon="10.334588925567454"><ele>83.0</ele><time>2026-04-26T08:36:45.999Z</time></trkpt><trkpt lat="42.785911547570954" lon="10.334492803031324"><ele>87.0</ele><time>2026-04-26T08:36:46.999Z</time></trkpt><trkpt lat="42.785872033719066" lon="10.3344088707896"><ele>91.0</ele><time>2026-04-26T08:36:47.999Z</time></trkpt><trkpt lat="42.785863284566155" lon="10.334306603144325"><ele>95.0</ele><time>2026-04-26T08:36:48.999Z</time></trkpt><trkpt lat="42.78583898860411" lon="10.334212370934367"><ele>99.0</ele><time>2026-04-26T08:36:49.999Z</time></trkpt><trkpt lat="42.785816557307" lon="10.33412537100029"><ele>99.0</ele><time>2026-04-26T08:36:50.999Z</time></trkpt><trkpt lat="42.78578683471609" lon="10.334006261336452"><ele>99.0</ele><time>2026-04-26T08:36:51.999Z</time></trkpt><trkpt lat="42.785754120083645" lon="10.333907568903944"><ele>99.0</ele><time>2026-04-26T08:36:52.999Z</time></trkpt><trkpt lat="42.78571245198811" lon="10.333823470458004"><ele>99.0</ele><time>2026-04-26T08:36:53.999Z</time></trkpt><trkpt lat="42.78567025549871" lon="10.333747430816418"><ele>99.0</ele><time>2026-04-26T08:36:54.999Z</time></trkpt><trkpt lat="42.78563036823126" lon="10.333678736225124"><ele>99.0</ele><time>2026-04-26T08:36:55.999Z</time></trkpt><trkpt lat="42.78556655226029" lon="10.333580957373542"><ele>98.80000000000001</ele><time>2026-04-26T08:36:57.999Z</time></trkpt><trkpt lat="42.78552594152523" lon="10.333514830776137"><ele>98.60000000000001</ele><time>2026-04-26T08:36:58.999Z</time></trkpt><trkpt lat="42.785457690269986" lon="10.333385675136917"><ele>98.4</ele><time>2026-04-26T08:37:00.999Z</time></trkpt><trkpt lat="42.78541376542234" lon="10.333265100212206"><ele>98.2</ele><time>2026-04-26T08:37:02.999Z</time></trkpt><trkpt lat="42.78536704524835" lon="10.333164241669092"><ele>98.0</ele><time>2026-04-26T08:37:04.999Z</time></trkpt><trkpt lat="42.78533825963125" lon="10.333022526319766"><ele>100.2</ele><time>2026-04-26T08:37:06.999Z</time></trkpt><trkpt lat="42.78531422607975" lon="10.332917333949949"><ele>102.4</ele><time>2026-04-26T08:37:07.999Z</time></trkpt><trkpt lat="42.78529638389464" lon="10.332827014092244"><ele>104.60000000000001</ele><time>2026-04-26T08:37:08.999Z</time></trkpt><trkpt lat="42.78524735916656" lon="10.332684103273118"><ele>106.80000000000001</ele><time>2026-04-26T08:37:10.999Z</time></trkpt><trkpt lat="42.78522147397625" lon="10.332541493220184"><ele>109.0</ele><time>2026-04-26T08:37:12.999Z</time></trkpt><trkpt lat="42.78520271099384" lon="10.332421225437994"><ele>110.6</ele><time>2026-04-26T08:37:14.999Z</time></trkpt><trkpt lat="42.78517819842202" lon="10.332276344931739"><ele>112.2</ele><time>2026-04-26T08:37:16.999Z</time></trkpt><trkpt lat="42.7851710272898" lon="10.332159687805758"><ele>113.79999999999998</ele><time>2026-04-26T08:37:18.999Z</time></trkpt><trkpt lat="42.78519618389987" lon="10.332022947315979"><ele>115.39999999999999</ele><time>2026-04-26T08:37:20.999Z</time></trkpt><trkpt lat="42.78523062200734" lon="10.331905520627886"><ele>117.0</ele><time>2026-04-26T08:37:22.999Z</time></trkpt><trkpt lat="42.785273791444716" lon="10.331829930477822"><ele>117.33333333333333</ele><time>2026-04-26T08:37:24.999Z</time></trkpt><trkpt lat="42.78533819389578" lon="10.331788727645721"><ele>117.66666666666666</ele><time>2026-04-26T08:37:26.998Z</time></trkpt><trkpt lat="42.785410490225026" lon="10.331830140341733"><ele>118.0</ele><time>2026-04-26T08:37:29.998Z</time></trkpt><trkpt lat="42.78547464071285" lon="10.331872103988324"><ele>118.33333333333333</ele><time>2026-04-26T08:37:31.998Z</time></trkpt><trkpt lat="42.78555521149385" lon="10.331957288211099"><ele>118.66666666666666</ele><time>2026-04-26T08:37:33.998Z</time></trkpt><trkpt lat="42.78564090306611" lon="10.33204910388904"><ele>119.0</ele><time>2026-04-26T08:37:35.998Z</time></trkpt><trkpt lat="42.78572269300787" lon="10.33213441880002"><ele>119.0</ele><time>2026-04-26T08:37:37.998Z</time></trkpt><trkpt lat="42.785798562733845" lon="10.332198310935654"><ele>119.0</ele><time>2026-04-26T08:37:39.998Z</time></trkpt><trkpt lat="42.78589146510475" lon="10.332296997545699"><ele>119.0</ele><time>2026-04-26T08:37:41.998Z</time></trkpt><trkpt lat="42.785950114839565" lon="10.332389517126398"><ele>119.0</ele><time>2026-04-26T08:37:43.998Z</time></trkpt><trkpt lat="42.78598654548005" lon="10.33250032489045"><ele>119.0</ele><time>2026-04-26T08:38:41Z</time></trkpt><trkpt lat="42.78602899647009" lon="10.332630921061382"><ele>119.49999999999999</ele><time>2026-04-26T08:38:44Z</time></trkpt><trkpt lat="42.786113772725535" lon="10.3327487337579"><ele>120.0</ele><time>2026-04-26T08:38:46Z</time></trkpt><trkpt lat="42.786168266746984" lon="10.332792410978564"><ele>120.5</ele><time>2026-04-26T08:38:47Z</time></trkpt><trkpt lat="42.786231929432766" lon="10.332798759973524"><ele>121.0</ele><time>2026-04-26T08:38:48Z</time></trkpt><trkpt lat="42.78635864249571" lon="10.332830444875672"><ele>121.49999999999999</ele><time>2026-04-26T08:38:50Z</time></trkpt><trkpt lat="42.7864269664865" lon="10.332859417759407"><ele>122.0</ele><time>2026-04-26T08:38:51Z</time></trkpt><trkpt lat="42.786504754385746" lon="10.332869638066967"><ele>122.0</ele><time>2026-04-26T08:38:52Z</time></trkpt><trkpt lat="42.78659066872298" lon="10.332867659286551"><ele>121.99999999999999</ele><time>2026-04-26T08:38:53Z</time></trkpt><trkpt lat="42.78667589824911" lon="10.332853515681572"><ele>121.99999999999999</ele><time>2026-04-26T08:38:54Z</time></trkpt><trkpt lat="42.786751373150224" lon="10.332856582625576"><ele>122.0</ele><time>2026-04-26T08:38:55Z</time></trkpt><trkpt lat="42.78689594432246" lon="10.332878648629297"><ele>122.0</ele><time>2026-04-26T08:38:56.999Z</time></trkpt><trkpt lat="42.78698735743886" lon="10.332884005815266"><ele>121.83333333333333</ele><time>2026-04-26T08:38:57.999Z</time></trkpt><trkpt lat="42.78707454510786" lon="10.332886863665914"><ele>121.66666666666666</ele><time>2026-04-26T08:38:58.999Z</time></trkpt><trkpt lat="42.787153865606655" lon="10.332885450155242"><ele>121.5</ele><time>2026-04-26T08:38:59.999Z</time></trkpt><trkpt lat="42.787228034388605" lon="10.332894346001016"><ele>121.33333333333334</ele><time>2026-04-26T08:39:00.999Z</time></trkpt><trkpt lat="42.787294263718614" lon="10.332904713126487"><ele>121.16666666666667</ele><time>2026-04-26T08:39:01.999Z</time></trkpt><trkpt lat="42.78740900708989" lon="10.332873642719184"><ele>121.0</ele><time>2026-04-26T08:39:03.999Z</time></trkpt><trkpt lat="42.78749926539378" lon="10.332768222367141"><ele>121.0</ele><time>2026-04-26T08:39:05.999Z</time></trkpt><trkpt lat="42.78753712586046" lon="10.332679477680133"><ele>121.0</ele><time>2026-04-26T08:39:06.999Z</time></trkpt><trkpt lat="42.78757771167931" lon="10.33260381794715"><ele>121.0</ele><time>2026-04-26T08:39:07.999Z</time></trkpt><trkpt lat="42.78765006973121" lon="10.33246955175047"><ele>121.0</ele><time>2026-04-26T08:39:09.999Z</time></trkpt><trkpt lat="42.7877300499455" lon="10.332409809281334"><ele>121.0</ele><time>2026-04-26T08:39:11.999Z</time></trkpt><trkpt lat="42.78784768489132" lon="10.332393688153903"><ele>119.19999999999999</ele><time>2026-04-26T08:39:13.999Z</time></trkpt><trkpt lat="42.7879405430587" lon="10.332427059828674"><ele>117.39999999999999</ele><time>2026-04-26T08:39:15.999Z</time></trkpt><trkpt lat="42.78801204332261" lon="10.33248545675106"><ele>115.6</ele><time>2026-04-26T08:39:17.999Z</time></trkpt><trkpt lat="42.78808104177916" lon="10.33250699835253"><ele>113.8</ele><time>2026-04-26T08:39:18.999Z</time></trkpt><trkpt lat="42.78819276014971" lon="10.33246141132366"><ele>112.0</ele><time>2026-04-26T08:39:20.999Z</time></trkpt><trkpt lat="42.788257905886965" lon="10.332379657861049"><ele>112.0</ele><time>2026-04-26T08:39:22.999Z</time></trkpt><trkpt lat="42.78833356909188" lon="10.332277405737935"><ele>111.99999999999999</ele><time>2026-04-26T08:39:24.999Z</time></trkpt><trkpt lat="42.78839538001952" lon="10.332155044192804"><ele>111.99999999999999</ele><time>2026-04-26T08:39:26.999Z</time></trkpt><trkpt lat="42.78845317958766" lon="10.332031464921629"><ele>112.0</ele><time>2026-04-26T08:39:28.999Z</time></trkpt><trkpt lat="42.78846142205573" lon="10.33191520906882"><ele>112.0</ele><time>2026-04-26T08:39:30.999Z</time></trkpt><trkpt lat="42.7884308649298" lon="10.331805160616602"><ele>114.6</ele><time>2026-04-26T08:39:32.999Z</time></trkpt><trkpt lat="42.78840309922929" lon="10.331615482206285"><ele>117.19999999999999</ele><time>2026-04-26T08:39:34.999Z</time></trkpt><trkpt lat="42.78837231331877" lon="10.33150421684089"><ele>119.8</ele><time>2026-04-26T08:39:35.999Z</time></trkpt><trkpt lat="42.788332834315376" lon="10.331399332074243"><ele>122.4</ele><time>2026-04-26T08:39:36.999Z</time></trkpt><trkpt lat="42.78830010562219" lon="10.331280092535073"><ele>125.0</ele><time>2026-04-26T08:39:37.999Z</time></trkpt><trkpt lat="42.78827307040576" lon="10.331169603638562"><ele>125.33333333333333</ele><time>2026-04-26T08:39:38.999Z</time></trkpt><trkpt lat="42.78824105668073" lon="10.331072684171394"><ele>125.66666666666666</ele><time>2026-04-26T08:39:39.999Z</time></trkpt><trkpt lat="42.78821604737568" lon="10.330973133957976"><ele>126.0</ele><time>2026-04-26T08:39:40.999Z</time></trkpt><trkpt lat="42.788186884628225" lon="10.330886449735324"><ele>126.33333333333334</ele><time>2026-04-26T08:39:41.999Z</time></trkpt><trkpt lat="42.78815413721871" lon="10.330788896986133"><ele>126.66666666666667</ele><time>2026-04-26T08:39:42.998Z</time></trkpt><trkpt lat="42.78812711443002" lon="10.330703911678043"><ele>127.0</ele><time>2026-04-26T08:39:43.998Z</time></trkpt><trkpt lat="42.788128802518635" lon="10.330556002604762"><ele>127.66666666666667</ele><time>2026-04-26T08:39:45.998Z</time></trkpt><trkpt lat="42.78813706453098" lon="10.330463955482895"><ele>128.33333333333334</ele><time>2026-04-26T08:39:46.998Z</time></trkpt><trkpt lat="42.7881646808141" lon="10.330376263077794"><ele>129.0</ele><time>2026-04-26T08:39:47.998Z</time></trkpt><trkpt lat="42.7882457231484" lon="10.330336541560502"><ele>129.66666666666666</ele><time>2026-04-26T08:39:48.998Z</time></trkpt><trkpt lat="42.78828152530014" lon="10.330245338739395"><ele>130.33333333333331</ele><time>2026-04-26T08:39:49.998Z</time></trkpt><trkpt lat="42.788300785595574" lon="10.330125575873126"><ele>131.0</ele><time>2026-04-26T08:39:50.998Z</time></trkpt><trkpt lat="42.78832397517197" lon="10.330001758856842"><ele>131.0</ele><time>2026-04-26T08:39:51.998Z</time></trkpt><trkpt lat="42.788344402715715" lon="10.32986301849995"><ele>131.0</ele><time>2026-04-26T08:39:52.998Z</time></trkpt><trkpt lat="42.78835484977347" lon="10.329721760262073"><ele>131.0</ele><time>2026-04-26T08:39:53.998Z</time></trkpt><trkpt lat="42.78836196544339" lon="10.329577790294268"><ele>131.0</ele><time>2026-04-26T08:39:54.998Z</time></trkpt><trkpt lat="42.78839599107878" lon="10.32944209088368"><ele>131.0</ele><time>2026-04-26T08:39:55.998Z</time></trkpt><trkpt lat="42.78842044721873" lon="10.32931915807786"><ele>130.33333333333331</ele><time>2026-04-26T08:39:56.998Z</time></trkpt><trkpt lat="42.78845046141091" lon="10.32920968020563"><ele>129.66666666666666</ele><time>2026-04-26T08:39:57.998Z</time></trkpt><trkpt lat="42.788479853871614" lon="10.329126393046405"><ele>129.0</ele><time>2026-04-26T08:39:58.998Z</time></trkpt><trkpt lat="42.788522959331345" lon="10.329060564910998"><ele>128.33333333333334</ele><time>2026-04-26T08:39:59.998Z</time></trkpt><trkpt lat="42.788577704245775" lon="10.32897475841518"><ele>127.66666666666667</ele><time>2026-04-26T08:40:00.998Z</time></trkpt><trkpt lat="42.788639757817315" lon="10.328907900720951"><ele>127.0</ele><time>2026-04-26T08:40:01.998Z</time></trkpt><trkpt lat="42.788710414794544" lon="10.328858194078114"><ele>127.0</ele><time>2026-04-26T08:40:02.998Z</time></trkpt><trkpt lat="42.78877766702919" lon="10.328783715521729"><ele>126.99999999999999</ele><time>2026-04-26T08:40:03.998Z</time></trkpt><trkpt lat="42.788845265303486" lon="10.32870737795191"><ele>126.99999999999999</ele><time>2026-04-26T08:40:05.998Z</time></trkpt><trkpt lat="42.78889946085747" lon="10.328642496849708"><ele>127.0</ele><time>2026-04-26T08:40:08.998Z</time></trkpt><trkpt lat="42.7887625267544" lon="10.328594661530659"><ele>127.0</ele><time>2026-04-26T08:40:10.998Z</time></trkpt><trkpt lat="42.788650053054766" lon="10.328676464799724"><ele>127.0</ele><time>2026-04-26T08:40:12.998Z</time></trkpt><trkpt lat="42.788554235902076" lon="10.328751393382348"><ele>126.99999999999999</ele><time>2026-04-26T08:40:14.998Z</time></trkpt><trkpt lat="42.78846992267203" lon="10.328750762259123"><ele>126.99999999999999</ele><time>2026-04-26T08:40:15.998Z</time></trkpt><trkpt lat="42.788390591384434" lon="10.328799951465982"><ele>127.0</ele><time>2026-04-26T08:40:16.998Z</time></trkpt><trkpt lat="42.78831662771801" lon="10.328861826974844"><ele>127.0</ele><time>2026-04-26T08:40:17.998Z</time></trkpt><trkpt lat="42.788228738257324" lon="10.328909421127696"><ele>128.5</ele><time>2026-04-26T08:40:18.998Z</time></trkpt><trkpt lat="42.78814132481492" lon="10.328970289633205"><ele>130.0</ele><time>2026-04-26T08:40:19.998Z</time></trkpt><trkpt lat="42.788062188341634" lon="10.329019451223164"><ele>131.5</ele><time>2026-04-26T08:40:20.998Z</time></trkpt><trkpt lat="42.78799992096403" lon="10.32909243448873"><ele>133.0</ele><time>2026-04-26T08:40:21.998Z</time></trkpt><trkpt lat="42.787940139329706" lon="10.329143148796371"><ele>134.5</ele><time>2026-04-26T08:40:22.998Z</time></trkpt><trkpt lat="42.78788380903041" lon="10.329192835012575"><ele>136.0</ele><time>2026-04-26T08:40:23.998Z</time></trkpt><trkpt lat="42.78780766947373" lon="10.329290908178548"><ele>136.0</ele><time>2026-04-26T08:40:25.998Z</time></trkpt><trkpt lat="42.78774508287439" lon="10.32931875457442"><ele>136.0</ele><time>2026-04-26T08:40:26.998Z</time></trkpt><trkpt lat="42.78765436117286" lon="10.329322128864776"><ele>136.0</ele><time>2026-04-26T08:40:27.998Z</time></trkpt><trkpt lat="42.78757325185568" lon="10.329346273286387"><ele>136.0</ele><time>2026-04-26T08:40:28.998Z</time></trkpt><trkpt lat="42.787499495042226" lon="10.329368229143048"><ele>136.0</ele><time>2026-04-26T08:40:29.998Z</time></trkpt><trkpt lat="42.787418731468605" lon="10.32940730774396"><ele>136.0</ele><time>2026-04-26T08:40:30.997Z</time></trkpt><trkpt lat="42.78731855803738" lon="10.329434699502507"><ele>139.0</ele><time>2026-04-26T08:40:31.997Z</time></trkpt><trkpt lat="42.78722309769687" lon="10.329461715165076"><ele>142.0</ele><time>2026-04-26T08:40:32.997Z</time></trkpt><trkpt lat="42.78712231605042" lon="10.329474123914975"><ele>145.0</ele><time>2026-04-26T08:40:34Z</time></trkpt><trkpt lat="42.78703828838966" lon="10.329509077978525"><ele>148.0</ele><time>2026-04-26T08:40:35Z</time></trkpt><trkpt lat="42.78695494649074" lon="10.329544676433349"><ele>151.0</ele><time>2026-04-26T08:40:36Z</time></trkpt><trkpt lat="42.78688258978989" lon="10.329562658261711"><ele>154.0</ele><time>2026-04-26T08:40:37Z</time></trkpt><trkpt lat="42.786818753432975" lon="10.32957332223647"><ele>157.0</ele><time>2026-04-26T08:40:38Z</time></trkpt><trkpt lat="42.786724521279176" lon="10.329503935620396"><ele>160.0</ele><time>2026-04-26T08:40:40Z</time></trkpt><trkpt lat="42.78671529788893" lon="10.329409442878255"><ele>163.0</ele><time>2026-04-26T08:40:41Z</time></trkpt><trkpt lat="42.786703544206325" lon="10.32923406037324"><ele>166.0</ele><time>2026-04-26T08:40:43Z</time></trkpt><trkpt lat="42.786627394074074" lon="10.329078999431637"><ele>169.0</ele><time>2026-04-26T08:40:45Z</time></trkpt><trkpt lat="42.786601329389626" lon="10.328972760989013"><ele>169.0</ele><time>2026-04-26T08:40:46Z</time></trkpt><trkpt lat="42.78651824228042" lon="10.328921919654189"><ele>169.0</ele><time>2026-04-26T08:40:47Z</time></trkpt><trkpt lat="42.7864405852453" lon="10.328875549025945"><ele>169.0</ele><time>2026-04-26T08:40:48Z</time></trkpt><trkpt lat="42.786350869648814" lon="10.328826213378223"><ele>169.0</ele><time>2026-04-26T08:40:49Z</time></trkpt><trkpt lat="42.78626274756337" lon="10.328756558604152"><ele>169.0</ele><time>2026-04-26T08:40:50Z</time></trkpt><trkpt lat="42.786174128874926" lon="10.328669253735425"><ele>168.83333333333334</ele><time>2026-04-26T08:40:51Z</time></trkpt><trkpt lat="42.78608961609615" lon="10.328589582830832"><ele>168.66666666666669</ele><time>2026-04-26T08:40:52Z</time></trkpt><trkpt lat="42.786011482113935" lon="10.328515925351125"><ele>168.5</ele><time>2026-04-26T08:40:53Z</time></trkpt><trkpt lat="42.78593866444956" lon="10.328448889493828"><ele>168.33333333333334</ele><time>2026-04-26T08:40:54Z</time></trkpt><trkpt lat="42.78587230576946" lon="10.328391148607473"><ele>168.16666666666666</ele><time>2026-04-26T08:40:55Z</time></trkpt><trkpt lat="42.785814536960466" lon="10.328344268314389"><ele>168.0</ele><time>2026-04-26T08:40:56Z</time></trkpt><trkpt lat="42.78574650990659" lon="10.328288840779237"><ele>169.5</ele><time>2026-04-26T08:40:57Z</time></trkpt><trkpt lat="42.785675339762115" lon="10.328259595975517"><ele>171.0</ele><time>2026-04-26T08:40:58Z</time></trkpt><trkpt lat="42.78561379832238" lon="10.328240719307793"><ele>172.5</ele><time>2026-04-26T08:40:59Z</time></trkpt><trkpt lat="42.785498213948735" lon="10.328192517800435"><ele>174.0</ele><time>2026-04-26T08:41:01Z</time></trkpt><trkpt lat="42.785412051611125" lon="10.328134373862834"><ele>175.5</ele><time>2026-04-26T08:41:02Z</time></trkpt><trkpt lat="42.785331890052596" lon="10.328105363577581"><ele>177.0</ele><time>2026-04-26T08:41:03Z</time></trkpt><trkpt lat="42.78526599568628" lon="10.328079375500227"><ele>178.83333333333334</ele><time>2026-04-26T08:41:04Z</time></trkpt><trkpt lat="42.78516016042814" lon="10.32806642666954"><ele>180.66666666666666</ele><time>2026-04-26T08:41:06Z</time></trkpt><trkpt lat="42.785061554979315" lon="10.328112280382708"><ele>182.5</ele><time>2026-04-26T08:41:08Z</time></trkpt><trkpt lat="42.78500355098946" lon="10.328172672122207"><ele>184.33333333333331</ele><time>2026-04-26T08:41:10Z</time></trkpt><trkpt lat="42.7849400929016" lon="10.328186731276684"><ele>186.16666666666666</ele><time>2026-04-26T08:41:11.999Z</time></trkpt><trkpt lat="42.784873350486826" lon="10.328227803430654"><ele>188.0</ele><time>2026-04-26T08:41:13.999Z</time></trkpt><trkpt lat="42.784779236996336" lon="10.328265015301591"><ele>188.0</ele><time>2026-04-26T08:41:15.999Z</time></trkpt><trkpt lat="42.78470492622597" lon="10.32827044592303"><ele>188.0</ele><time>2026-04-26T08:41:16.999Z</time></trkpt><trkpt lat="42.78460445438803" lon="10.328253773025097"><ele>188.0</ele><time>2026-04-26T08:41:17.999Z</time></trkpt><trkpt lat="42.784516915524726" lon="10.328242807613616"><ele>188.0</ele><time>2026-04-26T08:41:18.999Z</time></trkpt><trkpt lat="42.78444211055974" lon="10.328226531446346"><ele>188.0</ele><time>2026-04-26T08:41:19.999Z</time></trkpt><trkpt lat="42.78437510841428" lon="10.32821676639028"><ele>188.0</ele><time>2026-04-26T08:41:20.999Z</time></trkpt><trkpt lat="42.78425753412913" lon="10.328204415153467"><ele>189.16666666666666</ele><time>2026-04-26T08:41:22.999Z</time></trkpt><trkpt lat="42.784189728492514" lon="10.328185846536526"><ele>190.33333333333331</ele><time>2026-04-26T08:41:24.999Z</time></trkpt><trkpt lat="42.784152170305354" lon="10.328081263689105"><ele>191.5</ele><time>2026-04-26T08:41:27.999Z</time></trkpt><trkpt lat="42.784234415906894" lon="10.328048360606475"><ele>192.66666666666666</ele><time>2026-04-26T08:41:32.999Z</time></trkpt><trkpt lat="42.7843215324204" lon="10.328025847630006"><ele>193.83333333333334</ele><time>2026-04-26T08:41:34.999Z</time></trkpt><trkpt lat="42.78440976561337" lon="10.327998388738818"><ele>195.0</ele><time>2026-04-26T08:41:36.999Z</time></trkpt><trkpt lat="42.7844668420781" lon="10.32796104856996"><ele>195.2</ele><time>2026-04-26T08:42:07.998Z</time></trkpt><trkpt lat="42.78455063445549" lon="10.327894725699315"><ele>195.4</ele><time>2026-04-26T08:42:09.998Z</time></trkpt><trkpt lat="42.78460567242756" lon="10.327802132696755"><ele>195.60000000000002</ele><time>2026-04-26T08:42:11.998Z</time></trkpt><trkpt lat="42.78461229595395" lon="10.327671352155322"><ele>195.8</ele><time>2026-04-26T08:42:13.998Z</time></trkpt><trkpt lat="42.784599268061925" lon="10.327536057478678"><ele>196.0</ele><time>2026-04-26T08:42:15.998Z</time></trkpt><trkpt lat="42.784592462455" lon="10.32742051807784"><ele>195.99999999999997</ele><time>2026-04-26T08:42:17.998Z</time></trkpt><trkpt lat="42.784552805643784" lon="10.327321451800549"><ele>196.0</ele><time>2026-04-26T08:42:20.998Z</time></trkpt><trkpt lat="42.784489775897406" lon="10.327332529817886"><ele>196.0</ele><time>2026-04-26T08:44:06.998Z</time></trkpt><trkpt lat="42.784479786745784" lon="10.327434796180462"><ele>196.0</ele><time>2026-04-26T08:44:13.998Z</time></trkpt><trkpt lat="42.784594877803606" lon="10.32747563095693"><ele>195.99999999999997</ele><time>2026-04-26T08:44:32.998Z</time></trkpt><trkpt lat="42.78460655616407" lon="10.327567749674236"><ele>196.0</ele><time>2026-04-26T08:44:39.998Z</time></trkpt><trkpt lat="42.784604450208334" lon="10.327746443523628"><ele>196.0</ele><time>2026-04-26T08:44:41.998Z</time></trkpt><trkpt lat="42.78452151995201" lon="10.32788590994391"><ele>196.0</ele><time>2026-04-26T08:44:43.998Z</time></trkpt><trkpt lat="42.7844368667777" lon="10.327940605393238"><ele>196.0</ele><time>2026-04-26T08:44:46Z</time></trkpt><trkpt lat="42.78431420546366" lon="10.32766805450485"><ele>199.0</ele><time>2026-04-26T08:50:36.999Z</time></trkpt><trkpt lat="42.78425552747859" lon="10.32762910922061"><ele>202.0</ele><time>2026-04-26T08:50:43.998Z</time></trkpt><trkpt lat="42.78418326535706" lon="10.327577665715514"><ele>205.0</ele><time>2026-04-26T08:50:45.998Z</time></trkpt><trkpt lat="42.784121426619656" lon="10.327541443257934"><ele>208.0</ele><time>2026-04-26T08:50:47.998Z</time></trkpt><trkpt lat="42.78404170671026" lon="10.327488968135993"><ele>211.0</ele><time>2026-04-26T08:50:50.998Z</time></trkpt><trkpt lat="42.78398200603051" lon="10.327443833347344"><ele>214.0</ele><time>2026-04-26T08:50:52.998Z</time></trkpt><trkpt lat="42.78395010763502" lon="10.32736044863215"><ele>217.0</ele><time>2026-04-26T08:50:54.998Z</time></trkpt><trkpt lat="42.78392248352799" lon="10.327223854016752"><ele>217.83333333333331</ele><time>2026-04-26T08:50:57.998Z</time></trkpt><trkpt lat="42.78390124216648" lon="10.32709214025545"><ele>218.66666666666666</ele><time>2026-04-26T08:50:59.998Z</time></trkpt><trkpt lat="42.78386378657826" lon="10.326983290261872"><ele>219.5</ele><time>2026-04-26T08:51:01.998Z</time></trkpt><trkpt lat="42.78380932936043" lon="10.326907561330207"><ele>220.33333333333331</ele><time>2026-04-26T08:51:03.998Z</time></trkpt><trkpt lat="42.78376156296108" lon="10.326834117754098"><ele>221.16666666666666</ele><time>2026-04-26T08:51:06.998Z</time></trkpt><trkpt lat="42.78371844774213" lon="10.326769134512107"><ele>222.0</ele><time>2026-04-26T08:51:08.998Z</time></trkpt><trkpt lat="42.78364695542398" lon="10.32671380791518"><ele>222.0</ele><time>2026-04-26T08:51:10.998Z</time></trkpt><trkpt lat="42.78356151928541" lon="10.326699680823513"><ele>222.0</ele><time>2026-04-26T08:51:13.998Z</time></trkpt><trkpt lat="42.78347965034522" lon="10.326698636231153"><ele>222.0</ele><time>2026-04-26T08:51:15.998Z</time></trkpt><trkpt lat="42.78339691993055" lon="10.326689700792757"><ele>222.0</ele><time>2026-04-26T08:51:17.998Z</time></trkpt><trkpt lat="42.783330171970185" lon="10.326685213098546"><ele>222.0</ele><time>2026-04-26T08:51:19.998Z</time></trkpt><trkpt lat="42.7832329332116" lon="10.326659165219002"><ele>222.0</ele><time>2026-04-26T08:51:21.998Z</time></trkpt><trkpt lat="42.78316678683623" lon="10.326619666202202"><ele>223.83333333333334</ele><time>2026-04-26T08:51:23.998Z</time></trkpt><trkpt lat="42.78308344441759" lon="10.32656911790881"><ele>225.66666666666669</ele><time>2026-04-26T08:51:26.998Z</time></trkpt><trkpt lat="42.78302194899528" lon="10.32650044870467"><ele>227.5</ele><time>2026-04-26T08:51:28.998Z</time></trkpt><trkpt lat="42.78296308747441" lon="10.326414587889987"><ele>229.33333333333334</ele><time>2026-04-26T08:51:31.998Z</time></trkpt><trkpt lat="42.78288762317145" lon="10.326325979288772"><ele>231.16666666666669</ele><time>2026-04-26T08:51:33.998Z</time></trkpt><trkpt lat="42.78283139355427" lon="10.326250024406965"><ele>233.0</ele><time>2026-04-26T08:51:34.997Z</time></trkpt><trkpt lat="42.782778447085676" lon="10.326178400162384"><ele>233.00000000000003</ele><time>2026-04-26T08:51:35.997Z</time></trkpt><trkpt lat="42.78270672394962" lon="10.32607270209482"><ele>233.0</ele><time>2026-04-26T08:51:37.997Z</time></trkpt><trkpt lat="42.78264996779944" lon="10.325986244299092"><ele>233.0</ele><time>2026-04-26T08:51:39.997Z</time></trkpt><trkpt lat="42.78260153254696" lon="10.325922404217419"><ele>233.0</ele><time>2026-04-26T08:51:41.997Z</time></trkpt><trkpt lat="42.78250414830729" lon="10.325844468493742"><ele>233.00000000000003</ele><time>2026-04-26T08:51:43.997Z</time></trkpt><trkpt lat="42.7824414191425" lon="10.325827211807875"><ele>233.0</ele><time>2026-04-26T08:51:44.997Z</time></trkpt><trkpt lat="42.78236353162374" lon="10.325809590950053"><ele>235.00000000000003</ele><time>2026-04-26T08:51:45.997Z</time></trkpt><trkpt lat="42.78229151124763" lon="10.325803258168655"><ele>237.0</ele><time>2026-04-26T08:51:46.997Z</time></trkpt><trkpt lat="42.78222472420862" lon="10.325803558024033"><ele>239.0</ele><time>2026-04-26T08:51:47.997Z</time></trkpt><trkpt lat="42.78213172274682" lon="10.325836358039934"><ele>241.0</ele><time>2026-04-26T08:51:49.997Z</time></trkpt><trkpt lat="42.78203451330029" lon="10.325871578716699"><ele>243.00000000000003</ele><time>2026-04-26T08:51:51.997Z</time></trkpt><trkpt lat="42.781948081448846" lon="10.325941360573898"><ele>245.0</ele><time>2026-04-26T08:51:53.997Z</time></trkpt><trkpt lat="42.78188350071039" lon="10.326002811537906"><ele>248.16666666666669</ele><time>2026-04-26T08:51:55.997Z</time></trkpt><trkpt lat="42.78182885814543" lon="10.326050107367458"><ele>251.33333333333334</ele><time>2026-04-26T08:51:57.997Z</time></trkpt><trkpt lat="42.78173320372318" lon="10.326062690874773"><ele>254.5</ele><time>2026-04-26T08:52:01.997Z</time></trkpt><trkpt lat="42.7816249400902" lon="10.32603057142717"><ele>257.6666666666667</ele><time>2026-04-26T08:52:03.997Z</time></trkpt><trkpt lat="42.78155400607496" lon="10.32602854536196"><ele>260.8333333333333</ele><time>2026-04-26T08:52:04.997Z</time></trkpt><trkpt lat="42.78148208880732" lon="10.32603146341499"><ele>264.0</ele><time>2026-04-26T08:52:05.997Z</time></trkpt><trkpt lat="42.781385809717314" lon="10.326048974975876"><ele>264.0</ele><time>2026-04-26T08:52:07.997Z</time></trkpt><trkpt lat="42.78128054692333" lon="10.326103405172574"><ele>264.0</ele><time>2026-04-26T08:52:09.997Z</time></trkpt><trkpt lat="42.781223167389676" lon="10.32614785014103"><ele>264.0</ele><time>2026-04-26T08:52:10.997Z</time></trkpt><trkpt lat="42.78116103503622" lon="10.326215647676914"><ele>264.0</ele><time>2026-04-26T08:52:12.997Z</time></trkpt><trkpt lat="42.781232200650805" lon="10.326153466794187"><ele>264.0</ele><time>2026-04-26T08:52:51.998Z</time></trkpt><trkpt lat="42.78128792892801" lon="10.326113083044794"><ele>264.0</ele><time>2026-04-26T08:53:14.998Z</time></trkpt><trkpt lat="42.781397282441596" lon="10.326052008410969"><ele>264.0</ele><time>2026-04-26T08:53:16.998Z</time></trkpt><trkpt lat="42.781469313677114" lon="10.326041911185468"><ele>264.0</ele><time>2026-04-26T08:53:17.998Z</time></trkpt><trkpt lat="42.781535762653334" lon="10.32603120444595"><ele>264.0</ele><time>2026-04-26T08:53:18.998Z</time></trkpt><trkpt lat="42.78165999750341" lon="10.32606228104417"><ele>264.0</ele><time>2026-04-26T08:53:20.998Z</time></trkpt><trkpt lat="42.7817521014178" lon="10.326069577973152"><ele>264.0</ele><time>2026-04-26T08:53:22.998Z</time></trkpt><trkpt lat="42.78182304234071" lon="10.326052058029623"><ele>264.0</ele><time>2026-04-26T08:53:24.998Z</time></trkpt><trkpt lat="42.781892724287076" lon="10.325992729763387"><ele>260.8333333333333</ele><time>2026-04-26T08:53:26.998Z</time></trkpt><trkpt lat="42.78197605534059" lon="10.325920633810654"><ele>257.6666666666667</ele><time>2026-04-26T08:53:28.998Z</time></trkpt><trkpt lat="42.78204683136852" lon="10.325868917776003"><ele>254.5</ele><time>2026-04-26T08:53:30.998Z</time></trkpt><trkpt lat="42.782132467506294" lon="10.32584339262031"><ele>251.33333333333334</ele><time>2026-04-26T08:53:32.998Z</time></trkpt><trkpt lat="42.782222095857726" lon="10.32581538104498"><ele>248.16666666666669</ele><time>2026-04-26T08:53:34.998Z</time></trkpt><trkpt lat="42.78229262286603" lon="10.325798020306712"><ele>245.0</ele><time>2026-04-26T08:53:36.998Z</time></trkpt><trkpt lat="42.78238093322654" lon="10.325831044538434"><ele>245.00000000000003</ele><time>2026-04-26T08:53:38.998Z</time></trkpt><trkpt lat="42.78249170520044" lon="10.325892263924555"><ele>245.0</ele><time>2026-04-26T08:53:40.998Z</time></trkpt><trkpt lat="42.782565372828145" lon="10.325933840572004"><ele>245.0</ele><time>2026-04-26T08:53:42.998Z</time></trkpt><trkpt lat="42.7826328896797" lon="10.325908886020063"><ele>245.0</ele><time>2026-04-26T08:53:45.998Z</time></trkpt><trkpt lat="42.78266664737996" lon="10.325834476258677"><ele>245.00000000000003</ele><time>2026-04-26T08:54:22.999Z</time></trkpt><trkpt lat="42.78265441964669" lon="10.325741697732935"><ele>245.0</ele><time>2026-04-26T08:54:24.999Z</time></trkpt><trkpt lat="42.78264825807876" lon="10.32565345173485"><ele>246.5</ele><time>2026-04-26T08:54:26.999Z</time></trkpt><trkpt lat="42.78264340540872" lon="10.325544882189744"><ele>248.0</ele><time>2026-04-26T08:54:29.999Z</time></trkpt><trkpt lat="42.78263080181941" lon="10.325456149279765"><ele>249.5</ele><time>2026-04-26T08:54:32.999Z</time></trkpt><trkpt lat="42.78236934372253" lon="10.325409816719464"><ele>251.0</ele><time>2026-04-26T08:54:34.999Z</time></trkpt><trkpt lat="42.782281421229136" lon="10.325416821095752"><ele>251.00000000000003</ele><time>2026-04-26T08:54:37.999Z</time></trkpt><trkpt lat="42.78218131544199" lon="10.325470249882477"><ele>251.0</ele><time>2026-04-26T08:54:39.999Z</time></trkpt><trkpt lat="42.78208582508737" lon="10.325517272557635"><ele>251.0</ele><time>2026-04-26T08:54:41.999Z</time></trkpt><trkpt lat="42.782020002242334" lon="10.325538188001087"><ele>251.0</ele><time>2026-04-26T08:54:42.999Z</time></trkpt><trkpt lat="42.78195936974275" lon="10.325567357677876"><ele>251.00000000000003</ele><time>2026-04-26T08:54:43.999Z</time></trkpt><trkpt lat="42.78189737420988" lon="10.32559378172118"><ele>251.0</ele><time>2026-04-26T08:54:44.999Z</time></trkpt><trkpt lat="42.78183024840352" lon="10.325621932234563"><ele>253.60000000000002</ele><time>2026-04-26T08:54:45.999Z</time></trkpt><trkpt lat="42.78175037402629" lon="10.32565807865073"><ele>256.20000000000005</ele><time>2026-04-26T08:54:47.999Z</time></trkpt><trkpt lat="42.78166331640426" lon="10.325682084142954"><ele>258.79999999999995</ele><time>2026-04-26T08:54:49.999Z</time></trkpt><trkpt lat="42.78155112621737" lon="10.325685647854069"><ele>261.4</ele><time>2026-04-26T08:54:51.999Z</time></trkpt><trkpt lat="42.78144693628683" lon="10.325656663832515"><ele>264.0</ele><time>2026-04-26T08:54:53.999Z</time></trkpt><trkpt lat="42.78134528540222" lon="10.325634420614046"><ele>264.0</ele><time>2026-04-26T08:54:55.999Z</time></trkpt><trkpt lat="42.781233723346176" lon="10.325625028084065"><ele>264.0</ele><time>2026-04-26T08:54:57.999Z</time></trkpt><trkpt lat="42.781115824600974" lon="10.325616663638849"><ele>264.0</ele><time>2026-04-26T08:54:59.999Z</time></trkpt><trkpt lat="42.78099222333202" lon="10.325654531659657"><ele>264.0</ele><time>2026-04-26T08:55:01.999Z</time></trkpt><trkpt lat="42.78092978015103" lon="10.32569639818864"><ele>264.0</ele><time>2026-04-26T08:55:03.999Z</time></trkpt><trkpt lat="42.7808961715109" lon="10.325769831330419"><ele>268.25</ele><time>2026-04-26T08:55:32.999Z</time></trkpt><trkpt lat="42.780819238818516" lon="10.325884575900782"><ele>272.5</ele><time>2026-04-26T08:55:34.999Z</time></trkpt><trkpt lat="42.78075364903414" lon="10.326029991390268"><ele>276.75</ele><time>2026-04-26T08:55:36.998Z</time></trkpt><trkpt lat="42.78070206286143" lon="10.326148390594204"><ele>281.0</ele><time>2026-04-26T08:55:38.998Z</time></trkpt><trkpt lat="42.780637234558355" lon="10.326274529392979"><ele>281.0</ele><time>2026-04-26T08:55:40.998Z</time></trkpt><trkpt lat="42.78056712536808" lon="10.32639466189506"><ele>281.0</ele><time>2026-04-26T08:55:42.998Z</time></trkpt><trkpt lat="42.78052744472289" lon="10.326463610118806"><ele>281.0</ele><time>2026-04-26T08:55:43.998Z</time></trkpt><trkpt lat="42.78048416671669" lon="10.326534534114069"><ele>281.0</ele><time>2026-04-26T08:55:44.998Z</time></trkpt><trkpt lat="42.780413897947255" lon="10.326655307787547"><ele>281.0</ele><time>2026-04-26T08:55:46.998Z</time></trkpt><trkpt lat="42.78034234215178" lon="10.326651304640441"><ele>281.0</ele><time>2026-04-26T08:55:48.998Z</time></trkpt><trkpt lat="42.78027867143513" lon="10.326617218785056"><ele>281.0</ele><time>2026-04-26T08:55:50.998Z</time></trkpt><trkpt lat="42.78025885925384" lon="10.3265325591677"><ele>281.0</ele><time>2026-04-26T08:55:53.998Z</time></trkpt><trkpt lat="42.780287133151155" lon="10.326424471554288"><ele>281.0</ele><time>2026-04-26T08:55:56.998Z</time></trkpt><trkpt lat="42.780278412958424" lon="10.32633543807075"><ele>281.0</ele><time>2026-04-26T08:55:59.998Z</time></trkpt><trkpt lat="42.780234074935535" lon="10.32621414037383"><ele>281.0</ele><time>2026-04-26T08:56:11.998Z</time></trkpt><trkpt lat="42.78019198799726" lon="10.326132047906203"><ele>281.0</ele><time>2026-04-26T08:56:13.998Z</time></trkpt><trkpt lat="42.78014843480611" lon="10.326022586510598"><ele>281.1666666666667</ele><time>2026-04-26T08:56:15.998Z</time></trkpt><trkpt lat="42.7801045168429" lon="10.325893254597242"><ele>281.33333333333337</ele><time>2026-04-26T08:56:17.998Z</time></trkpt><trkpt lat="42.78006376652734" lon="10.325804267914501"><ele>281.5</ele><time>2026-04-26T08:56:18.998Z</time></trkpt><trkpt lat="42.78002715605143" lon="10.32571755690652"><ele>281.6666666666667</ele><time>2026-04-26T08:56:19.998Z</time></trkpt><trkpt lat="42.78000504443546" lon="10.325629135411186"><ele>281.8333333333333</ele><time>2026-04-26T08:56:20.998Z</time></trkpt><trkpt lat="42.77998661937342" lon="10.32554351294475"><ele>282.0</ele><time>2026-04-26T08:56:21.998Z</time></trkpt><trkpt lat="42.779955735839316" lon="10.325463881221621"><ele>283.3333333333333</ele><time>2026-04-26T08:56:22.998Z</time></trkpt><trkpt lat="42.7799240792786" lon="10.325366533802773"><ele>284.6666666666667</ele><time>2026-04-26T08:56:23.998Z</time></trkpt><trkpt lat="42.77989100802303" lon="10.325274094811002"><ele>286.0</ele><time>2026-04-26T08:56:24.998Z</time></trkpt><trkpt lat="42.77986659021759" lon="10.325184565352767"><ele>287.33333333333337</ele><time>2026-04-26T08:56:25.998Z</time></trkpt><trkpt lat="42.779848222535264" lon="10.32510246436799"><ele>288.6666666666667</ele><time>2026-04-26T08:56:26.998Z</time></trkpt><trkpt lat="42.77980659219522" lon="10.324968952148925"><ele>290.0</ele><time>2026-04-26T08:56:29Z</time></trkpt><trkpt lat="42.77972499342908" lon="10.324875509599755"><ele>290.0</ele><time>2026-04-26T08:56:31Z</time></trkpt><trkpt lat="42.77966193863962" lon="10.324856915811758"><ele>290.0</ele><time>2026-04-26T08:56:32Z</time></trkpt><trkpt lat="42.779532599705654" lon="10.32488762650136"><ele>290.0</ele><time>2026-04-26T08:56:34Z</time></trkpt><trkpt lat="42.779458290167106" lon="10.324902304314652"><ele>290.0</ele><time>2026-04-26T08:56:35Z</time></trkpt><trkpt lat="42.77934719638378" lon="10.32488411121592"><ele>290.0</ele><time>2026-04-26T08:56:37Z</time></trkpt><trkpt lat="42.779286957880416" lon="10.324793261009786"><ele>289.6</ele><time>2026-04-26T08:56:39Z</time></trkpt><trkpt lat="42.77924496703349" lon="10.324636267238361"><ele>289.2</ele><time>2026-04-26T08:56:41Z</time></trkpt><trkpt lat="42.77921937835043" lon="10.324519122227578"><ele>288.8</ele><time>2026-04-26T08:56:42Z</time></trkpt><trkpt lat="42.77918722443062" lon="10.324396305576464"><ele>288.4</ele><time>2026-04-26T08:56:43Z</time></trkpt><trkpt lat="42.77916039708349" lon="10.324274418111287"><ele>288.0</ele><time>2026-04-26T08:56:44Z</time></trkpt><trkpt lat="42.779130690633636" lon="10.324155448225378"><ele>288.0</ele><time>2026-04-26T08:56:45Z</time></trkpt><trkpt lat="42.7790940451325" lon="10.324031937015192"><ele>288.0</ele><time>2026-04-26T08:56:46Z</time></trkpt><trkpt lat="42.779063914120385" lon="10.323910964503407"><ele>288.0</ele><time>2026-04-26T08:56:47Z</time></trkpt><trkpt lat="42.7790370713449" lon="10.323827736733515"><ele>288.0</ele><time>2026-04-26T08:56:48Z</time></trkpt><trkpt lat="42.778964545095484" lon="10.323729608871579"><ele>288.0</ele><time>2026-04-26T08:56:50Z</time></trkpt><trkpt lat="42.778849568616174" lon="10.323707013310578"><ele>292.0</ele><time>2026-04-26T08:56:52Z</time></trkpt><trkpt lat="42.77877836715288" lon="10.323763806600473"><ele>296.0</ele><time>2026-04-26T08:56:54Z</time></trkpt><trkpt lat="42.77868765523515" lon="10.323784444656521"><ele>300.0</ele><time>2026-04-26T08:56:56Z</time></trkpt><trkpt lat="42.77859176521353" lon="10.323834626585244"><ele>304.0</ele><time>2026-04-26T08:56:58Z</time></trkpt><trkpt lat="42.77849135629544" lon="10.323856725316778"><ele>308.0</ele><time>2026-04-26T08:57:00Z</time></trkpt><trkpt lat="42.77835258092612" lon="10.32386746172054"><ele>304.33333333333337</ele><time>2026-04-26T08:57:02Z</time></trkpt><trkpt lat="42.77828313282315" lon="10.323897274773776"><ele>300.6666666666667</ele><time>2026-04-26T08:57:03Z</time></trkpt><trkpt lat="42.77823370347847" lon="10.323957317465728"><ele>297.0</ele><time>2026-04-26T08:57:04Z</time></trkpt><trkpt lat="42.77817655962617" lon="10.324035630465287"><ele>293.3333333333333</ele><time>2026-04-26T08:57:05Z</time></trkpt><trkpt lat="42.778085262325696" lon="10.324043318668519"><ele>289.66666666666663</ele><time>2026-04-26T08:57:07Z</time></trkpt><trkpt lat="42.77797969102962" lon="10.32398785741741"><ele>286.0</ele><time>2026-04-26T08:57:09Z</time></trkpt><trkpt lat="42.77785110981059" lon="10.323913045539072"><ele>286.0</ele><time>2026-04-26T08:57:10.999Z</time></trkpt><trkpt lat="42.77777675197722" lon="10.32391315536537"><ele>286.0</ele><time>2026-04-26T08:57:11.999Z</time></trkpt><trkpt lat="42.77770164598729" lon="10.323937809060029"><ele>286.0</ele><time>2026-04-26T08:57:12.999Z</time></trkpt><trkpt lat="42.77759522814478" lon="10.324016125143347"><ele>286.0</ele><time>2026-04-26T08:57:14.999Z</time></trkpt><trkpt lat="42.777527273210914" lon="10.32406166224211"><ele>286.0</ele><time>2026-04-26T08:57:15.999Z</time></trkpt><trkpt lat="42.77741560718749" lon="10.32410334319486"><ele>288.40000000000003</ele><time>2026-04-26T08:57:17.999Z</time></trkpt><trkpt lat="42.77735689406185" lon="10.324136971136602"><ele>290.8</ele><time>2026-04-26T08:57:18.999Z</time></trkpt><trkpt lat="42.777236900490244" lon="10.324156420557047"><ele>293.20000000000005</ele><time>2026-04-26T08:57:20.999Z</time></trkpt><trkpt lat="42.77710903216319" lon="10.324122826893841"><ele>295.6</ele><time>2026-04-26T08:57:22.999Z</time></trkpt><trkpt lat="42.7770030126652" lon="10.324089058350134"><ele>298.0</ele><time>2026-04-26T08:57:24.999Z</time></trkpt><trkpt lat="42.776913778286975" lon="10.324111406767779"><ele>298.42857142857144</ele><time>2026-04-26T08:58:01.999Z</time></trkpt><trkpt lat="42.77683055264166" lon="10.324156955290002"><ele>298.85714285714283</ele><time>2026-04-26T08:58:03.999Z</time></trkpt><trkpt lat="42.77677772845433" lon="10.324218723922316"><ele>299.2857142857143</ele><time>2026-04-26T08:58:04.999Z</time></trkpt><trkpt lat="42.776729911778794" lon="10.324287870987723"><ele>299.7142857142857</ele><time>2026-04-26T08:58:05.999Z</time></trkpt><trkpt lat="42.77667848889791" lon="10.324357181528594"><ele>300.1428571428571</ele><time>2026-04-26T08:58:06.999Z</time></trkpt><trkpt lat="42.77662048066174" lon="10.324423937262871"><ele>300.57142857142856</ele><time>2026-04-26T08:58:07.999Z</time></trkpt><trkpt lat="42.776564944570694" lon="10.32447308741202"><ele>301.0</ele><time>2026-04-26T08:58:08.998Z</time></trkpt><trkpt lat="42.77650899872063" lon="10.324556077974867"><ele>301.0</ele><time>2026-04-26T08:58:10.998Z</time></trkpt><trkpt lat="42.776493856823535" lon="10.324471448797395"><ele>301.0</ele><time>2026-04-26T08:58:28.998Z</time></trkpt><trkpt lat="42.776551515765085" lon="10.324434351810591"><ele>301.0</ele><time>2026-04-26T08:58:31.998Z</time></trkpt><trkpt lat="42.776623167414364" lon="10.324383547779028"><ele>301.0</ele><time>2026-04-26T08:58:35Z</time></trkpt><trkpt lat="42.776688655567746" lon="10.324330215178238"><ele>301.0</ele><time>2026-04-26T08:58:37Z</time></trkpt><trkpt lat="42.77675986155392" lon="10.324252061243328"><ele>301.0</ele><time>2026-04-26T08:58:39Z</time></trkpt><trkpt lat="42.776816258199034" lon="10.324188351583208"><ele>301.0</ele><time>2026-04-26T08:58:41Z</time></trkpt><trkpt lat="42.77686674927051" lon="10.32409094754985"><ele>301.0</ele><time>2026-04-26T08:58:44Z</time></trkpt><trkpt lat="42.776826797381204" lon="10.323989635002668"><ele>301.0</ele><time>2026-04-26T08:58:47Z</time></trkpt><trkpt lat="42.77675540340474" lon="10.323970000754823"><ele>301.0</ele><time>2026-04-26T08:58:49Z</time></trkpt><trkpt lat="42.77667898008731" lon="10.323983005019244"><ele>301.0</ele><time>2026-04-26T08:58:52Z</time></trkpt><trkpt lat="42.77659536216195" lon="10.32397221371446"><ele>301.0</ele><time>2026-04-26T08:58:54Z</time></trkpt><trkpt lat="42.77647641447939" lon="10.323994472001718"><ele>301.0</ele><time>2026-04-26T08:58:56Z</time></trkpt><trkpt lat="42.77639324053751" lon="10.324028502283195"><ele>301.0</ele><time>2026-04-26T08:58:58Z</time></trkpt><trkpt lat="42.77629304118335" lon="10.324053611348596"><ele>301.0</ele><time>2026-04-26T08:59:00Z</time></trkpt><trkpt lat="42.77619349968778" lon="10.324055663331103"><ele>301.0</ele><time>2026-04-26T08:59:02Z</time></trkpt><trkpt lat="42.77609974664351" lon="10.324075320148737"><ele>301.0</ele><time>2026-04-26T08:59:04Z</time></trkpt><trkpt lat="42.77600663636953" lon="10.324089083507008"><ele>301.0</ele><time>2026-04-26T08:59:06Z</time></trkpt><trkpt lat="42.77592061399901" lon="10.324111477158214"><ele>299.3333333333333</ele><time>2026-04-26T08:59:08Z</time></trkpt><trkpt lat="42.77583199968359" lon="10.3241360736887"><ele>297.66666666666663</ele><time>2026-04-26T08:59:10Z</time></trkpt><trkpt lat="42.77577389147167" lon="10.324171944385"><ele>296.0</ele><time>2026-04-26T08:59:12Z</time></trkpt><trkpt lat="42.7757064552237" lon="10.324189588327876"><ele>294.3333333333333</ele><time>2026-04-26T08:59:14Z</time></trkpt><trkpt lat="42.77563830206897" lon="10.324200941203111"><ele>292.6666666666667</ele><time>2026-04-26T08:59:16Z</time></trkpt><trkpt lat="42.77556466937379" lon="10.324219525552497"><ele>291.0</ele><time>2026-04-26T08:59:18Z</time></trkpt><trkpt lat="42.775475717523726" lon="10.324255893292694"><ele>291.0</ele><time>2026-04-26T08:59:20Z</time></trkpt><trkpt lat="42.77540636199787" lon="10.324265224760085"><ele>291.0</ele><time>2026-04-26T08:59:22Z</time></trkpt><trkpt lat="42.775328142691784" lon="10.324310400248395"><ele>291.0</ele><time>2026-04-26T08:59:25Z</time></trkpt><trkpt lat="42.77525712392612" lon="10.32432785863972"><ele>291.0</ele><time>2026-04-26T08:59:27Z</time></trkpt><trkpt lat="42.77518625983338" lon="10.324350031626368"><ele>291.0</ele><time>2026-04-26T08:59:29Z</time></trkpt><trkpt lat="42.77511557724509" lon="10.32433565862632"><ele>291.0</ele><time>2026-04-26T08:59:31Z</time></trkpt><trkpt lat="42.775028526928345" lon="10.32435018139275"><ele>289.5</ele><time>2026-04-26T08:59:32.999Z</time></trkpt><trkpt lat="42.774968865691655" lon="10.324391893894536"><ele>288.0</ele><time>2026-04-26T08:59:34.999Z</time></trkpt><trkpt lat="42.77491466372598" lon="10.324447481139238"><ele>286.5</ele><time>2026-04-26T08:59:36.999Z</time></trkpt><trkpt lat="42.774857449684525" lon="10.324560136000855"><ele>285.0</ele><time>2026-04-26T08:59:38.999Z</time></trkpt><trkpt lat="42.7747796797611" lon="10.324679337819774"><ele>283.5</ele><time>2026-04-26T08:59:40.999Z</time></trkpt><trkpt lat="42.7747261958311" lon="10.324742475632295"><ele>282.0</ele><time>2026-04-26T08:59:41.999Z</time></trkpt><trkpt lat="42.774675813519764" lon="10.32480777785361"><ele>282.0</ele><time>2026-04-26T08:59:42.999Z</time></trkpt><trkpt lat="42.77461251988924" lon="10.324903564295568"><ele>282.0</ele><time>2026-04-26T08:59:44.999Z</time></trkpt><trkpt lat="42.7745619173849" lon="10.324955537082706"><ele>282.0</ele><time>2026-04-26T08:59:45.999Z</time></trkpt><trkpt lat="42.774511102060835" lon="10.325056839615227"><ele>282.0</ele><time>2026-04-26T08:59:47.999Z</time></trkpt><trkpt lat="42.77445491245825" lon="10.325144573572326"><ele>282.0</ele><time>2026-04-26T08:59:52.999Z</time></trkpt></trkseg><trkseg><trkpt lat="42.77431158985353" lon="10.325462843812291"><ele>242.39999999999998</ele><time>2026-04-26T09:29:48Z</time></trkpt><trkpt lat="42.77422374657185" lon="10.325609113017748"><ele>245.79999999999998</ele><time>2026-04-26T09:29:50Z</time></trkpt><trkpt lat="42.774179602525145" lon="10.325704273428283"><ele>249.20000000000002</ele><time>2026-04-26T09:29:51Z</time></trkpt><trkpt lat="42.77413338441877" lon="10.325787616516319"><ele>252.60000000000002</ele><time>2026-04-26T09:29:52Z</time></trkpt><trkpt lat="42.77407520543012" lon="10.32592141396361"><ele>256.0</ele><time>2026-04-26T09:29:54Z</time></trkpt><trkpt lat="42.7740448906716" lon="10.326082264827958"><ele>256.0</ele><time>2026-04-26T09:29:55.999Z</time></trkpt><trkpt lat="42.774029177182605" lon="10.326248463649556"><ele>256.0</ele><time>2026-04-26T09:29:57.999Z</time></trkpt><trkpt lat="42.7740253086366" lon="10.326421038708949"><ele>256.0</ele><time>2026-04-26T09:29:59.999Z</time></trkpt><trkpt lat="42.7740222596567" lon="10.326531047397854"><ele>256.0</ele><time>2026-04-26T09:30:00.999Z</time></trkpt><trkpt lat="42.77401522634112" lon="10.326641858675004"><ele>256.0</ele><time>2026-04-26T09:30:01.999Z</time></trkpt><trkpt lat="42.774008535425615" lon="10.326746663861442"><ele>256.8333333333333</ele><time>2026-04-26T09:30:02.999Z</time></trkpt><trkpt lat="42.7739993239533" lon="10.326840290430733"><ele>257.66666666666663</ele><time>2026-04-26T09:30:03.999Z</time></trkpt><trkpt lat="42.773989508498744" lon="10.326939326397232"><ele>258.5</ele><time>2026-04-26T09:30:04.999Z</time></trkpt><trkpt lat="42.77397234175198" lon="10.327047795771628"><ele>259.3333333333333</ele><time>2026-04-26T09:30:05.999Z</time></trkpt><trkpt lat="42.77394825546527" lon="10.327151663827053"><ele>260.1666666666667</ele><time>2026-04-26T09:30:06.999Z</time></trkpt><trkpt lat="42.773920702649626" lon="10.3272581279981"><ele>261.0</ele><time>2026-04-26T09:30:07.999Z</time></trkpt><trkpt lat="42.7738965459433" lon="10.327372275651616"><ele>261.8333333333333</ele><time>2026-04-26T09:30:08.999Z</time></trkpt><trkpt lat="42.773877090997935" lon="10.32747131067894"><ele>262.6666666666667</ele><time>2026-04-26T09:30:09.999Z</time></trkpt><trkpt lat="42.773862762193524" lon="10.327562266262252"><ele>263.5</ele><time>2026-04-26T09:30:10.999Z</time></trkpt><trkpt lat="42.773847681410274" lon="10.327728938703121"><ele>264.33333333333337</ele><time>2026-04-26T09:30:12.999Z</time></trkpt><trkpt lat="42.77381768698794" lon="10.327822924680905"><ele>265.1666666666667</ele><time>2026-04-26T09:30:13.999Z</time></trkpt><trkpt lat="42.773786761917975" lon="10.32790714214029"><ele>266.0</ele><time>2026-04-26T09:30:14.999Z</time></trkpt><trkpt lat="42.7737424006745" lon="10.32797690465898"><ele>266.0</ele><time>2026-04-26T09:30:15.999Z</time></trkpt><trkpt lat="42.77369218207563" lon="10.328045945461778"><ele>266.0</ele><time>2026-04-26T09:30:16.999Z</time></trkpt><trkpt lat="42.77364067134551" lon="10.328103789420984"><ele>266.0</ele><time>2026-04-26T09:30:17.999Z</time></trkpt><trkpt lat="42.773582959166966" lon="10.3281560940706"><ele>266.0</ele><time>2026-04-26T09:30:18.999Z</time></trkpt><trkpt lat="42.77352462971184" lon="10.328196108213985"><ele>266.0</ele><time>2026-04-26T09:30:19.999Z</time></trkpt><trkpt lat="42.773404649460325" lon="10.32826135223761"><ele>266.0</ele><time>2026-04-26T09:30:21.999Z</time></trkpt><trkpt lat="42.77333378325521" lon="10.32826647659228"><ele>262.40000000000003</ele><time>2026-04-26T09:30:22.999Z</time></trkpt><trkpt lat="42.77321417526315" lon="10.328278180701146"><ele>258.8</ele><time>2026-04-26T09:30:24.999Z</time></trkpt><trkpt lat="42.773116042492404" lon="10.328224820088332"><ele>255.20000000000002</ele><time>2026-04-26T09:30:26.999Z</time></trkpt><trkpt lat="42.77303863366874" lon="10.32819450792478"><ele>251.60000000000002</ele><time>2026-04-26T09:30:28.999Z</time></trkpt><trkpt lat="42.77300091222048" lon="10.328267764684112"><ele>248.0</ele><time>2026-04-26T09:30:30.999Z</time></trkpt><trkpt lat="42.77301480012562" lon="10.328406407039932"><ele>248.0</ele><time>2026-04-26T09:30:32.999Z</time></trkpt><trkpt lat="42.773086899464076" lon="10.328507332638557"><ele>248.0</ele><time>2026-04-26T09:30:34.998Z</time></trkpt><trkpt lat="42.77313534506397" lon="10.328563402409115"><ele>248.0</ele><time>2026-04-26T09:30:35.998Z</time></trkpt><trkpt lat="42.77319762193818" lon="10.328678395354464"><ele>248.0</ele><time>2026-04-26T09:30:37.998Z</time></trkpt><trkpt lat="42.773211295768476" lon="10.328829054360032"><ele>248.0</ele><time>2026-04-26T09:30:39.998Z</time></trkpt><trkpt lat="42.77315816270165" lon="10.328942215470496"><ele>248.0</ele><time>2026-04-26T09:30:41.998Z</time></trkpt><trkpt lat="42.773067123192455" lon="10.328953443690752"><ele>248.0</ele><time>2026-04-26T09:30:43.998Z</time></trkpt><trkpt lat="42.77298281247387" lon="10.328897744549835"><ele>248.0</ele><time>2026-04-26T09:30:45.998Z</time></trkpt><trkpt lat="42.77291418667173" lon="10.32884684076883"><ele>248.0</ele><time>2026-04-26T09:30:47.998Z</time></trkpt><trkpt lat="42.7728276775546" lon="10.328834330797596"><ele>248.0</ele><time>2026-04-26T09:30:49.998Z</time></trkpt><trkpt lat="42.77268611478579" lon="10.328837641113239"><ele>246.0</ele><time>2026-04-26T09:30:51.998Z</time></trkpt><trkpt lat="42.7726220030018" lon="10.328851504728684"><ele>244.0</ele><time>2026-04-26T09:30:52.998Z</time></trkpt><trkpt lat="42.772504627422535" lon="10.328893161013061"><ele>242.0</ele><time>2026-04-26T09:30:54.998Z</time></trkpt><trkpt lat="42.772398823819366" lon="10.328935164102575"><ele>240.0</ele><time>2026-04-26T09:30:56.998Z</time></trkpt><trkpt lat="42.7723121903684" lon="10.328959527946884"><ele>238.0</ele><time>2026-04-26T09:30:58.998Z</time></trkpt><trkpt lat="42.772215014741406" lon="10.32900184188382"><ele>237.99999999999997</ele><time>2026-04-26T09:31:00.998Z</time></trkpt><trkpt lat="42.77211890306228" lon="10.329038742087054"><ele>238.0</ele><time>2026-04-26T09:31:02.998Z</time></trkpt><trkpt lat="42.77203400925386" lon="10.32908224148576"><ele>238.0</ele><time>2026-04-26T09:31:04.998Z</time></trkpt><trkpt lat="42.77197379166471" lon="10.329140342266928"><ele>238.0</ele><time>2026-04-26T09:31:06.998Z</time></trkpt><trkpt lat="42.771893822276255" lon="10.32917756426952"><ele>237.99999999999997</ele><time>2026-04-26T09:31:08.998Z</time></trkpt><trkpt lat="42.7718240043679" lon="10.329177882791143"><ele>238.0</ele><time>2026-04-26T09:31:10.998Z</time></trkpt><trkpt lat="42.77175553400814" lon="10.329146752717849"><ele>236.2</ele><time>2026-04-26T09:31:54.999Z</time></trkpt><trkpt lat="42.77167052591428" lon="10.329101296055255"><ele>234.4</ele><time>2026-04-26T09:31:56.999Z</time></trkpt><trkpt lat="42.77153690576264" lon="10.329034706910086"><ele>232.59999999999997</ele><time>2026-04-26T09:31:58.999Z</time></trkpt><trkpt lat="42.77146195294271" lon="10.32900686158933"><ele>230.79999999999998</ele><time>2026-04-26T09:31:59.999Z</time></trkpt><trkpt lat="42.771382550751525" lon="10.328987653696776"><ele>229.0</ele><time>2026-04-26T09:32:00.999Z</time></trkpt><trkpt lat="42.77130002163613" lon="10.328949396783353"><ele>228.99999999999997</ele><time>2026-04-26T09:32:01.999Z</time></trkpt><trkpt lat="42.77122075839932" lon="10.328940911772618"><ele>229.0</ele><time>2026-04-26T09:32:02.999Z</time></trkpt><trkpt lat="42.7711295503005" lon="10.328906252166773"><ele>229.0</ele><time>2026-04-26T09:32:03.999Z</time></trkpt><trkpt lat="42.771033613841794" lon="10.328883569562645"><ele>229.0</ele><time>2026-04-26T09:32:04.999Z</time></trkpt><trkpt lat="42.770945551640345" lon="10.328855440041702"><ele>228.99999999999997</ele><time>2026-04-26T09:32:05.999Z</time></trkpt><trkpt lat="42.77086715254087" lon="10.328832938463115"><ele>229.0</ele><time>2026-04-26T09:32:06.999Z</time></trkpt><trkpt lat="42.77074961707178" lon="10.328773448899538"><ele>228.39999999999998</ele><time>2026-04-26T09:32:08.999Z</time></trkpt><trkpt lat="42.77064770255592" lon="10.328747245464427"><ele>227.79999999999998</ele><time>2026-04-26T09:32:10.999Z</time></trkpt><trkpt lat="42.7705617131563" lon="10.328790185154576"><ele>227.20000000000002</ele><time>2026-04-26T09:32:12.999Z</time></trkpt><trkpt lat="42.770502637354795" lon="10.328866160223983"><ele>226.60000000000002</ele><time>2026-04-26T09:32:14.999Z</time></trkpt><trkpt lat="42.770475854020034" lon="10.329018819543244"><ele>226.0</ele><time>2026-04-26T09:32:16.999Z</time></trkpt><trkpt lat="42.770478586243804" lon="10.329111563677495"><ele>226.0</ele><time>2026-04-26T09:32:17.999Z</time></trkpt><trkpt lat="42.770494354828976" lon="10.32928947177574"><ele>226.00000000000003</ele><time>2026-04-26T09:32:19.999Z</time></trkpt><trkpt lat="42.77050154449957" lon="10.329403031592955"><ele>226.00000000000003</ele><time>2026-04-26T09:32:20.999Z</time></trkpt><trkpt lat="42.77052727253809" lon="10.329514308495883"><ele>226.0</ele><time>2026-04-26T09:32:21.999Z</time></trkpt><trkpt lat="42.770551631953886" lon="10.32963239455331"><ele>226.0</ele><time>2026-04-26T09:32:22.999Z</time></trkpt><trkpt lat="42.77057305738948" lon="10.329745456750432"><ele>226.99999999999997</ele><time>2026-04-26T09:32:23.999Z</time></trkpt><trkpt lat="42.770606062176604" lon="10.329877603974248"><ele>228.0</ele><time>2026-04-26T09:32:24.999Z</time></trkpt><trkpt lat="42.77065396557813" lon="10.329983345433043"><ele>229.0</ele><time>2026-04-26T09:32:25.999Z</time></trkpt><trkpt lat="42.770699474499175" lon="10.330090714400665"><ele>230.0</ele><time>2026-04-26T09:32:26.998Z</time></trkpt><trkpt lat="42.770743867005" lon="10.330189297664047"><ele>230.99999999999997</ele><time>2026-04-26T09:32:27.998Z</time></trkpt><trkpt lat="42.770782656421744" lon="10.330268124584919"><ele>232.0</ele><time>2026-04-26T09:32:28.998Z</time></trkpt><trkpt lat="42.77083007046347" lon="10.330384629185803"><ele>232.0</ele><time>2026-04-26T09:32:30.998Z</time></trkpt><trkpt lat="42.77084089466573" lon="10.330517836351113"><ele>232.0</ele><time>2026-04-26T09:32:32.998Z</time></trkpt><trkpt lat="42.77080891347923" lon="10.330655266657091"><ele>232.0</ele><time>2026-04-26T09:32:34.998Z</time></trkpt><trkpt lat="42.770780577359396" lon="10.3307343370828"><ele>232.0</ele><time>2026-04-26T09:32:35.998Z</time></trkpt><trkpt lat="42.77079463574883" lon="10.330855484595956"><ele>232.0</ele><time>2026-04-26T09:32:37.998Z</time></trkpt><trkpt lat="42.77084803566023" lon="10.33097604844368"><ele>231.6</ele><time>2026-04-26T09:32:39.998Z</time></trkpt><trkpt lat="42.77092904758893" lon="10.331051857340379"><ele>231.2</ele><time>2026-04-26T09:32:41.998Z</time></trkpt><trkpt lat="42.771000762295955" lon="10.331064839633456"><ele>230.8</ele><time>2026-04-26T09:32:43.998Z</time></trkpt><trkpt lat="42.77108099279475" lon="10.331115653240248"><ele>230.4</ele><time>2026-04-26T09:32:45.998Z</time></trkpt><trkpt lat="42.77116047615054" lon="10.331195120384645"><ele>230.0</ele><time>2026-04-26T09:32:47.998Z</time></trkpt><trkpt lat="42.771219323283965" lon="10.331352324935306"><ele>234.00000000000003</ele><time>2026-04-26T09:32:49.998Z</time></trkpt><trkpt lat="42.771238503785646" lon="10.331439886251072"><ele>238.0</ele><time>2026-04-26T09:32:50.998Z</time></trkpt><trkpt lat="42.77125387995166" lon="10.331537780878085"><ele>242.0</ele><time>2026-04-26T09:32:51.998Z</time></trkpt><trkpt lat="42.77126362879173" lon="10.331626425836044"><ele>246.0</ele><time>2026-04-26T09:32:52.998Z</time></trkpt><trkpt lat="42.77131120906387" lon="10.331803529347933"><ele>250.00000000000003</ele><time>2026-04-26T09:32:54.998Z</time></trkpt><trkpt lat="42.771338587672936" lon="10.331891674214464"><ele>254.0</ele><time>2026-04-26T09:32:55.998Z</time></trkpt><trkpt lat="42.77136569108692" lon="10.331974231241198"><ele>254.0</ele><time>2026-04-26T09:32:56.998Z</time></trkpt><trkpt lat="42.77142657327171" lon="10.332095602582486"><ele>253.99999999999997</ele><time>2026-04-26T09:32:58.998Z</time></trkpt><trkpt lat="42.77147506258603" lon="10.332179739512663"><ele>253.99999999999997</ele><time>2026-04-26T09:33:55.999Z</time></trkpt><trkpt lat="42.77156130029662" lon="10.332243093295801"><ele>254.0</ele><time>2026-04-26T09:33:57.999Z</time></trkpt><trkpt lat="42.77167946651115" lon="10.332256332312179"><ele>254.0</ele><time>2026-04-26T09:33:59.999Z</time></trkpt><trkpt lat="42.771816932272294" lon="10.332243863612781"><ele>253.00000000000003</ele><time>2026-04-26T09:34:01.999Z</time></trkpt><trkpt lat="42.77189803281431" lon="10.332235157600655"><ele>252.0</ele><time>2026-04-26T09:34:02.999Z</time></trkpt><trkpt lat="42.77197436582548" lon="10.332245131259535"><ele>251.0</ele><time>2026-04-26T09:34:03.999Z</time></trkpt><trkpt lat="42.77204321080178" lon="10.332257782851908"><ele>250.0</ele><time>2026-04-26T09:34:04.999Z</time></trkpt><trkpt lat="42.772114141277044" lon="10.33226983751932"><ele>249.00000000000003</ele><time>2026-04-26T09:34:05.999Z</time></trkpt><trkpt lat="42.77224254748829" lon="10.33232811841472"><ele>248.0</ele><time>2026-04-26T09:34:07.999Z</time></trkpt><trkpt lat="42.77231175947961" lon="10.332368198983604"><ele>248.00000000000003</ele><time>2026-04-26T09:34:08.999Z</time></trkpt><trkpt lat="42.77237805629359" lon="10.332405405901339"><ele>248.0</ele><time>2026-04-26T09:34:09.999Z</time></trkpt><trkpt lat="42.77245047831562" lon="10.332433883682116"><ele>248.0</ele><time>2026-04-26T09:34:10.999Z</time></trkpt><trkpt lat="42.7725696085055" lon="10.332455682563193"><ele>248.0</ele><time>2026-04-26T09:34:12.999Z</time></trkpt><trkpt lat="42.77264739279545" lon="10.332464598972543"><ele>248.00000000000003</ele><time>2026-04-26T09:34:13.999Z</time></trkpt><trkpt lat="42.77273466090002" lon="10.332479590809935"><ele>248.0</ele><time>2026-04-26T09:34:15.999Z</time></trkpt><trkpt lat="42.77282293994045" lon="10.33251660295076"><ele>248.14285714285717</ele><time>2026-04-26T09:34:18.999Z</time></trkpt><trkpt lat="42.77288919348842" lon="10.332577330992441"><ele>248.2857142857143</ele><time>2026-04-26T09:34:21.999Z</time></trkpt><trkpt lat="42.772937689344445" lon="10.332649827104937"><ele>248.42857142857144</ele><time>2026-04-26T09:34:24.999Z</time></trkpt><trkpt lat="42.772944919493945" lon="10.332740398395886"><ele>248.57142857142856</ele><time>2026-04-26T09:34:29.999Z</time></trkpt><trkpt lat="42.77289580759423" lon="10.332807459440884"><ele>248.7142857142857</ele><time>2026-04-26T09:34:34.999Z</time></trkpt><trkpt lat="42.77287025855988" lon="10.332716194510654"><ele>248.85714285714283</ele><time>2026-04-26T09:34:49.999Z</time></trkpt><trkpt lat="42.77291620195353" lon="10.332640630632742"><ele>249.0</ele><time>2026-04-26T09:34:53.999Z</time></trkpt><trkpt lat="42.772984877485776" lon="10.332710792546544"><ele>249.0</ele><time>2026-04-26T09:34:56.999Z</time></trkpt><trkpt lat="42.77304451342935" lon="10.332816067369627"><ele>249.0</ele><time>2026-04-26T09:34:59.999Z</time></trkpt><trkpt lat="42.77310270606087" lon="10.332894922617196"><ele>249.0</ele><time>2026-04-26T09:35:01.999Z</time></trkpt><trkpt lat="42.77314958201966" lon="10.332954213116302"><ele>249.0</ele><time>2026-04-26T09:35:03.999Z</time></trkpt><trkpt lat="42.7731906501851" lon="10.333028734622635"><ele>249.0</ele><time>2026-04-26T09:35:07.999Z</time></trkpt><trkpt lat="42.773195455451486" lon="10.333141966885636"><ele>249.0</ele><time>2026-04-26T09:35:10.998Z</time></trkpt><trkpt lat="42.77313960622365" lon="10.333183074810867"><ele>249.0</ele><time>2026-04-26T09:35:14.998Z</time></trkpt><trkpt lat="42.77307895344063" lon="10.333158489688309"><ele>249.0</ele><time>2026-04-26T09:35:19.998Z</time></trkpt><trkpt lat="42.773002016124224" lon="10.333149672126464"><ele>249.0</ele><time>2026-04-26T09:35:23.998Z</time></trkpt><trkpt lat="42.77292625717085" lon="10.333123679002666"><ele>249.0</ele><time>2026-04-26T09:35:32Z</time></trkpt><trkpt lat="42.77284007332856" lon="10.333079323295411"><ele>249.0</ele><time>2026-04-26T09:35:42.999Z</time></trkpt><trkpt lat="42.77272689770222" lon="10.333024811754676"><ele>249.0</ele><time>2026-04-26T09:35:44.999Z</time></trkpt><trkpt lat="42.77266427692072" lon="10.332984744113762"><ele>248.79999999999998</ele><time>2026-04-26T09:35:45.999Z</time></trkpt><trkpt lat="42.7725713757053" lon="10.332924970361352"><ele>248.59999999999997</ele><time>2026-04-26T09:35:47.999Z</time></trkpt><trkpt lat="42.77251090686363" lon="10.332897159604537"><ele>248.4</ele><time>2026-04-26T09:35:48.999Z</time></trkpt><trkpt lat="42.772413120775745" lon="10.332833139778213"><ele>248.2</ele><time>2026-04-26T09:35:50.999Z</time></trkpt><trkpt lat="42.772291984850696" lon="10.33277968602803"><ele>248.0</ele><time>2026-04-26T09:35:52.999Z</time></trkpt><trkpt lat="42.77218156984238" lon="10.332751974505019"><ele>248.00000000000003</ele><time>2026-04-26T09:35:54.999Z</time></trkpt><trkpt lat="42.77210153353654" lon="10.332742362813134"><ele>248.0</ele><time>2026-04-26T09:35:55.999Z</time></trkpt><trkpt lat="42.77203965993041" lon="10.332724504985581"><ele>248.0</ele><time>2026-04-26T09:35:56.999Z</time></trkpt><trkpt lat="42.771978939159894" lon="10.332681240255535"><ele>248.0</ele><time>2026-04-26T09:35:57.999Z</time></trkpt><trkpt lat="42.77191966805794" lon="10.332647481043452"><ele>248.00000000000003</ele><time>2026-04-26T09:35:58.999Z</time></trkpt><trkpt lat="42.77181595479864" lon="10.332620741992864"><ele>248.0</ele><time>2026-04-26T09:36:00.998Z</time></trkpt><trkpt lat="42.771744419658525" lon="10.332620964266688"><ele>246.33333333333334</ele><time>2026-04-26T09:36:01.998Z</time></trkpt><trkpt lat="42.77167663891723" lon="10.332634576144901"><ele>244.66666666666669</ele><time>2026-04-26T09:36:02.998Z</time></trkpt><trkpt lat="42.77160224516663" lon="10.332666998221224"><ele>243.0</ele><time>2026-04-26T09:36:03.998Z</time></trkpt><trkpt lat="42.771480028020974" lon="10.332703083828154"><ele>241.33333333333331</ele><time>2026-04-26T09:36:05.998Z</time></trkpt><trkpt lat="42.77141235870674" lon="10.332746519653023"><ele>239.66666666666666</ele><time>2026-04-26T09:36:06.998Z</time></trkpt><trkpt lat="42.77134645855727" lon="10.332778602724977"><ele>238.0</ele><time>2026-04-26T09:36:07.998Z</time></trkpt><trkpt lat="42.77124778645159" lon="10.332818205852028"><ele>237.99999999999997</ele><time>2026-04-26T09:36:09.998Z</time></trkpt><trkpt lat="42.771181338736625" lon="10.332817042989252"><ele>238.0</ele><time>2026-04-26T09:36:11.998Z</time></trkpt><trkpt lat="42.77112008520246" lon="10.33279596870431"><ele>238.0</ele><time>2026-04-26T09:36:12.998Z</time></trkpt><trkpt lat="42.771036135324245" lon="10.332716218821943"><ele>238.0</ele><time>2026-04-26T09:36:14.998Z</time></trkpt><trkpt lat="42.770995602055116" lon="10.332606399828354"><ele>237.99999999999997</ele><time>2026-04-26T09:36:16.998Z</time></trkpt><trkpt lat="42.77098371592008" lon="10.332502889406122"><ele>238.0</ele><time>2026-04-26T09:36:18.998Z</time></trkpt><trkpt lat="42.77099292172454" lon="10.332384294446355"><ele>235.4</ele><time>2026-04-26T09:36:20.998Z</time></trkpt><trkpt lat="42.771012657220645" lon="10.332222019050976"><ele>232.8</ele><time>2026-04-26T09:36:22.998Z</time></trkpt><trkpt lat="42.771013927467834" lon="10.332129718160665"><ele>230.2</ele><time>2026-04-26T09:36:23.998Z</time></trkpt><trkpt lat="42.77101142654288" lon="10.33198350816489"><ele>227.6</ele><time>2026-04-26T09:36:25.998Z</time></trkpt><trkpt lat="42.770994397995736" lon="10.331824008401265"><ele>225.0</ele><time>2026-04-26T09:36:27.998Z</time></trkpt><trkpt lat="42.770960840806204" lon="10.331714271804598"><ele>225.00000000000003</ele><time>2026-04-26T09:36:29.998Z</time></trkpt><trkpt lat="42.77091964788822" lon="10.331645682257498"><ele>225.0</ele><time>2026-04-26T09:36:31.998Z</time></trkpt><trkpt lat="42.77088632822232" lon="10.331572806192378"><ele>225.00000000000003</ele><time>2026-04-26T09:36:32.998Z</time></trkpt><trkpt lat="42.77085424318711" lon="10.331485294407376"><ele>225.00000000000003</ele><time>2026-04-26T09:36:34.998Z</time></trkpt><trkpt lat="42.7708053061006" lon="10.331409998553665"><ele>225.0</ele><time>2026-04-26T09:36:37.998Z</time></trkpt><trkpt lat="42.77072855858109" lon="10.331360732084693"><ele>225.00000000000003</ele><time>2026-04-26T09:36:56.997Z</time></trkpt><trkpt lat="42.77065471852441" lon="10.331392768439585"><ele>225.00000000000003</ele><time>2026-04-26T09:36:58.997Z</time></trkpt><trkpt lat="42.770571176995624" lon="10.331446026214923"><ele>225.0</ele><time>2026-04-26T09:37:00.997Z</time></trkpt><trkpt lat="42.77047027168209" lon="10.331528288829576"><ele>225.0</ele><time>2026-04-26T09:37:02.997Z</time></trkpt><trkpt lat="42.770388365929755" lon="10.331583644251788"><ele>225.0</ele><time>2026-04-26T09:37:04.997Z</time></trkpt><trkpt lat="42.77030517370581" lon="10.33162606994445"><ele>225.0</ele><time>2026-04-26T09:37:06.997Z</time></trkpt><trkpt lat="42.7702381187968" lon="10.331654765759911"><ele>225.0</ele><time>2026-04-26T09:37:08.997Z</time></trkpt><trkpt lat="42.77014848473625" lon="10.33169663252214"><ele>222.16666666666666</ele><time>2026-04-26T09:37:10.997Z</time></trkpt><trkpt lat="42.77008495793539" lon="10.331724291963543"><ele>219.33333333333331</ele><time>2026-04-26T09:37:12.997Z</time></trkpt><trkpt lat="42.7699952607764" lon="10.33173950386524"><ele>216.5</ele><time>2026-04-26T09:37:15.997Z</time></trkpt><trkpt lat="42.769913418983435" lon="10.331738312245953"><ele>213.66666666666666</ele><time>2026-04-26T09:37:19.997Z</time></trkpt><trkpt lat="42.76981971446582" lon="10.331687741999728"><ele>210.83333333333331</ele><time>2026-04-26T09:37:22.997Z</time></trkpt><trkpt lat="42.76973533374032" lon="10.33164114442413"><ele>208.0</ele><time>2026-04-26T09:37:24.997Z</time></trkpt><trkpt lat="42.7696403182839" lon="10.331583229050416"><ele>208.0</ele><time>2026-04-26T09:37:26.997Z</time></trkpt><trkpt lat="42.769515578303974" lon="10.33149943177013"><ele>208.0</ele><time>2026-04-26T09:37:28.997Z</time></trkpt><trkpt lat="42.76945252924655" lon="10.331458050894003"><ele>208.0</ele><time>2026-04-26T09:37:29.997Z</time></trkpt><trkpt lat="42.769349771959604" lon="10.33138773725513"><ele>208.0</ele><time>2026-04-26T09:37:31.999Z</time></trkpt><trkpt lat="42.76929407435604" lon="10.331343718903556"><ele>208.0</ele><time>2026-04-26T09:37:32.999Z</time></trkpt><trkpt lat="42.76923118984495" lon="10.331297934312204"><ele>205.83333333333331</ele><time>2026-04-26T09:37:33.999Z</time></trkpt><trkpt lat="42.76917560839062" lon="10.331255976056019"><ele>203.66666666666666</ele><time>2026-04-26T09:37:34.999Z</time></trkpt><trkpt lat="42.76909408427911" lon="10.331178347955351"><ele>201.5</ele><time>2026-04-26T09:37:36.999Z</time></trkpt><trkpt lat="42.769016292681734" lon="10.33112024410166"><ele>199.33333333333331</ele><time>2026-04-26T09:37:38.999Z</time></trkpt><trkpt lat="42.768955689742675" lon="10.331070675966615"><ele>197.16666666666666</ele><time>2026-04-26T09:37:41Z</time></trkpt><trkpt lat="42.76887221552196" lon="10.331063231166457"><ele>195.0</ele><time>2026-04-26T09:37:44Z</time></trkpt><trkpt lat="42.76881350894929" lon="10.33109946477553"><ele>195.0</ele><time>2026-04-26T09:37:46Z</time></trkpt><trkpt lat="42.76876460995345" lon="10.3311659111476"><ele>195.0</ele><time>2026-04-26T09:37:48Z</time></trkpt><trkpt lat="42.768709119829346" lon="10.331261031699489"><ele>195.0</ele><time>2026-04-26T09:37:52Z</time></trkpt><trkpt lat="42.76865703763733" lon="10.33132608074747"><ele>195.0</ele><time>2026-04-26T09:37:54Z</time></trkpt><trkpt lat="42.76859909907439" lon="10.331379778435549"><ele>195.0</ele><time>2026-04-26T09:37:56Z</time></trkpt><trkpt lat="42.76853988174208" lon="10.331429359912951"><ele>195.0</ele><time>2026-04-26T09:37:58Z</time></trkpt><trkpt lat="42.76846747824286" lon="10.331499399061254"><ele>193.16666666666666</ele><time>2026-04-26T09:38:01Z</time></trkpt><trkpt lat="42.76839918232251" lon="10.331581336773969"><ele>191.33333333333334</ele><time>2026-04-26T09:38:04Z</time></trkpt><trkpt lat="42.76836313700928" lon="10.331655917977326"><ele>189.5</ele><time>2026-04-26T09:38:06Z</time></trkpt><trkpt lat="42.768338636626595" lon="10.331738647206278"><ele>187.66666666666669</ele><time>2026-04-26T09:38:08Z</time></trkpt><trkpt lat="42.76832670394227" lon="10.331823362988231"><ele>185.83333333333334</ele><time>2026-04-26T09:38:10Z</time></trkpt><trkpt lat="42.76833336868982" lon="10.331931639623596"><ele>184.0</ele><time>2026-04-26T09:38:12Z</time></trkpt><trkpt lat="42.76836279819767" lon="10.33206427985589"><ele>184.0</ele><time>2026-04-26T09:38:14Z</time></trkpt><trkpt lat="42.768398772608315" lon="10.332142721326832"><ele>184.0</ele><time>2026-04-26T09:38:16Z</time></trkpt><trkpt lat="42.768451697415735" lon="10.332203904130461"><ele>184.0</ele><time>2026-04-26T09:38:55.999Z</time></trkpt><trkpt lat="42.76846915970921" lon="10.3323219489362"><ele>184.0</ele><time>2026-04-26T09:38:58.999Z</time></trkpt><trkpt lat="42.76842161495001" lon="10.332405018217711"><ele>184.0</ele><time>2026-04-26T09:39:01.999Z</time></trkpt><trkpt lat="42.76835988073279" lon="10.332425446553417"><ele>184.0</ele><time>2026-04-26T09:39:03.999Z</time></trkpt><trkpt lat="42.768270915883065" lon="10.332417825728344"><ele>184.0</ele><time>2026-04-26T09:39:06.999Z</time></trkpt><trkpt lat="42.76820985545136" lon="10.33238061932413"><ele>184.0</ele><time>2026-04-26T09:39:08.999Z</time></trkpt><trkpt lat="42.76814604096933" lon="10.332296527281645"><ele>184.0</ele><time>2026-04-26T09:39:10.999Z</time></trkpt><trkpt lat="42.76809555355336" lon="10.332197784323615"><ele>184.0</ele><time>2026-04-26T09:39:12.999Z</time></trkpt><trkpt lat="42.768053014656836" lon="10.332086853715781"><ele>184.0</ele><time>2026-04-26T09:39:14.999Z</time></trkpt><trkpt lat="42.768028367240774" lon="10.331939187023133"><ele>184.0</ele><time>2026-04-26T09:39:17.999Z</time></trkpt><trkpt lat="42.76801126435652" lon="10.331805219818891"><ele>184.0</ele><time>2026-04-26T09:39:19.999Z</time></trkpt><trkpt lat="42.76800742434517" lon="10.331681191189453"><ele>184.0</ele><time>2026-04-26T09:39:21.999Z</time></trkpt><trkpt lat="42.76800758263208" lon="10.331519528208975"><ele>184.0</ele><time>2026-04-26T09:39:23.999Z</time></trkpt><trkpt lat="42.76802879640104" lon="10.331385131314173"><ele>184.0</ele><time>2026-04-26T09:39:25.999Z</time></trkpt><trkpt lat="42.768050155573086" lon="10.331299730528121"><ele>184.0</ele><time>2026-04-26T09:39:26.999Z</time></trkpt><trkpt lat="42.76807126776661" lon="10.331216846038961"><ele>184.0</ele><time>2026-04-26T09:39:27.999Z</time></trkpt><trkpt lat="42.76810373529759" lon="10.331140441915002"><ele>183.2</ele><time>2026-04-26T09:39:28.999Z</time></trkpt><trkpt lat="42.76814871925875" lon="10.331007938858566"><ele>182.39999999999998</ele><time>2026-04-26T09:39:30.999Z</time></trkpt><trkpt lat="42.76814071847626" lon="10.330907962525254"><ele>181.6</ele><time>2026-04-26T09:39:32.999Z</time></trkpt><trkpt lat="42.76809028902127" lon="10.33078506908517"><ele>180.8</ele><time>2026-04-26T09:39:34.999Z</time></trkpt><trkpt lat="42.768025926694015" lon="10.330640592587338"><ele>180.0</ele><time>2026-04-26T09:39:37.001Z</time></trkpt><trkpt lat="42.76799039294928" lon="10.330564013210212"><ele>178.16666666666666</ele><time>2026-04-26T09:39:38.001Z</time></trkpt><trkpt lat="42.767944659723376" lon="10.330478059644664"><ele>176.33333333333334</ele><time>2026-04-26T09:39:39.001Z</time></trkpt><trkpt lat="42.767902712322154" lon="10.330406866883063"><ele>174.5</ele><time>2026-04-26T09:39:40.001Z</time></trkpt><trkpt lat="42.7678241351352" lon="10.330310282040077"><ele>172.66666666666669</ele><time>2026-04-26T09:39:42.001Z</time></trkpt><trkpt lat="42.767760868100716" lon="10.330212766240324"><ele>170.83333333333334</ele><time>2026-04-26T09:39:44.001Z</time></trkpt><trkpt lat="42.767719411977176" lon="10.330121021865711"><ele>169.0</ele><time>2026-04-26T09:39:46.001Z</time></trkpt><trkpt lat="42.767662536065394" lon="10.33006835090359"><ele>166.5</ele><time>2026-04-26T09:39:48.001Z</time></trkpt><trkpt lat="42.76760350491564" lon="10.32998316540687"><ele>164.0</ele><time>2026-04-26T09:39:50.001Z</time></trkpt><trkpt lat="42.76756263235546" lon="10.329894512518829"><ele>161.5</ele><time>2026-04-26T09:39:52.001Z</time></trkpt><trkpt lat="42.767526424327116" lon="10.329811764771632"><ele>159.0</ele><time>2026-04-26T09:39:54Z</time></trkpt><trkpt lat="42.76746429370877" lon="10.329751033467545"><ele>156.5</ele><time>2026-04-26T09:39:56Z</time></trkpt><trkpt lat="42.767385925504314" lon="10.329687222111973"><ele>154.0</ele><time>2026-04-26T09:39:58Z</time></trkpt><trkpt lat="42.76731189405525" lon="10.329641416724318"><ele>151.6</ele><time>2026-04-26T09:40:00Z</time></trkpt><trkpt lat="42.767233628896975" lon="10.32958299710675"><ele>149.2</ele><time>2026-04-26T09:40:02Z</time></trkpt><trkpt lat="42.76716383451565" lon="10.329513339942606"><ele>146.79999999999998</ele><time>2026-04-26T09:40:04Z</time></trkpt><trkpt lat="42.76709636980632" lon="10.329459761063427"><ele>144.4</ele><time>2026-04-26T09:40:06Z</time></trkpt><trkpt lat="42.767023285089515" lon="10.329392005673697"><ele>142.0</ele><time>2026-04-26T09:40:08Z</time></trkpt><trkpt lat="42.76692758056022" lon="10.329308288408539"><ele>142.0</ele><time>2026-04-26T09:40:10Z</time></trkpt><trkpt lat="42.76685695189532" lon="10.329238682869082"><ele>142.0</ele><time>2026-04-26T09:40:12Z</time></trkpt><trkpt lat="42.76679310642656" lon="10.329159881923278"><ele>142.0</ele><time>2026-04-26T09:40:14Z</time></trkpt><trkpt lat="42.766764823226666" lon="10.329072844074226"><ele>142.0</ele><time>2026-04-26T09:40:16Z</time></trkpt><trkpt lat="42.76679276179761" lon="10.328985520583919"><ele>142.0</ele><time>2026-04-26T09:40:18Z</time></trkpt><trkpt lat="42.76686447142999" lon="10.3289632591136"><ele>142.0</ele><time>2026-04-26T09:40:20Z</time></trkpt><trkpt lat="42.76693373420483" lon="10.328996844528803"><ele>142.0</ele><time>2026-04-26T09:40:22Z</time></trkpt><trkpt lat="42.76696232053733" lon="10.328917111758997"><ele>142.0</ele><time>2026-04-26T09:40:31Z</time></trkpt><trkpt lat="42.766937359993875" lon="10.328827132706925"><ele>142.0</ele><time>2026-04-26T09:40:36Z</time></trkpt><trkpt lat="42.76687707759485" lon="10.328778468679399"><ele>142.0</ele><time>2026-04-26T09:40:55.999Z</time></trkpt><trkpt lat="42.76681843998936" lon="10.328743250903303"><ele>142.0</ele><time>2026-04-26T09:40:58.999Z</time></trkpt><trkpt lat="42.76673258671819" lon="10.328728376395809"><ele>142.0</ele><time>2026-04-26T09:41:02.999Z</time></trkpt><trkpt lat="42.76664645478823" lon="10.328731738162592"><ele>142.0</ele><time>2026-04-26T09:41:05.999Z</time></trkpt><trkpt lat="42.76658285822172" lon="10.32875490028001"><ele>138.33333333333334</ele><time>2026-04-26T09:41:08.999Z</time></trkpt><trkpt lat="42.7665228369362" lon="10.328785812098381"><ele>134.66666666666669</ele><time>2026-04-26T09:41:11.999Z</time></trkpt><trkpt lat="42.76645261380302" lon="10.328789448314156"><ele>131.0</ele><time>2026-04-26T09:41:13.999Z</time></trkpt><trkpt lat="42.76638994131089" lon="10.328800385955393"><ele>127.33333333333334</ele><time>2026-04-26T09:41:15.999Z</time></trkpt><trkpt lat="42.76629847529893" lon="10.328809574179228"><ele>123.66666666666667</ele><time>2026-04-26T09:41:18.999Z</time></trkpt><trkpt lat="42.76620759549409" lon="10.328824600035562"><ele>120.0</ele><time>2026-04-26T09:41:21.999Z</time></trkpt><trkpt lat="42.76615045629944" lon="10.328879718792743"><ele>122.66666666666667</ele><time>2026-04-26T09:41:23.999Z</time></trkpt><trkpt lat="42.76612867803445" lon="10.329002430730789"><ele>125.33333333333334</ele><time>2026-04-26T09:41:26.999Z</time></trkpt><trkpt lat="42.76612698697952" lon="10.329090501603828"><ele>128.0</ele><time>2026-04-26T09:41:28.999Z</time></trkpt><trkpt lat="42.76615377102573" lon="10.329201795258843"><ele>130.66666666666669</ele><time>2026-04-26T09:41:31.999Z</time></trkpt><trkpt lat="42.766177370162886" lon="10.32930042991654"><ele>133.33333333333334</ele><time>2026-04-26T09:41:34.999Z</time></trkpt><trkpt lat="42.766222125102146" lon="10.32941025023826"><ele>136.0</ele><time>2026-04-26T09:42:17Z</time></trkpt><trkpt lat="42.76629174922351" lon="10.329491939877242"><ele>135.99999999999997</ele><time>2026-04-26T09:42:20Z</time></trkpt><trkpt lat="42.766313267809274" lon="10.329594620534058"><ele>136.0</ele><time>2026-04-26T09:42:23Z</time></trkpt><trkpt lat="42.76624935289923" lon="10.329607641444682"><ele>136.0</ele><time>2026-04-26T09:42:26Z</time></trkpt><trkpt lat="42.766191490865914" lon="10.32955339117869"><ele>136.0</ele><time>2026-04-26T09:47:29.999Z</time></trkpt><trkpt lat="42.76613957867674" lon="10.329471644769102"><ele>136.0</ele><time>2026-04-26T09:47:34.999Z</time></trkpt><trkpt lat="42.76609036089264" lon="10.329417063916054"><ele>135.99999999999997</ele><time>2026-04-26T09:47:37.999Z</time></trkpt><trkpt lat="42.766025796961365" lon="10.32932529735002"><ele>136.0</ele><time>2026-04-26T09:47:53.999Z</time></trkpt><trkpt lat="42.76596751897172" lon="10.329278173687758"><ele>131.5</ele><time>2026-04-26T09:47:55.999Z</time></trkpt><trkpt lat="42.765903236654474" lon="10.329242232720091"><ele>127.0</ele><time>2026-04-26T09:47:57.999Z</time></trkpt><trkpt lat="42.765845785067356" lon="10.329195233060627"><ele>122.5</ele><time>2026-04-26T09:48:00.001Z</time></trkpt><trkpt lat="42.76579294421775" lon="10.3291204676583"><ele>118.0</ele><time>2026-04-26T09:48:02.001Z</time></trkpt><trkpt lat="42.76575869531747" lon="10.329018246581912"><ele>113.50000000000001</ele><time>2026-04-26T09:48:04.001Z</time></trkpt><trkpt lat="42.765742120889904" lon="10.328924518241863"><ele>109.0</ele><time>2026-04-26T09:48:06.001Z</time></trkpt><trkpt lat="42.7657312974604" lon="10.3288048873141"><ele>108.16666666666667</ele><time>2026-04-26T09:48:09.001Z</time></trkpt><trkpt lat="42.76574433623172" lon="10.328682442303712"><ele>107.33333333333334</ele><time>2026-04-26T09:48:12.001Z</time></trkpt><trkpt lat="42.76575387054082" lon="10.328563268811838"><ele>106.5</ele><time>2026-04-26T09:48:15.001Z</time></trkpt><trkpt lat="42.76574772454581" lon="10.328465456922657"><ele>105.66666666666666</ele><time>2026-04-26T09:48:17.001Z</time></trkpt><trkpt lat="42.765762409318135" lon="10.328381077426622"><ele>104.83333333333333</ele><time>2026-04-26T09:48:19.001Z</time></trkpt><trkpt lat="42.765788859741846" lon="10.328265056689862"><ele>104.0</ele><time>2026-04-26T09:48:22Z</time></trkpt><trkpt lat="42.7658454757879" lon="10.328202064149197"><ele>103.99999999999999</ele><time>2026-04-26T09:49:37.998Z</time></trkpt><trkpt lat="42.765895589216825" lon="10.32812434295447"><ele>104.0</ele><time>2026-04-26T09:49:41.998Z</time></trkpt><trkpt lat="42.76594995045052" lon="10.328034258921068"><ele>104.0</ele><time>2026-04-26T09:49:44.998Z</time></trkpt><trkpt lat="42.766007304772714" lon="10.327989105676732"><ele>104.0</ele><time>2026-04-26T09:49:47.998Z</time></trkpt><trkpt lat="42.766072535488995" lon="10.327952034742664"><ele>103.99999999999999</ele><time>2026-04-26T09:49:49.998Z</time></trkpt><trkpt lat="42.76615241448553" lon="10.32791052203448"><ele>104.0</ele><time>2026-04-26T09:49:51.998Z</time></trkpt><trkpt lat="42.7662275248159" lon="10.327877380457032"><ele>102.49999999999999</ele><time>2026-04-26T09:49:53.998Z</time></trkpt><trkpt lat="42.76631059895676" lon="10.327838200978578"><ele>101.0</ele><time>2026-04-26T09:49:56.998Z</time></trkpt><trkpt lat="42.76636134065534" lon="10.327770729468284"><ele>99.5</ele><time>2026-04-26T09:49:59.998Z</time></trkpt><trkpt lat="42.7664036543556" lon="10.327702203118752"><ele>98.0</ele><time>2026-04-26T09:50:01.998Z</time></trkpt><trkpt lat="42.766461113661315" lon="10.32759076172978"><ele>96.5</ele><time>2026-04-26T09:50:04.998Z</time></trkpt><trkpt lat="42.766490336421406" lon="10.327498108058402"><ele>95.0</ele><time>2026-04-26T09:50:06.999Z</time></trkpt><trkpt lat="42.766541896576925" lon="10.32739104792128"><ele>95.0</ele><time>2026-04-26T09:50:09.999Z</time></trkpt><trkpt lat="42.766610966047025" lon="10.327285853937596"><ele>95.0</ele><time>2026-04-26T09:50:11.999Z</time></trkpt><trkpt lat="42.76667310828279" lon="10.327208939247424"><ele>95.0</ele><time>2026-04-26T09:50:13.999Z</time></trkpt><trkpt lat="42.766752352187275" lon="10.327160651235467"><ele>95.0</ele><time>2026-04-26T09:50:15.998Z</time></trkpt><trkpt lat="42.766843496491305" lon="10.32709917897944"><ele>95.0</ele><time>2026-04-26T09:50:17.998Z</time></trkpt><trkpt lat="42.76693335524811" lon="10.327097054111391"><ele>92.83333333333334</ele><time>2026-04-26T09:50:19.999Z</time></trkpt><trkpt lat="42.767033815547286" lon="10.327079661543637"><ele>90.66666666666667</ele><time>2026-04-26T09:50:21.999Z</time></trkpt><trkpt lat="42.76711317548928" lon="10.327075655566519"><ele>88.5</ele><time>2026-04-26T09:50:23.999Z</time></trkpt><trkpt lat="42.767175312628275" lon="10.32709009512148"><ele>86.33333333333333</ele><time>2026-04-26T09:50:25.999Z</time></trkpt><trkpt lat="42.76723821630463" lon="10.327097018525226"><ele>84.16666666666666</ele><time>2026-04-26T09:50:27.999Z</time></trkpt><trkpt lat="42.767315300433154" lon="10.327115379686184"><ele>82.0</ele><time>2026-04-26T09:50:30.999Z</time></trkpt><trkpt lat="42.76738412319909" lon="10.327109442048325"><ele>81.99999999999999</ele><time>2026-04-26T09:50:33.999Z</time></trkpt><trkpt lat="42.7674516924686" lon="10.327056235818867"><ele>82.0</ele><time>2026-04-26T09:50:36.999Z</time></trkpt><trkpt lat="42.7674881783365" lon="10.326963987585325"><ele>82.0</ele><time>2026-04-26T09:50:41.999Z</time></trkpt><trkpt lat="42.76749676992555" lon="10.326867054568435"><ele>82.0</ele><time>2026-04-26T09:50:44.999Z</time></trkpt><trkpt lat="42.767454436140575" lon="10.326782054407323"><ele>82.0</ele><time>2026-04-26T09:50:46.999Z</time></trkpt><trkpt lat="42.76740539835572" lon="10.326708285450886"><ele>81.99999999999999</ele><time>2026-04-26T09:50:48.999Z</time></trkpt><trkpt lat="42.76738485670658" lon="10.326616004736861"><ele>82.0</ele><time>2026-04-26T09:50:50.999Z</time></trkpt><trkpt lat="42.76739372429979" lon="10.326529407016507"><ele>80.83333333333333</ele><time>2026-04-26T09:50:52.999Z</time></trkpt><trkpt lat="42.76741003068582" lon="10.326389794270906"><ele>79.66666666666666</ele><time>2026-04-26T09:50:54.999Z</time></trkpt><trkpt lat="42.76743145166959" lon="10.32627234942152"><ele>78.5</ele><time>2026-04-26T09:50:56.999Z</time></trkpt><trkpt lat="42.76744498303709" lon="10.326151484147205"><ele>77.33333333333333</ele><time>2026-04-26T09:50:59.999Z</time></trkpt><trkpt lat="42.76742052428963" lon="10.326052424483201"><ele>76.16666666666667</ele><time>2026-04-26T09:51:02.998Z</time></trkpt><trkpt lat="42.76737843058969" lon="10.32598032974932"><ele>75.0</ele><time>2026-04-26T09:51:05.998Z</time></trkpt><trkpt lat="42.767342539595354" lon="10.32590034199211"><ele>74.99999999999999</ele><time>2026-04-26T09:51:10.998Z</time></trkpt><trkpt lat="42.767303328866035" lon="10.325812179063318"><ele>75.0</ele><time>2026-04-26T09:51:13.998Z</time></trkpt><trkpt lat="42.76726421991551" lon="10.325743007997312"><ele>75.0</ele><time>2026-04-26T09:51:16.998Z</time></trkpt><trkpt lat="42.767210422335" lon="10.325665297082741"><ele>75.0</ele><time>2026-04-26T09:51:20.998Z</time></trkpt><trkpt lat="42.76713825616829" lon="10.32560349978915"><ele>75.0</ele><time>2026-04-26T09:51:23.998Z</time></trkpt><trkpt lat="42.767089374462856" lon="10.325548519431116"><ele>74.99999999999999</ele><time>2026-04-26T09:51:25.998Z</time></trkpt><trkpt lat="42.76703209298368" lon="10.32549694895767"><ele>75.0</ele><time>2026-04-26T09:51:27.998Z</time></trkpt><trkpt lat="42.76697708473751" lon="10.325449008386153"><ele>73.16666666666667</ele><time>2026-04-26T09:51:29.998Z</time></trkpt><trkpt lat="42.76690958350077" lon="10.325404835935405"><ele>71.33333333333333</ele><time>2026-04-26T09:51:32.998Z</time></trkpt><trkpt lat="42.766860066951764" lon="10.325302107126271"><ele>69.5</ele><time>2026-04-26T09:51:35.998Z</time></trkpt><trkpt lat="42.76682869804282" lon="10.325226157664993"><ele>67.66666666666666</ele><time>2026-04-26T09:51:37.998Z</time></trkpt><trkpt lat="42.766787870878886" lon="10.325135991010491"><ele>65.83333333333333</ele><time>2026-04-26T09:51:39.998Z</time></trkpt><trkpt lat="42.76674211794002" lon="10.325049396911409"><ele>64.0</ele><time>2026-04-26T09:51:41.998Z</time></trkpt><trkpt lat="42.766705001740725" lon="10.324972922766296"><ele>62.99999999999999</ele><time>2026-04-26T09:51:43.998Z</time></trkpt><trkpt lat="42.7666541614593" lon="10.324875279472336"><ele>62.0</ele><time>2026-04-26T09:51:46.998Z</time></trkpt><trkpt lat="42.76659366203444" lon="10.324772514493274"><ele>61.0</ele><time>2026-04-26T09:51:49.998Z</time></trkpt><trkpt lat="42.76653332991054" lon="10.324678902811243"><ele>60.0</ele><time>2026-04-26T09:51:52.998Z</time></trkpt><trkpt lat="42.76649103823212" lon="10.324610083788706"><ele>58.99999999999999</ele><time>2026-04-26T09:51:54.998Z</time></trkpt><trkpt lat="42.766440570377" lon="10.32453366998397"><ele>58.0</ele><time>2026-04-26T09:51:56.998Z</time></trkpt><trkpt lat="42.76640148154606" lon="10.324466348429995"><ele>56.83333333333333</ele><time>2026-04-26T09:51:58.998Z</time></trkpt><trkpt lat="42.766338759722004" lon="10.324366674374719"><ele>55.666666666666664</ele><time>2026-04-26T09:52:01.998Z</time></trkpt><trkpt lat="42.76627818313982" lon="10.324273142111696"><ele>54.5</ele><time>2026-04-26T09:52:03.998Z</time></trkpt><trkpt lat="42.76622048406952" lon="10.324171932068825"><ele>53.33333333333333</ele><time>2026-04-26T09:52:05.998Z</time></trkpt><trkpt lat="42.76616292915076" lon="10.324093639073448"><ele>52.166666666666664</ele><time>2026-04-26T09:52:07.998Z</time></trkpt><trkpt lat="42.76608914674499" lon="10.32403874243127"><ele>51.0</ele><time>2026-04-26T09:52:09.998Z</time></trkpt><trkpt lat="42.76599551127739" lon="10.323987066211222"><ele>50.0</ele><time>2026-04-26T09:52:11.999Z</time></trkpt><trkpt lat="42.76589418879829" lon="10.323953358745282"><ele>49.0</ele><time>2026-04-26T09:52:13.999Z</time></trkpt><trkpt lat="42.765807195041106" lon="10.323919072234295"><ele>48.0</ele><time>2026-04-26T09:52:15.999Z</time></trkpt><trkpt lat="42.7657159429087" lon="10.32388125857453"><ele>47.0</ele><time>2026-04-26T09:52:17.999Z</time></trkpt><trkpt lat="42.765638192879116" lon="10.323858954386127"><ele>46.0</ele><time>2026-04-26T09:52:19.999Z</time></trkpt><trkpt lat="42.76554544489487" lon="10.323817149365317"><ele>46.0</ele><time>2026-04-26T09:52:22.999Z</time></trkpt><trkpt lat="42.765480229529366" lon="10.323767964815303"><ele>46.0</ele><time>2026-04-26T09:52:24.999Z</time></trkpt><trkpt lat="42.76539657627424" lon="10.32373815938084"><ele>46.0</ele><time>2026-04-26T09:52:27.999Z</time></trkpt><trkpt lat="42.76532505720231" lon="10.323805481796962"><ele>46.0</ele><time>2026-04-26T09:52:30.999Z</time></trkpt><trkpt lat="42.76533583407324" lon="10.323898079511688"><ele>46.0</ele><time>2026-04-26T09:52:32.999Z</time></trkpt><trkpt lat="42.76540557245034" lon="10.323958902831652"><ele>46.0</ele><time>2026-04-26T09:52:34.999Z</time></trkpt><trkpt lat="42.76545600550364" lon="10.324029455861096"><ele>46.0</ele><time>2026-04-26T09:52:37.999Z</time></trkpt><trkpt lat="42.765383252802394" lon="10.32405304866625"><ele>46.0</ele><time>2026-04-26T09:52:40.999Z</time></trkpt><trkpt lat="42.76531415275071" lon="10.323961394404744"><ele>46.0</ele><time>2026-04-26T09:52:42.999Z</time></trkpt><trkpt lat="42.765255427770654" lon="10.32387885082349"><ele>46.0</ele><time>2026-04-26T09:52:44.999Z</time></trkpt><trkpt lat="42.76521099170287" lon="10.323775713514992"><ele>46.0</ele><time>2026-04-26T09:52:46.999Z</time></trkpt><trkpt lat="42.765211566068736" lon="10.32364020955771"><ele>46.0</ele><time>2026-04-26T09:52:48.999Z</time></trkpt><trkpt lat="42.765279879954626" lon="10.32354131479549"><ele>44.599999999999994</ele><time>2026-04-26T09:52:50.999Z</time></trkpt><trkpt lat="42.76537059381677" lon="10.323492912409634"><ele>43.199999999999996</ele><time>2026-04-26T09:52:52.999Z</time></trkpt><trkpt lat="42.76546489213394" lon="10.323450729150473"><ele>41.8</ele><time>2026-04-26T09:52:54.999Z</time></trkpt><trkpt lat="42.76555783568351" lon="10.323426525307582"><ele>40.4</ele><time>2026-04-26T09:52:56.999Z</time></trkpt><trkpt lat="42.765624090434876" lon="10.323403209563196"><ele>39.0</ele><time>2026-04-26T09:52:58.999Z</time></trkpt><trkpt lat="42.76572108717807" lon="10.323358550988598"><ele>39.0</ele><time>2026-04-26T09:53:00.999Z</time></trkpt><trkpt lat="42.76580644584777" lon="10.32332140911094"><ele>39.0</ele><time>2026-04-26T09:53:01.999Z</time></trkpt><trkpt lat="42.7658835048761" lon="10.323295561554698"><ele>39.0</ele><time>2026-04-26T09:53:02.999Z</time></trkpt><trkpt lat="42.76595696031623" lon="10.323265365670599"><ele>39.0</ele><time>2026-04-26T09:53:03.999Z</time></trkpt><trkpt lat="42.766053404149524" lon="10.323155484840816"><ele>39.0</ele><time>2026-04-26T09:53:05.999Z</time></trkpt><trkpt lat="42.76608137128522" lon="10.323059095231722"><ele>39.0</ele><time>2026-04-26T09:53:06.999Z</time></trkpt><trkpt lat="42.76609483237727" lon="10.322935309435513"><ele>38.833333333333336</ele><time>2026-04-26T09:53:07.999Z</time></trkpt><trkpt lat="42.766091942403776" lon="10.322803577914573"><ele>38.666666666666664</ele><time>2026-04-26T09:53:08.999Z</time></trkpt><trkpt lat="42.766096532379606" lon="10.32268816025026"><ele>38.5</ele><time>2026-04-26T09:53:09.999Z</time></trkpt><trkpt lat="42.76613982780791" lon="10.322593846941528"><ele>38.33333333333333</ele><time>2026-04-26T09:53:10.999Z</time></trkpt><trkpt lat="42.76619382732723" lon="10.322519413610763"><ele>38.166666666666664</ele><time>2026-04-26T09:53:11.999Z</time></trkpt><trkpt lat="42.76627148563432" lon="10.322455299540703"><ele>38.0</ele><time>2026-04-26T09:53:12.999Z</time></trkpt><trkpt lat="42.766358269940376" lon="10.322395358161963"><ele>38.0</ele><time>2026-04-26T09:53:13.999Z</time></trkpt><trkpt lat="42.76644458754142" lon="10.322333709805976"><ele>38.0</ele><time>2026-04-26T09:53:14.999Z</time></trkpt><trkpt lat="42.766514110160266" lon="10.322268626826178"><ele>38.0</ele><time>2026-04-26T09:53:15.999Z</time></trkpt><trkpt lat="42.76656199306217" lon="10.322188828469516"><ele>38.0</ele><time>2026-04-26T09:53:16.999Z</time></trkpt><trkpt lat="42.76658082306206" lon="10.322082420395946"><ele>38.0</ele><time>2026-04-26T09:53:17.999Z</time></trkpt><trkpt lat="42.76659228102787" lon="10.321988132048476"><ele>38.0</ele><time>2026-04-26T09:53:18.999Z</time></trkpt><trkpt lat="42.7665274091022" lon="10.321891241547469"><ele>38.33333333333333</ele><time>2026-04-26T09:53:19.999Z</time></trkpt><trkpt lat="42.76648942107271" lon="10.32182153291185"><ele>38.666666666666664</ele><time>2026-04-26T09:53:20.998Z</time></trkpt><trkpt lat="42.76643154109115" lon="10.321696310434156"><ele>39.0</ele><time>2026-04-26T09:53:22.998Z</time></trkpt><trkpt lat="42.766388492210545" lon="10.321608806822088"><ele>39.333333333333336</ele><time>2026-04-26T09:53:23.998Z</time></trkpt><trkpt lat="42.76635365251203" lon="10.321527050217902"><ele>39.66666666666667</ele><time>2026-04-26T09:53:25.998Z</time></trkpt><trkpt lat="42.766310794062996" lon="10.321430795156296"><ele>40.0</ele><time>2026-04-26T09:53:26.998Z</time></trkpt><trkpt lat="42.766267958463075" lon="10.321325312258415"><ele>40.66666666666667</ele><time>2026-04-26T09:53:27.998Z</time></trkpt><trkpt lat="42.76622318286637" lon="10.321229716665169"><ele>41.333333333333336</ele><time>2026-04-26T09:53:29.998Z</time></trkpt><trkpt lat="42.76617951554318" lon="10.321137152121677"><ele>42.0</ele><time>2026-04-26T09:53:30.998Z</time></trkpt><trkpt lat="42.76613555636588" lon="10.321055230463596"><ele>42.666666666666664</ele><time>2026-04-26T09:53:32.998Z</time></trkpt><trkpt lat="42.766092177753606" lon="10.320992321462013"><ele>43.33333333333333</ele><time>2026-04-26T09:53:33.998Z</time></trkpt><trkpt lat="42.7660325707471" lon="10.320881321339886"><ele>44.0</ele><time>2026-04-26T09:53:35.998Z</time></trkpt><trkpt lat="42.765959206204045" lon="10.320827668420133"><ele>42.0</ele><time>2026-04-26T09:53:37.998Z</time></trkpt><trkpt lat="42.76589166124227" lon="10.320743784352244"><ele>40.0</ele><time>2026-04-26T09:53:39.998Z</time></trkpt><trkpt lat="42.765835123923424" lon="10.320621258051343"><ele>38.0</ele><time>2026-04-26T09:53:41.998Z</time></trkpt><trkpt lat="42.76569408327154" lon="10.32045546971257"><ele>36.0</ele><time>2026-04-26T09:53:43.998Z</time></trkpt><trkpt lat="42.765626172452755" lon="10.320345418964651"><ele>36.0</ele><time>2026-04-26T09:53:44.998Z</time></trkpt><trkpt lat="42.7655851764542" lon="10.320260156113628"><ele>36.0</ele><time>2026-04-26T09:53:45.998Z</time></trkpt><trkpt lat="42.76552467686632" lon="10.320201338067806"><ele>36.0</ele><time>2026-04-26T09:53:47.998Z</time></trkpt><trkpt lat="42.765450479560364" lon="10.320120160185315"><ele>36.0</ele><time>2026-04-26T09:53:49.998Z</time></trkpt><trkpt lat="42.76535496260875" lon="10.320058779577604"><ele>36.0</ele><time>2026-04-26T09:53:51.998Z</time></trkpt><trkpt lat="42.76529077626032" lon="10.320000732822379"><ele>36.0</ele><time>2026-04-26T09:53:52.998Z</time></trkpt><trkpt lat="42.76515791379414" lon="10.319885971766217"><ele>34.8</ele><time>2026-04-26T09:53:54.998Z</time></trkpt><trkpt lat="42.76506917157735" lon="10.319808895376847"><ele>33.6</ele><time>2026-04-26T09:53:55.998Z</time></trkpt><trkpt lat="42.764986849816935" lon="10.31973899943484"><ele>32.4</ele><time>2026-04-26T09:53:56.998Z</time></trkpt><trkpt lat="42.764912421275426" lon="10.319671355196341"><ele>31.2</ele><time>2026-04-26T09:53:57.998Z</time></trkpt><trkpt lat="42.7648495919498" lon="10.319591665415574"><ele>30.0</ele><time>2026-04-26T09:53:58.998Z</time></trkpt><trkpt lat="42.764792869199546" lon="10.319494473637551"><ele>30.0</ele><time>2026-04-26T09:53:59.998Z</time></trkpt><trkpt lat="42.7647462373197" lon="10.319402909375212"><ele>30.0</ele><time>2026-04-26T09:54:00.998Z</time></trkpt><trkpt lat="42.76471767792771" lon="10.319284804597226"><ele>30.0</ele><time>2026-04-26T09:54:01.998Z</time></trkpt><trkpt lat="42.76472476275481" lon="10.319155959813513"><ele>30.0</ele><time>2026-04-26T09:54:02.998Z</time></trkpt><trkpt lat="42.76473551369621" lon="10.319044692773147"><ele>30.0</ele><time>2026-04-26T09:54:03.998Z</time></trkpt><trkpt lat="42.76474762819433" lon="10.318941648709796"><ele>30.0</ele><time>2026-04-26T09:54:04.998Z</time></trkpt><trkpt lat="42.76478233093039" lon="10.318813529669649"><ele>29.8</ele><time>2026-04-26T09:54:05.998Z</time></trkpt><trkpt lat="42.76481619724019" lon="10.318678730580043"><ele>29.6</ele><time>2026-04-26T09:54:06.998Z</time></trkpt><trkpt lat="42.764832806645124" lon="10.318547327984618"><ele>29.4</ele><time>2026-04-26T09:54:07.998Z</time></trkpt><trkpt lat="42.76486261427848" lon="10.318433412343756"><ele>29.2</ele><time>2026-04-26T09:54:08.998Z</time></trkpt><trkpt lat="42.76488675245225" lon="10.318320893375617"><ele>29.0</ele><time>2026-04-26T09:54:09.998Z</time></trkpt><trkpt lat="42.76489846330689" lon="10.318220673147934"><ele>28.999999999999996</ele><time>2026-04-26T09:54:10.998Z</time></trkpt><trkpt lat="42.764887630521585" lon="10.318121848581253"><ele>29.0</ele><time>2026-04-26T09:54:11.998Z</time></trkpt><trkpt lat="42.76484909653153" lon="10.318044207190514"><ele>29.0</ele><time>2026-04-26T09:54:12.998Z</time></trkpt><trkpt lat="42.76479396235721" lon="10.317973747779376"><ele>29.0</ele><time>2026-04-26T09:54:13.998Z</time></trkpt><trkpt lat="42.76471043616816" lon="10.317893452576952"><ele>28.999999999999996</ele><time>2026-04-26T09:54:14.998Z</time></trkpt><trkpt lat="42.764633284782995" lon="10.317809019845601"><ele>29.0</ele><time>2026-04-26T09:54:15.998Z</time></trkpt><trkpt lat="42.764561039287486" lon="10.31772238270153"><ele>29.166666666666664</ele><time>2026-04-26T09:54:16.999Z</time></trkpt><trkpt lat="42.764507274246775" lon="10.317642417411879"><ele>29.333333333333332</ele><time>2026-04-26T09:54:17.999Z</time></trkpt><trkpt lat="42.764456556363655" lon="10.317556539741947"><ele>29.5</ele><time>2026-04-26T09:54:18.999Z</time></trkpt><trkpt lat="42.764425929615385" lon="10.317454684576537"><ele>29.666666666666664</ele><time>2026-04-26T09:54:19.999Z</time></trkpt><trkpt lat="42.76440202890656" lon="10.317364649148985"><ele>29.833333333333332</ele><time>2026-04-26T09:54:20.999Z</time></trkpt><trkpt lat="42.76438774274342" lon="10.317275238532378"><ele>30.0</ele><time>2026-04-26T09:54:21.999Z</time></trkpt><trkpt lat="42.76438502877218" lon="10.3171687256976"><ele>29.6</ele><time>2026-04-26T09:54:22.999Z</time></trkpt><trkpt lat="42.764389217962886" lon="10.317049887090214"><ele>29.2</ele><time>2026-04-26T09:54:23.999Z</time></trkpt><trkpt lat="42.76440190394157" lon="10.316926432857615"><ele>28.799999999999997</ele><time>2026-04-26T09:54:24.999Z</time></trkpt><trkpt lat="42.764428682107194" lon="10.31680397917476"><ele>28.4</ele><time>2026-04-26T09:54:25.999Z</time></trkpt><trkpt lat="42.76446612826661" lon="10.316690287463397"><ele>28.0</ele><time>2026-04-26T09:54:26.999Z</time></trkpt><trkpt lat="42.76450415805606" lon="10.316584895537067"><ele>28.000000000000004</ele><time>2026-04-26T09:54:27.999Z</time></trkpt><trkpt lat="42.764550634197946" lon="10.31649675680656"><ele>28.0</ele><time>2026-04-26T09:54:28.999Z</time></trkpt><trkpt lat="42.76457009313969" lon="10.316405873306083"><ele>28.0</ele><time>2026-04-26T09:54:29.999Z</time></trkpt><trkpt lat="42.7646193318356" lon="10.316263332476812"><ele>28.0</ele><time>2026-04-26T09:54:31.999Z</time></trkpt><trkpt lat="42.764659729331456" lon="10.316145768744569"><ele>28.000000000000004</ele><time>2026-04-26T09:54:33.999Z</time></trkpt><trkpt lat="42.76470088521538" lon="10.316047009288354"><ele>28.0</ele><time>2026-04-26T09:54:35.999Z</time></trkpt><trkpt lat="42.764753911024584" lon="10.31590010623754"><ele>27.4</ele><time>2026-04-26T09:54:37.999Z</time></trkpt><trkpt lat="42.7647902875034" lon="10.315792190608635"><ele>26.799999999999997</ele><time>2026-04-26T09:54:38.999Z</time></trkpt><trkpt lat="42.76485020522758" lon="10.315640687373238"><ele>26.2</ele><time>2026-04-26T09:54:40.999Z</time></trkpt><trkpt lat="42.76489783137278" lon="10.315502067622804"><ele>25.6</ele><time>2026-04-26T09:54:42.999Z</time></trkpt><trkpt lat="42.764946104477225" lon="10.31536150845094"><ele>25.0</ele><time>2026-04-26T09:54:44.999Z</time></trkpt><trkpt lat="42.7649837184563" lon="10.31525788527081"><ele>24.4</ele><time>2026-04-26T09:54:46.999Z</time></trkpt><trkpt lat="42.765016415044606" lon="10.315175306205601"><ele>23.8</ele><time>2026-04-26T09:54:47.999Z</time></trkpt><trkpt lat="42.76505408969291" lon="10.315064060361406"><ele>23.200000000000003</ele><time>2026-04-26T09:54:48.999Z</time></trkpt><trkpt lat="42.76510791818648" lon="10.314922295478295"><ele>22.6</ele><time>2026-04-26T09:54:49.999Z</time></trkpt><trkpt lat="42.765158395246196" lon="10.314776743702282"><ele>22.0</ele><time>2026-04-26T09:54:50.999Z</time></trkpt><trkpt lat="42.76520715019557" lon="10.3146428758618"><ele>22.0</ele><time>2026-04-26T09:54:51.999Z</time></trkpt><trkpt lat="42.76525356529905" lon="10.314501701162968"><ele>22.0</ele><time>2026-04-26T09:54:52.999Z</time></trkpt><trkpt lat="42.76530518975259" lon="10.314356739596215"><ele>22.0</ele><time>2026-04-26T09:54:53.999Z</time></trkpt><trkpt lat="42.7653567394735" lon="10.31421272993657"><ele>22.0</ele><time>2026-04-26T09:54:54.999Z</time></trkpt><trkpt lat="42.76540853964945" lon="10.314062927995838"><ele>22.0</ele><time>2026-04-26T09:54:55.999Z</time></trkpt><trkpt lat="42.765455473159804" lon="10.313927589251572"><ele>22.0</ele><time>2026-04-26T09:54:56.999Z</time></trkpt><trkpt lat="42.765492852560385" lon="10.313831255435709"><ele>22.0</ele><time>2026-04-26T09:54:57.999Z</time></trkpt><trkpt lat="42.76556792874859" lon="10.313726492014302"><ele>22.0</ele><time>2026-04-26T09:54:59.999Z</time></trkpt><trkpt lat="42.76570843488715" lon="10.313724745573186"><ele>22.0</ele><time>2026-04-26T09:55:01.999Z</time></trkpt><trkpt lat="42.76581019798899" lon="10.313739073607564"><ele>22.25</ele><time>2026-04-26T09:55:02.999Z</time></trkpt><trkpt lat="42.76593259024599" lon="10.313733270438036"><ele>22.5</ele><time>2026-04-26T09:55:03.999Z</time></trkpt><trkpt lat="42.76606776049689" lon="10.313726573663823"><ele>22.75</ele><time>2026-04-26T09:55:04.999Z</time></trkpt><trkpt lat="42.7662124130156" lon="10.313722975364666"><ele>23.0</ele><time>2026-04-26T09:55:05.999Z</time></trkpt><trkpt lat="42.76636432021567" lon="10.31371150166139"><ele>23.0</ele><time>2026-04-26T09:55:06.999Z</time></trkpt><trkpt lat="42.76652356003171" lon="10.313698018768845"><ele>23.0</ele><time>2026-04-26T09:55:07.999Z</time></trkpt><trkpt lat="42.76668211052475" lon="10.313676647040985"><ele>23.0</ele><time>2026-04-26T09:55:08.999Z</time></trkpt><trkpt lat="42.76684427235672" lon="10.313650213276228"><ele>25.0</ele><time>2026-04-26T09:55:09.999Z</time></trkpt><trkpt lat="42.767006754553854" lon="10.313610949068405"><ele>27.0</ele><time>2026-04-26T09:55:10.999Z</time></trkpt><trkpt lat="42.767168316265014" lon="10.313553778057402"><ele>29.0</ele><time>2026-04-26T09:55:11.999Z</time></trkpt><trkpt lat="42.767326938417014" lon="10.313495369599407"><ele>29.0</ele><time>2026-04-26T09:55:12.999Z</time></trkpt><trkpt lat="42.767484886348086" lon="10.313442816787145"><ele>29.0</ele><time>2026-04-26T09:55:13.999Z</time></trkpt><trkpt lat="42.767643378783674" lon="10.313400929336812"><ele>29.0</ele><time>2026-04-26T09:55:14.999Z</time></trkpt><trkpt lat="42.76780081586432" lon="10.313377986305191"><ele>31.0</ele><time>2026-04-26T09:55:15.999Z</time></trkpt><trkpt lat="42.76795762265631" lon="10.313363342480052"><ele>33.0</ele><time>2026-04-26T09:55:16.999Z</time></trkpt><trkpt lat="42.76811418251444" lon="10.313343684899245"><ele>35.0</ele><time>2026-04-26T09:55:17.999Z</time></trkpt><trkpt lat="42.76826726511384" lon="10.313320727737285"><ele>35.0</ele><time>2026-04-26T09:55:18.999Z</time></trkpt><trkpt lat="42.768417039660505" lon="10.313298180964658"><ele>35.0</ele><time>2026-04-26T09:55:19.999Z</time></trkpt><trkpt lat="42.76855565712723" lon="10.313300596601968"><ele>35.0</ele><time>2026-04-26T09:55:20.999Z</time></trkpt><trkpt lat="42.768705854612804" lon="10.313281626036677"><ele>35.0</ele><time>2026-04-26T09:55:21.999Z</time></trkpt><trkpt lat="42.768852280586756" lon="10.313237298008563"><ele>36.0</ele><time>2026-04-26T09:55:22.999Z</time></trkpt><trkpt lat="42.76900824430564" lon="10.313221379019454"><ele>37.0</ele><time>2026-04-26T09:55:23.999Z</time></trkpt><trkpt lat="42.76915299147871" lon="10.313202644037396"><ele>38.0</ele><time>2026-04-26T09:55:24.999Z</time></trkpt><trkpt lat="42.769277615951616" lon="10.313190602189097"><ele>39.0</ele><time>2026-04-26T09:55:25.999Z</time></trkpt><trkpt lat="42.769390542962554" lon="10.313181987447715"><ele>40.25</ele><time>2026-04-26T09:55:26.999Z</time></trkpt><trkpt lat="42.76950492977998" lon="10.313182695411077"><ele>41.5</ele><time>2026-04-26T09:55:27.999Z</time></trkpt><trkpt lat="42.76961709345006" lon="10.313254226136602"><ele>42.75</ele><time>2026-04-26T09:55:28.999Z</time></trkpt><trkpt lat="42.76973312878548" lon="10.313325737275363"><ele>44.0</ele><time>2026-04-26T09:55:29.999Z</time></trkpt><trkpt lat="42.76986678228427" lon="10.313386998670769"><ele>44.0</ele><time>2026-04-26T09:55:30.999Z</time></trkpt><trkpt lat="42.76999739782581" lon="10.313453869388523"><ele>44.0</ele><time>2026-04-26T09:55:31.999Z</time></trkpt><trkpt lat="42.77013201764896" lon="10.313489544562739"><ele>44.0</ele><time>2026-04-26T09:55:32.999Z</time></trkpt><trkpt lat="42.7702678052876" lon="10.313509960914127"><ele>44.0</ele><time>2026-04-26T09:55:33.999Z</time></trkpt><trkpt lat="42.77039379548836" lon="10.313522453200772"><ele>44.75</ele><time>2026-04-26T09:55:34.999Z</time></trkpt><trkpt lat="42.77051591395404" lon="10.313546868947531"><ele>45.5</ele><time>2026-04-26T09:55:35.999Z</time></trkpt><trkpt lat="42.77064413792839" lon="10.31356722856403"><ele>46.25</ele><time>2026-04-26T09:55:36.999Z</time></trkpt><trkpt lat="42.77077808038758" lon="10.313575627285086"><ele>47.0</ele><time>2026-04-26T09:55:37.999Z</time></trkpt><trkpt lat="42.770917281890554" lon="10.313589311030542"><ele>48.75</ele><time>2026-04-26T09:55:38.999Z</time></trkpt><trkpt lat="42.77105982734089" lon="10.313596196947342"><ele>50.5</ele><time>2026-04-26T09:55:39.999Z</time></trkpt><trkpt lat="42.77120448176399" lon="10.313582346919363"><ele>52.25</ele><time>2026-04-26T09:55:40.999Z</time></trkpt><trkpt lat="42.771349549520195" lon="10.31357897943067"><ele>54.0</ele><time>2026-04-26T09:55:41.999Z</time></trkpt><trkpt lat="42.771497338601755" lon="10.31356026471201"><ele>54.0</ele><time>2026-04-26T09:55:42.999Z</time></trkpt><trkpt lat="42.771646378021934" lon="10.313543131269636"><ele>54.0</ele><time>2026-04-26T09:55:43.999Z</time></trkpt><trkpt lat="42.771792300952164" lon="10.313536380853318"><ele>54.0</ele><time>2026-04-26T09:55:44.999Z</time></trkpt><trkpt lat="42.77193474768335" lon="10.313540355494453"><ele>54.0</ele><time>2026-04-26T09:55:45.999Z</time></trkpt><trkpt lat="42.77207837332229" lon="10.31356104988065"><ele>56.5</ele><time>2026-04-26T09:55:46.999Z</time></trkpt><trkpt lat="42.77221357660233" lon="10.313587162379608"><ele>59.0</ele><time>2026-04-26T09:55:47.999Z</time></trkpt><trkpt lat="42.772356099296246" lon="10.313621092024931"><ele>61.5</ele><time>2026-04-26T09:55:48.999Z</time></trkpt><trkpt lat="42.77248734160339" lon="10.313636159459934"><ele>64.0</ele><time>2026-04-26T09:55:49.998Z</time></trkpt><trkpt lat="42.77261291695176" lon="10.313652617532389"><ele>65.75</ele><time>2026-04-26T09:55:50.998Z</time></trkpt><trkpt lat="42.77272975519656" lon="10.313661998288843"><ele>67.5</ele><time>2026-04-26T09:55:51.998Z</time></trkpt><trkpt lat="42.772845071106005" lon="10.313656864480281"><ele>69.25</ele><time>2026-04-26T09:55:52.998Z</time></trkpt><trkpt lat="42.77296260463836" lon="10.313623131046533"><ele>71.0</ele><time>2026-04-26T09:55:53.998Z</time></trkpt><trkpt lat="42.77307807781963" lon="10.31357682052332"><ele>71.0</ele><time>2026-04-26T09:55:54.998Z</time></trkpt><trkpt lat="42.77319597086174" lon="10.313527550515317"><ele>71.0</ele><time>2026-04-26T09:55:55.998Z</time></trkpt><trkpt lat="42.77331476041996" lon="10.31347667149456"><ele>71.0</ele><time>2026-04-26T09:55:56.998Z</time></trkpt><trkpt lat="42.77344160802872" lon="10.313432256277066"><ele>71.0</ele><time>2026-04-26T09:55:57.998Z</time></trkpt><trkpt lat="42.77358171085617" lon="10.3133985040089"><ele>74.25</ele><time>2026-04-26T09:55:58.998Z</time></trkpt><trkpt lat="42.7737309780621" lon="10.313377930307333"><ele>77.5</ele><time>2026-04-26T09:55:59.998Z</time></trkpt><trkpt lat="42.77388219479097" lon="10.313367110963904"><ele>80.75</ele><time>2026-04-26T09:56:00.998Z</time></trkpt><trkpt lat="42.774017240255965" lon="10.313357636336576"><ele>84.0</ele><time>2026-04-26T09:56:01.998Z</time></trkpt><trkpt lat="42.774148999268476" lon="10.313345372572664"><ele>84.0</ele><time>2026-04-26T09:56:02.998Z</time></trkpt><trkpt lat="42.77426658599088" lon="10.313333773507749"><ele>84.0</ele><time>2026-04-26T09:56:03.998Z</time></trkpt><trkpt lat="42.774381712264564" lon="10.313322438187381"><ele>84.0</ele><time>2026-04-26T09:56:04.998Z</time></trkpt><trkpt lat="42.774485583407255" lon="10.313311429596054"><ele>84.0</ele><time>2026-04-26T09:56:05.998Z</time></trkpt><trkpt lat="42.7745946451952" lon="10.313293230268194"><ele>84.0</ele><time>2026-04-26T09:56:06.998Z</time></trkpt><trkpt lat="42.774700259251915" lon="10.313277730508117"><ele>86.2</ele><time>2026-04-26T09:56:07.998Z</time></trkpt><trkpt lat="42.77480258782001" lon="10.3132605915218"><ele>88.4</ele><time>2026-04-26T09:56:08.998Z</time></trkpt><trkpt lat="42.7748994551104" lon="10.313245010678392"><ele>90.6</ele><time>2026-04-26T09:56:09.998Z</time></trkpt><trkpt lat="42.774994013133" lon="10.313230710626646"><ele>92.8</ele><time>2026-04-26T09:56:10.998Z</time></trkpt><trkpt lat="42.77508671150374" lon="10.313219888849783"><ele>95.0</ele><time>2026-04-26T09:56:11.998Z</time></trkpt><trkpt lat="42.77517627992797" lon="10.313207050204653"><ele>98.33333333333334</ele><time>2026-04-26T09:56:12.998Z</time></trkpt><trkpt lat="42.77526246334661" lon="10.313192652901934"><ele>101.66666666666667</ele><time>2026-04-26T09:56:13.998Z</time></trkpt><trkpt lat="42.77534226760617" lon="10.313176989774583"><ele>105.0</ele><time>2026-04-26T09:56:14.998Z</time></trkpt><trkpt lat="42.775416948058776" lon="10.313158879114411"><ele>108.33333333333334</ele><time>2026-04-26T09:56:15.998Z</time></trkpt><trkpt lat="42.77549847916912" lon="10.313146594995997"><ele>111.66666666666667</ele><time>2026-04-26T09:56:16.998Z</time></trkpt><trkpt lat="42.77558649528161" lon="10.313160598544659"><ele>115.0</ele><time>2026-04-26T09:56:17.998Z</time></trkpt><trkpt lat="42.7756828862267" lon="10.31319984176187"><ele>115.0</ele><time>2026-04-26T09:56:18.998Z</time></trkpt><trkpt lat="42.77578391237183" lon="10.313266564969174"><ele>115.0</ele><time>2026-04-26T09:56:19.998Z</time></trkpt><trkpt lat="42.775897067592275" lon="10.31331305350009"><ele>115.0</ele><time>2026-04-26T09:56:20.998Z</time></trkpt><trkpt lat="42.77602612699194" lon="10.313315835400466"><ele>115.0</ele><time>2026-04-26T09:56:21.998Z</time></trkpt><trkpt lat="42.77616842049889" lon="10.313305801728585"><ele>118.75</ele><time>2026-04-26T09:56:22.999Z</time></trkpt><trkpt lat="42.776316076617604" lon="10.313290408937371"><ele>122.5</ele><time>2026-04-26T09:56:23.999Z</time></trkpt><trkpt lat="42.77646092662711" lon="10.313287326647673"><ele>126.25</ele><time>2026-04-26T09:56:24.999Z</time></trkpt><trkpt lat="42.7765985477317" lon="10.31329460482975"><ele>130.0</ele><time>2026-04-26T09:56:25.999Z</time></trkpt><trkpt lat="42.77672745833961" lon="10.313314745236115"><ele>132.75</ele><time>2026-04-26T09:56:26.999Z</time></trkpt><trkpt lat="42.7768541080427" lon="10.313245408351504"><ele>135.5</ele><time>2026-04-26T09:56:27.999Z</time></trkpt><trkpt lat="42.776976407923705" lon="10.313176278213454"><ele>138.25</ele><time>2026-04-26T09:56:28.999Z</time></trkpt><trkpt lat="42.777097109876195" lon="10.31312909779886"><ele>141.0</ele><time>2026-04-26T09:56:29.999Z</time></trkpt><trkpt lat="42.77721249954785" lon="10.313128944284665"><ele>141.0</ele><time>2026-04-26T09:56:30.999Z</time></trkpt><trkpt lat="42.777337061623065" lon="10.313156167044117"><ele>141.0</ele><time>2026-04-26T09:56:31.999Z</time></trkpt><trkpt lat="42.77746521372204" lon="10.313198309545971"><ele>141.0</ele><time>2026-04-26T09:56:32.999Z</time></trkpt><trkpt lat="42.77760671217654" lon="10.313239272531138"><ele>141.0</ele><time>2026-04-26T09:56:33.999Z</time></trkpt><trkpt lat="42.777738426258594" lon="10.31328411468203"><ele>144.2</ele><time>2026-04-26T09:56:34.999Z</time></trkpt><trkpt lat="42.77784410547995" lon="10.313313254756265"><ele>147.39999999999998</ele><time>2026-04-26T09:56:35.999Z</time></trkpt><trkpt lat="42.77794639688256" lon="10.313310003795326"><ele>150.6</ele><time>2026-04-26T09:56:36.999Z</time></trkpt><trkpt lat="42.77805546805479" lon="10.313276518730836"><ele>153.79999999999998</ele><time>2026-04-26T09:56:37.999Z</time></trkpt><trkpt lat="42.778168109936054" lon="10.3132133616142"><ele>157.0</ele><time>2026-04-26T09:56:38.999Z</time></trkpt><trkpt lat="42.778287112889494" lon="10.313146957763612"><ele>157.0</ele><time>2026-04-26T09:56:39.999Z</time></trkpt><trkpt lat="42.778416756375314" lon="10.313085542734337"><ele>157.0</ele><time>2026-04-26T09:56:40.999Z</time></trkpt><trkpt lat="42.778555643199844" lon="10.313041549920081"><ele>157.0</ele><time>2026-04-26T09:56:41.999Z</time></trkpt><trkpt lat="42.7787026145822" lon="10.313003071601475"><ele>157.0</ele><time>2026-04-26T09:56:42.999Z</time></trkpt><trkpt lat="42.77885143134964" lon="10.312952200267231"><ele>158.75</ele><time>2026-04-26T09:56:43.999Z</time></trkpt><trkpt lat="42.7789994824707" lon="10.31289822769036"><ele>160.5</ele><time>2026-04-26T09:56:44.999Z</time></trkpt><trkpt lat="42.779142401772845" lon="10.312846733923958"><ele>162.25</ele><time>2026-04-26T09:56:45.999Z</time></trkpt><trkpt lat="42.7792796609595" lon="10.312806598692216"><ele>164.0</ele><time>2026-04-26T09:56:46.999Z</time></trkpt><trkpt lat="42.779408027545415" lon="10.312786689124254"><ele>168.25</ele><time>2026-04-26T09:56:47.999Z</time></trkpt><trkpt lat="42.77951167574328" lon="10.312747788300783"><ele>172.5</ele><time>2026-04-26T09:56:48.999Z</time></trkpt><trkpt lat="42.77960978545126" lon="10.31267585073796"><ele>176.75</ele><time>2026-04-26T09:56:49.999Z</time></trkpt><trkpt lat="42.77970343815751" lon="10.312570087971224"><ele>181.0</ele><time>2026-04-26T09:56:50.999Z</time></trkpt><trkpt lat="42.77978799573039" lon="10.312449119148337"><ele>181.0</ele><time>2026-04-26T09:56:51.999Z</time></trkpt><trkpt lat="42.77986297716112" lon="10.312363178666091"><ele>181.0</ele><time>2026-04-26T09:56:52.999Z</time></trkpt><trkpt lat="42.7799296505051" lon="10.312317457847909"><ele>181.0</ele><time>2026-04-26T09:56:53.999Z</time></trkpt><trkpt lat="42.78000432359041" lon="10.312299407762767"><ele>181.0</ele><time>2026-04-26T09:56:54.999Z</time></trkpt><trkpt lat="42.78008129759562" lon="10.31231091330627"><ele>181.0</ele><time>2026-04-26T09:56:55.999Z</time></trkpt><trkpt lat="42.780149027235154" lon="10.31239280842501"><ele>181.0</ele><time>2026-04-26T09:56:56.999Z</time></trkpt><trkpt lat="42.78022954978854" lon="10.31244034511801"><ele>184.4</ele><time>2026-04-26T09:56:57.999Z</time></trkpt><trkpt lat="42.78029915205954" lon="10.312471086332229"><ele>187.8</ele><time>2026-04-26T09:56:58.999Z</time></trkpt><trkpt lat="42.780384700189046" lon="10.312459368153368"><ele>191.20000000000002</ele><time>2026-04-26T09:56:59.999Z</time></trkpt><trkpt lat="42.780474814751805" lon="10.312407243938816"><ele>194.60000000000002</ele><time>2026-04-26T09:57:00.999Z</time></trkpt><trkpt lat="42.78056859418919" lon="10.312329835833754"><ele>198.0</ele><time>2026-04-26T09:57:01.999Z</time></trkpt><trkpt lat="42.780661994422225" lon="10.31224607695864"><ele>198.0</ele><time>2026-04-26T09:57:02.999Z</time></trkpt><trkpt lat="42.78075909245732" lon="10.312171293534293"><ele>198.0</ele><time>2026-04-26T09:57:03.999Z</time></trkpt><trkpt lat="42.7808448449662" lon="10.312119931304851"><ele>198.0</ele><time>2026-04-26T09:57:04.999Z</time></trkpt><trkpt lat="42.78093202845385" lon="10.312101957034631"><ele>198.0</ele><time>2026-04-26T09:57:05.999Z</time></trkpt><trkpt lat="42.781028243308064" lon="10.312117452813007"><ele>198.0</ele><time>2026-04-26T09:57:06.999Z</time></trkpt><trkpt lat="42.7811305209212" lon="10.312144554218245"><ele>198.0</ele><time>2026-04-26T09:57:07.999Z</time></trkpt><trkpt lat="42.781230988664745" lon="10.31216381904884"><ele>198.0</ele><time>2026-04-26T09:57:08.999Z</time></trkpt><trkpt lat="42.781320633886956" lon="10.31216963639893"><ele>198.0</ele><time>2026-04-26T09:57:09.999Z</time></trkpt><trkpt lat="42.781391271904035" lon="10.31218811262165"><ele>198.0</ele><time>2026-04-26T09:57:10.999Z</time></trkpt><trkpt lat="42.78146796408486" lon="10.312218348794753"><ele>198.0</ele><time>2026-04-26T09:57:13.999Z</time></trkpt><trkpt lat="42.7815069960493" lon="10.312015653723442"><ele>198.0</ele><time>2026-04-26T09:57:17.999Z</time></trkpt><trkpt lat="42.781486989036694" lon="10.311929778397072"><ele>198.0</ele><time>2026-04-26T09:57:18.999Z</time></trkpt><trkpt lat="42.78146977393074" lon="10.31183649962031"><ele>198.0</ele><time>2026-04-26T09:57:19.999Z</time></trkpt><trkpt lat="42.78144891235963" lon="10.311731745876203"><ele>198.0</ele><time>2026-04-26T09:57:20.999Z</time></trkpt><trkpt lat="42.78143038340584" lon="10.311641916575432"><ele>198.0</ele><time>2026-04-26T09:57:21.999Z</time></trkpt><trkpt lat="42.78140318227327" lon="10.311501448896315"><ele>198.0</ele><time>2026-04-26T09:57:23.999Z</time></trkpt><trkpt lat="42.78124780088319" lon="10.311375144408517"><ele>197.4</ele><time>2026-04-26T09:57:25.999Z</time></trkpt><trkpt lat="42.78124631159451" lon="10.31123812669291"><ele>196.8</ele><time>2026-04-26T09:57:27.999Z</time></trkpt><trkpt lat="42.781241179921125" lon="10.311101505323984"><ele>196.2</ele><time>2026-04-26T09:57:29.999Z</time></trkpt><trkpt lat="42.78123506623857" lon="10.310973660824862"><ele>195.6</ele><time>2026-04-26T09:57:31.999Z</time></trkpt><trkpt lat="42.78122288440613" lon="10.310848580009829"><ele>195.0</ele><time>2026-04-26T09:57:33.999Z</time></trkpt><trkpt lat="42.78120443974712" lon="10.310682847760047"><ele>196.0</ele><time>2026-04-26T09:57:35.999Z</time></trkpt><trkpt lat="42.78118561544951" lon="10.310513707871259"><ele>197.0</ele><time>2026-04-26T09:57:37.999Z</time></trkpt><trkpt lat="42.78115002670613" lon="10.310384660057986"><ele>198.0</ele><time>2026-04-26T09:57:39.999Z</time></trkpt><trkpt lat="42.78135841422151" lon="10.310224146911628"><ele>198.0</ele><time>2026-04-26T09:57:40.999Z</time></trkpt><trkpt lat="42.781388313467545" lon="10.310105317956104"><ele>198.0</ele><time>2026-04-26T09:57:42.999Z</time></trkpt><trkpt lat="42.78143595117035" lon="10.309982156414389"><ele>198.0</ele><time>2026-04-26T09:57:45.999Z</time></trkpt><trkpt lat="42.78146207580231" lon="10.309898383785786"><ele>198.0</ele><time>2026-04-26T09:57:46.999Z</time></trkpt><trkpt lat="42.78147845768246" lon="10.309734024668398"><ele>198.0</ele><time>2026-04-26T09:57:48.999Z</time></trkpt><trkpt lat="42.78146453300579" lon="10.309587270701059"><ele>197.83333333333334</ele><time>2026-04-26T09:57:50.999Z</time></trkpt><trkpt lat="42.78141238355649" lon="10.309457482191593"><ele>197.66666666666669</ele><time>2026-04-26T09:57:52.999Z</time></trkpt><trkpt lat="42.781353137401325" lon="10.309311502496305"><ele>197.5</ele><time>2026-04-26T09:57:54.999Z</time></trkpt><trkpt lat="42.781311108314746" lon="10.309243607830645"><ele>197.33333333333334</ele><time>2026-04-26T09:57:55.999Z</time></trkpt><trkpt lat="42.78126211547623" lon="10.309177431151136"><ele>197.16666666666669</ele><time>2026-04-26T09:57:56.999Z</time></trkpt><trkpt lat="42.78121456015166" lon="10.309109413427059"><ele>197.0</ele><time>2026-04-26T09:57:57.999Z</time></trkpt><trkpt lat="42.781135353062695" lon="10.308978030012772"><ele>195.33333333333334</ele><time>2026-04-26T09:57:59.999Z</time></trkpt><trkpt lat="42.78108524369864" lon="10.30890875964206"><ele>193.66666666666669</ele><time>2026-04-26T09:58:00.999Z</time></trkpt><trkpt lat="42.781042310355666" lon="10.30883797985469"><ele>192.0</ele><time>2026-04-26T09:58:01.999Z</time></trkpt><trkpt lat="42.780985740697055" lon="10.30870265681887"><ele>190.33333333333334</ele><time>2026-04-26T09:58:03.999Z</time></trkpt><trkpt lat="42.780970886559366" lon="10.308616025006769"><ele>188.66666666666669</ele><time>2026-04-26T09:58:04.999Z</time></trkpt><trkpt lat="42.78096796235353" lon="10.308523573330842"><ele>187.0</ele><time>2026-04-26T09:58:05.999Z</time></trkpt><trkpt lat="42.780978013830044" lon="10.308433446094845"><ele>187.0</ele><time>2026-04-26T09:58:06.999Z</time></trkpt><trkpt lat="42.78098980495004" lon="10.308340996031221"><ele>187.0</ele><time>2026-04-26T09:58:07.999Z</time></trkpt><trkpt lat="42.78101696466989" lon="10.308184598032483"><ele>187.0</ele><time>2026-04-26T09:58:09.999Z</time></trkpt><trkpt lat="42.781037837394685" lon="10.30807084651838"><ele>187.0</ele><time>2026-04-26T09:58:11.999Z</time></trkpt><trkpt lat="42.781051858296074" lon="10.307922985947918"><ele>187.0</ele><time>2026-04-26T09:58:13.999Z</time></trkpt><trkpt lat="42.78105732351481" lon="10.307827439561967"><ele>187.6</ele><time>2026-04-26T09:58:14.999Z</time></trkpt><trkpt lat="42.78105772558376" lon="10.307733576682114"><ele>188.2</ele><time>2026-04-26T09:58:15.999Z</time></trkpt><trkpt lat="42.78105404794376" lon="10.30764197269253"><ele>188.8</ele><time>2026-04-26T09:58:16.999Z</time></trkpt><trkpt lat="42.78103737743468" lon="10.3074923225671"><ele>189.4</ele><time>2026-04-26T09:58:18.999Z</time></trkpt><trkpt lat="42.781008134373415" lon="10.307353570888482"><ele>190.0</ele><time>2026-04-26T09:58:20.999Z</time></trkpt><trkpt lat="42.7810270270514" lon="10.307210131464444"><ele>190.33333333333334</ele><time>2026-04-26T09:58:22.999Z</time></trkpt><trkpt lat="42.78106173255113" lon="10.307076242485362"><ele>190.66666666666669</ele><time>2026-04-26T09:58:24.999Z</time></trkpt><trkpt lat="42.781098790995834" lon="10.306961451042953"><ele>191.0</ele><time>2026-04-26T09:58:26.999Z</time></trkpt><trkpt lat="42.781077722959814" lon="10.306878371835204"><ele>191.33333333333334</ele><time>2026-04-26T09:59:16Z</time></trkpt><trkpt lat="42.781070386706304" lon="10.306752696084208"><ele>191.66666666666666</ele><time>2026-04-26T09:59:18Z</time></trkpt><trkpt lat="42.7810403874129" lon="10.306637014105194"><ele>192.0</ele><time>2026-04-26T09:59:20Z</time></trkpt><trkpt lat="42.78099015377293" lon="10.306571763243872"><ele>194.39999999999998</ele><time>2026-04-26T09:59:22Z</time></trkpt><trkpt lat="42.78091519972666" lon="10.306520538947302"><ele>196.79999999999998</ele><time>2026-04-26T09:59:24Z</time></trkpt><trkpt lat="42.7808067587436" lon="10.306459706664002"><ele>199.2</ele><time>2026-04-26T09:59:26Z</time></trkpt><trkpt lat="42.78070426920533" lon="10.30639437391086"><ele>201.6</ele><time>2026-04-26T09:59:28Z</time></trkpt><trkpt lat="42.7806312247604" lon="10.30634660542911"><ele>204.0</ele><time>2026-04-26T09:59:31Z</time></trkpt><trkpt lat="42.78054488076221" lon="10.306292502535381"><ele>204.0</ele><time>2026-04-26T09:59:33Z</time></trkpt><trkpt lat="42.78045143040898" lon="10.306306966341637"><ele>204.0</ele><time>2026-04-26T09:59:34.999Z</time></trkpt><trkpt lat="42.78033694661622" lon="10.306373066786735"><ele>204.0</ele><time>2026-04-26T09:59:36.999Z</time></trkpt><trkpt lat="42.7802880863796" lon="10.306438394253629"><ele>204.0</ele><time>2026-04-26T09:59:37.999Z</time></trkpt><trkpt lat="42.780228286747395" lon="10.306480264879522"><ele>204.0</ele><time>2026-04-26T09:59:38.999Z</time></trkpt><trkpt lat="42.78016417279595" lon="10.306540913426597"><ele>204.0</ele><time>2026-04-26T09:59:40.999Z</time></trkpt><trkpt lat="42.78009322559004" lon="10.30654576651367"><ele>207.39999999999998</ele><time>2026-04-26T09:59:42.999Z</time></trkpt><trkpt lat="42.77999438073448" lon="10.306514679549638"><ele>210.8</ele><time>2026-04-26T09:59:44.999Z</time></trkpt><trkpt lat="42.779918715694066" lon="10.306435113752785"><ele>214.20000000000002</ele><time>2026-04-26T09:59:46.999Z</time></trkpt><trkpt lat="42.77986005358786" lon="10.306357355606597"><ele>217.60000000000002</ele><time>2026-04-26T09:59:48.999Z</time></trkpt><trkpt lat="42.77981041312025" lon="10.306259760297255"><ele>221.0</ele><time>2026-04-26T09:59:50.999Z</time></trkpt><trkpt lat="42.779750567856944" lon="10.306152829185175"><ele>221.00000000000003</ele><time>2026-04-26T09:59:52.999Z</time></trkpt><trkpt lat="42.77969746631186" lon="10.30602913035894"><ele>221.0</ele><time>2026-04-26T09:59:54.999Z</time></trkpt><trkpt lat="42.77965315092413" lon="10.305961317080623"><ele>221.0</ele><time>2026-04-26T09:59:55.999Z</time></trkpt><trkpt lat="42.77960634474206" lon="10.305891064769638"><ele>221.0</ele><time>2026-04-26T09:59:56.999Z</time></trkpt><trkpt lat="42.77956609547356" lon="10.305819148368744"><ele>221.00000000000003</ele><time>2026-04-26T09:59:57.999Z</time></trkpt><trkpt lat="42.77952475730506" lon="10.305694779954287"><ele>221.0</ele><time>2026-04-26T09:59:59.999Z</time></trkpt><trkpt lat="42.77950276537651" lon="10.305588749087846"><ele>219.20000000000002</ele><time>2026-04-26T10:00:01.999Z</time></trkpt><trkpt lat="42.77946333441543" lon="10.305453432194549"><ele>217.40000000000003</ele><time>2026-04-26T10:00:03.999Z</time></trkpt><trkpt lat="42.779431917272795" lon="10.305328894665067"><ele>215.6</ele><time>2026-04-26T10:00:05.999Z</time></trkpt><trkpt lat="42.779431506601014" lon="10.305211798402908"><ele>213.8</ele><time>2026-04-26T10:00:07.999Z</time></trkpt><trkpt lat="42.77944852413668" lon="10.305112467786993"><ele>212.0</ele><time>2026-04-26T10:00:09.999Z</time></trkpt><trkpt lat="42.77947060730696" lon="10.304993384616864"><ele>212.0</ele><time>2026-04-26T10:00:11.999Z</time></trkpt><trkpt lat="42.77948632742803" lon="10.304874078572915"><ele>212.0</ele><time>2026-04-26T10:00:13.999Z</time></trkpt><trkpt lat="42.7794477559933" lon="10.304758243316746"><ele>212.0</ele><time>2026-04-26T10:00:15.999Z</time></trkpt><trkpt lat="42.7793554204709" lon="10.304696710296788"><ele>212.0</ele><time>2026-04-26T10:00:17.999Z</time></trkpt><trkpt lat="42.77929687430547" lon="10.304660810972221"><ele>212.0</ele><time>2026-04-26T10:00:18.999Z</time></trkpt><trkpt lat="42.77920578942189" lon="10.304542680491167"><ele>217.50000000000003</ele><time>2026-04-26T10:00:20.999Z</time></trkpt><trkpt lat="42.779153920415446" lon="10.304482561596702"><ele>223.0</ele><time>2026-04-26T10:00:21.999Z</time></trkpt><trkpt lat="42.77912122923989" lon="10.304408091895263"><ele>228.5</ele><time>2026-04-26T10:00:23.999Z</time></trkpt><trkpt lat="42.77908438159278" lon="10.30432202050156"><ele>234.0</ele><time>2026-04-26T10:00:25.999Z</time></trkpt><trkpt lat="42.77907485641565" lon="10.304226053999955"><ele>239.50000000000003</ele><time>2026-04-26T10:00:27.999Z</time></trkpt><trkpt lat="42.77908378573065" lon="10.30409122040293"><ele>245.0</ele><time>2026-04-26T10:00:29.999Z</time></trkpt><trkpt lat="42.77910286124359" lon="10.303918996316789"><ele>245.2</ele><time>2026-04-26T10:00:31.999Z</time></trkpt><trkpt lat="42.77911520114583" lon="10.303761843528656"><ele>245.4</ele><time>2026-04-26T10:00:34.001Z</time></trkpt><trkpt lat="42.77910570620114" lon="10.303617589608844"><ele>245.60000000000002</ele><time>2026-04-26T10:00:36.001Z</time></trkpt><trkpt lat="42.77909209614781" lon="10.303465655169749"><ele>245.8</ele><time>2026-04-26T10:00:38.001Z</time></trkpt><trkpt lat="42.779085652933134" lon="10.303313033022878"><ele>246.0</ele><time>2026-04-26T10:00:40.001Z</time></trkpt><trkpt lat="42.77909504548504" lon="10.303226036040357"><ele>246.0</ele><time>2026-04-26T10:00:41.001Z</time></trkpt><trkpt lat="42.779125480661634" lon="10.30310568230023"><ele>246.0</ele><time>2026-04-26T10:00:43.001Z</time></trkpt><trkpt lat="42.7792014319983" lon="10.303012926873254"><ele>246.0</ele><time>2026-04-26T10:00:45.001Z</time></trkpt><trkpt lat="42.779264953362635" lon="10.302891983218634"><ele>246.0</ele><time>2026-04-26T10:00:47.001Z</time></trkpt><trkpt lat="42.77930420639293" lon="10.302818711129921"><ele>246.0</ele><time>2026-04-26T10:00:48.001Z</time></trkpt><trkpt lat="42.77934061942074" lon="10.30274535862181"><ele>246.0</ele><time>2026-04-26T10:00:49.001Z</time></trkpt><trkpt lat="42.77942101862086" lon="10.302632456300556"><ele>246.20000000000002</ele><time>2026-04-26T10:00:51.001Z</time></trkpt><trkpt lat="42.77949375832438" lon="10.30255844580532"><ele>246.40000000000003</ele><time>2026-04-26T10:00:53.001Z</time></trkpt><trkpt lat="42.779556852213865" lon="10.302492108908305"><ele>246.6</ele><time>2026-04-26T10:00:55.001Z</time></trkpt><trkpt lat="42.77965508401124" lon="10.302399589754854"><ele>246.8</ele><time>2026-04-26T10:00:57Z</time></trkpt><trkpt lat="42.77971072848739" lon="10.302292495974925"><ele>247.0</ele><time>2026-04-26T10:00:59Z</time></trkpt><trkpt lat="42.779729979981255" lon="10.302198629760744"><ele>246.99999999999997</ele><time>2026-04-26T10:01:02Z</time></trkpt><trkpt lat="42.77973370340421" lon="10.30208586618218"><ele>247.0</ele><time>2026-04-26T10:01:10Z</time></trkpt><trkpt lat="42.779739624091874" lon="10.30198860589553"><ele>247.0</ele><time>2026-04-26T10:01:13Z</time></trkpt><trkpt lat="42.77975958197558" lon="10.301892585164156"><ele>247.0</ele><time>2026-04-26T10:01:16Z</time></trkpt><trkpt lat="42.77978761800433" lon="10.301779256580087"><ele>246.99999999999997</ele><time>2026-04-26T10:01:19Z</time></trkpt><trkpt lat="42.779814435922454" lon="10.301677875364224"><ele>247.0</ele><time>2026-04-26T10:01:21Z</time></trkpt><trkpt lat="42.77982578304992" lon="10.301566861306167"><ele>247.0</ele><time>2026-04-26T10:01:23Z</time></trkpt><trkpt lat="42.77984313747286" lon="10.301437120056521"><ele>247.0</ele><time>2026-04-26T10:01:25Z</time></trkpt><trkpt lat="42.77986333591523" lon="10.301292013616758"><ele>247.0</ele><time>2026-04-26T10:01:27Z</time></trkpt><trkpt lat="42.779888241474666" lon="10.30116984210301"><ele>247.0</ele><time>2026-04-26T10:01:29Z</time></trkpt><trkpt lat="42.779943148071595" lon="10.301096735818353"><ele>247.0</ele><time>2026-04-26T10:01:31Z</time></trkpt><trkpt lat="42.77996910813005" lon="10.300959831238021"><ele>248.33333333333331</ele><time>2026-04-26T10:01:33Z</time></trkpt><trkpt lat="42.77999878013176" lon="10.30081567735251"><ele>249.66666666666666</ele><time>2026-04-26T10:01:35Z</time></trkpt><trkpt lat="42.77999954150546" lon="10.300642775430529"><ele>251.0</ele><time>2026-04-26T10:01:37Z</time></trkpt><trkpt lat="42.77999218283576" lon="10.300548723472515"><ele>252.33333333333331</ele><time>2026-04-26T10:01:38Z</time></trkpt><trkpt lat="42.779983719672224" lon="10.300455158905457"><ele>253.66666666666666</ele><time>2026-04-26T10:01:39Z</time></trkpt><trkpt lat="42.77997378913943" lon="10.300368533121643"><ele>255.0</ele><time>2026-04-26T10:01:40Z</time></trkpt><trkpt lat="42.779964655760246" lon="10.300257497280876"><ele>254.83333333333334</ele><time>2026-04-26T10:01:41Z</time></trkpt><trkpt lat="42.77995837024726" lon="10.300167732814124"><ele>254.66666666666669</ele><time>2026-04-26T10:01:42Z</time></trkpt><trkpt lat="42.77994645284875" lon="10.299991417949476"><ele>254.5</ele><time>2026-04-26T10:01:44Z</time></trkpt><trkpt lat="42.779934555767326" lon="10.299898427133524"><ele>254.33333333333334</ele><time>2026-04-26T10:01:45Z</time></trkpt><trkpt lat="42.77991829463569" lon="10.299797364936817"><ele>254.16666666666669</ele><time>2026-04-26T10:01:46Z</time></trkpt><trkpt lat="42.77990158303206" lon="10.299708909311782"><ele>254.0</ele><time>2026-04-26T10:01:47Z</time></trkpt><trkpt lat="42.77988890469601" lon="10.299621202466525"><ele>254.00000000000003</ele><time>2026-04-26T10:01:48Z</time></trkpt><trkpt lat="42.779869596775626" lon="10.299533408556636"><ele>254.0</ele><time>2026-04-26T10:01:49Z</time></trkpt><trkpt lat="42.77983884399665" lon="10.299440525158342"><ele>254.0</ele><time>2026-04-26T10:01:50Z</time></trkpt><trkpt lat="42.77981205421579" lon="10.299356075540718"><ele>254.0</ele><time>2026-04-26T10:01:51Z</time></trkpt><trkpt lat="42.77974820566148" lon="10.299247663772277"><ele>254.00000000000003</ele><time>2026-04-26T10:01:53Z</time></trkpt><trkpt lat="42.77966043632092" lon="10.299151768238566"><ele>254.0</ele><time>2026-04-26T10:01:55Z</time></trkpt><trkpt lat="42.77956377476158" lon="10.299025083195229"><ele>256.0</ele><time>2026-04-26T10:01:57Z</time></trkpt><trkpt lat="42.77949341464961" lon="10.298904391209204"><ele>258.0</ele><time>2026-04-26T10:02:00Z</time></trkpt><trkpt lat="42.77942789875697" lon="10.29875309671795"><ele>260.0</ele><time>2026-04-26T10:02:03Z</time></trkpt><trkpt lat="42.77938692478806" lon="10.298643363638677"><ele>262.0</ele><time>2026-04-26T10:02:04Z</time></trkpt><trkpt lat="42.77935848881889" lon="10.29856177008465"><ele>264.0</ele><time>2026-04-26T10:02:05Z</time></trkpt><trkpt lat="42.77931776298865" lon="10.298473539968894"><ele>264.0</ele><time>2026-04-26T10:02:06Z</time></trkpt><trkpt lat="42.779233504311264" lon="10.298376634578055"><ele>264.0</ele><time>2026-04-26T10:02:08Z</time></trkpt><trkpt lat="42.779164339592135" lon="10.298297110315199"><ele>264.0</ele><time>2026-04-26T10:02:10Z</time></trkpt><trkpt lat="42.7790909699496" lon="10.298208745148015"><ele>264.0</ele><time>2026-04-26T10:02:12Z</time></trkpt><trkpt lat="42.779044636401416" lon="10.298105488690453"><ele>264.0</ele><time>2026-04-26T10:02:14Z</time></trkpt><trkpt lat="42.779048519571745" lon="10.297971886269691"><ele>263.0</ele><time>2026-04-26T10:02:15.999Z</time></trkpt><trkpt lat="42.77909455754169" lon="10.297853412587498"><ele>262.0</ele><time>2026-04-26T10:02:17.999Z</time></trkpt><trkpt lat="42.7791331496702" lon="10.297774802775356"><ele>261.0</ele><time>2026-04-26T10:02:18.999Z</time></trkpt><trkpt lat="42.779161386677295" lon="10.297697380318043"><ele>260.0</ele><time>2026-04-26T10:02:19.999Z</time></trkpt><trkpt lat="42.77919584286923" lon="10.297566481394567"><ele>259.0</ele><time>2026-04-26T10:02:21.999Z</time></trkpt><trkpt lat="42.77922112490108" lon="10.29746352313559"><ele>258.0</ele><time>2026-04-26T10:02:23.999Z</time></trkpt><trkpt lat="42.77923337547841" lon="10.29729564594571"><ele>258.1666666666667</ele><time>2026-04-26T10:02:25.999Z</time></trkpt><trkpt lat="42.77922642421576" lon="10.297207023919976"><ele>258.3333333333333</ele><time>2026-04-26T10:02:26.999Z</time></trkpt><trkpt lat="42.77921287478385" lon="10.297123099052385"><ele>258.5</ele><time>2026-04-26T10:02:27.999Z</time></trkpt><trkpt lat="42.779167945684144" lon="10.296963432940062"><ele>258.66666666666663</ele><time>2026-04-26T10:02:29.999Z</time></trkpt><trkpt lat="42.77913958478381" lon="10.296880477806146"><ele>258.8333333333333</ele><time>2026-04-26T10:02:30.999Z</time></trkpt><trkpt lat="42.77911184423176" lon="10.296800036213083"><ele>259.0</ele><time>2026-04-26T10:02:31.999Z</time></trkpt><trkpt lat="42.7790820044867" lon="10.296656620902684"><ele>259.0</ele><time>2026-04-26T10:02:33.999Z</time></trkpt><trkpt lat="42.779088799033204" lon="10.296522318567652"><ele>259.0</ele><time>2026-04-26T10:02:35.999Z</time></trkpt><trkpt lat="42.77911104947806" lon="10.296403780615133"><ele>259.0</ele><time>2026-04-26T10:02:37.999Z</time></trkpt><trkpt lat="42.77913180148141" lon="10.296282662366812"><ele>259.0</ele><time>2026-04-26T10:02:40.001Z</time></trkpt><trkpt lat="42.77914121254454" lon="10.296142309729483"><ele>259.0</ele><time>2026-04-26T10:02:42.001Z</time></trkpt><trkpt lat="42.77915039332769" lon="10.295979256311318"><ele>259.16666666666663</ele><time>2026-04-26T10:02:44.001Z</time></trkpt><trkpt lat="42.77914891498639" lon="10.295802386066393"><ele>259.3333333333333</ele><time>2026-04-26T10:02:46.001Z</time></trkpt><trkpt lat="42.77914667613637" lon="10.295714546720184"><ele>259.5</ele><time>2026-04-26T10:02:47.001Z</time></trkpt><trkpt lat="42.77914256160387" lon="10.295620681790021"><ele>259.6666666666667</ele><time>2026-04-26T10:02:48.001Z</time></trkpt><trkpt lat="42.77914281159373" lon="10.295529930365797"><ele>259.83333333333337</ele><time>2026-04-26T10:02:49.001Z</time></trkpt><trkpt lat="42.77913718818193" lon="10.295423609102052"><ele>260.0</ele><time>2026-04-26T10:02:50.001Z</time></trkpt><trkpt lat="42.77913707190341" lon="10.295327216087184"><ele>260.6</ele><time>2026-04-26T10:02:51.001Z</time></trkpt><trkpt lat="42.77913352351546" lon="10.295167578716903"><ele>261.2</ele><time>2026-04-26T10:02:53.001Z</time></trkpt><trkpt lat="42.77914363028055" lon="10.295027887188711"><ele>261.8</ele><time>2026-04-26T10:02:55.001Z</time></trkpt><trkpt lat="42.779190301466436" lon="10.294883564796372"><ele>262.4</ele><time>2026-04-26T10:02:57.001Z</time></trkpt><trkpt lat="42.77920890807036" lon="10.294792745534998"><ele>263.0</ele><time>2026-04-26T10:02:58.001Z</time></trkpt><trkpt lat="42.77924065479496" lon="10.294603057588729"><ele>263.1666666666667</ele><time>2026-04-26T10:03:00.001Z</time></trkpt><trkpt lat="42.77926024619128" lon="10.2944824904477"><ele>263.33333333333337</ele><time>2026-04-26T10:03:01.001Z</time></trkpt><trkpt lat="42.779276202358595" lon="10.29438157233444"><ele>263.5</ele><time>2026-04-26T10:03:02Z</time></trkpt><trkpt lat="42.77927333367494" lon="10.294290671238151"><ele>263.6666666666667</ele><time>2026-04-26T10:03:03Z</time></trkpt><trkpt lat="42.77929060960526" lon="10.294122229043106"><ele>263.8333333333333</ele><time>2026-04-26T10:03:05Z</time></trkpt><trkpt lat="42.779310550937566" lon="10.294035700382537"><ele>264.0</ele><time>2026-04-26T10:03:06Z</time></trkpt><trkpt lat="42.779319629569294" lon="10.293942709631537"><ele>264.5</ele><time>2026-04-26T10:03:07Z</time></trkpt><trkpt lat="42.77933643676834" lon="10.293779376901426"><ele>265.0</ele><time>2026-04-26T10:03:09Z</time></trkpt><trkpt lat="42.77932065251485" lon="10.293633364289867"><ele>265.5</ele><time>2026-04-26T10:03:11Z</time></trkpt><trkpt lat="42.77930394882921" lon="10.293485706030708"><ele>266.0</ele><time>2026-04-26T10:03:13Z</time></trkpt><trkpt lat="42.77929441540572" lon="10.293327269490035"><ele>266.0</ele><time>2026-04-26T10:03:15Z</time></trkpt><trkpt lat="42.77929617461342" lon="10.293178879641658"><ele>266.0</ele><time>2026-04-26T10:03:17Z</time></trkpt><trkpt lat="42.77931900080254" lon="10.29302992839263"><ele>266.0</ele><time>2026-04-26T10:03:19Z</time></trkpt><trkpt lat="42.779339103891374" lon="10.292889895901967"><ele>266.0</ele><time>2026-04-26T10:03:21Z</time></trkpt><trkpt lat="42.77935515961844" lon="10.292731927976305"><ele>266.0</ele><time>2026-04-26T10:03:23Z</time></trkpt><trkpt lat="42.779364183688855" lon="10.29257725111428"><ele>265.2</ele><time>2026-04-26T10:03:25Z</time></trkpt><trkpt lat="42.779367054237575" lon="10.292423687968387"><ele>264.40000000000003</ele><time>2026-04-26T10:03:27Z</time></trkpt><trkpt lat="42.77937653907978" lon="10.292278694206543"><ele>263.6</ele><time>2026-04-26T10:03:29Z</time></trkpt><trkpt lat="42.77938271676435" lon="10.29218712444865"><ele>262.8</ele><time>2026-04-26T10:03:30Z</time></trkpt><trkpt lat="42.77940119815977" lon="10.292056551082569"><ele>262.0</ele><time>2026-04-26T10:03:32Z</time></trkpt><trkpt lat="42.77943881631267" lon="10.291944227266857"><ele>262.0</ele><time>2026-04-26T10:03:34Z</time></trkpt><trkpt lat="42.77949809979122" lon="10.291826758102372"><ele>262.0</ele><time>2026-04-26T10:03:36Z</time></trkpt><trkpt lat="42.779526515063246" lon="10.291742596764315"><ele>262.0</ele><time>2026-04-26T10:03:38Z</time></trkpt><trkpt lat="42.77954767146212" lon="10.29161481027482"><ele>262.0</ele><time>2026-04-26T10:03:40Z</time></trkpt><trkpt lat="42.77951124498054" lon="10.291504938500264"><ele>262.0</ele><time>2026-04-26T10:03:42Z</time></trkpt><trkpt lat="42.779413591824394" lon="10.291403131226957"><ele>263.5</ele><time>2026-04-26T10:03:44Z</time></trkpt><trkpt lat="42.77934861560474" lon="10.291345657189078"><ele>265.0</ele><time>2026-04-26T10:03:45Z</time></trkpt><trkpt lat="42.77928164701315" lon="10.291291737017469"><ele>266.5</ele><time>2026-04-26T10:03:46Z</time></trkpt><trkpt lat="42.77922836888307" lon="10.29123231777542"><ele>268.0</ele><time>2026-04-26T10:03:47Z</time></trkpt><trkpt lat="42.77916635948517" lon="10.291171567406536"><ele>269.5</ele><time>2026-04-26T10:03:48Z</time></trkpt><trkpt lat="42.779067147338296" lon="10.291069425939508"><ele>271.0</ele><time>2026-04-26T10:03:50Z</time></trkpt><trkpt lat="42.77900401579542" lon="10.291003767454338"><ele>271.0</ele><time>2026-04-26T10:03:51Z</time></trkpt><trkpt lat="42.77893229740944" lon="10.290933763336332"><ele>271.0</ele><time>2026-04-26T10:03:52Z</time></trkpt><trkpt lat="42.778869027131485" lon="10.290875862489779"><ele>271.0</ele><time>2026-04-26T10:03:53Z</time></trkpt><trkpt lat="42.77876155938424" lon="10.290754971740041"><ele>271.0</ele><time>2026-04-26T10:03:55Z</time></trkpt><trkpt lat="42.778708526332856" lon="10.290686498511286"><ele>271.0</ele><time>2026-04-26T10:03:56Z</time></trkpt><trkpt lat="42.778661260288374" lon="10.290624684410774"><ele>271.0</ele><time>2026-04-26T10:03:57Z</time></trkpt><trkpt lat="42.77857085177286" lon="10.290529142246884"><ele>271.2</ele><time>2026-04-26T10:03:59Z</time></trkpt><trkpt lat="42.77848628856314" lon="10.290402659712193"><ele>271.40000000000003</ele><time>2026-04-26T10:04:01Z</time></trkpt><trkpt lat="42.77844520757909" lon="10.290331499225967"><ele>271.6</ele><time>2026-04-26T10:04:02Z</time></trkpt><trkpt lat="42.778397128324755" lon="10.290257183874063"><ele>271.8</ele><time>2026-04-26T10:04:03Z</time></trkpt><trkpt lat="42.77835648089697" lon="10.29018688407161"><ele>272.0</ele><time>2026-04-26T10:04:04Z</time></trkpt><trkpt lat="42.778273908763175" lon="10.290061508965525"><ele>272.0</ele><time>2026-04-26T10:04:06Z</time></trkpt><trkpt lat="42.778212801937755" lon="10.289965477902236"><ele>272.0</ele><time>2026-04-26T10:04:08Z</time></trkpt><trkpt lat="42.7781304597719" lon="10.289869713236095"><ele>272.0</ele><time>2026-04-26T10:04:10Z</time></trkpt><trkpt lat="42.77806780948783" lon="10.289821499567534"><ele>272.0</ele><time>2026-04-26T10:04:12Z</time></trkpt><trkpt lat="42.777984363704626" lon="10.289726458771094"><ele>272.0</ele><time>2026-04-26T10:04:14Z</time></trkpt><trkpt lat="42.77793270370138" lon="10.289667686314585"><ele>269.6666666666667</ele><time>2026-04-26T10:04:15Z</time></trkpt><trkpt lat="42.777858976310846" lon="10.289536374137677"><ele>267.33333333333337</ele><time>2026-04-26T10:04:17Z</time></trkpt><trkpt lat="42.77782789145551" lon="10.289455156657775"><ele>265.0</ele><time>2026-04-26T10:04:18Z</time></trkpt><trkpt lat="42.777793311385096" lon="10.289361470428672"><ele>262.6666666666667</ele><time>2026-04-26T10:04:19Z</time></trkpt><trkpt lat="42.77776976975249" lon="10.28927718174682"><ele>260.3333333333333</ele><time>2026-04-26T10:04:20Z</time></trkpt><trkpt lat="42.77774703374852" lon="10.289179148752371"><ele>258.0</ele><time>2026-04-26T10:04:21Z</time></trkpt><trkpt lat="42.77772808307072" lon="10.289059494988313"><ele>258.0</ele><time>2026-04-26T10:04:22Z</time></trkpt><trkpt lat="42.77770101836664" lon="10.288964133650115"><ele>258.0</ele><time>2026-04-26T10:04:23Z</time></trkpt><trkpt lat="42.777672796161575" lon="10.288849465027447"><ele>258.0</ele><time>2026-04-26T10:04:24Z</time></trkpt><trkpt lat="42.77764563363974" lon="10.288750945310051"><ele>258.0</ele><time>2026-04-26T10:04:25Z</time></trkpt><trkpt lat="42.77763226220594" lon="10.288665822814592"><ele>258.0</ele><time>2026-04-26T10:04:26Z</time></trkpt><trkpt lat="42.77761370538981" lon="10.288575069101894"><ele>258.0</ele><time>2026-04-26T10:04:27Z</time></trkpt><trkpt lat="42.77758394795381" lon="10.288476518513798"><ele>260.1428571428571</ele><time>2026-04-26T10:04:28Z</time></trkpt><trkpt lat="42.777552255586144" lon="10.28838636486095"><ele>262.2857142857143</ele><time>2026-04-26T10:04:29Z</time></trkpt><trkpt lat="42.777529936113105" lon="10.288302717416514"><ele>264.42857142857144</ele><time>2026-04-26T10:04:29.999Z</time></trkpt><trkpt lat="42.77749130023151" lon="10.288221018399621"><ele>266.57142857142856</ele><time>2026-04-26T10:04:30.999Z</time></trkpt><trkpt lat="42.77744501668599" lon="10.288143178152406"><ele>268.7142857142857</ele><time>2026-04-26T10:04:31.999Z</time></trkpt><trkpt lat="42.777402550525274" lon="10.288059852628425"><ele>270.85714285714283</ele><time>2026-04-26T10:04:32.999Z</time></trkpt><trkpt lat="42.77736801193425" lon="10.287969773964322"><ele>273.0</ele><time>2026-04-26T10:04:33.999Z</time></trkpt><trkpt lat="42.777346019642714" lon="10.28788374724022"><ele>273.0</ele><time>2026-04-26T10:04:34.999Z</time></trkpt><trkpt lat="42.777329845015025" lon="10.287712814662866"><ele>273.0</ele><time>2026-04-26T10:04:36.999Z</time></trkpt><trkpt lat="42.77732946003239" lon="10.287622031596294"><ele>273.0</ele><time>2026-04-26T10:04:37.999Z</time></trkpt><trkpt lat="42.77734027388448" lon="10.287533274783703"><ele>273.0</ele><time>2026-04-26T10:04:38.999Z</time></trkpt><trkpt lat="42.777370342024746" lon="10.28744130487211"><ele>273.0</ele><time>2026-04-26T10:04:39.999Z</time></trkpt><trkpt lat="42.777395971100155" lon="10.287344921818434"><ele>273.0</ele><time>2026-04-26T10:04:40.999Z</time></trkpt><trkpt lat="42.777409923706884" lon="10.28725575698547"><ele>273.5</ele><time>2026-04-26T10:04:41.999Z</time></trkpt><trkpt lat="42.77740846432149" lon="10.287088896460142"><ele>274.0</ele><time>2026-04-26T10:04:43.999Z</time></trkpt><trkpt lat="42.77740212680057" lon="10.286982939508713"><ele>274.5</ele><time>2026-04-26T10:04:44.999Z</time></trkpt><trkpt lat="42.777397511573064" lon="10.286881932963102"><ele>275.0</ele><time>2026-04-26T10:04:46.001Z</time></trkpt><trkpt lat="42.77739042483619" lon="10.286786696293396"><ele>275.5</ele><time>2026-04-26T10:04:47.001Z</time></trkpt><trkpt lat="42.77737889142561" lon="10.286685985106379"><ele>276.0</ele><time>2026-04-26T10:04:48.001Z</time></trkpt><trkpt lat="42.77738088654551" lon="10.286512342539593"><ele>276.1666666666667</ele><time>2026-04-26T10:04:50.001Z</time></trkpt><trkpt lat="42.77738867663125" lon="10.286419611547814"><ele>276.3333333333333</ele><time>2026-04-26T10:04:51.001Z</time></trkpt><trkpt lat="42.77740012930641" lon="10.286323951682343"><ele>276.5</ele><time>2026-04-26T10:04:52.001Z</time></trkpt><trkpt lat="42.77741820886273" lon="10.286222577530184"><ele>276.66666666666663</ele><time>2026-04-26T10:04:53.001Z</time></trkpt><trkpt lat="42.77743577576915" lon="10.286138016719635"><ele>276.8333333333333</ele><time>2026-04-26T10:04:54.001Z</time></trkpt><trkpt lat="42.77744254123063" lon="10.286018863679681"><ele>277.0</ele><time>2026-04-26T10:04:56.001Z</time></trkpt><trkpt lat="42.7774190573142" lon="10.28583650371065"><ele>277.0</ele><time>2026-04-26T10:04:58.001Z</time></trkpt><trkpt lat="42.777390759078514" lon="10.28571781825546"><ele>277.0</ele><time>2026-04-26T10:04:59.001Z</time></trkpt><trkpt lat="42.77736903411493" lon="10.285620613654093"><ele>277.0</ele><time>2026-04-26T10:05:00.001Z</time></trkpt><trkpt lat="42.77735018245636" lon="10.28552979674004"><ele>277.0</ele><time>2026-04-26T10:05:01.001Z</time></trkpt><trkpt lat="42.7773053959871" lon="10.285411200356515"><ele>277.0</ele><time>2026-04-26T10:05:03.001Z</time></trkpt><trkpt lat="42.777267008930075" lon="10.2853299348483"><ele>277.0</ele><time>2026-04-26T10:05:17.001Z</time></trkpt><trkpt lat="42.77723026768469" lon="10.28520898509136"><ele>275.8</ele><time>2026-04-26T10:05:19.001Z</time></trkpt><trkpt lat="42.777188818914006" lon="10.285067736166265"><ele>274.6</ele><time>2026-04-26T10:05:21.001Z</time></trkpt><trkpt lat="42.777154714427866" lon="10.284921368563063"><ele>273.40000000000003</ele><time>2026-04-26T10:05:23.001Z</time></trkpt><trkpt lat="42.77713481993789" lon="10.284831080567454"><ele>272.2</ele><time>2026-04-26T10:05:24Z</time></trkpt><trkpt lat="42.77709117756895" lon="10.284698586916445"><ele>271.0</ele><time>2026-04-26T10:05:26Z</time></trkpt><trkpt lat="42.77706151142428" lon="10.284612555832751"><ele>270.16666666666663</ele><time>2026-04-26T10:05:27Z</time></trkpt><trkpt lat="42.77701465115738" lon="10.284521408380286"><ele>269.3333333333333</ele><time>2026-04-26T10:05:28Z</time></trkpt><trkpt lat="42.776982165563496" lon="10.284431958491883"><ele>268.5</ele><time>2026-04-26T10:05:29Z</time></trkpt><trkpt lat="42.77694425367346" lon="10.284340090860107"><ele>267.6666666666667</ele><time>2026-04-26T10:05:30Z</time></trkpt><trkpt lat="42.77688463666198" lon="10.284183844923467"><ele>266.83333333333337</ele><time>2026-04-26T10:05:32Z</time></trkpt><trkpt lat="42.776865574453964" lon="10.2840818197945"><ele>266.0</ele><time>2026-04-26T10:05:33Z</time></trkpt><trkpt lat="42.776815437297074" lon="10.283924031549867"><ele>269.1666666666667</ele><time>2026-04-26T10:05:35Z</time></trkpt><trkpt lat="42.77679491450483" lon="10.283822157141058"><ele>272.33333333333337</ele><time>2026-04-26T10:05:36Z</time></trkpt><trkpt lat="42.77676506760014" lon="10.283720751300054"><ele>275.5</ele><time>2026-04-26T10:05:37Z</time></trkpt><trkpt lat="42.77674633964842" lon="10.283628862649469"><ele>278.6666666666667</ele><time>2026-04-26T10:05:38Z</time></trkpt><trkpt lat="42.77672418764552" lon="10.283532364815867"><ele>281.8333333333333</ele><time>2026-04-26T10:05:39Z</time></trkpt><trkpt lat="42.776705114202116" lon="10.28342690923409"><ele>285.0</ele><time>2026-04-26T10:05:40Z</time></trkpt><trkpt lat="42.77669609880438" lon="10.2832630837667"><ele>285.0</ele><time>2026-04-26T10:05:42Z</time></trkpt><trkpt lat="42.77668152577604" lon="10.283152110660094"><ele>285.0</ele><time>2026-04-26T10:05:43Z</time></trkpt><trkpt lat="42.776665822508534" lon="10.283042738847861"><ele>285.0</ele><time>2026-04-26T10:05:44Z</time></trkpt><trkpt lat="42.776649483035605" lon="10.28295715974449"><ele>285.0</ele><time>2026-04-26T10:05:45Z</time></trkpt><trkpt lat="42.77659156548493" lon="10.282799612834422"><ele>285.0</ele><time>2026-04-26T10:05:47Z</time></trkpt><trkpt lat="42.77655514446084" lon="10.282719090117382"><ele>285.0</ele><time>2026-04-26T10:05:48Z</time></trkpt><trkpt lat="42.776480884931544" lon="10.282602202128997"><ele>283.0</ele><time>2026-04-26T10:05:50Z</time></trkpt><trkpt lat="42.77642632354029" lon="10.282508596382714"><ele>281.0</ele><time>2026-04-26T10:05:52Z</time></trkpt><trkpt lat="42.776408394936944" lon="10.282363655759097"><ele>279.0</ele><time>2026-04-26T10:05:54Z</time></trkpt><trkpt lat="42.77640686664148" lon="10.282193122959487"><ele>277.0</ele><time>2026-04-26T10:05:56Z</time></trkpt><trkpt lat="42.77641693117053" lon="10.282106397606587"><ele>275.0</ele><time>2026-04-26T10:05:57Z</time></trkpt><trkpt lat="42.776429657476854" lon="10.282021045673407"><ele>273.0</ele><time>2026-04-26T10:05:58Z</time></trkpt><trkpt lat="42.77650079400264" lon="10.281879600492731"><ele>272.8</ele><time>2026-04-26T10:06:00Z</time></trkpt><trkpt lat="42.776536676691904" lon="10.2817954438514"><ele>272.6</ele><time>2026-04-26T10:06:01Z</time></trkpt><trkpt lat="42.77656227034196" lon="10.281716930620194"><ele>272.4</ele><time>2026-04-26T10:06:02Z</time></trkpt><trkpt lat="42.77660764340935" lon="10.28157472983615"><ele>272.2</ele><time>2026-04-26T10:06:04Z</time></trkpt><trkpt lat="42.77661017034568" lon="10.28145058521073"><ele>272.0</ele><time>2026-04-26T10:06:06Z</time></trkpt><trkpt lat="42.77659492788759" lon="10.28129394218047"><ele>272.5</ele><time>2026-04-26T10:06:08Z</time></trkpt><trkpt lat="42.776572033832856" lon="10.28111833876116"><ele>273.0</ele><time>2026-04-26T10:06:10Z</time></trkpt><trkpt lat="42.776556256013116" lon="10.281012695719108"><ele>273.5</ele><time>2026-04-26T10:06:11Z</time></trkpt><trkpt lat="42.77653978016913" lon="10.280914375654493"><ele>274.0</ele><time>2026-04-26T10:06:12Z</time></trkpt><trkpt lat="42.77652696717747" lon="10.280812422777943"><ele>274.5</ele><time>2026-04-26T10:06:13Z</time></trkpt><trkpt lat="42.77650166970004" lon="10.28073034093341"><ele>275.0</ele><time>2026-04-26T10:06:14Z</time></trkpt><trkpt lat="42.77647860352463" lon="10.28060961080823"><ele>277.6</ele><time>2026-04-26T10:06:16Z</time></trkpt><trkpt lat="42.77644816387823" lon="10.280502336028341"><ele>280.2</ele><time>2026-04-26T10:06:18Z</time></trkpt><trkpt lat="42.7764452033378" lon="10.280392432713894"><ele>282.8</ele><time>2026-04-26T10:06:20Z</time></trkpt><trkpt lat="42.77646301996843" lon="10.280240485344981"><ele>285.4</ele><time>2026-04-26T10:06:22Z</time></trkpt><trkpt lat="42.77652242963303" lon="10.280129149515155"><ele>288.0</ele><time>2026-04-26T10:06:24Z</time></trkpt><trkpt lat="42.776620367018076" lon="10.280077355892171"><ele>288.0</ele><time>2026-04-26T10:06:26Z</time></trkpt><trkpt lat="42.77667902977197" lon="10.280041259758974"><ele>288.0</ele><time>2026-04-26T10:06:27Z</time></trkpt><trkpt lat="42.77675642105091" lon="10.279990364052406"><ele>288.0</ele><time>2026-04-26T10:06:28Z</time></trkpt><trkpt lat="42.77682794026141" lon="10.279948357160611"><ele>288.0</ele><time>2026-04-26T10:06:29Z</time></trkpt><trkpt lat="42.776892498716165" lon="10.279922758248432"><ele>288.0</ele><time>2026-04-26T10:06:30Z</time></trkpt><trkpt lat="42.77698529790543" lon="10.279876901754134"><ele>288.0</ele><time>2026-04-26T10:06:32Z</time></trkpt><trkpt lat="42.777054909439" lon="10.279810641121191"><ele>288.2</ele><time>2026-04-26T10:06:34Z</time></trkpt><trkpt lat="42.777128504722626" lon="10.27971026141728"><ele>288.4</ele><time>2026-04-26T10:06:36Z</time></trkpt><trkpt lat="42.777142538671534" lon="10.279619366490383"><ele>288.59999999999997</ele><time>2026-04-26T10:06:37Z</time></trkpt><trkpt lat="42.77714773069263" lon="10.279472695257637"><ele>288.8</ele><time>2026-04-26T10:06:39Z</time></trkpt><trkpt lat="42.77719677631474" lon="10.279333867087933"><ele>289.0</ele><time>2026-04-26T10:06:41Z</time></trkpt><trkpt lat="42.77725963713666" lon="10.27921822096316"><ele>289.0</ele><time>2026-04-26T10:06:44Z</time></trkpt><trkpt lat="42.777327244918325" lon="10.279177922621662"><ele>289.0</ele><time>2026-04-26T10:06:46Z</time></trkpt><trkpt lat="42.77743207208416" lon="10.27917202906598"><ele>289.0</ele><time>2026-04-26T10:06:48.999Z</time></trkpt><trkpt lat="42.777535937596824" lon="10.279178564036869"><ele>289.0</ele><time>2026-04-26T10:06:50.999Z</time></trkpt><trkpt lat="42.777602558161114" lon="10.279192457043"><ele>289.0</ele><time>2026-04-26T10:06:52.001Z</time></trkpt><trkpt lat="42.777706842331504" lon="10.279232153016094"><ele>287.0</ele><time>2026-04-26T10:06:54.001Z</time></trkpt><trkpt lat="42.77782494951347" lon="10.27926445947066"><ele>285.0</ele><time>2026-04-26T10:06:56.001Z</time></trkpt><trkpt lat="42.7778983111413" lon="10.279270332564092"><ele>283.0</ele><time>2026-04-26T10:06:58Z</time></trkpt><trkpt lat="42.77798224895753" lon="10.279245991245851"><ele>281.0</ele><time>2026-04-26T10:07:00Z</time></trkpt><trkpt lat="42.77806382924085" lon="10.27917784968084"><ele>279.0</ele><time>2026-04-26T10:07:02Z</time></trkpt><trkpt lat="42.778120145679466" lon="10.279135817515536"><ele>277.0</ele><time>2026-04-26T10:07:03Z</time></trkpt><trkpt lat="42.778179226503134" lon="10.279084032207123"><ele>277.0</ele><time>2026-04-26T10:07:04Z</time></trkpt><trkpt lat="42.77824737798653" lon="10.279049228280329"><ele>277.0</ele><time>2026-04-26T10:07:05Z</time></trkpt><trkpt lat="42.77831210253023" lon="10.279010839052555"><ele>277.0</ele><time>2026-04-26T10:07:07Z</time></trkpt><trkpt lat="42.778383803238626" lon="10.278959931223559"><ele>277.0</ele><time>2026-04-26T10:07:09Z</time></trkpt><trkpt lat="42.77848884848084" lon="10.278878969228371"><ele>277.0</ele><time>2026-04-26T10:07:11Z</time></trkpt><trkpt lat="42.77854311927473" lon="10.278802795839248"><ele>277.0</ele><time>2026-04-26T10:07:13Z</time></trkpt><trkpt lat="42.778578572326715" lon="10.278688618418812"><ele>278.8333333333333</ele><time>2026-04-26T10:07:15Z</time></trkpt><trkpt lat="42.778566632704184" lon="10.27855496141535"><ele>280.66666666666663</ele><time>2026-04-26T10:07:17Z</time></trkpt><trkpt lat="42.77853484073437" lon="10.278459116483285"><ele>282.5</ele><time>2026-04-26T10:07:19Z</time></trkpt><trkpt lat="42.77849874929034" lon="10.27837330648508"><ele>284.3333333333333</ele><time>2026-04-26T10:07:20Z</time></trkpt><trkpt lat="42.77847082317009" lon="10.278292243169783"><ele>286.1666666666667</ele><time>2026-04-26T10:07:21Z</time></trkpt><trkpt lat="42.77843263562243" lon="10.278175077757798"><ele>288.0</ele><time>2026-04-26T10:07:23Z</time></trkpt><trkpt lat="42.77841023457495" lon="10.27803414898041"><ele>288.0</ele><time>2026-04-26T10:07:25Z</time></trkpt><trkpt lat="42.778405064621616" lon="10.277870719896535"><ele>288.0</ele><time>2026-04-26T10:07:27Z</time></trkpt><trkpt lat="42.77838137324122" lon="10.277734124620869"><ele>288.0</ele><time>2026-04-26T10:07:29Z</time></trkpt><trkpt lat="42.77836745973941" lon="10.277646652933637"><ele>288.0</ele><time>2026-04-26T10:07:30Z</time></trkpt><trkpt lat="42.778346356780794" lon="10.27755989616242"><ele>288.0</ele><time>2026-04-26T10:07:31Z</time></trkpt><trkpt lat="42.77831292607298" lon="10.27743450069888"><ele>288.0</ele><time>2026-04-26T10:07:33Z</time></trkpt><trkpt lat="42.778286714551726" lon="10.277354838310327"><ele>288.0</ele><time>2026-04-26T10:07:34Z</time></trkpt><trkpt lat="42.77826691824831" lon="10.277273183351786"><ele>288.0</ele><time>2026-04-26T10:07:35Z</time></trkpt><trkpt lat="42.778241419018656" lon="10.277132041203494"><ele>288.0</ele><time>2026-04-26T10:07:37Z</time></trkpt><trkpt lat="42.7782147622103" lon="10.276959802949184"><ele>288.0</ele><time>2026-04-26T10:07:39Z</time></trkpt><trkpt lat="42.77819765889185" lon="10.276805857173395"><ele>288.4</ele><time>2026-04-26T10:07:41Z</time></trkpt><trkpt lat="42.77815231099804" lon="10.276654756933286"><ele>288.8</ele><time>2026-04-26T10:07:43Z</time></trkpt><trkpt lat="42.778116515335064" lon="10.276519904587131"><ele>289.2</ele><time>2026-04-26T10:07:45Z</time></trkpt><trkpt lat="42.778135934266054" lon="10.276431928772435"><ele>289.6</ele><time>2026-04-26T10:07:46.999Z</time></trkpt><trkpt lat="42.77818275036182" lon="10.27634733991784"><ele>290.0</ele><time>2026-04-26T10:07:48.999Z</time></trkpt><trkpt lat="42.77827204536135" lon="10.276274930382048"><ele>289.4</ele><time>2026-04-26T10:07:50.999Z</time></trkpt><trkpt lat="42.77838097274089" lon="10.276229138290896"><ele>288.8</ele><time>2026-04-26T10:07:52.999Z</time></trkpt><trkpt lat="42.77849015044793" lon="10.276172951167194"><ele>288.2</ele><time>2026-04-26T10:07:54.999Z</time></trkpt><trkpt lat="42.778591401439144" lon="10.276111015557692"><ele>287.6</ele><time>2026-04-26T10:07:56.999Z</time></trkpt><trkpt lat="42.7786868870271" lon="10.276101885202495"><ele>287.0</ele><time>2026-04-26T10:07:58.999Z</time></trkpt><trkpt lat="42.778787221172884" lon="10.276077505845574"><ele>287.0</ele><time>2026-04-26T10:08:00.999Z</time></trkpt><trkpt lat="42.778901275831046" lon="10.276027760534792"><ele>287.0</ele><time>2026-04-26T10:08:02.999Z</time></trkpt><trkpt lat="42.77896626194892" lon="10.275996633445638"><ele>287.0</ele><time>2026-04-26T10:08:03.999Z</time></trkpt><trkpt lat="42.7790783411015" lon="10.275935131551773"><ele>287.0</ele><time>2026-04-26T10:08:05.999Z</time></trkpt><trkpt lat="42.779166147347425" lon="10.275885626791013"><ele>287.0</ele><time>2026-04-26T10:08:07.999Z</time></trkpt><trkpt lat="42.77924830418107" lon="10.275849648207307"><ele>284.4</ele><time>2026-04-26T10:08:09.999Z</time></trkpt><trkpt lat="42.77936541218112" lon="10.27583206885681"><ele>281.79999999999995</ele><time>2026-04-26T10:08:11.999Z</time></trkpt><trkpt lat="42.779428296588485" lon="10.275819741542104"><ele>279.2</ele><time>2026-04-26T10:08:12.999Z</time></trkpt><trkpt lat="42.7795342869449" lon="10.275790052604226"><ele>276.59999999999997</ele><time>2026-04-26T10:08:14.999Z</time></trkpt><trkpt lat="42.77960491845264" lon="10.275707377358424"><ele>274.0</ele><time>2026-04-26T10:08:16.999Z</time></trkpt><trkpt lat="42.7796437735416" lon="10.275578420107"><ele>273.59999999999997</ele><time>2026-04-26T10:08:18.999Z</time></trkpt><trkpt lat="42.77962507792755" lon="10.275437054985987"><ele>273.2</ele><time>2026-04-26T10:08:20.999Z</time></trkpt><trkpt lat="42.77961098130745" lon="10.275279848783395"><ele>272.79999999999995</ele><time>2026-04-26T10:08:22.999Z</time></trkpt><trkpt lat="42.77958234689984" lon="10.275112794992621"><ele>272.4</ele><time>2026-04-26T10:08:24.999Z</time></trkpt><trkpt lat="42.779563090152024" lon="10.27502213599904"><ele>272.0</ele><time>2026-04-26T10:08:25.999Z</time></trkpt><trkpt lat="42.779543255969514" lon="10.274927874956912"><ele>272.0</ele><time>2026-04-26T10:08:26.999Z</time></trkpt><trkpt lat="42.77952854149602" lon="10.274835049896462"><ele>272.0</ele><time>2026-04-26T10:08:27.999Z</time></trkpt><trkpt lat="42.779521316616105" lon="10.274746744626906"><ele>272.0</ele><time>2026-04-26T10:08:28.999Z</time></trkpt><trkpt lat="42.77952026244282" lon="10.27465935226639"><ele>272.0</ele><time>2026-04-26T10:08:29.999Z</time></trkpt><trkpt lat="42.779539690114376" lon="10.27450887328704"><ele>272.0</ele><time>2026-04-26T10:08:31.999Z</time></trkpt><trkpt lat="42.77959303354975" lon="10.274387151571258"><ele>272.0</ele><time>2026-04-26T10:08:33.999Z</time></trkpt><trkpt lat="42.77967128105112" lon="10.274282957587136"><ele>274.25</ele><time>2026-04-26T10:08:35.999Z</time></trkpt><trkpt lat="42.77976539998869" lon="10.274188071680134"><ele>276.5</ele><time>2026-04-26T10:08:37.999Z</time></trkpt><trkpt lat="42.77984561809432" lon="10.27407451936822"><ele>278.75</ele><time>2026-04-26T10:08:39.999Z</time></trkpt><trkpt lat="42.77990623257592" lon="10.273926646496017"><ele>281.0</ele><time>2026-04-26T10:08:41.999Z</time></trkpt><trkpt lat="42.77994775694112" lon="10.273782880381688"><ele>282.40000000000003</ele><time>2026-04-26T10:08:43.999Z</time></trkpt><trkpt lat="42.77997301088034" lon="10.273626316052848"><ele>283.8</ele><time>2026-04-26T10:08:45.999Z</time></trkpt><trkpt lat="42.77999171705412" lon="10.273456773019728"><ele>285.20000000000005</ele><time>2026-04-26T10:08:47.999Z</time></trkpt><trkpt lat="42.77999993246446" lon="10.273367298044727"><ele>286.6</ele><time>2026-04-26T10:08:48.999Z</time></trkpt><trkpt lat="42.77999663537745" lon="10.273262462539957"><ele>288.0</ele><time>2026-04-26T10:08:49.999Z</time></trkpt><trkpt lat="42.7799882963791" lon="10.273165427078363"><ele>288.3333333333333</ele><time>2026-04-26T10:08:50.999Z</time></trkpt><trkpt lat="42.77997633566787" lon="10.273077795400976"><ele>288.6666666666667</ele><time>2026-04-26T10:08:51.999Z</time></trkpt><trkpt lat="42.77995791815236" lon="10.272993306496092"><ele>289.0</ele><time>2026-04-26T10:08:52.999Z</time></trkpt><trkpt lat="42.77992106193995" lon="10.272847084792652"><ele>289.33333333333337</ele><time>2026-04-26T10:08:54.999Z</time></trkpt><trkpt lat="42.77988151453199" lon="10.27270174212095"><ele>289.6666666666667</ele><time>2026-04-26T10:08:56.999Z</time></trkpt><trkpt lat="42.779857510001044" lon="10.272584955650865"><ele>290.0</ele><time>2026-04-26T10:08:59.001Z</time></trkpt><trkpt lat="42.779813360212366" lon="10.272493066272554"><ele>290.0</ele><time>2026-04-26T10:09:01Z</time></trkpt><trkpt lat="42.77975358101749" lon="10.272445056754679"><ele>290.0</ele><time>2026-04-26T10:09:03Z</time></trkpt><trkpt lat="42.77967427858378" lon="10.272417758956367"><ele>290.0</ele><time>2026-04-26T10:09:06Z</time></trkpt><trkpt lat="42.77960512166444" lon="10.272410528381295"><ele>290.0</ele><time>2026-04-26T10:09:08Z</time></trkpt><trkpt lat="42.77951106614" lon="10.272426611727795"><ele>290.0</ele><time>2026-04-26T10:09:10Z</time></trkpt><trkpt lat="42.77944410270205" lon="10.272434795480825"><ele>290.0</ele><time>2026-04-26T10:09:12Z</time></trkpt><trkpt lat="42.779363107032346" lon="10.27246294093441"><ele>288.6666666666667</ele><time>2026-04-26T10:09:15Z</time></trkpt><trkpt lat="42.77928388103005" lon="10.272466647874465"><ele>287.33333333333337</ele><time>2026-04-26T10:09:18Z</time></trkpt><trkpt lat="42.779201634395434" lon="10.272477112378896"><ele>286.0</ele><time>2026-04-26T10:09:23Z</time></trkpt><trkpt lat="42.77913079665966" lon="10.27250306801257"><ele>284.6666666666667</ele><time>2026-04-26T10:09:27Z</time></trkpt><trkpt lat="42.77904949852926" lon="10.272505254565006"><ele>283.3333333333333</ele><time>2026-04-26T10:09:30Z</time></trkpt><trkpt lat="42.778948363501144" lon="10.272531638551754"><ele>282.0</ele><time>2026-04-26T10:09:33Z</time></trkpt><trkpt lat="42.77888037898207" lon="10.272618426824605"><ele>282.0</ele><time>2026-04-26T10:09:35Z</time></trkpt><trkpt lat="42.778854029757454" lon="10.272702294079112"><ele>282.0</ele><time>2026-04-26T10:09:39Z</time></trkpt><trkpt lat="42.7788363681058" lon="10.272790908488064"><ele>282.0</ele><time>2026-04-26T10:09:41Z</time></trkpt><trkpt lat="42.77881077686735" lon="10.272902814217073"><ele>282.0</ele><time>2026-04-26T10:09:44Z</time></trkpt><trkpt lat="42.778763674477396" lon="10.272962434146018"><ele>282.0</ele><time>2026-04-26T10:09:46Z</time></trkpt><trkpt lat="42.778687205468344" lon="10.273029060318455"><ele>282.0</ele><time>2026-04-26T10:09:48.999Z</time></trkpt><trkpt lat="42.77862440733268" lon="10.273089312087446"><ele>280.0</ele><time>2026-04-26T10:09:50.999Z</time></trkpt><trkpt lat="42.77856623430441" lon="10.27316994548074"><ele>278.0</ele><time>2026-04-26T10:09:52.999Z</time></trkpt><trkpt lat="42.7785205186658" lon="10.273253844536507"><ele>276.0</ele><time>2026-04-26T10:09:54.999Z</time></trkpt><trkpt lat="42.778456065249586" lon="10.273367874414163"><ele>274.0</ele><time>2026-04-26T10:09:57.999Z</time></trkpt><trkpt lat="42.77838740090686" lon="10.273437960502857"><ele>272.0</ele><time>2026-04-26T10:09:59.999Z</time></trkpt><trkpt lat="42.77832473084213" lon="10.273493978348768"><ele>270.0</ele><time>2026-04-26T10:10:01.999Z</time></trkpt><trkpt lat="42.77823893899457" lon="10.273542150579418"><ele>270.0</ele><time>2026-04-26T10:10:04.999Z</time></trkpt><trkpt lat="42.77815878205953" lon="10.273561840927695"><ele>270.0</ele><time>2026-04-26T10:10:06.999Z</time></trkpt><trkpt lat="42.77806748342548" lon="10.273573421163585"><ele>270.0</ele><time>2026-04-26T10:10:08.999Z</time></trkpt><trkpt lat="42.77796263349492" lon="10.273569633731512"><ele>270.0</ele><time>2026-04-26T10:10:10.999Z</time></trkpt><trkpt lat="42.777870735177004" lon="10.273577734904425"><ele>270.0</ele><time>2026-04-26T10:10:12.999Z</time></trkpt><trkpt lat="42.77776811138573" lon="10.273583200135397"><ele>266.5</ele><time>2026-04-26T10:10:14.999Z</time></trkpt><trkpt lat="42.777672030840435" lon="10.273599635339268"><ele>263.0</ele><time>2026-04-26T10:10:16.999Z</time></trkpt><trkpt lat="42.77759402074012" lon="10.273612798364324"><ele>259.5</ele><time>2026-04-26T10:10:18.999Z</time></trkpt><trkpt lat="42.77750240027217" lon="10.273627350169756"><ele>256.0</ele><time>2026-04-26T10:10:20.999Z</time></trkpt><trkpt lat="42.77743282424841" lon="10.273621387556462"><ele>252.5</ele><time>2026-04-26T10:10:22.999Z</time></trkpt><trkpt lat="42.77734670714212" lon="10.273621007593926"><ele>249.0</ele><time>2026-04-26T10:10:24.999Z</time></trkpt><trkpt lat="42.77723552621944" lon="10.273652323803606"><ele>249.0</ele><time>2026-04-26T10:10:26.999Z</time></trkpt><trkpt lat="42.77717854767308" lon="10.273695242392536"><ele>249.0</ele><time>2026-04-26T10:10:27.999Z</time></trkpt><trkpt lat="42.777088102743214" lon="10.27377207795679"><ele>249.0</ele><time>2026-04-26T10:10:29.999Z</time></trkpt><trkpt lat="42.77700119658768" lon="10.273822556825467"><ele>249.0</ele><time>2026-04-26T10:10:31.999Z</time></trkpt><trkpt lat="42.77691856075298" lon="10.273864672718421"><ele>249.0</ele><time>2026-04-26T10:10:33.999Z</time></trkpt><trkpt lat="42.77685168315324" lon="10.27389941098927"><ele>249.0</ele><time>2026-04-26T10:10:35.999Z</time></trkpt><trkpt lat="42.776775664792126" lon="10.273949654378143"><ele>247.66666666666666</ele><time>2026-04-26T10:10:37.999Z</time></trkpt><trkpt lat="42.776701263212416" lon="10.273985615453409"><ele>246.33333333333331</ele><time>2026-04-26T10:10:39.999Z</time></trkpt><trkpt lat="42.77662529423546" lon="10.273965980693506"><ele>245.0</ele><time>2026-04-26T10:10:42.999Z</time></trkpt><trkpt lat="42.776560540102786" lon="10.273947588503383"><ele>243.66666666666666</ele><time>2026-04-26T10:10:44.999Z</time></trkpt><trkpt lat="42.77646302518507" lon="10.273906873483481"><ele>242.33333333333331</ele><time>2026-04-26T10:10:47.999Z</time></trkpt><trkpt lat="42.77639104587525" lon="10.273860539756242"><ele>241.0</ele><time>2026-04-26T10:10:50.999Z</time></trkpt><trkpt lat="42.77634368657484" lon="10.27380151483186"><ele>240.99999999999997</ele><time>2026-04-26T10:10:52.999Z</time></trkpt><trkpt lat="42.776311202963136" lon="10.273720600071988"><ele>241.0</ele><time>2026-04-26T10:10:55.998Z</time></trkpt><trkpt lat="42.77626661513415" lon="10.273627635711645"><ele>241.0</ele><time>2026-04-26T10:10:58.998Z</time></trkpt><trkpt lat="42.77620539500648" lon="10.273537937536652"><ele>241.0</ele><time>2026-04-26T10:11:01.998Z</time></trkpt><trkpt lat="42.77615371771927" lon="10.273453095203319"><ele>240.99999999999997</ele><time>2026-04-26T10:11:05Z</time></trkpt><trkpt lat="42.77611685200414" lon="10.273350374983888"><ele>241.0</ele><time>2026-04-26T10:11:07Z</time></trkpt><trkpt lat="42.77606821089227" lon="10.27326333475999"><ele>238.99999999999997</ele><time>2026-04-26T10:11:10Z</time></trkpt><trkpt lat="42.77599181412697" lon="10.2731936272293"><ele>237.0</ele><time>2026-04-26T10:11:12Z</time></trkpt><trkpt lat="42.775900699164545" lon="10.273147667161634"><ele>235.0</ele><time>2026-04-26T10:11:15Z</time></trkpt><trkpt lat="42.7758216980892" lon="10.273123501542413"><ele>233.0</ele><time>2026-04-26T10:11:17Z</time></trkpt><trkpt lat="42.775743228303384" lon="10.273095388913106"><ele>230.99999999999997</ele><time>2026-04-26T10:11:20Z</time></trkpt><trkpt lat="42.77566737767929" lon="10.273082415960241"><ele>229.0</ele><time>2026-04-26T10:11:23Z</time></trkpt><trkpt lat="42.77558069094464" lon="10.273053237264651"><ele>228.99999999999997</ele><time>2026-04-26T10:11:26Z</time></trkpt><trkpt lat="42.77550227141207" lon="10.273022647210324"><ele>229.0</ele><time>2026-04-26T10:11:29Z</time></trkpt><trkpt lat="42.7754203576716" lon="10.272984518650468"><ele>229.0</ele><time>2026-04-26T10:11:32Z</time></trkpt><trkpt lat="42.77535139634907" lon="10.272942312996873"><ele>229.0</ele><time>2026-04-26T10:11:34Z</time></trkpt><trkpt lat="42.77528610001582" lon="10.272874109134227"><ele>228.99999999999997</ele><time>2026-04-26T10:11:37Z</time></trkpt><trkpt lat="42.775246132217994" lon="10.272774273317097"><ele>229.0</ele><time>2026-04-26T10:11:39Z</time></trkpt><trkpt lat="42.77522559403394" lon="10.2726731258564"><ele>228.99999999999997</ele><time>2026-04-26T10:11:41Z</time></trkpt><trkpt lat="42.77521810909307" lon="10.272573433465439"><ele>229.0</ele><time>2026-04-26T10:11:43Z</time></trkpt><trkpt lat="42.77519507817357" lon="10.272481569819055"><ele>229.0</ele><time>2026-04-26T10:11:45Z</time></trkpt><trkpt lat="42.77513367681757" lon="10.272404116691668"><ele>229.0</ele><time>2026-04-26T10:11:48Z</time></trkpt><trkpt lat="42.77504831882567" lon="10.27242637853172"><ele>228.99999999999997</ele><time>2026-04-26T10:11:50.999Z</time></trkpt><trkpt lat="42.774984442772606" lon="10.272467192773188"><ele>229.0</ele><time>2026-04-26T10:11:59.999Z</time></trkpt><trkpt lat="42.77490396330239" lon="10.272504172145586"><ele>231.0</ele><time>2026-04-26T10:12:25.999Z</time></trkpt><trkpt lat="42.774824602147916" lon="10.272520776482626"><ele>232.99999999999997</ele><time>2026-04-26T10:12:27.999Z</time></trkpt><trkpt lat="42.77472182688064" lon="10.272580489746849"><ele>234.99999999999997</ele><time>2026-04-26T10:12:29.999Z</time></trkpt><trkpt lat="42.77462980983289" lon="10.272662284837688"><ele>237.0</ele><time>2026-04-26T10:12:31.999Z</time></trkpt><trkpt lat="42.774566854471345" lon="10.27274215444357"><ele>239.0</ele><time>2026-04-26T10:12:33.999Z</time></trkpt><trkpt lat="42.77450393252478" lon="10.272821495830694"><ele>239.0</ele><time>2026-04-26T10:12:35.999Z</time></trkpt><trkpt lat="42.77446322302325" lon="10.27291939386841"><ele>238.99999999999997</ele><time>2026-04-26T10:12:37.999Z</time></trkpt><trkpt lat="42.77443170461722" lon="10.273025387002855"><ele>238.99999999999997</ele><time>2026-04-26T10:12:39.999Z</time></trkpt><trkpt lat="42.77440479017712" lon="10.273142699935528"><ele>239.0</ele><time>2026-04-26T10:12:41.999Z</time></trkpt><trkpt lat="42.77440556446381" lon="10.273292216074598"><ele>239.0</ele><time>2026-04-26T10:12:43.999Z</time></trkpt><trkpt lat="42.774427506323946" lon="10.273458120340498"><ele>242.00000000000003</ele><time>2026-04-26T10:12:45.999Z</time></trkpt><trkpt lat="42.77443821575939" lon="10.273554299336297"><ele>245.0</ele><time>2026-04-26T10:12:46.999Z</time></trkpt><trkpt lat="42.77444170308677" lon="10.273657229575273"><ele>248.0</ele><time>2026-04-26T10:12:47.999Z</time></trkpt><trkpt lat="42.77444632459199" lon="10.273766612787169"><ele>251.0</ele><time>2026-04-26T10:12:48.999Z</time></trkpt><trkpt lat="42.77443667390433" lon="10.273864260167898"><ele>254.00000000000003</ele><time>2026-04-26T10:12:49.999Z</time></trkpt><trkpt lat="42.774418445894746" lon="10.274024161889901"><ele>257.0</ele><time>2026-04-26T10:12:51.999Z</time></trkpt><trkpt lat="42.774383194251534" lon="10.274135968666995"><ele>255.33333333333334</ele><time>2026-04-26T10:12:53.999Z</time></trkpt><trkpt lat="42.774320862925826" lon="10.274199223893813"><ele>253.66666666666669</ele><time>2026-04-26T10:12:55.998Z</time></trkpt><trkpt lat="42.77423761440993" lon="10.274199532568565"><ele>252.0</ele><time>2026-04-26T10:12:58.998Z</time></trkpt><trkpt lat="42.774145990797216" lon="10.27415355648882"><ele>250.33333333333331</ele><time>2026-04-26T10:13:00.998Z</time></trkpt><trkpt lat="42.77407438325416" lon="10.274096580573735"><ele>248.66666666666666</ele><time>2026-04-26T10:13:02.998Z</time></trkpt><trkpt lat="42.77398647376869" lon="10.274075055858734"><ele>247.0</ele><time>2026-04-26T10:13:04.998Z</time></trkpt><trkpt lat="42.77390567204337" lon="10.27407461933085"><ele>246.99999999999997</ele><time>2026-04-26T10:13:06.998Z</time></trkpt><trkpt lat="42.77382947800869" lon="10.274027243600152"><ele>247.0</ele><time>2026-04-26T10:13:10Z</time></trkpt><trkpt lat="42.773765324507316" lon="10.273983193355688"><ele>247.0</ele><time>2026-04-26T10:13:12Z</time></trkpt><trkpt lat="42.77369565460379" lon="10.273913017817405"><ele>247.0</ele><time>2026-04-26T10:13:14Z</time></trkpt><trkpt lat="42.77363323907118" lon="10.273827434627567"><ele>246.99999999999997</ele><time>2026-04-26T10:13:16Z</time></trkpt><trkpt lat="42.773582727741825" lon="10.273719654492764"><ele>247.0</ele><time>2026-04-26T10:13:18Z</time></trkpt><trkpt lat="42.77353237538476" lon="10.273573320852504"><ele>243.75</ele><time>2026-04-26T10:13:20Z</time></trkpt><trkpt lat="42.77346334144231" lon="10.273453057719896"><ele>240.5</ele><time>2026-04-26T10:13:22Z</time></trkpt><trkpt lat="42.77340027349157" lon="10.273341817070246"><ele>237.25</ele><time>2026-04-26T10:13:24Z</time></trkpt><trkpt lat="42.77330312733579" lon="10.273247109461405"><ele>234.0</ele><time>2026-04-26T10:13:26Z</time></trkpt><trkpt lat="42.77320709474365" lon="10.27315316798199"><ele>229.6</ele><time>2026-04-26T10:13:28Z</time></trkpt><trkpt lat="42.77311602924709" lon="10.273068883970048"><ele>225.2</ele><time>2026-04-26T10:13:30Z</time></trkpt><trkpt lat="42.77305206103618" lon="10.272972688978971"><ele>220.79999999999998</ele><time>2026-04-26T10:13:32Z</time></trkpt><trkpt lat="42.7730255809462" lon="10.27283097864249"><ele>216.39999999999998</ele><time>2026-04-26T10:13:34Z</time></trkpt><trkpt lat="42.77304676619567" lon="10.27270010848378"><ele>212.0</ele><time>2026-04-26T10:13:36Z</time></trkpt><trkpt lat="42.77300755828154" lon="10.272565302468873"><ele>212.0</ele><time>2026-04-26T10:13:38Z</time></trkpt><trkpt lat="42.77293537471899" lon="10.272420536882779"><ele>212.0</ele><time>2026-04-26T10:13:40Z</time></trkpt><trkpt lat="42.77288431941311" lon="10.272345783486676"><ele>212.0</ele><time>2026-04-26T10:13:41Z</time></trkpt><trkpt lat="42.77283085323442" lon="10.272280156272911"><ele>212.0</ele><time>2026-04-26T10:13:42Z</time></trkpt><trkpt lat="42.772756727038924" lon="10.272173485864572"><ele>212.0</ele><time>2026-04-26T10:13:44Z</time></trkpt><trkpt lat="42.77271930475848" lon="10.2720711609166"><ele>210.0</ele><time>2026-04-26T10:13:46Z</time></trkpt><trkpt lat="42.77270301788767" lon="10.271946438497373"><ele>208.0</ele><time>2026-04-26T10:13:48Z</time></trkpt><trkpt lat="42.772709761884684" lon="10.271826789243292"><ele>206.0</ele><time>2026-04-26T10:13:50Z</time></trkpt><trkpt lat="42.77268133843295" lon="10.271708259209062"><ele>204.0</ele><time>2026-04-26T10:13:52Z</time></trkpt><trkpt lat="42.77262372749152" lon="10.271562675164779"><ele>202.0</ele><time>2026-04-26T10:13:54Z</time></trkpt><trkpt lat="42.7725589579927" lon="10.271437278865722"><ele>202.0</ele><time>2026-04-26T10:13:55.999Z</time></trkpt><trkpt lat="42.7724853091661" lon="10.271350783972279"><ele>202.0</ele><time>2026-04-26T10:13:57.999Z</time></trkpt><trkpt lat="42.77240821677638" lon="10.271280191608811"><ele>202.0</ele><time>2026-04-26T10:13:59.999Z</time></trkpt><trkpt lat="42.77231188921635" lon="10.271242603828334"><ele>202.0</ele><time>2026-04-26T10:14:01.999Z</time></trkpt><trkpt lat="42.77219147222858" lon="10.271218317521992"><ele>202.0</ele><time>2026-04-26T10:14:03.999Z</time></trkpt><trkpt lat="42.77208214022249" lon="10.271236091583766"><ele>202.0</ele><time>2026-04-26T10:14:05.999Z</time></trkpt><trkpt lat="42.77198954274028" lon="10.271289586839455"><ele>202.0</ele><time>2026-04-26T10:14:07.999Z</time></trkpt><trkpt lat="42.771909619091026" lon="10.271348233874093"><ele>202.0</ele><time>2026-04-26T10:14:09.999Z</time></trkpt><trkpt lat="42.771819468029314" lon="10.271408006020113"><ele>202.0</ele><time>2026-04-26T10:14:11.999Z</time></trkpt><trkpt lat="42.77174093817625" lon="10.271437509443874"><ele>202.0</ele><time>2026-04-26T10:14:13.999Z</time></trkpt><trkpt lat="42.77165946189434" lon="10.27138418875971"><ele>205.2</ele><time>2026-04-26T10:14:16.999Z</time></trkpt><trkpt lat="42.771608359747724" lon="10.27127623971209"><ele>208.39999999999998</ele><time>2026-04-26T10:14:18.999Z</time></trkpt><trkpt lat="42.77156822944613" lon="10.271115621745237"><ele>211.60000000000002</ele><time>2026-04-26T10:14:20.999Z</time></trkpt><trkpt lat="42.77153667560216" lon="10.27103164056142"><ele>214.8</ele><time>2026-04-26T10:14:21.999Z</time></trkpt><trkpt lat="42.77152824937483" lon="10.270927951732011"><ele>218.0</ele><time>2026-04-26T10:14:23.999Z</time></trkpt><trkpt lat="42.771518792047964" lon="10.270806201612114"><ele>218.00000000000003</ele><time>2026-04-26T10:14:29.999Z</time></trkpt><trkpt lat="42.77148501834942" lon="10.270658162151644"><ele>218.0</ele><time>2026-04-26T10:14:31.999Z</time></trkpt><trkpt lat="42.77143792833833" lon="10.270548456717204"><ele>218.0</ele><time>2026-04-26T10:14:33.999Z</time></trkpt><trkpt lat="42.77141130609637" lon="10.270467523328929"><ele>218.0</ele><time>2026-04-26T10:14:35.999Z</time></trkpt><trkpt lat="42.77140426319248" lon="10.270380664688913"><ele>218.00000000000003</ele><time>2026-04-26T10:14:37.999Z</time></trkpt><trkpt lat="42.77143782440373" lon="10.270261242630806"><ele>218.0</ele><time>2026-04-26T10:14:40.999Z</time></trkpt><trkpt lat="42.7715040299831" lon="10.270185744688426"><ele>218.66666666666669</ele><time>2026-04-26T10:14:43.999Z</time></trkpt><trkpt lat="42.771569549760876" lon="10.270156612235846"><ele>219.33333333333334</ele><time>2026-04-26T10:14:45.999Z</time></trkpt><trkpt lat="42.77164425767157" lon="10.270122542568739"><ele>220.0</ele><time>2026-04-26T10:14:47.999Z</time></trkpt><trkpt lat="42.77170448744908" lon="10.270068379689281"><ele>220.66666666666669</ele><time>2026-04-26T10:14:49.999Z</time></trkpt><trkpt lat="42.771773024500995" lon="10.269987475850753"><ele>221.33333333333334</ele><time>2026-04-26T10:14:52.999Z</time></trkpt><trkpt lat="42.771838883944525" lon="10.26990019376299"><ele>222.0</ele><time>2026-04-26T10:14:55.998Z</time></trkpt><trkpt lat="42.77189047729653" lon="10.269787894436698"><ele>216.0</ele><time>2026-04-26T10:14:57.998Z</time></trkpt><trkpt lat="42.771938527394454" lon="10.269695923440668"><ele>210.0</ele><time>2026-04-26T10:14:59.998Z</time></trkpt><trkpt lat="42.77198862365412" lon="10.269588037231246"><ele>204.0</ele><time>2026-04-26T10:15:01.998Z</time></trkpt><trkpt lat="42.772022727528004" lon="10.269497360819162"><ele>198.0</ele><time>2026-04-26T10:15:04.998Z</time></trkpt><trkpt lat="42.77206057833913" lon="10.26937654335348"><ele>192.0</ele><time>2026-04-26T10:15:07.998Z</time></trkpt><trkpt lat="42.772071883532846" lon="10.269265874958808"><ele>186.0</ele><time>2026-04-26T10:15:09.998Z</time></trkpt><trkpt lat="42.77206465193615" lon="10.269151597008058"><ele>186.0</ele><time>2026-04-26T10:15:11.998Z</time></trkpt><trkpt lat="42.772041165572176" lon="10.269048240003098"><ele>186.0</ele><time>2026-04-26T10:15:13.998Z</time></trkpt><trkpt lat="42.77199432010355" lon="10.268954998564066"><ele>186.0</ele><time>2026-04-26T10:15:16Z</time></trkpt><trkpt lat="42.771931879239176" lon="10.26884640971725"><ele>186.0</ele><time>2026-04-26T10:15:18Z</time></trkpt><trkpt lat="42.771863862231214" lon="10.268748666292284"><ele>186.0</ele><time>2026-04-26T10:15:20Z</time></trkpt><trkpt lat="42.77178030436984" lon="10.26863387478903"><ele>189.8</ele><time>2026-04-26T10:15:22Z</time></trkpt><trkpt lat="42.77168787519997" lon="10.268550123807534"><ele>193.60000000000002</ele><time>2026-04-26T10:15:24Z</time></trkpt><trkpt lat="42.77161224443549" lon="10.268485007143783"><ele>197.4</ele><time>2026-04-26T10:15:26Z</time></trkpt><trkpt lat="42.77154130207968" lon="10.26843193451639"><ele>201.2</ele><time>2026-04-26T10:15:28Z</time></trkpt><trkpt lat="42.77147478966922" lon="10.2683326810821"><ele>205.0</ele><time>2026-04-26T10:15:30Z</time></trkpt><trkpt lat="42.77141448036185" lon="10.268214566281165"><ele>205.0</ele><time>2026-04-26T10:15:32Z</time></trkpt><trkpt lat="42.771374621285986" lon="10.268124457622138"><ele>205.0</ele><time>2026-04-26T10:15:34Z</time></trkpt><trkpt lat="42.771315276775944" lon="10.268036929284238"><ele>205.0</ele><time>2026-04-26T10:15:36Z</time></trkpt><trkpt lat="42.77125266539572" lon="10.267924341028701"><ele>205.0</ele><time>2026-04-26T10:15:38Z</time></trkpt><trkpt lat="42.77119292157192" lon="10.26779708989349"><ele>205.0</ele><time>2026-04-26T10:15:40Z</time></trkpt><trkpt lat="42.77116161273118" lon="10.267703768302859"><ele>203.49999999999997</ele><time>2026-04-26T10:15:42Z</time></trkpt><trkpt lat="42.77116605320071" lon="10.267615032146873"><ele>202.0</ele><time>2026-04-26T10:15:44Z</time></trkpt><trkpt lat="42.771183014580124" lon="10.26751878070601"><ele>200.5</ele><time>2026-04-26T10:15:46Z</time></trkpt><trkpt lat="42.77121612673149" lon="10.267421742558026"><ele>199.0</ele><time>2026-04-26T10:15:49Z</time></trkpt><trkpt lat="42.77127852846342" lon="10.26734050382814"><ele>197.49999999999997</ele><time>2026-04-26T10:15:51Z</time></trkpt><trkpt lat="42.77133417150244" lon="10.267222493331774"><ele>196.0</ele><time>2026-04-26T10:15:53Z</time></trkpt><trkpt lat="42.77139287498623" lon="10.267130469995909"><ele>196.0</ele><time>2026-04-26T10:15:55Z</time></trkpt><trkpt lat="42.77145049429222" lon="10.267012653291602"><ele>196.0</ele><time>2026-04-26T10:15:57Z</time></trkpt><trkpt lat="42.77151724556778" lon="10.26687333960865"><ele>196.0</ele><time>2026-04-26T10:15:59Z</time></trkpt><trkpt lat="42.77154747060027" lon="10.266792141622963"><ele>196.0</ele><time>2026-04-26T10:16:00Z</time></trkpt><trkpt lat="42.77159804822109" lon="10.26665129947173"><ele>196.0</ele><time>2026-04-26T10:16:02Z</time></trkpt><trkpt lat="42.77164851073537" lon="10.266501858375605"><ele>194.4</ele><time>2026-04-26T10:16:04Z</time></trkpt><trkpt lat="42.77166735228282" lon="10.266356560829866"><ele>192.8</ele><time>2026-04-26T10:16:06Z</time></trkpt><trkpt lat="42.77166708852674" lon="10.266217234840244"><ele>191.20000000000002</ele><time>2026-04-26T10:16:08Z</time></trkpt><trkpt lat="42.77161415986321" lon="10.266115054047793"><ele>189.60000000000002</ele><time>2026-04-26T10:16:10Z</time></trkpt><trkpt lat="42.77153610190536" lon="10.266051063956718"><ele>188.0</ele><time>2026-04-26T10:16:12Z</time></trkpt><trkpt lat="42.771429422508724" lon="10.266003110602849"><ele>188.0</ele><time>2026-04-26T10:16:14Z</time></trkpt><trkpt lat="42.77133999665716" lon="10.265969957974407"><ele>188.0</ele><time>2026-04-26T10:16:15.999Z</time></trkpt><trkpt lat="42.771232670404686" lon="10.265930812076192"><ele>188.0</ele><time>2026-04-26T10:16:17.999Z</time></trkpt><trkpt lat="42.7711240390468" lon="10.265886532325581"><ele>188.0</ele><time>2026-04-26T10:16:19.999Z</time></trkpt><trkpt lat="42.77103892532183" lon="10.265852960845134"><ele>188.0</ele><time>2026-04-26T10:16:21.999Z</time></trkpt><trkpt lat="42.770975013093704" lon="10.265823700627191"><ele>186.66666666666666</ele><time>2026-04-26T10:16:22.999Z</time></trkpt><trkpt lat="42.77090437077031" lon="10.265805672473725"><ele>185.33333333333331</ele><time>2026-04-26T10:16:23.999Z</time></trkpt><trkpt lat="42.77083511483492" lon="10.265785137289484"><ele>184.0</ele><time>2026-04-26T10:16:25.999Z</time></trkpt><trkpt lat="42.77077348520024" lon="10.265745326965044"><ele>182.66666666666666</ele><time>2026-04-26T10:16:27.999Z</time></trkpt><trkpt lat="42.77070417840316" lon="10.26568965838778"><ele>181.33333333333334</ele><time>2026-04-26T10:16:29.999Z</time></trkpt><trkpt lat="42.77065066960716" lon="10.26562634860519"><ele>180.0</ele><time>2026-04-26T10:16:31.999Z</time></trkpt><trkpt lat="42.770598051294144" lon="10.265509236071452"><ele>180.0</ele><time>2026-04-26T10:16:33.999Z</time></trkpt><trkpt lat="42.77058460979203" lon="10.265349297670394"><ele>180.0</ele><time>2026-04-26T10:16:35.999Z</time></trkpt><trkpt lat="42.770602041737014" lon="10.265200605010627"><ele>180.0</ele><time>2026-04-26T10:16:37.999Z</time></trkpt><trkpt lat="42.7706042091673" lon="10.265035293862228"><ele>180.0</ele><time>2026-04-26T10:16:39.999Z</time></trkpt><trkpt lat="42.77058654550321" lon="10.26487695634346"><ele>177.66666666666666</ele><time>2026-04-26T10:16:41.999Z</time></trkpt><trkpt lat="42.77057969830912" lon="10.264761722514608"><ele>175.33333333333334</ele><time>2026-04-26T10:16:43.999Z</time></trkpt><trkpt lat="42.77055316526407" lon="10.26466791032331"><ele>173.0</ele><time>2026-04-26T10:16:45.999Z</time></trkpt><trkpt lat="42.77051129327013" lon="10.26457566285279"><ele>170.66666666666669</ele><time>2026-04-26T10:16:47.999Z</time></trkpt><trkpt lat="42.7704607898926" lon="10.264507799951653"><ele>168.33333333333334</ele><time>2026-04-26T10:16:49.999Z</time></trkpt><trkpt lat="42.77040084709318" lon="10.264458309502997"><ele>166.0</ele><time>2026-04-26T10:16:51.999Z</time></trkpt><trkpt lat="42.77033119197753" lon="10.26437797919236"><ele>166.0</ele><time>2026-04-26T10:16:54.999Z</time></trkpt><trkpt lat="42.77029221801985" lon="10.264291645587273"><ele>166.0</ele><time>2026-04-26T10:16:56.999Z</time></trkpt><trkpt lat="42.77022973646317" lon="10.264178823020472"><ele>166.0</ele><time>2026-04-26T10:16:58.999Z</time></trkpt><trkpt lat="42.77013106706082" lon="10.264064730480394"><ele>166.0</ele><time>2026-04-26T10:17:00.999Z</time></trkpt><trkpt lat="42.77008142643494" lon="10.2639997355903"><ele>166.0</ele><time>2026-04-26T10:17:01.999Z</time></trkpt><trkpt lat="42.77000895488302" lon="10.263899544449027"><ele>169.8</ele><time>2026-04-26T10:17:03.999Z</time></trkpt><trkpt lat="42.7699602019142" lon="10.263788722726229"><ele>173.60000000000002</ele><time>2026-04-26T10:17:05.999Z</time></trkpt><trkpt lat="42.76992229221986" lon="10.263670134422629"><ele>177.4</ele><time>2026-04-26T10:17:07.999Z</time></trkpt><trkpt lat="42.769884957890504" lon="10.26356522241926"><ele>181.2</ele><time>2026-04-26T10:17:09.999Z</time></trkpt><trkpt lat="42.76981104888691" lon="10.26343970954347"><ele>185.0</ele><time>2026-04-26T10:17:11.999Z</time></trkpt><trkpt lat="42.769757803813974" lon="10.263344972473584"><ele>185.0</ele><time>2026-04-26T10:17:13.998Z</time></trkpt><trkpt lat="42.76972344102516" lon="10.263244768703993"><ele>185.0</ele><time>2026-04-26T10:17:15.998Z</time></trkpt><trkpt lat="42.76971471252101" lon="10.263115464302276"><ele>185.0</ele><time>2026-04-26T10:17:17.998Z</time></trkpt><trkpt lat="42.769719771958776" lon="10.262996808029701"><ele>185.0</ele><time>2026-04-26T10:17:19.998Z</time></trkpt><trkpt lat="42.7697441020592" lon="10.262886504731206"><ele>185.0</ele><time>2026-04-26T10:17:22.001Z</time></trkpt><trkpt lat="42.76979139330097" lon="10.26277402758662"><ele>185.0</ele><time>2026-04-26T10:17:24.001Z</time></trkpt><trkpt lat="42.7698823270862" lon="10.262652476059854"><ele>186.0</ele><time>2026-04-26T10:17:26.001Z</time></trkpt><trkpt lat="42.76992497650853" lon="10.262585743076322"><ele>187.0</ele><time>2026-04-26T10:17:27.001Z</time></trkpt><trkpt lat="42.770008885252736" lon="10.262485008035274"><ele>188.0</ele><time>2026-04-26T10:17:29.001Z</time></trkpt><trkpt lat="42.77006200233607" lon="10.262428697352611"><ele>189.0</ele><time>2026-04-26T10:17:30.001Z</time></trkpt><trkpt lat="42.770162500615385" lon="10.262314022741803"><ele>190.0</ele><time>2026-04-26T10:17:32.001Z</time></trkpt><trkpt lat="42.770233099597746" lon="10.262216295019158"><ele>183.4</ele><time>2026-04-26T10:17:34.001Z</time></trkpt><trkpt lat="42.77030938985892" lon="10.262108354347793"><ele>176.8</ele><time>2026-04-26T10:17:36.001Z</time></trkpt><trkpt lat="42.77036399979566" lon="10.262002766471497"><ele>170.2</ele><time>2026-04-26T10:17:38.001Z</time></trkpt><trkpt lat="42.77038680032809" lon="10.261885030923803"><ele>163.6</ele><time>2026-04-26T10:17:40.001Z</time></trkpt><trkpt lat="42.77038433469202" lon="10.261733640984437"><ele>157.0</ele><time>2026-04-26T10:17:42Z</time></trkpt><trkpt lat="42.77038484793913" lon="10.261594942447452"><ele>157.0</ele><time>2026-04-26T10:17:44Z</time></trkpt><trkpt lat="42.77040948177123" lon="10.261465396057353"><ele>157.0</ele><time>2026-04-26T10:17:46Z</time></trkpt><trkpt lat="42.77043774591063" lon="10.261325588514634"><ele>157.0</ele><time>2026-04-26T10:17:48Z</time></trkpt><trkpt lat="42.770421586407274" lon="10.261198157004658"><ele>157.0</ele><time>2026-04-26T10:17:50Z</time></trkpt><trkpt lat="42.77038744374761" lon="10.26107467175463"><ele>157.0</ele><time>2026-04-26T10:17:52Z</time></trkpt><trkpt lat="42.77033587030836" lon="10.260964673366956"><ele>156.75</ele><time>2026-04-26T10:17:54Z</time></trkpt><trkpt lat="42.770249546622885" lon="10.260853776629226"><ele>156.5</ele><time>2026-04-26T10:17:56Z</time></trkpt><trkpt lat="42.7701753393058" lon="10.26072934259024"><ele>156.25</ele><time>2026-04-26T10:17:58Z</time></trkpt><trkpt lat="42.77008958421395" lon="10.260625426217604"><ele>156.0</ele><time>2026-04-26T10:18:00Z</time></trkpt><trkpt lat="42.77000652439179" lon="10.260523534020242"><ele>157.16666666666666</ele><time>2026-04-26T10:18:02Z</time></trkpt><trkpt lat="42.7699047649958" lon="10.260428227984027"><ele>158.33333333333334</ele><time>2026-04-26T10:18:04Z</time></trkpt><trkpt lat="42.76985628037568" lon="10.260364723795739"><ele>159.5</ele><time>2026-04-26T10:18:05Z</time></trkpt><trkpt lat="42.76978637782305" lon="10.260248258426317"><ele>160.66666666666669</ele><time>2026-04-26T10:18:07Z</time></trkpt><trkpt lat="42.76973771532589" lon="10.260192667080409"><ele>161.83333333333334</ele><time>2026-04-26T10:18:08Z</time></trkpt><trkpt lat="42.76968991877447" lon="10.260132669552592"><ele>163.0</ele><time>2026-04-26T10:18:09Z</time></trkpt><trkpt lat="42.76962552590922" lon="10.26003802082488"><ele>163.0</ele><time>2026-04-26T10:18:11Z</time></trkpt><trkpt lat="42.769550833723706" lon="10.259971667995261"><ele>163.0</ele><time>2026-04-26T10:18:13Z</time></trkpt><trkpt lat="42.76947449217953" lon="10.259919125856662"><ele>163.0</ele><time>2026-04-26T10:18:15Z</time></trkpt><trkpt lat="42.76937951131121" lon="10.259877399885102"><ele>163.0</ele><time>2026-04-26T10:18:41.999Z</time></trkpt><trkpt lat="42.76931158604455" lon="10.25984585397355"><ele>163.0</ele><time>2026-04-26T10:18:42.999Z</time></trkpt><trkpt lat="42.76924407659854" lon="10.259813043038184"><ele>163.0</ele><time>2026-04-26T10:18:43.999Z</time></trkpt><trkpt lat="42.76918722004877" lon="10.25977340716032"><ele>163.33333333333334</ele><time>2026-04-26T10:18:44.999Z</time></trkpt><trkpt lat="42.76908883829771" lon="10.259673531821223"><ele>163.66666666666669</ele><time>2026-04-26T10:18:46.999Z</time></trkpt><trkpt lat="42.769041547943914" lon="10.259596842159148"><ele>164.0</ele><time>2026-04-26T10:18:47.999Z</time></trkpt><trkpt lat="42.76900026303455" lon="10.259515578499446"><ele>164.33333333333334</ele><time>2026-04-26T10:18:48.999Z</time></trkpt><trkpt lat="42.76895896259921" lon="10.259428574847512"><ele>164.66666666666666</ele><time>2026-04-26T10:18:49.999Z</time></trkpt><trkpt lat="42.76892241807593" lon="10.259349074770991"><ele>165.0</ele><time>2026-04-26T10:18:50.999Z</time></trkpt><trkpt lat="42.768886061966235" lon="10.259264250169494"><ele>165.0</ele><time>2026-04-26T10:18:51.999Z</time></trkpt><trkpt lat="42.76881889505868" lon="10.25911647697063"><ele>165.0</ele><time>2026-04-26T10:18:53.999Z</time></trkpt><trkpt lat="42.76878373155257" lon="10.259023489312087"><ele>165.0</ele><time>2026-04-26T10:18:54.999Z</time></trkpt><trkpt lat="42.76875338072083" lon="10.258932472669429"><ele>165.0</ele><time>2026-04-26T10:18:55.999Z</time></trkpt><trkpt lat="42.76873210059964" lon="10.258844357151474"><ele>165.0</ele><time>2026-04-26T10:18:56.999Z</time></trkpt><trkpt lat="42.76870560547885" lon="10.258761919352695"><ele>165.0</ele><time>2026-04-26T10:18:57.999Z</time></trkpt><trkpt lat="42.76868472094966" lon="10.258656985677975"><ele>164.4</ele><time>2026-04-26T10:18:58.999Z</time></trkpt><trkpt lat="42.768665788721144" lon="10.258556198577317"><ele>163.8</ele><time>2026-04-26T10:18:59.999Z</time></trkpt><trkpt lat="42.768646030468744" lon="10.258467586839059"><ele>163.2</ele><time>2026-04-26T10:19:00.999Z</time></trkpt><trkpt lat="42.768599772262164" lon="10.258324760097512"><ele>162.6</ele><time>2026-04-26T10:19:02.999Z</time></trkpt><trkpt lat="42.768541627362005" lon="10.258178866304071"><ele>162.0</ele><time>2026-04-26T10:19:04.999Z</time></trkpt><trkpt lat="42.768507401766556" lon="10.258092787731332"><ele>162.0</ele><time>2026-04-26T10:19:05.999Z</time></trkpt><trkpt lat="42.76844955076381" lon="10.257970701313136"><ele>162.0</ele><time>2026-04-26T10:19:07.999Z</time></trkpt><trkpt lat="42.768393563402874" lon="10.257857598089569"><ele>162.0</ele><time>2026-04-26T10:19:09.999Z</time></trkpt><trkpt lat="42.768357819142885" lon="10.257764265626305"><ele>162.0</ele><time>2026-04-26T10:19:11.999Z</time></trkpt><trkpt lat="42.76831582665883" lon="10.25764898868283"><ele>162.0</ele><time>2026-04-26T10:19:13.999Z</time></trkpt><trkpt lat="42.768259936638195" lon="10.257529456797394"><ele>162.0</ele><time>2026-04-26T10:19:15.999Z</time></trkpt><trkpt lat="42.76820870193294" lon="10.257427654724108"><ele>162.0</ele><time>2026-04-26T10:19:17.999Z</time></trkpt><trkpt lat="42.76813917386459" lon="10.257306313673704"><ele>162.0</ele><time>2026-04-26T10:19:19.999Z</time></trkpt><trkpt lat="42.768043131685694" lon="10.25720803919978"><ele>162.0</ele><time>2026-04-26T10:19:21.998Z</time></trkpt><trkpt lat="42.76795294517027" lon="10.257129870277465"><ele>162.0</ele><time>2026-04-26T10:19:23.998Z</time></trkpt><trkpt lat="42.76786686893462" lon="10.257072855389621"><ele>159.33333333333334</ele><time>2026-04-26T10:19:25.998Z</time></trkpt><trkpt lat="42.7677703867637" lon="10.257081240620261"><ele>156.66666666666666</ele><time>2026-04-26T10:19:28.001Z</time></trkpt><trkpt lat="42.76765798551761" lon="10.257104853402922"><ele>154.0</ele><time>2026-04-26T10:19:30.001Z</time></trkpt><trkpt lat="42.76758572091023" lon="10.25706750537598"><ele>151.33333333333331</ele><time>2026-04-26T10:19:32.001Z</time></trkpt><trkpt lat="42.76756182863638" lon="10.256964817160199"><ele>148.66666666666666</ele><time>2026-04-26T10:19:35.001Z</time></trkpt><trkpt lat="42.76759126115618" lon="10.256880774792503"><ele>146.0</ele><time>2026-04-26T10:19:39.001Z</time></trkpt><trkpt lat="42.767654582807644" lon="10.256853108409617"><ele>144.4</ele><time>2026-04-26T10:19:42.001Z</time></trkpt><trkpt lat="42.76775160619304" lon="10.256889033433808"><ele>142.8</ele><time>2026-04-26T10:19:52Z</time></trkpt><trkpt lat="42.76785732255198" lon="10.256926860828347"><ele>141.20000000000002</ele><time>2026-04-26T10:19:54Z</time></trkpt><trkpt lat="42.7679725289074" lon="10.256946797081126"><ele>139.6</ele><time>2026-04-26T10:19:56Z</time></trkpt><trkpt lat="42.76807836032278" lon="10.256974917470426"><ele>138.0</ele><time>2026-04-26T10:19:58Z</time></trkpt><trkpt lat="42.768194932923365" lon="10.256989501778175"><ele>138.0</ele><time>2026-04-26T10:20:00Z</time></trkpt><trkpt lat="42.768276815691195" lon="10.25704198143775"><ele>138.0</ele><time>2026-04-26T10:20:02Z</time></trkpt><trkpt lat="42.7683500985428" lon="10.257102131682482"><ele>138.0</ele><time>2026-04-26T10:20:04Z</time></trkpt><trkpt lat="42.76842484552532" lon="10.257196640631449"><ele>138.0</ele><time>2026-04-26T10:20:06Z</time></trkpt><trkpt lat="42.76851318975226" lon="10.257274961584988"><ele>138.0</ele><time>2026-04-26T10:20:08Z</time></trkpt><trkpt lat="42.768600753806425" lon="10.257341090457754"><ele>138.5</ele><time>2026-04-26T10:20:10Z</time></trkpt><trkpt lat="42.76866209183231" lon="10.257373512201754"><ele>139.0</ele><time>2026-04-26T10:20:11Z</time></trkpt><trkpt lat="42.76872021503552" lon="10.257417099493189"><ele>139.5</ele><time>2026-04-26T10:20:12Z</time></trkpt><trkpt lat="42.7688087539784" lon="10.25745865790586"><ele>140.0</ele><time>2026-04-26T10:20:14Z</time></trkpt><trkpt lat="42.76889753313134" lon="10.257519623783894"><ele>140.5</ele><time>2026-04-26T10:20:16Z</time></trkpt><trkpt lat="42.76897807808958" lon="10.257572386886068"><ele>141.0</ele><time>2026-04-26T10:20:18Z</time></trkpt><trkpt lat="42.76903073578665" lon="10.257683091944418"><ele>141.0</ele><time>2026-04-26T10:20:20Z</time></trkpt><trkpt lat="42.76907861431285" lon="10.25777163257509"><ele>141.0</ele><time>2026-04-26T10:20:22Z</time></trkpt><trkpt lat="42.769167553072045" lon="10.257785752191385"><ele>141.0</ele><time>2026-04-26T10:20:25Z</time></trkpt><trkpt lat="42.76922228669389" lon="10.25771893259396"><ele>141.0</ele><time>2026-04-26T10:20:27Z</time></trkpt><trkpt lat="42.76919306779605" lon="10.257628068543573"><ele>141.0</ele><time>2026-04-26T10:20:30Z</time></trkpt><trkpt lat="42.76914821944859" lon="10.257565281776559"><ele>141.0</ele><time>2026-04-26T10:20:32Z</time></trkpt><trkpt lat="42.76908630228481" lon="10.25750069662961"><ele>141.0</ele><time>2026-04-26T10:20:34Z</time></trkpt><trkpt lat="42.76903002912308" lon="10.257412806657639"><ele>141.0</ele><time>2026-04-26T10:20:36.999Z</time></trkpt><trkpt lat="42.76898507563546" lon="10.2573416872039"><ele>141.0</ele><time>2026-04-26T10:20:39.999Z</time></trkpt><trkpt lat="42.768927328407514" lon="10.257283763068726"><ele>141.0</ele><time>2026-04-26T10:20:41.999Z</time></trkpt><trkpt lat="42.76887243038512" lon="10.257182669334867"><ele>141.0</ele><time>2026-04-26T10:20:44.999Z</time></trkpt><trkpt lat="42.76882778141537" lon="10.257121317852512"><ele>141.0</ele><time>2026-04-26T10:20:46.999Z</time></trkpt><trkpt lat="42.768771367692516" lon="10.25703538379033"><ele>140.5</ele><time>2026-04-26T10:20:50.999Z</time></trkpt><trkpt lat="42.7687189869164" lon="10.256978806028451"><ele>140.0</ele><time>2026-04-26T10:21:04.999Z</time></trkpt><trkpt lat="42.76867565362903" lon="10.256890322592861"><ele>139.5</ele><time>2026-04-26T10:21:06.999Z</time></trkpt><trkpt lat="42.76863179818716" lon="10.256807669129852"><ele>139.0</ele><time>2026-04-26T10:21:08.999Z</time></trkpt><trkpt lat="42.76855991607883" lon="10.256725091796005"><ele>138.5</ele><time>2026-04-26T10:21:10.999Z</time></trkpt><trkpt lat="42.768476468089055" lon="10.256647663997882"><ele>138.0</ele><time>2026-04-26T10:21:12.999Z</time></trkpt><trkpt lat="42.768373273188814" lon="10.25659130472036"><ele>138.0</ele><time>2026-04-26T10:21:14.999Z</time></trkpt><trkpt lat="42.76829411758653" lon="10.256551443925474"><ele>138.0</ele><time>2026-04-26T10:21:16.999Z</time></trkpt><trkpt lat="42.76819762945315" lon="10.256543355761828"><ele>138.0</ele><time>2026-04-26T10:21:18.999Z</time></trkpt><trkpt lat="42.768131190265855" lon="10.256511242678668"><ele>138.0</ele><time>2026-04-26T10:21:20.999Z</time></trkpt><trkpt lat="42.76807226183962" lon="10.256474533699993"><ele>138.0</ele><time>2026-04-26T10:21:22.999Z</time></trkpt><trkpt lat="42.76800234498996" lon="10.256415712599443"><ele>138.0</ele><time>2026-04-26T10:21:24.999Z</time></trkpt><trkpt lat="42.76792421686374" lon="10.256350512172869"><ele>136.4</ele><time>2026-04-26T10:21:26.998Z</time></trkpt><trkpt lat="42.76784740982131" lon="10.256264199958064"><ele>134.8</ele><time>2026-04-26T10:21:28.998Z</time></trkpt><trkpt lat="42.76777067885378" lon="10.256193784012012"><ele>133.2</ele><time>2026-04-26T10:21:30.998Z</time></trkpt><trkpt lat="42.7677049700892" lon="10.256121025075577"><ele>131.6</ele><time>2026-04-26T10:21:32.998Z</time></trkpt><trkpt lat="42.767650553758294" lon="10.25602660879188"><ele>130.0</ele><time>2026-04-26T10:21:35.001Z</time></trkpt><trkpt lat="42.7676287134521" lon="10.255913124594235"><ele>130.0</ele><time>2026-04-26T10:21:37.001Z</time></trkpt><trkpt lat="42.7676054561244" lon="10.255783330233022"><ele>130.0</ele><time>2026-04-26T10:21:39.001Z</time></trkpt><trkpt lat="42.7675593539225" lon="10.255686835079345"><ele>130.0</ele><time>2026-04-26T10:21:41.001Z</time></trkpt><trkpt lat="42.76749729376007" lon="10.255613786419419"><ele>130.0</ele><time>2026-04-26T10:21:43.001Z</time></trkpt><trkpt lat="42.76740628706471" lon="10.255551226728532"><ele>130.0</ele><time>2026-04-26T10:21:45.001Z</time></trkpt><trkpt lat="42.76729681539269" lon="10.255508124615895"><ele>127.2</ele><time>2026-04-26T10:21:47.001Z</time></trkpt><trkpt lat="42.76718655251618" lon="10.255477022627352"><ele>124.4</ele><time>2026-04-26T10:21:49.001Z</time></trkpt><trkpt lat="42.76711650018877" lon="10.255456703371976"><ele>121.6</ele><time>2026-04-26T10:21:50Z</time></trkpt><trkpt lat="42.76700583265621" lon="10.25544134948749"><ele>118.8</ele><time>2026-04-26T10:21:52Z</time></trkpt><trkpt lat="42.766920288446855" lon="10.255464770003666"><ele>116.0</ele><time>2026-04-26T10:21:54Z</time></trkpt><trkpt lat="42.766851650504336" lon="10.255418447429912"><ele>116.00000000000001</ele><time>2026-04-26T10:21:56Z</time></trkpt><trkpt lat="42.76683972097801" lon="10.255318658945573"><ele>116.0</ele><time>2026-04-26T10:21:58Z</time></trkpt><trkpt lat="42.76686071741686" lon="10.255215472388647"><ele>116.00000000000001</ele><time>2026-04-26T10:22:01Z</time></trkpt><trkpt lat="42.76691284819604" lon="10.255154858476995"><ele>116.00000000000001</ele><time>2026-04-26T10:22:12Z</time></trkpt><trkpt lat="42.766973914635535" lon="10.255112314970328"><ele>116.0</ele><time>2026-04-26T10:22:14Z</time></trkpt><trkpt lat="42.767032995977964" lon="10.255156680857127"><ele>116.00000000000001</ele><time>2026-04-26T10:22:16Z</time></trkpt><trkpt lat="42.76710269443477" lon="10.255218852287097"><ele>116.00000000000001</ele><time>2026-04-26T10:22:18Z</time></trkpt><trkpt lat="42.76717329617021" lon="10.255256280073649"><ele>114.99999999999999</ele><time>2026-04-26T10:22:20Z</time></trkpt><trkpt lat="42.76729016513322" lon="10.25531397030259"><ele>114.0</ele><time>2026-04-26T10:22:22Z</time></trkpt><trkpt lat="42.767373967700415" lon="10.255345815412399"><ele>113.0</ele><time>2026-04-26T10:22:24Z</time></trkpt><trkpt lat="42.76746778155196" lon="10.255362862587514"><ele>112.0</ele><time>2026-04-26T10:22:26Z</time></trkpt><trkpt lat="42.76753592957406" lon="10.255371493813147"><ele>110.99999999999999</ele><time>2026-04-26T10:22:28Z</time></trkpt><trkpt lat="42.7676071170124" lon="10.255395321141933"><ele>110.0</ele><time>2026-04-26T10:22:30Z</time></trkpt><trkpt lat="42.76768937572548" lon="10.255442002339121"><ele>110.6</ele><time>2026-04-26T10:22:32Z</time></trkpt><trkpt lat="42.76776605617687" lon="10.255510221898763"><ele>111.2</ele><time>2026-04-26T10:22:34Z</time></trkpt><trkpt lat="42.767835923203734" lon="10.25559501480939"><ele>111.80000000000001</ele><time>2026-04-26T10:22:36Z</time></trkpt><trkpt lat="42.76791071224356" lon="10.255687647462292"><ele>112.4</ele><time>2026-04-26T10:22:38Z</time></trkpt><trkpt lat="42.76795988144012" lon="10.255749576749023"><ele>113.0</ele><time>2026-04-26T10:22:39.999Z</time></trkpt><trkpt lat="42.768059379425964" lon="10.255827097084037"><ele>112.99999999999999</ele><time>2026-04-26T10:22:41.999Z</time></trkpt><trkpt lat="42.76812384498513" lon="10.255862158880365"><ele>113.0</ele><time>2026-04-26T10:22:42.999Z</time></trkpt><trkpt lat="42.76822243931025" lon="10.255904897690085"><ele>113.0</ele><time>2026-04-26T10:22:44.999Z</time></trkpt><trkpt lat="42.76831912480405" lon="10.255925770513135"><ele>113.0</ele><time>2026-04-26T10:22:46.999Z</time></trkpt><trkpt lat="42.76838834670234" lon="10.255949804569468"><ele>112.99999999999999</ele><time>2026-04-26T10:22:48.999Z</time></trkpt><trkpt lat="42.76848214293013" lon="10.255980933823892"><ele>113.0</ele><time>2026-04-26T10:22:50.999Z</time></trkpt><trkpt lat="42.76857868919195" lon="10.25599529008783"><ele>111.83333333333333</ele><time>2026-04-26T10:22:52.999Z</time></trkpt><trkpt lat="42.76865112433477" lon="10.25598032296028"><ele>110.66666666666666</ele><time>2026-04-26T10:22:54.999Z</time></trkpt><trkpt lat="42.76875102662655" lon="10.255956782791936"><ele>109.5</ele><time>2026-04-26T10:22:56.999Z</time></trkpt><trkpt lat="42.76884351974989" lon="10.255925213775347"><ele>108.33333333333334</ele><time>2026-04-26T10:22:58.999Z</time></trkpt><trkpt lat="42.7689051728795" lon="10.255904097323597"><ele>107.16666666666667</ele><time>2026-04-26T10:22:59.999Z</time></trkpt><trkpt lat="42.7689843196166" lon="10.255880744710355"><ele>106.0</ele><time>2026-04-26T10:23:00.999Z</time></trkpt><trkpt lat="42.76904981524868" lon="10.255858329658587"><ele>106.0</ele><time>2026-04-26T10:23:01.999Z</time></trkpt><trkpt lat="42.76911665692038" lon="10.255841357041175"><ele>106.0</ele><time>2026-04-26T10:23:02.999Z</time></trkpt><trkpt lat="42.76924001724523" lon="10.255812663422141"><ele>106.0</ele><time>2026-04-26T10:23:04.999Z</time></trkpt><trkpt lat="42.76931839520633" lon="10.255772130183551"><ele>106.0</ele><time>2026-04-26T10:23:06.999Z</time></trkpt><trkpt lat="42.76939227780213" lon="10.255717401918483"><ele>106.0</ele><time>2026-04-26T10:23:08.999Z</time></trkpt><trkpt lat="42.76944423795297" lon="10.255611360505727"><ele>105.4</ele><time>2026-04-26T10:23:10.999Z</time></trkpt><trkpt lat="42.769458286258136" lon="10.255491679669934"><ele>104.8</ele><time>2026-04-26T10:23:12.999Z</time></trkpt><trkpt lat="42.769462174311286" lon="10.255401944651798"><ele>104.2</ele><time>2026-04-26T10:23:20.999Z</time></trkpt><trkpt lat="42.769468177069456" lon="10.255250653624763"><ele>103.60000000000001</ele><time>2026-04-26T10:23:22.999Z</time></trkpt><trkpt lat="42.769479295731095" lon="10.255094232136127"><ele>103.0</ele><time>2026-04-26T10:23:24.999Z</time></trkpt><trkpt lat="42.76955426744454" lon="10.254949350369474"><ele>103.0</ele><time>2026-04-26T10:23:26.999Z</time></trkpt><trkpt lat="42.769603238746" lon="10.254878480019734"><ele>103.0</ele><time>2026-04-26T10:23:27.999Z</time></trkpt><trkpt lat="42.769683916384444" lon="10.25475953621281"><ele>103.0</ele><time>2026-04-26T10:23:29.998Z</time></trkpt><trkpt lat="42.76974533893457" lon="10.254671168413347"><ele>103.0</ele><time>2026-04-26T10:23:31.998Z</time></trkpt><trkpt lat="42.76983951756167" lon="10.25455115868942"><ele>103.0</ele><time>2026-04-26T10:23:33.998Z</time></trkpt><trkpt lat="42.76990189932332" lon="10.254499025049013"><ele>102.50000000000001</ele><time>2026-04-26T10:23:34.998Z</time></trkpt><trkpt lat="42.76995919703137" lon="10.25444169391794"><ele>102.0</ele><time>2026-04-26T10:23:35.998Z</time></trkpt><trkpt lat="42.770022955723086" lon="10.254386903614837"><ele>101.5</ele><time>2026-04-26T10:23:36.998Z</time></trkpt><trkpt lat="42.77008705219058" lon="10.254341510047626"><ele>101.0</ele><time>2026-04-26T10:23:37.998Z</time></trkpt><trkpt lat="42.77015364229814" lon="10.254296102298607"><ele>100.50000000000001</ele><time>2026-04-26T10:23:38.998Z</time></trkpt><trkpt lat="42.77022842829847" lon="10.25424278648628"><ele>100.0</ele><time>2026-04-26T10:23:40.001Z</time></trkpt><trkpt lat="42.77030299041218" lon="10.2541906235412"><ele>100.00000000000001</ele><time>2026-04-26T10:23:41.001Z</time></trkpt><trkpt lat="42.770378840625156" lon="10.254130028789653"><ele>100.0</ele><time>2026-04-26T10:23:42Z</time></trkpt><trkpt lat="42.770460295416605" lon="10.25406616218325"><ele>100.0</ele><time>2026-04-26T10:23:43Z</time></trkpt><trkpt lat="42.77052177495952" lon="10.253999856011754"><ele>100.0</ele><time>2026-04-26T10:23:44.001Z</time></trkpt><trkpt lat="42.770573919511826" lon="10.253942332714242"><ele>100.00000000000001</ele><time>2026-04-26T10:23:45Z</time></trkpt><trkpt lat="42.770626890215766" lon="10.253874368283636"><ele>100.0</ele><time>2026-04-26T10:23:46Z</time></trkpt><trkpt lat="42.77068332987462" lon="10.25380044972455"><ele>99.6</ele><time>2026-04-26T10:23:47Z</time></trkpt><trkpt lat="42.770729765524834" lon="10.253731204343117"><ele>99.2</ele><time>2026-04-26T10:23:48Z</time></trkpt><trkpt lat="42.770784960906354" lon="10.253615965343446"><ele>98.80000000000001</ele><time>2026-04-26T10:23:50Z</time></trkpt><trkpt lat="42.77082084038567" lon="10.253518367454316"><ele>98.4</ele><time>2026-04-26T10:23:52Z</time></trkpt><trkpt lat="42.770871216410434" lon="10.253373085393822"><ele>98.0</ele><time>2026-04-26T10:23:54Z</time></trkpt><trkpt lat="42.77090700908692" lon="10.253237282075592"><ele>97.99999999999999</ele><time>2026-04-26T10:23:56Z</time></trkpt><trkpt lat="42.77093595411977" lon="10.253126952677132"><ele>98.0</ele><time>2026-04-26T10:23:58Z</time></trkpt><trkpt lat="42.77096097735317" lon="10.253027739677732"><ele>98.0</ele><time>2026-04-26T10:24:00Z</time></trkpt><trkpt lat="42.770972810330754" lon="10.252939315765243"><ele>98.0</ele><time>2026-04-26T10:24:02Z</time></trkpt><trkpt lat="42.771002623081266" lon="10.25279706074304"><ele>97.99999999999999</ele><time>2026-04-26T10:24:04Z</time></trkpt><trkpt lat="42.77104798266904" lon="10.25272884575562"><ele>98.0</ele><time>2026-04-26T10:24:05Z</time></trkpt><trkpt lat="42.77111505863263" lon="10.252610166969323"><ele>98.66666666666666</ele><time>2026-04-26T10:24:07Z</time></trkpt><trkpt lat="42.771142834499194" lon="10.252472703806356"><ele>99.33333333333333</ele><time>2026-04-26T10:24:09Z</time></trkpt><trkpt lat="42.77119196479773" lon="10.252382017036352"><ele>100.0</ele><time>2026-04-26T10:24:11Z</time></trkpt><trkpt lat="42.77123677310014" lon="10.252310317437955"><ele>100.66666666666666</ele><time>2026-04-26T10:24:13Z</time></trkpt><trkpt lat="42.771302788897025" lon="10.252235017630813"><ele>101.33333333333333</ele><time>2026-04-26T10:24:24Z</time></trkpt><trkpt lat="42.771377814942724" lon="10.252164240929257"><ele>102.0</ele><time>2026-04-26T10:24:26Z</time></trkpt><trkpt lat="42.7714330499184" lon="10.252063102033729"><ele>99.6</ele><time>2026-04-26T10:24:28Z</time></trkpt><trkpt lat="42.77145820807647" lon="10.251925872722461"><ele>97.19999999999999</ele><time>2026-04-26T10:24:30Z</time></trkpt><trkpt lat="42.771464124926304" lon="10.25177878488832"><ele>94.8</ele><time>2026-04-26T10:24:32Z</time></trkpt><trkpt lat="42.77143992482875" lon="10.251670384014863"><ele>92.4</ele><time>2026-04-26T10:24:34Z</time></trkpt><trkpt lat="42.77138829296057" lon="10.251530016440777"><ele>90.0</ele><time>2026-04-26T10:24:36Z</time></trkpt><trkpt lat="42.77134899801031" lon="10.251375412773607"><ele>88.6</ele><time>2026-04-26T10:24:37.999Z</time></trkpt><trkpt lat="42.771314533708825" lon="10.25128450865977"><ele>87.2</ele><time>2026-04-26T10:24:38.999Z</time></trkpt><trkpt lat="42.77131377933409" lon="10.251132360340659"><ele>85.80000000000001</ele><time>2026-04-26T10:24:40.999Z</time></trkpt><trkpt lat="42.771305843549165" lon="10.250972203889935"><ele>84.4</ele><time>2026-04-26T10:24:42.999Z</time></trkpt><trkpt lat="42.77131060717967" lon="10.250841474044577"><ele>83.0</ele><time>2026-04-26T10:24:44.999Z</time></trkpt><trkpt lat="42.77131581882293" lon="10.250719412814156"><ele>81.16666666666667</ele><time>2026-04-26T10:24:46.999Z</time></trkpt><trkpt lat="42.7713425130482" lon="10.250573671177188"><ele>79.33333333333334</ele><time>2026-04-26T10:24:48.999Z</time></trkpt><trkpt lat="42.77138776062198" lon="10.250484121348956"><ele>77.5</ele><time>2026-04-26T10:24:50.999Z</time></trkpt><trkpt lat="42.771423011972516" lon="10.250403944841697"><ele>75.66666666666667</ele><time>2026-04-26T10:24:52.999Z</time></trkpt><trkpt lat="42.77147009494617" lon="10.250302737801952"><ele>73.83333333333333</ele><time>2026-04-26T10:24:54.999Z</time></trkpt><trkpt lat="42.77148230693719" lon="10.250217383257315"><ele>72.0</ele><time>2026-04-26T10:24:55.999Z</time></trkpt><trkpt lat="42.7714918484348" lon="10.250065098534952"><ele>72.0</ele><time>2026-04-26T10:24:57.998Z</time></trkpt><trkpt lat="42.771472136863494" lon="10.249945408764955"><ele>72.0</ele><time>2026-04-26T10:24:59.998Z</time></trkpt><trkpt lat="42.77143431365823" lon="10.249850130229317"><ele>72.0</ele><time>2026-04-26T10:25:01.998Z</time></trkpt><trkpt lat="42.771347391464055" lon="10.249798385689761"><ele>72.0</ele><time>2026-04-26T10:25:03.998Z</time></trkpt><trkpt lat="42.77124555907312" lon="10.249838456932508"><ele>72.0</ele><time>2026-04-26T10:25:05.998Z</time></trkpt><trkpt lat="42.77113363308946" lon="10.249925441159668"><ele>72.0</ele><time>2026-04-26T10:25:07.998Z</time></trkpt><trkpt lat="42.77106881150646" lon="10.249978207693381"><ele>72.0</ele><time>2026-04-26T10:25:08.998Z</time></trkpt><trkpt lat="42.77097659065293" lon="10.250060879015281"><ele>72.0</ele><time>2026-04-26T10:25:10.998Z</time></trkpt><trkpt lat="42.770918816432214" lon="10.250172097216556"><ele>72.0</ele><time>2026-04-26T10:25:12.998Z</time></trkpt><trkpt lat="42.77088365868516" lon="10.25032978526111"><ele>72.0</ele><time>2026-04-26T10:25:14.998Z</time></trkpt><trkpt lat="42.770879435778866" lon="10.250416069686448"><ele>72.0</ele><time>2026-04-26T10:25:15.998Z</time></trkpt><trkpt lat="42.770862819115585" lon="10.250586036179472"><ele>72.0</ele><time>2026-04-26T10:25:17.998Z</time></trkpt><trkpt lat="42.770880423096855" lon="10.250737323585815"><ele>72.0</ele><time>2026-04-26T10:25:19.998Z</time></trkpt><trkpt lat="42.770905843033596" lon="10.25086613476072"><ele>72.0</ele><time>2026-04-26T10:25:21.998Z</time></trkpt><trkpt lat="42.77088533278766" lon="10.250958906758937"><ele>72.0</ele><time>2026-04-26T10:25:23.998Z</time></trkpt><trkpt lat="42.77080420079211" lon="10.250982656158865"><ele>72.0</ele><time>2026-04-26T10:25:26.998Z</time></trkpt><trkpt lat="42.770726834988935" lon="10.250902612541356"><ele>72.0</ele><time>2026-04-26T10:25:29.997Z</time></trkpt><trkpt lat="42.7707196592562" lon="10.25079928029125"><ele>72.0</ele><time>2026-04-26T10:25:31.997Z</time></trkpt><trkpt lat="42.77071506420787" lon="10.250673234507246"><ele>72.0</ele><time>2026-04-26T10:25:33.997Z</time></trkpt><trkpt lat="42.770694137406174" lon="10.25051549241097"><ele>72.0</ele><time>2026-04-26T10:25:35.997Z</time></trkpt><trkpt lat="42.77066553869841" lon="10.250360935593552"><ele>69.8</ele><time>2026-04-26T10:25:37.997Z</time></trkpt><trkpt lat="42.77065342266027" lon="10.250221737895009"><ele>67.6</ele><time>2026-04-26T10:25:39.997Z</time></trkpt><trkpt lat="42.77065799546345" lon="10.250095248705405"><ele>65.39999999999999</ele><time>2026-04-26T10:25:41.997Z</time></trkpt><trkpt lat="42.7706884032385" lon="10.249987620652787"><ele>63.199999999999996</ele><time>2026-04-26T10:25:43.997Z</time></trkpt><trkpt lat="42.77073689142387" lon="10.249874286427394"><ele>61.0</ele><time>2026-04-26T10:25:45.999Z</time></trkpt><trkpt lat="42.77080048174001" lon="10.249754496389343"><ele>60.666666666666664</ele><time>2026-04-26T10:25:47.999Z</time></trkpt><trkpt lat="42.77087476384572" lon="10.249639048223292"><ele>60.33333333333333</ele><time>2026-04-26T10:25:49.999Z</time></trkpt><trkpt lat="42.77092734202724" lon="10.249557761928513"><ele>60.0</ele><time>2026-04-26T10:25:51.999Z</time></trkpt><trkpt lat="42.77097526128989" lon="10.24948419683578"><ele>59.66666666666667</ele><time>2026-04-26T10:26:20.999Z</time></trkpt><trkpt lat="42.771026288960144" lon="10.249355820874683"><ele>59.333333333333336</ele><time>2026-04-26T10:26:22.999Z</time></trkpt><trkpt lat="42.771064582424714" lon="10.24928055044856"><ele>59.0</ele><time>2026-04-26T10:26:23.999Z</time></trkpt><trkpt lat="42.77111360701096" lon="10.249203791100298"><ele>59.0</ele><time>2026-04-26T10:26:24.999Z</time></trkpt><trkpt lat="42.771197793398976" lon="10.249152343060295"><ele>59.00000000000001</ele><time>2026-04-26T10:26:25.999Z</time></trkpt><trkpt lat="42.77125245371374" lon="10.24906058753372"><ele>59.00000000000001</ele><time>2026-04-26T10:26:26.999Z</time></trkpt><trkpt lat="42.771310384252786" lon="10.248974140649363"><ele>59.0</ele><time>2026-04-26T10:26:27.999Z</time></trkpt><trkpt lat="42.771389049676394" lon="10.248911177413433"><ele>59.0</ele><time>2026-04-26T10:26:28.999Z</time></trkpt><trkpt lat="42.77146869646029" lon="10.248836215770362"><ele>56.800000000000004</ele><time>2026-04-26T10:26:29.998Z</time></trkpt><trkpt lat="42.77154829264686" lon="10.248755787425585"><ele>54.60000000000001</ele><time>2026-04-26T10:26:30.998Z</time></trkpt><trkpt lat="42.77162764996842" lon="10.248650602541957"><ele>52.4</ele><time>2026-04-26T10:26:31.998Z</time></trkpt><trkpt lat="42.771691879308705" lon="10.248532994482463"><ele>50.2</ele><time>2026-04-26T10:26:32.998Z</time></trkpt><trkpt lat="42.77175052631212" lon="10.248417837410642"><ele>48.0</ele><time>2026-04-26T10:26:33.998Z</time></trkpt><trkpt lat="42.771811243169566" lon="10.248296514257701"><ele>47.4</ele><time>2026-04-26T10:26:34.998Z</time></trkpt><trkpt lat="42.77186578431756" lon="10.248182001950848"><ele>46.8</ele><time>2026-04-26T10:26:35.998Z</time></trkpt><trkpt lat="42.77191340624571" lon="10.24807652982955"><ele>46.2</ele><time>2026-04-26T10:26:36.998Z</time></trkpt><trkpt lat="42.77196030535628" lon="10.247976534898322"><ele>45.6</ele><time>2026-04-26T10:26:37.998Z</time></trkpt><trkpt lat="42.77201300669523" lon="10.247880099507455"><ele>45.0</ele><time>2026-04-26T10:26:38.998Z</time></trkpt><trkpt lat="42.77207696905351" lon="10.24779369950255"><ele>45.0</ele><time>2026-04-26T10:26:39.998Z</time></trkpt><trkpt lat="42.77214994880612" lon="10.247709389157183"><ele>45.0</ele><time>2026-04-26T10:26:40.998Z</time></trkpt><trkpt lat="42.772224378727216" lon="10.247627327338234"><ele>45.0</ele><time>2026-04-26T10:26:41.998Z</time></trkpt><trkpt lat="42.772296551063235" lon="10.247549564532198"><ele>45.0</ele><time>2026-04-26T10:26:42.998Z</time></trkpt><trkpt lat="42.772375395462106" lon="10.247473405494384"><ele>45.0</ele><time>2026-04-26T10:26:43.998Z</time></trkpt><trkpt lat="42.772454508394716" lon="10.247406387505105"><ele>45.0</ele><time>2026-04-26T10:26:44.998Z</time></trkpt><trkpt lat="42.77253145746244" lon="10.247353806638362"><ele>45.0</ele><time>2026-04-26T10:26:45.998Z</time></trkpt><trkpt lat="42.77260981608667" lon="10.247309307577368"><ele>45.0</ele><time>2026-04-26T10:26:46.998Z</time></trkpt><trkpt lat="42.772687653005036" lon="10.247275982276362"><ele>45.0</ele><time>2026-04-26T10:26:47.998Z</time></trkpt><trkpt lat="42.77277183134009" lon="10.247255177054168"><ele>45.0</ele><time>2026-04-26T10:26:48.998Z</time></trkpt><trkpt lat="42.7728689874531" lon="10.247252350763809"><ele>45.0</ele><time>2026-04-26T10:26:49.998Z</time></trkpt><trkpt lat="42.77295663217972" lon="10.247259391369875"><ele>43.5</ele><time>2026-04-26T10:26:50.998Z</time></trkpt><trkpt lat="42.773037136260534" lon="10.247264565735353"><ele>42.0</ele><time>2026-04-26T10:26:51.998Z</time></trkpt><trkpt lat="42.77310733732387" lon="10.247261896752303"><ele>40.5</ele><time>2026-04-26T10:26:52.998Z</time></trkpt><trkpt lat="42.77317678943435" lon="10.24731155045703"><ele>39.0</ele><time>2026-04-26T10:26:53.998Z</time></trkpt><trkpt lat="42.7732404294697" lon="10.247386832608704"><ele>37.5</ele><time>2026-04-26T10:26:54.998Z</time></trkpt><trkpt lat="42.773294118182214" lon="10.247443772952955"><ele>36.0</ele><time>2026-04-26T10:26:55.998Z</time></trkpt><trkpt lat="42.77334868002718" lon="10.24756569237703"><ele>36.0</ele><time>2026-04-26T10:26:57.998Z</time></trkpt><trkpt lat="42.77341064635905" lon="10.247684379641221"><ele>36.0</ele><time>2026-04-26T10:26:59.998Z</time></trkpt><trkpt lat="42.7734275626901" lon="10.247780515500553"><ele>36.0</ele><time>2026-04-26T10:27:00.998Z</time></trkpt><trkpt lat="42.773451273357466" lon="10.247877036268862"><ele>36.0</ele><time>2026-04-26T10:27:01.998Z</time></trkpt><trkpt lat="42.7734847665189" lon="10.247973907587301"><ele>36.0</ele><time>2026-04-26T10:27:02.998Z</time></trkpt><trkpt lat="42.77352318364524" lon="10.248057213919076"><ele>36.0</ele><time>2026-04-26T10:27:03.998Z</time></trkpt><trkpt lat="42.77360362070745" lon="10.248171536401498"><ele>34.833333333333336</ele><time>2026-04-26T10:27:05.998Z</time></trkpt><trkpt lat="42.77366564101242" lon="10.248187779556698"><ele>33.666666666666664</ele><time>2026-04-26T10:27:06.998Z</time></trkpt><trkpt lat="42.77372664184225" lon="10.248130959132574"><ele>32.5</ele><time>2026-04-26T10:27:07.998Z</time></trkpt><trkpt lat="42.7737772846583" lon="10.248074265662378"><ele>31.333333333333332</ele><time>2026-04-26T10:27:08.998Z</time></trkpt><trkpt lat="42.77382710036151" lon="10.247977263167224"><ele>30.166666666666664</ele><time>2026-04-26T10:27:09.998Z</time></trkpt><trkpt lat="42.77389944815112" lon="10.247894574860604"><ele>29.0</ele><time>2026-04-26T10:27:10.998Z</time></trkpt><trkpt lat="42.77395448059623" lon="10.247802750756517"><ele>28.799999999999997</ele><time>2026-04-26T10:27:11.998Z</time></trkpt><trkpt lat="42.774006762774164" lon="10.247750560744754"><ele>28.599999999999998</ele><time>2026-04-26T10:27:12.998Z</time></trkpt><trkpt lat="42.77408994142491" lon="10.247675889221679"><ele>28.4</ele><time>2026-04-26T10:28:49.998Z</time></trkpt><trkpt lat="42.774156360118106" lon="10.247528748687845"><ele>28.2</ele><time>2026-04-26T10:28:51.998Z</time></trkpt><trkpt lat="42.7741804187174" lon="10.247405087297443"><ele>28.0</ele><time>2026-04-26T10:28:52.998Z</time></trkpt><trkpt lat="42.77417377508972" lon="10.247276174797681"><ele>27.799999999999997</ele><time>2026-04-26T10:28:53.998Z</time></trkpt><trkpt lat="42.77419082211148" lon="10.247135533256678"><ele>27.599999999999998</ele><time>2026-04-26T10:28:54.998Z</time></trkpt><trkpt lat="42.774197549480576" lon="10.24698526595782"><ele>27.400000000000002</ele><time>2026-04-26T10:28:55.998Z</time></trkpt><trkpt lat="42.77420537478732" lon="10.246838025358464"><ele>27.200000000000003</ele><time>2026-04-26T10:28:56.998Z</time></trkpt><trkpt lat="42.77421292410462" lon="10.246692640596489"><ele>27.0</ele><time>2026-04-26T10:28:57.998Z</time></trkpt><trkpt lat="42.7742360614564" lon="10.246554430472658"><ele>27.0</ele><time>2026-04-26T10:28:58.998Z</time></trkpt><trkpt lat="42.774238553344674" lon="10.246408454656166"><ele>27.000000000000004</ele><time>2026-04-26T10:28:59.998Z</time></trkpt><trkpt lat="42.774233347930064" lon="10.246254433688538"><ele>27.000000000000004</ele><time>2026-04-26T10:29:00.998Z</time></trkpt><trkpt lat="42.7742216335582" lon="10.246110732278936"><ele>27.0</ele><time>2026-04-26T10:29:01.998Z</time></trkpt><trkpt lat="42.77419868530559" lon="10.245984092472915"><ele>27.0</ele><time>2026-04-26T10:29:02.998Z</time></trkpt><trkpt lat="42.774172950252506" lon="10.245872520951687"><ele>27.0</ele><time>2026-04-26T10:29:03.998Z</time></trkpt><trkpt lat="42.77414235523067" lon="10.24577681904831"><ele>27.0</ele><time>2026-04-26T10:29:04.998Z</time></trkpt><trkpt lat="42.77411288318954" lon="10.245699769924931"><ele>27.0</ele><time>2026-04-26T10:29:05.998Z</time></trkpt><trkpt lat="42.774115440262" lon="10.245558457510281"><ele>27.0</ele><time>2026-04-26T10:29:07.998Z</time></trkpt><trkpt lat="42.77417788952248" lon="10.245442904923562"><ele>27.0</ele><time>2026-04-26T10:29:09.998Z</time></trkpt><trkpt lat="42.774227654302365" lon="10.245389477367675"><ele>27.0</ele><time>2026-04-26T10:29:10.998Z</time></trkpt><trkpt lat="42.77429023439441" lon="10.24534079187955"><ele>27.200000000000003</ele><time>2026-04-26T10:29:11.998Z</time></trkpt><trkpt lat="42.77435365792986" lon="10.24530170922614"><ele>27.400000000000002</ele><time>2026-04-26T10:29:12.998Z</time></trkpt><trkpt lat="42.77446502902881" lon="10.245281401152113"><ele>27.599999999999998</ele><time>2026-04-26T10:29:14.998Z</time></trkpt><trkpt lat="42.77456494935086" lon="10.245298174819755"><ele>27.799999999999997</ele><time>2026-04-26T10:29:16.998Z</time></trkpt><trkpt lat="42.77468066920248" lon="10.245269802549757"><ele>28.0</ele><time>2026-04-26T10:29:18.998Z</time></trkpt><trkpt lat="42.774751439875814" lon="10.245241256797796"><ele>28.0</ele><time>2026-04-26T10:29:19.998Z</time></trkpt><trkpt lat="42.77480354964967" lon="10.245145432243673"><ele>27.999999999999996</ele><time>2026-04-26T10:29:20.998Z</time></trkpt><trkpt lat="42.77486717985113" lon="10.245059675522523"><ele>27.999999999999996</ele><time>2026-04-26T10:29:21.998Z</time></trkpt><trkpt lat="42.77495155509959" lon="10.244986048547462"><ele>28.0</ele><time>2026-04-26T10:29:22.998Z</time></trkpt><trkpt lat="42.77500732475804" lon="10.244867361192364"><ele>28.0</ele><time>2026-04-26T10:29:23.998Z</time></trkpt><trkpt lat="42.77508227946689" lon="10.244767822244329"><ele>28.0</ele><time>2026-04-26T10:29:24.998Z</time></trkpt><trkpt lat="42.77514744497602" lon="10.24465961378437"><ele>27.999999999999996</ele><time>2026-04-26T10:29:25.998Z</time></trkpt><trkpt lat="42.77520700663019" lon="10.24455141665475"><ele>27.999999999999996</ele><time>2026-04-26T10:29:26.997Z</time></trkpt><trkpt lat="42.77524691993073" lon="10.244443538346868"><ele>28.0</ele><time>2026-04-26T10:29:27.997Z</time></trkpt><trkpt lat="42.77533363285927" lon="10.244355141630702"><ele>28.0</ele><time>2026-04-26T10:29:29.997Z</time></trkpt><trkpt lat="42.77537776201808" lon="10.244293897366513"><ele>29.333333333333336</ele><time>2026-04-26T10:29:32.997Z</time></trkpt><trkpt lat="42.77547109919194" lon="10.244358666156241"><ele>30.666666666666668</ele><time>2026-04-26T10:29:33.997Z</time></trkpt><trkpt lat="42.7755255052629" lon="10.244408958082367"><ele>32.0</ele><time>2026-04-26T10:29:34.997Z</time></trkpt><trkpt lat="42.7755895352851" lon="10.24446827332916"><ele>33.333333333333336</ele><time>2026-04-26T10:29:35.997Z</time></trkpt><trkpt lat="42.775663629620574" lon="10.244533557435409"><ele>34.666666666666664</ele><time>2026-04-26T10:29:36.997Z</time></trkpt><trkpt lat="42.77573728966807" lon="10.244600988247935"><ele>36.0</ele><time>2026-04-26T10:29:37.997Z</time></trkpt><trkpt lat="42.77581598402424" lon="10.244680574451206"><ele>36.0</ele><time>2026-04-26T10:29:38.997Z</time></trkpt><trkpt lat="42.77590756130747" lon="10.244774518330079"><ele>36.0</ele><time>2026-04-26T10:29:39.997Z</time></trkpt><trkpt lat="42.77600750663798" lon="10.244881151946057"><ele>36.0</ele><time>2026-04-26T10:29:40.997Z</time></trkpt><trkpt lat="42.7761110813189" lon="10.244996616068674"><ele>36.0</ele><time>2026-04-26T10:29:41.997Z</time></trkpt><trkpt lat="42.776215882515785" lon="10.245119820275898"><ele>40.33333333333333</ele><time>2026-04-26T10:29:42.997Z</time></trkpt><trkpt lat="42.77633037617293" lon="10.245256783645132"><ele>44.666666666666664</ele><time>2026-04-26T10:29:43.997Z</time></trkpt><trkpt lat="42.77644911129202" lon="10.245394252247603"><ele>49.0</ele><time>2026-04-26T10:29:44.997Z</time></trkpt><trkpt lat="42.77656549471284" lon="10.245532768040658"><ele>50.0</ele><time>2026-04-26T10:29:45.997Z</time></trkpt><trkpt lat="42.776681577730706" lon="10.245678531865579"><ele>51.0</ele><time>2026-04-26T10:29:46.997Z</time></trkpt><trkpt lat="42.776798875573895" lon="10.245821483147193"><ele>52.0</ele><time>2026-04-26T10:29:47.997Z</time></trkpt><trkpt lat="42.776924839070475" lon="10.245955738091673"><ele>52.0</ele><time>2026-04-26T10:29:48.997Z</time></trkpt><trkpt lat="42.77706132361243" lon="10.246069989013755"><ele>52.0</ele><time>2026-04-26T10:29:49.997Z</time></trkpt><trkpt lat="42.77721048648165" lon="10.246164601434193"><ele>52.0</ele><time>2026-04-26T10:29:50.997Z</time></trkpt><trkpt lat="42.77736622007947" lon="10.246247558356664"><ele>52.0</ele><time>2026-04-26T10:29:51.997Z</time></trkpt><trkpt lat="42.77752707058115" lon="10.246327825180844"><ele>52.0</ele><time>2026-04-26T10:29:52.997Z</time></trkpt><trkpt lat="42.777686864711214" lon="10.246397644256982"><ele>52.0</ele><time>2026-04-26T10:29:53.997Z</time></trkpt><trkpt lat="42.77783506675809" lon="10.246453701072829"><ele>51.25</ele><time>2026-04-26T10:29:54.997Z</time></trkpt><trkpt lat="42.77796842435179" lon="10.246498794398551"><ele>50.5</ele><time>2026-04-26T10:29:55.997Z</time></trkpt><trkpt lat="42.77809920648185" lon="10.246528288236803"><ele>49.75</ele><time>2026-04-26T10:29:56.998Z</time></trkpt><trkpt lat="42.77823669670818" lon="10.246538280445776"><ele>49.0</ele><time>2026-04-26T10:29:57.998Z</time></trkpt><trkpt lat="42.778375250801574" lon="10.246530690385253"><ele>49.0</ele><time>2026-04-26T10:29:58.998Z</time></trkpt><trkpt lat="42.778511753986045" lon="10.246491952828544"><ele>49.0</ele><time>2026-04-26T10:29:59.998Z</time></trkpt><trkpt lat="42.778655752915554" lon="10.24646213701437"><ele>49.0</ele><time>2026-04-26T10:30:00.998Z</time></trkpt><trkpt lat="42.77879228075858" lon="10.246409781961097"><ele>49.0</ele><time>2026-04-26T10:30:01.998Z</time></trkpt><trkpt lat="42.77892419941808" lon="10.246347152024342"><ele>48.75</ele><time>2026-04-26T10:30:02.998Z</time></trkpt><trkpt lat="42.779055664439774" lon="10.246273556691353"><ele>48.5</ele><time>2026-04-26T10:30:03.998Z</time></trkpt><trkpt lat="42.77918746679186" lon="10.2461887234652"><ele>48.25</ele><time>2026-04-26T10:30:04.998Z</time></trkpt><trkpt lat="42.77932010844368" lon="10.246084981447275"><ele>48.0</ele><time>2026-04-26T10:30:05.998Z</time></trkpt><trkpt lat="42.77945348512971" lon="10.24597612790231"><ele>48.0</ele><time>2026-04-26T10:30:06.998Z</time></trkpt><trkpt lat="42.779596516874925" lon="10.245875433904093"><ele>48.0</ele><time>2026-04-26T10:30:07.998Z</time></trkpt><trkpt lat="42.779743425154265" lon="10.245776619756159"><ele>48.0</ele><time>2026-04-26T10:30:08.998Z</time></trkpt><trkpt lat="42.779898072344714" lon="10.245710338612225"><ele>48.0</ele><time>2026-04-26T10:30:09.998Z</time></trkpt><trkpt lat="42.78004573950027" lon="10.245644297397149"><ele>48.0</ele><time>2026-04-26T10:30:10.999Z</time></trkpt><trkpt lat="42.78018803364313" lon="10.245578438476908"><ele>48.0</ele><time>2026-04-26T10:30:11.999Z</time></trkpt><trkpt lat="42.78032482912947" lon="10.245516239079077"><ele>45.25</ele><time>2026-04-26T10:30:12.999Z</time></trkpt><trkpt lat="42.78045785285642" lon="10.245461375660366"><ele>42.5</ele><time>2026-04-26T10:30:13.999Z</time></trkpt><trkpt lat="42.78058542649684" lon="10.245405516037653"><ele>39.75</ele><time>2026-04-26T10:30:14.999Z</time></trkpt><trkpt lat="42.78070764783047" lon="10.2453483433821"><ele>37.0</ele><time>2026-04-26T10:30:15.999Z</time></trkpt><trkpt lat="42.78083549421648" lon="10.24529263425361"><ele>37.0</ele><time>2026-04-26T10:30:16.999Z</time></trkpt><trkpt lat="42.780968302829216" lon="10.245234732109544"><ele>37.0</ele><time>2026-04-26T10:30:17.999Z</time></trkpt><trkpt lat="42.78110487848785" lon="10.24517631117415"><ele>37.0</ele><time>2026-04-26T10:30:18.999Z</time></trkpt><trkpt lat="42.781245590937196" lon="10.245126266482991"><ele>37.0</ele><time>2026-04-26T10:30:19.999Z</time></trkpt><trkpt lat="42.78139069731266" lon="10.245083717773658"><ele>35.0</ele><time>2026-04-26T10:30:20.999Z</time></trkpt><trkpt lat="42.781539271422545" lon="10.245040975346363"><ele>33.0</ele><time>2026-04-26T10:30:21.999Z</time></trkpt><trkpt lat="42.781691627791716" lon="10.244996429439217"><ele>31.0</ele><time>2026-04-26T10:30:22.999Z</time></trkpt><trkpt lat="42.78183884659067" lon="10.244948300364545"><ele>29.25</ele><time>2026-04-26T10:30:23.999Z</time></trkpt><trkpt lat="42.78198641456425" lon="10.244915726618446"><ele>27.5</ele><time>2026-04-26T10:30:24.999Z</time></trkpt><trkpt lat="42.78212681337943" lon="10.244887134564667"><ele>25.75</ele><time>2026-04-26T10:30:25.999Z</time></trkpt><trkpt lat="42.782263909471844" lon="10.244867112390533"><ele>24.0</ele><time>2026-04-26T10:30:26.999Z</time></trkpt><trkpt lat="42.782398100754264" lon="10.2448647950376"><ele>24.0</ele><time>2026-04-26T10:30:27.999Z</time></trkpt><trkpt lat="42.78252754501768" lon="10.24487702013406"><ele>24.0</ele><time>2026-04-26T10:30:28.999Z</time></trkpt><trkpt lat="42.782652329108224" lon="10.244902165894512"><ele>24.0</ele><time>2026-04-26T10:30:29.999Z</time></trkpt><trkpt lat="42.7827691765199" lon="10.24495085052538"><ele>24.0</ele><time>2026-04-26T10:30:30.999Z</time></trkpt><trkpt lat="42.78288226351412" lon="10.245022605495603"><ele>21.5</ele><time>2026-04-26T10:30:31.999Z</time></trkpt><trkpt lat="42.78300565532287" lon="10.245107752030496"><ele>19.0</ele><time>2026-04-26T10:30:32.999Z</time></trkpt><trkpt lat="42.78313641296881" lon="10.245193123895385"><ele>16.5</ele><time>2026-04-26T10:30:33.999Z</time></trkpt><trkpt lat="42.78327391603335" lon="10.24527895745463"><ele>14.0</ele><time>2026-04-26T10:30:34.999Z</time></trkpt><trkpt lat="42.78341483712515" lon="10.245337201723654"><ele>13.0</ele><time>2026-04-26T10:30:35.999Z</time></trkpt><trkpt lat="42.78355945497763" lon="10.245380708447177"><ele>12.0</ele><time>2026-04-26T10:30:36.999Z</time></trkpt><trkpt lat="42.78369822670782" lon="10.245408636605971"><ele>11.0</ele><time>2026-04-26T10:30:37.999Z</time></trkpt><trkpt lat="42.78382820098287" lon="10.245434134947908"><ele>10.0</ele><time>2026-04-26T10:30:38.999Z</time></trkpt><trkpt lat="42.78396078952151" lon="10.245469071751598"><ele>10.0</ele><time>2026-04-26T10:30:39.999Z</time></trkpt><trkpt lat="42.784088491720304" lon="10.245498814643174"><ele>10.0</ele><time>2026-04-26T10:30:40.999Z</time></trkpt><trkpt lat="42.78421600763352" lon="10.245533388752154"><ele>10.0</ele><time>2026-04-26T10:30:41.999Z</time></trkpt><trkpt lat="42.784342277668046" lon="10.245568741367482"><ele>10.0</ele><time>2026-04-26T10:30:42.999Z</time></trkpt><trkpt lat="42.784470998656964" lon="10.245593957388028"><ele>9.6</ele><time>2026-04-26T10:30:43.999Z</time></trkpt><trkpt lat="42.78459613229415" lon="10.24561398823745"><ele>9.2</ele><time>2026-04-26T10:30:44.999Z</time></trkpt><trkpt lat="42.784712099391115" lon="10.245637158763426"><ele>8.8</ele><time>2026-04-26T10:30:45.999Z</time></trkpt><trkpt lat="42.78481557317892" lon="10.24566620619551"><ele>8.4</ele><time>2026-04-26T10:30:46.999Z</time></trkpt><trkpt lat="42.784909894921306" lon="10.2457046671172"><ele>8.0</ele><time>2026-04-26T10:30:47.999Z</time></trkpt><trkpt lat="42.784997462747576" lon="10.24569061755615"><ele>8.0</ele><time>2026-04-26T10:30:48.999Z</time></trkpt><trkpt lat="42.785071835739934" lon="10.24570191667894"><ele>8.0</ele><time>2026-04-26T10:30:49.999Z</time></trkpt><trkpt lat="42.78516808815522" lon="10.245700449101344"><ele>8.0</ele><time>2026-04-26T10:30:51.998Z</time></trkpt><trkpt lat="42.785236079005756" lon="10.245422457330784"><ele>8.0</ele><time>2026-04-26T10:30:54.998Z</time></trkpt><trkpt lat="42.78523667518571" lon="10.245325129562673"><ele>7.571428571428571</ele><time>2026-04-26T10:30:55.998Z</time></trkpt><trkpt lat="42.78524969365095" lon="10.24522990512863"><ele>7.142857142857142</ele><time>2026-04-26T10:30:56.998Z</time></trkpt><trkpt lat="42.78527771857324" lon="10.245147202985265"><ele>6.7142857142857135</ele><time>2026-04-26T10:30:57.998Z</time></trkpt><trkpt lat="42.78530484615474" lon="10.245065966917824"><ele>6.285714285714286</ele><time>2026-04-26T10:30:58.998Z</time></trkpt><trkpt lat="42.78535144594534" lon="10.244992063118"><ele>5.857142857142858</ele><time>2026-04-26T10:30:59.998Z</time></trkpt><trkpt lat="42.78540590260869" lon="10.244915569874061"><ele>5.428571428571429</ele><time>2026-04-26T10:31:00.998Z</time></trkpt><trkpt lat="42.785470189085565" lon="10.244839618885937"><ele>5.0</ele><time>2026-04-26T10:31:01.998Z</time></trkpt><trkpt lat="42.78553817625713" lon="10.244756907742554"><ele>4.833333333333334</ele><time>2026-04-26T10:31:02.998Z</time></trkpt><trkpt lat="42.78560533588627" lon="10.244674015024657"><ele>4.666666666666667</ele><time>2026-04-26T10:31:03.998Z</time></trkpt><trkpt lat="42.785666897210355" lon="10.244613058086419"><ele>4.5</ele><time>2026-04-26T10:31:04.998Z</time></trkpt><trkpt lat="42.7857360362814" lon="10.244561513247666"><ele>4.333333333333333</ele><time>2026-04-26T10:31:05.998Z</time></trkpt><trkpt lat="42.78581307561594" lon="10.244520754540357"><ele>4.166666666666666</ele><time>2026-04-26T10:31:06.998Z</time></trkpt><trkpt lat="42.78590579394496" lon="10.244487351036595"><ele>4.0</ele><time>2026-04-26T10:31:08.998Z</time></trkpt><trkpt lat="42.78596467349538" lon="10.244435570987543"><ele>4.0</ele><time>2026-04-26T10:31:12.998Z</time></trkpt><trkpt lat="42.78599240703662" lon="10.244280980282786"><ele>4.0</ele><time>2026-04-26T10:31:14.998Z</time></trkpt><trkpt lat="42.78597338710251" lon="10.244159572221943"><ele>4.0</ele><time>2026-04-26T10:31:15.998Z</time></trkpt><trkpt lat="42.785963469738824" lon="10.244030392625445"><ele>4.0</ele><time>2026-04-26T10:31:16.998Z</time></trkpt><trkpt lat="42.78595482906735" lon="10.243884458134337"><ele>4.0</ele><time>2026-04-26T10:31:17.998Z</time></trkpt><trkpt lat="42.78594339866339" lon="10.243724626892845"><ele>3.75</ele><time>2026-04-26T10:31:18.998Z</time></trkpt><trkpt lat="42.78593586899211" lon="10.243553577226693"><ele>3.5</ele><time>2026-04-26T10:31:19.998Z</time></trkpt><trkpt lat="42.78592892064065" lon="10.243376490856548"><ele>3.25</ele><time>2026-04-26T10:31:20.998Z</time></trkpt><trkpt lat="42.78592053913064" lon="10.243198059395546"><ele>3.0</ele><time>2026-04-26T10:31:21.998Z</time></trkpt><trkpt lat="42.78591255203293" lon="10.24302079523991"><ele>3.5</ele><time>2026-04-26T10:31:22.998Z</time></trkpt><trkpt lat="42.78590471390638" lon="10.242847749216203"><ele>4.0</ele><time>2026-04-26T10:31:23.998Z</time></trkpt><trkpt lat="42.7858968146032" lon="10.242674274223587"><ele>4.5</ele><time>2026-04-26T10:31:24.998Z</time></trkpt><trkpt lat="42.785888299195676" lon="10.242504546538362"><ele>5.0</ele><time>2026-04-26T10:31:25.998Z</time></trkpt><trkpt lat="42.785897783317736" lon="10.242345363358057"><ele>5.6</ele><time>2026-04-26T10:31:26.998Z</time></trkpt><trkpt lat="42.785922745166204" lon="10.242204966583074"><ele>6.2</ele><time>2026-04-26T10:31:27.998Z</time></trkpt><trkpt lat="42.78596411536202" lon="10.242086027512482"><ele>6.800000000000001</ele><time>2026-04-26T10:31:28.998Z</time></trkpt><trkpt lat="42.78602805775749" lon="10.241979409526973"><ele>7.4</ele><time>2026-04-26T10:31:29.998Z</time></trkpt><trkpt lat="42.786115385662775" lon="10.241886521797008"><ele>8.0</ele><time>2026-04-26T10:31:30.998Z</time></trkpt><trkpt lat="42.78620988583833" lon="10.24179391741627"><ele>8.0</ele><time>2026-04-26T10:31:31.998Z</time></trkpt><trkpt lat="42.78631115836305" lon="10.24169234476905"><ele>8.0</ele><time>2026-04-26T10:31:32.998Z</time></trkpt><trkpt lat="42.78641652770343" lon="10.241585109553032"><ele>8.0</ele><time>2026-04-26T10:31:33.998Z</time></trkpt><trkpt lat="42.786517730666404" lon="10.241474050459932"><ele>8.0</ele><time>2026-04-26T10:31:34.998Z</time></trkpt><trkpt lat="42.78661107295457" lon="10.241345897989726"><ele>8.5</ele><time>2026-04-26T10:31:35.998Z</time></trkpt><trkpt lat="42.78669159579399" lon="10.241194902019421"><ele>9.0</ele><time>2026-04-26T10:31:36.998Z</time></trkpt><trkpt lat="42.78677584601437" lon="10.241037667989234"><ele>9.5</ele><time>2026-04-26T10:31:37.998Z</time></trkpt><trkpt lat="42.786855412351926" lon="10.240888041741957"><ele>10.0</ele><time>2026-04-26T10:31:38.998Z</time></trkpt><trkpt lat="42.786957836538754" lon="10.240755621799526"><ele>10.0</ele><time>2026-04-26T10:31:39.998Z</time></trkpt><trkpt lat="42.787069987005" lon="10.2406474951742"><ele>10.0</ele><time>2026-04-26T10:31:40.998Z</time></trkpt><trkpt lat="42.78718828675485" lon="10.240550035994232"><ele>10.0</ele><time>2026-04-26T10:31:41.998Z</time></trkpt><trkpt lat="42.78729245065098" lon="10.240468299683252"><ele>10.0</ele><time>2026-04-26T10:31:42.998Z</time></trkpt><trkpt lat="42.78740960587308" lon="10.24041451343457"><ele>10.0</ele><time>2026-04-26T10:31:43.998Z</time></trkpt><trkpt lat="42.78753761746186" lon="10.24037678676993"><ele>10.0</ele><time>2026-04-26T10:31:44.998Z</time></trkpt><trkpt lat="42.7876536597596" lon="10.240340718651217"><ele>10.0</ele><time>2026-04-26T10:31:45.998Z</time></trkpt><trkpt lat="42.787757571301" lon="10.240299414874597"><ele>10.0</ele><time>2026-04-26T10:31:46.998Z</time></trkpt><trkpt lat="42.787843680820316" lon="10.240204531584647"><ele>10.0</ele><time>2026-04-26T10:31:47.998Z</time></trkpt><trkpt lat="42.787911020223035" lon="10.240088543109378"><ele>10.0</ele><time>2026-04-26T10:31:48.998Z</time></trkpt><trkpt lat="42.787955223715294" lon="10.23993416431569"><ele>10.0</ele><time>2026-04-26T10:31:49.998Z</time></trkpt><trkpt lat="42.787989782427644" lon="10.239757256517347"><ele>10.0</ele><time>2026-04-26T10:31:50.998Z</time></trkpt><trkpt lat="42.788040280374055" lon="10.239583336990679"><ele>12.0</ele><time>2026-04-26T10:31:51.998Z</time></trkpt><trkpt lat="42.78809926036499" lon="10.23941367372678"><ele>14.0</ele><time>2026-04-26T10:31:52.998Z</time></trkpt><trkpt lat="42.78815248476553" lon="10.23925569969239"><ele>16.0</ele><time>2026-04-26T10:31:53.998Z</time></trkpt><trkpt lat="42.78820582989857" lon="10.239112492481713"><ele>18.0</ele><time>2026-04-26T10:31:54.998Z</time></trkpt><trkpt lat="42.78825092539718" lon="10.238991859760247"><ele>18.5</ele><time>2026-04-26T10:31:55.998Z</time></trkpt><trkpt lat="42.788278957315825" lon="10.238876205397842"><ele>19.0</ele><time>2026-04-26T10:31:56.998Z</time></trkpt><trkpt lat="42.78829190945222" lon="10.238762041437822"><ele>19.5</ele><time>2026-04-26T10:31:57.998Z</time></trkpt><trkpt lat="42.78827548751445" lon="10.23864460935854"><ele>20.0</ele><time>2026-04-26T10:31:58.998Z</time></trkpt><trkpt lat="42.78823541330058" lon="10.238544052797625"><ele>20.5</ele><time>2026-04-26T10:31:59.998Z</time></trkpt><trkpt lat="42.78817136625337" lon="10.238470307379"><ele>21.0</ele><time>2026-04-26T10:32:00.998Z</time></trkpt><trkpt lat="42.788085552822395" lon="10.238409938706052"><ele>21.0</ele><time>2026-04-26T10:32:01.998Z</time></trkpt><trkpt lat="42.787985679138224" lon="10.238364953665876"><ele>21.0</ele><time>2026-04-26T10:32:02.999Z</time></trkpt><trkpt lat="42.78787667236018" lon="10.238327815876012"><ele>21.0</ele><time>2026-04-26T10:32:03.999Z</time></trkpt><trkpt lat="42.78776877436604" lon="10.238278595494569"><ele>21.0</ele><time>2026-04-26T10:32:04.999Z</time></trkpt><trkpt lat="42.787666140118525" lon="10.23822988278733"><ele>21.0</ele><time>2026-04-26T10:32:05.999Z</time></trkpt><trkpt lat="42.787579381610534" lon="10.238190273361322"><ele>21.6</ele><time>2026-04-26T10:32:06.999Z</time></trkpt><trkpt lat="42.787494155849366" lon="10.238183372839298"><ele>22.200000000000003</ele><time>2026-04-26T10:32:07.999Z</time></trkpt><trkpt lat="42.78740839204733" lon="10.238221525812477"><ele>22.799999999999997</ele><time>2026-04-26T10:32:08.999Z</time></trkpt><trkpt lat="42.78732202206845" lon="10.238277167423199"><ele>23.4</ele><time>2026-04-26T10:32:09.999Z</time></trkpt><trkpt lat="42.78723795069964" lon="10.23835295051757"><ele>24.0</ele><time>2026-04-26T10:32:10.999Z</time></trkpt><trkpt lat="42.78716374819421" lon="10.238450501963666"><ele>24.0</ele><time>2026-04-26T10:32:11.999Z</time></trkpt><trkpt lat="42.787093367331124" lon="10.238570637480988"><ele>24.0</ele><time>2026-04-26T10:32:12.999Z</time></trkpt><trkpt lat="42.78700115604606" lon="10.238634172614868"><ele>24.0</ele><time>2026-04-26T10:32:13.999Z</time></trkpt><trkpt lat="42.786918335113576" lon="10.238659496042665"><ele>24.0</ele><time>2026-04-26T10:32:14.999Z</time></trkpt><trkpt lat="42.78684572937922" lon="10.238639823397234"><ele>24.0</ele><time>2026-04-26T10:32:15.999Z</time></trkpt><trkpt lat="42.786760438169495" lon="10.238586878101241"><ele>24.75</ele><time>2026-04-26T10:32:16.999Z</time></trkpt><trkpt lat="42.78666206631553" lon="10.238527958178164"><ele>25.5</ele><time>2026-04-26T10:32:17.999Z</time></trkpt><trkpt lat="42.7865668356372" lon="10.238451591212266"><ele>26.25</ele><time>2026-04-26T10:32:18.999Z</time></trkpt><trkpt lat="42.786473959357515" lon="10.238363579864393"><ele>27.0</ele><time>2026-04-26T10:32:19.999Z</time></trkpt><trkpt lat="42.786364700267555" lon="10.238277857757527"><ele>27.0</ele><time>2026-04-26T10:32:20.999Z</time></trkpt><trkpt lat="42.7862756332508" lon="10.238177030215363"><ele>27.0</ele><time>2026-04-26T10:32:21.999Z</time></trkpt><trkpt lat="42.78617375814556" lon="10.238086722492804"><ele>27.0</ele><time>2026-04-26T10:32:22.999Z</time></trkpt><trkpt lat="42.78605708563631" lon="10.238027429059954"><ele>27.0</ele><time>2026-04-26T10:32:23.999Z</time></trkpt><trkpt lat="42.78594184484318" lon="10.237985634929696"><ele>25.25</ele><time>2026-04-26T10:32:24.999Z</time></trkpt><trkpt lat="42.78581788430234" lon="10.237966016058294"><ele>23.5</ele><time>2026-04-26T10:32:25.999Z</time></trkpt><trkpt lat="42.78569132859655" lon="10.237976591508325"><ele>21.75</ele><time>2026-04-26T10:32:26.999Z</time></trkpt><trkpt lat="42.785568270259226" lon="10.237988354549628"><ele>20.0</ele><time>2026-04-26T10:32:27.999Z</time></trkpt><trkpt lat="42.7854470527212" lon="10.238000226699052"><ele>20.0</ele><time>2026-04-26T10:32:28.999Z</time></trkpt><trkpt lat="42.78533400950233" lon="10.238006178659498"><ele>20.0</ele><time>2026-04-26T10:32:29.999Z</time></trkpt><trkpt lat="42.78523044128924" lon="10.238010811324445"><ele>20.0</ele><time>2026-04-26T10:32:30.999Z</time></trkpt><trkpt lat="42.78513555343334" lon="10.23801939126525"><ele>20.0</ele><time>2026-04-26T10:32:31.999Z</time></trkpt><trkpt lat="42.78505408330716" lon="10.238021690635746"><ele>20.0</ele><time>2026-04-26T10:32:32.999Z</time></trkpt><trkpt lat="42.784986238530514" lon="10.238009785687167"><ele>22.4</ele><time>2026-04-26T10:32:33.999Z</time></trkpt><trkpt lat="42.78492469426235" lon="10.237978689224947"><ele>24.8</ele><time>2026-04-26T10:32:34.999Z</time></trkpt><trkpt lat="42.784873159953854" lon="10.237808692209503"><ele>27.200000000000003</ele><time>2026-04-26T10:32:36.999Z</time></trkpt><trkpt lat="42.78490510655789" lon="10.237690197196947"><ele>29.6</ele><time>2026-04-26T10:32:37.999Z</time></trkpt><trkpt lat="42.784916824779174" lon="10.237554567023547"><ele>32.0</ele><time>2026-04-26T10:32:38.999Z</time></trkpt><trkpt lat="42.78494084605042" lon="10.237412448101866"><ele>31.5</ele><time>2026-04-26T10:32:39.999Z</time></trkpt><trkpt lat="42.78493111213538" lon="10.23724973085288"><ele>31.0</ele><time>2026-04-26T10:32:40.999Z</time></trkpt><trkpt lat="42.78490762352873" lon="10.23707997410658"><ele>30.5</ele><time>2026-04-26T10:32:41.999Z</time></trkpt><trkpt lat="42.78487795673402" lon="10.236913019422602"><ele>30.0</ele><time>2026-04-26T10:32:42.999Z</time></trkpt><trkpt lat="42.78484377464408" lon="10.236750649181321"><ele>30.0</ele><time>2026-04-26T10:32:43.999Z</time></trkpt><trkpt lat="42.784814987918715" lon="10.236598626055393"><ele>30.0</ele><time>2026-04-26T10:32:44.999Z</time></trkpt><trkpt lat="42.78478531024165" lon="10.236468771072792"><ele>30.0</ele><time>2026-04-26T10:32:45.999Z</time></trkpt><trkpt lat="42.78476510425901" lon="10.236361657589484"><ele>30.0</ele><time>2026-04-26T10:32:46.999Z</time></trkpt><trkpt lat="42.78476560980346" lon="10.236265167992507"><ele>30.0</ele><time>2026-04-26T10:32:47.999Z</time></trkpt><trkpt lat="42.78478977566538" lon="10.236181971731993"><ele>30.0</ele><time>2026-04-26T10:32:48.999Z</time></trkpt><trkpt lat="42.78483999486442" lon="10.236116268013754"><ele>29.6</ele><time>2026-04-26T10:32:49.999Z</time></trkpt><trkpt lat="42.784916819842806" lon="10.236082487373409"><ele>29.2</ele><time>2026-04-26T10:32:50.999Z</time></trkpt><trkpt lat="42.78500883763146" lon="10.236116921434771"><ele>28.799999999999997</ele><time>2026-04-26T10:32:51.999Z</time></trkpt><trkpt lat="42.78510391593466" lon="10.236125630611141"><ele>28.4</ele><time>2026-04-26T10:32:52.999Z</time></trkpt><trkpt lat="42.78520893121906" lon="10.236130578676166"><ele>28.0</ele><time>2026-04-26T10:32:53.999Z</time></trkpt><trkpt lat="42.78532445597821" lon="10.236089626823519"><ele>28.0</ele><time>2026-04-26T10:32:54.999Z</time></trkpt><trkpt lat="42.78544117255076" lon="10.236017180315832"><ele>28.0</ele><time>2026-04-26T10:32:55.999Z</time></trkpt><trkpt lat="42.78555370737093" lon="10.235925382446316"><ele>28.0</ele><time>2026-04-26T10:32:56.999Z</time></trkpt><trkpt lat="42.78565570327937" lon="10.235820867877125"><ele>28.0</ele><time>2026-04-26T10:32:57.999Z</time></trkpt><trkpt lat="42.78574812567565" lon="10.2356936039139"><ele>29.75</ele><time>2026-04-26T10:32:58.999Z</time></trkpt><trkpt lat="42.78581894357936" lon="10.235535597621379"><ele>31.5</ele><time>2026-04-26T10:32:59.999Z</time></trkpt><trkpt lat="42.785867065125686" lon="10.23537535033609"><ele>33.25</ele><time>2026-04-26T10:33:00.999Z</time></trkpt><trkpt lat="42.785886509421395" lon="10.235206825250811"><ele>35.0</ele><time>2026-04-26T10:33:01.999Z</time></trkpt><trkpt lat="42.785877811176725" lon="10.235029906801902"><ele>35.0</ele><time>2026-04-26T10:33:02.999Z</time></trkpt><trkpt lat="42.785849576244026" lon="10.23485682952296"><ele>35.0</ele><time>2026-04-26T10:33:03.999Z</time></trkpt><trkpt lat="42.785833874885434" lon="10.23469567823445"><ele>35.0</ele><time>2026-04-26T10:33:04.999Z</time></trkpt><trkpt lat="42.78583652218066" lon="10.23455189662625"><ele>35.0</ele><time>2026-04-26T10:33:05.999Z</time></trkpt><trkpt lat="42.78586351825005" lon="10.234414370834754"><ele>34.25</ele><time>2026-04-26T10:33:06.999Z</time></trkpt><trkpt lat="42.78592148068442" lon="10.23427668635938"><ele>33.5</ele><time>2026-04-26T10:33:07.999Z</time></trkpt><trkpt lat="42.785997393345085" lon="10.23414189102847"><ele>32.75</ele><time>2026-04-26T10:33:08.999Z</time></trkpt><trkpt lat="42.78607518178523" lon="10.234004871829217"><ele>32.0</ele><time>2026-04-26T10:33:09.999Z</time></trkpt><trkpt lat="42.78614385238413" lon="10.233884175014499"><ele>34.6</ele><time>2026-04-26T10:33:10.999Z</time></trkpt><trkpt lat="42.78621780079896" lon="10.233799901456878"><ele>37.2</ele><time>2026-04-26T10:33:11.999Z</time></trkpt><trkpt lat="42.78630443082585" lon="10.233760912965304"><ele>39.8</ele><time>2026-04-26T10:33:12.999Z</time></trkpt><trkpt lat="42.786395845472995" lon="10.233766436965697"><ele>42.4</ele><time>2026-04-26T10:33:13.999Z</time></trkpt><trkpt lat="42.78649009470087" lon="10.233811469433926"><ele>45.0</ele><time>2026-04-26T10:33:14.999Z</time></trkpt><trkpt lat="42.78658528938998" lon="10.233889156861881"><ele>42.5</ele><time>2026-04-26T10:33:15.999Z</time></trkpt><trkpt lat="42.78667543121744" lon="10.233978213320604"><ele>40.0</ele><time>2026-04-26T10:33:16.999Z</time></trkpt><trkpt lat="42.786775212885985" lon="10.234063712369672"><ele>37.5</ele><time>2026-04-26T10:33:17.999Z</time></trkpt><trkpt lat="42.786881804518735" lon="10.234146149851902"><ele>35.0</ele><time>2026-04-26T10:33:18.999Z</time></trkpt><trkpt lat="42.78699685757169" lon="10.234214938085055"><ele>35.0</ele><time>2026-04-26T10:33:19.999Z</time></trkpt><trkpt lat="42.78711782659584" lon="10.23425403306984"><ele>35.0</ele><time>2026-04-26T10:33:20.999Z</time></trkpt><trkpt lat="42.78724203250722" lon="10.2342584517552"><ele>35.0</ele><time>2026-04-26T10:33:21.999Z</time></trkpt><trkpt lat="42.78737231256219" lon="10.234245865402231"><ele>35.0</ele><time>2026-04-26T10:33:22.999Z</time></trkpt><trkpt lat="42.78750146856796" lon="10.234232024853348"><ele>35.0</ele><time>2026-04-26T10:33:23.999Z</time></trkpt><trkpt lat="42.78763220249642" lon="10.234225476327945"><ele>35.0</ele><time>2026-04-26T10:33:24.999Z</time></trkpt><trkpt lat="42.787752241115015" lon="10.234226934691142"><ele>35.0</ele><time>2026-04-26T10:33:25.999Z</time></trkpt><trkpt lat="42.78785877724777" lon="10.234222710191254"><ele>35.0</ele><time>2026-04-26T10:33:26.999Z</time></trkpt><trkpt lat="42.7879550372194" lon="10.23421711432558"><ele>33.0</ele><time>2026-04-26T10:33:27.999Z</time></trkpt><trkpt lat="42.78803625705694" lon="10.234192374167414"><ele>31.0</ele><time>2026-04-26T10:33:28.999Z</time></trkpt><trkpt lat="42.78810542376649" lon="10.234147670260612"><ele>29.0</ele><time>2026-04-26T10:33:29.999Z</time></trkpt><trkpt lat="42.78815940824273" lon="10.234071528185995"><ele>27.0</ele><time>2026-04-26T10:33:30.999Z</time></trkpt><trkpt lat="42.7881966198868" lon="10.233967319721767"><ele>25.0</ele><time>2026-04-26T10:33:31.999Z</time></trkpt><trkpt lat="42.788201491021844" lon="10.233848728043546"><ele>23.0</ele><time>2026-04-26T10:33:32.999Z</time></trkpt><trkpt lat="42.78817462287242" lon="10.233727094188307"><ele>22.4</ele><time>2026-04-26T10:33:33.999Z</time></trkpt><trkpt lat="42.78811587122708" lon="10.233623253054805"><ele>21.799999999999997</ele><time>2026-04-26T10:33:34.999Z</time></trkpt><trkpt lat="42.78803809672895" lon="10.233540628384368"><ele>21.2</ele><time>2026-04-26T10:33:35.999Z</time></trkpt><trkpt lat="42.78794950026719" lon="10.23345971094816"><ele>20.6</ele><time>2026-04-26T10:33:36.999Z</time></trkpt><trkpt lat="42.78787087170509" lon="10.233364550486026"><ele>20.0</ele><time>2026-04-26T10:33:37.999Z</time></trkpt><trkpt lat="42.78780747474672" lon="10.233254496885689"><ele>17.25</ele><time>2026-04-26T10:33:38.999Z</time></trkpt><trkpt lat="42.7877488540718" lon="10.23313657113407"><ele>14.5</ele><time>2026-04-26T10:33:39.999Z</time></trkpt><trkpt lat="42.78768868666795" lon="10.23297545687488"><ele>11.75</ele><time>2026-04-26T10:33:40.999Z</time></trkpt><trkpt lat="42.78761793044744" lon="10.232846866302069"><ele>9.0</ele><time>2026-04-26T10:33:41.999Z</time></trkpt><trkpt lat="42.78754133309037" lon="10.232699611676768"><ele>14.2</ele><time>2026-04-26T10:33:42.999Z</time></trkpt><trkpt lat="42.78747008264275" lon="10.232569141684985"><ele>19.4</ele><time>2026-04-26T10:33:43.998Z</time></trkpt><trkpt lat="42.78740967569849" lon="10.232440546821664"><ele>24.6</ele><time>2026-04-26T10:33:44.998Z</time></trkpt><trkpt lat="42.787378901046615" lon="10.232315142644346"><ele>29.8</ele><time>2026-04-26T10:33:45.998Z</time></trkpt><trkpt lat="42.787343935851375" lon="10.232204370952935"><ele>35.0</ele><time>2026-04-26T10:33:46.998Z</time></trkpt><trkpt lat="42.78738107075443" lon="10.232090570369175"><ele>36.6</ele><time>2026-04-26T10:33:47.998Z</time></trkpt><trkpt lat="42.78741851458594" lon="10.231978598286265"><ele>38.2</ele><time>2026-04-26T10:33:48.998Z</time></trkpt><trkpt lat="42.7874473708885" lon="10.231855316538603"><ele>39.8</ele><time>2026-04-26T10:33:49.998Z</time></trkpt><trkpt lat="42.78751614252206" lon="10.231743379200886"><ele>41.4</ele><time>2026-04-26T10:33:50.998Z</time></trkpt><trkpt lat="42.787608982792825" lon="10.231665686095386"><ele>43.0</ele><time>2026-04-26T10:33:51.998Z</time></trkpt><trkpt lat="42.78771523562629" lon="10.231583691009789"><ele>40.0</ele><time>2026-04-26T10:33:52.998Z</time></trkpt><trkpt lat="42.78782590986232" lon="10.231489610292265"><ele>37.0</ele><time>2026-04-26T10:33:53.998Z</time></trkpt><trkpt lat="42.78794463716622" lon="10.231391108940597"><ele>34.0</ele><time>2026-04-26T10:33:54.998Z</time></trkpt><trkpt lat="42.788056028687926" lon="10.231264724124555"><ele>31.0</ele><time>2026-04-26T10:33:55.998Z</time></trkpt><trkpt lat="42.788171960922725" lon="10.231140129449239"><ele>31.0</ele><time>2026-04-26T10:33:56.998Z</time></trkpt><trkpt lat="42.78828126891066" lon="10.231014036395681"><ele>31.0</ele><time>2026-04-26T10:33:57.998Z</time></trkpt><trkpt lat="42.78836541170091" lon="10.230881087604155"><ele>31.0</ele><time>2026-04-26T10:33:58.998Z</time></trkpt><trkpt lat="42.7884238529542" lon="10.23072460447738"><ele>31.0</ele><time>2026-04-26T10:33:59.998Z</time></trkpt><trkpt lat="42.788456462419255" lon="10.230548271960279"><ele>33.333333333333336</ele><time>2026-04-26T10:34:00.998Z</time></trkpt><trkpt lat="42.788460188692284" lon="10.230346965338653"><ele>35.666666666666664</ele><time>2026-04-26T10:34:01.998Z</time></trkpt><trkpt lat="42.78845392950129" lon="10.230134807519683"><ele>38.0</ele><time>2026-04-26T10:34:02.998Z</time></trkpt><trkpt lat="42.78845439008476" lon="10.22992851242072"><ele>37.25</ele><time>2026-04-26T10:34:03.998Z</time></trkpt><trkpt lat="42.78846745329914" lon="10.22974386138318"><ele>36.5</ele><time>2026-04-26T10:34:04.998Z</time></trkpt><trkpt lat="42.78846492157606" lon="10.229573181034201"><ele>35.75</ele><time>2026-04-26T10:34:05.998Z</time></trkpt><trkpt lat="42.78844850512838" lon="10.229418040258984"><ele>35.0</ele><time>2026-04-26T10:34:06.998Z</time></trkpt><trkpt lat="42.788443042642136" lon="10.229253731113182"><ele>35.0</ele><time>2026-04-26T10:34:07.998Z</time></trkpt><trkpt lat="42.788411662697605" lon="10.229080863020979"><ele>35.0</ele><time>2026-04-26T10:34:09Z</time></trkpt><trkpt lat="42.78835710273811" lon="10.228903103056219"><ele>35.0</ele><time>2026-04-26T10:34:10Z</time></trkpt><trkpt lat="42.78827343117416" lon="10.228731452249"><ele>35.0</ele><time>2026-04-26T10:34:11Z</time></trkpt><trkpt lat="42.78818587109592" lon="10.228560011067044"><ele>30.666666666666664</ele><time>2026-04-26T10:34:12Z</time></trkpt><trkpt lat="42.78809484852566" lon="10.228389893308306"><ele>26.333333333333332</ele><time>2026-04-26T10:34:13Z</time></trkpt><trkpt lat="42.78800314242083" lon="10.22821510746059"><ele>22.0</ele><time>2026-04-26T10:34:14Z</time></trkpt><trkpt lat="42.78792697596211" lon="10.22801580352224"><ele>20.666666666666664</ele><time>2026-04-26T10:34:15Z</time></trkpt><trkpt lat="42.7878341789014" lon="10.22782162983981"><ele>19.333333333333332</ele><time>2026-04-26T10:34:16Z</time></trkpt><trkpt lat="42.78772734284121" lon="10.227635486631971"><ele>18.0</ele><time>2026-04-26T10:34:17Z</time></trkpt><trkpt lat="42.78760059459811" lon="10.227470310317157"><ele>19.0</ele><time>2026-04-26T10:34:18Z</time></trkpt><trkpt lat="42.787483598674825" lon="10.227303492956358"><ele>20.0</ele><time>2026-04-26T10:34:19Z</time></trkpt><trkpt lat="42.78737524971115" lon="10.227151825931928"><ele>21.0</ele><time>2026-04-26T10:34:20Z</time></trkpt><trkpt lat="42.78728127710601" lon="10.227002446702587"><ele>21.0</ele><time>2026-04-26T10:34:21Z</time></trkpt><trkpt lat="42.787194411572216" lon="10.226868158338247"><ele>21.0</ele><time>2026-04-26T10:34:22Z</time></trkpt><trkpt lat="42.7871100654643" lon="10.226752142006685"><ele>21.0</ele><time>2026-04-26T10:34:23Z</time></trkpt><trkpt lat="42.787034848712295" lon="10.226646807474433"><ele>21.0</ele><time>2026-04-26T10:34:24Z</time></trkpt><trkpt lat="42.78697971659888" lon="10.226540027139269"><ele>23.200000000000003</ele><time>2026-04-26T10:34:25Z</time></trkpt><trkpt lat="42.78691489125456" lon="10.22645630163948"><ele>25.400000000000002</ele><time>2026-04-26T10:34:26Z</time></trkpt><trkpt lat="42.78689611470168" lon="10.226326121427965"><ele>27.6</ele><time>2026-04-26T10:34:27Z</time></trkpt><trkpt lat="42.78691976529694" lon="10.226192234597189"><ele>29.8</ele><time>2026-04-26T10:34:28Z</time></trkpt><trkpt lat="42.786978801981455" lon="10.226087377995098"><ele>32.0</ele><time>2026-04-26T10:34:29Z</time></trkpt><trkpt lat="42.78706768415139" lon="10.226025860886741"><ele>32.0</ele><time>2026-04-26T10:34:30Z</time></trkpt><trkpt lat="42.7871709941667" lon="10.226019662206443"><ele>32.0</ele><time>2026-04-26T10:34:31Z</time></trkpt><trkpt lat="42.787275786788605" lon="10.226080774953344"><ele>32.0</ele><time>2026-04-26T10:34:32Z</time></trkpt><trkpt lat="42.7873880487809" lon="10.22611404816362"><ele>32.0</ele><time>2026-04-26T10:34:33Z</time></trkpt><trkpt lat="42.78750183283947" lon="10.226176935195495"><ele>31.999999999999996</ele><time>2026-04-26T10:34:34Z</time></trkpt><trkpt lat="42.787609793311745" lon="10.226197627033146"><ele>32.0</ele><time>2026-04-26T10:34:35Z</time></trkpt><trkpt lat="42.78768051393839" lon="10.226236979920028"><ele>32.0</ele><time>2026-04-26T10:34:36Z</time></trkpt><trkpt lat="42.787752448518766" lon="10.226259097633383"><ele>32.0</ele><time>2026-04-26T10:34:37Z</time></trkpt><trkpt lat="42.787833870929106" lon="10.226306718405516"><ele>31.999999999999996</ele><time>2026-04-26T10:34:39Z</time></trkpt><trkpt lat="42.78774878401619" lon="10.226248880249864"><ele>32.0</ele><time>2026-04-26T10:34:57Z</time></trkpt><trkpt lat="42.78759340334783" lon="10.22616156574348"><ele>31.999999999999996</ele><time>2026-04-26T10:35:00Z</time></trkpt><trkpt lat="42.78752012340173" lon="10.226132590674327"><ele>32.0</ele><time>2026-04-26T10:35:01Z</time></trkpt><trkpt lat="42.78744325918251" lon="10.226104310608463"><ele>32.0</ele><time>2026-04-26T10:35:02Z</time></trkpt><trkpt lat="42.78736574595466" lon="10.226075338193736"><ele>32.0</ele><time>2026-04-26T10:35:03Z</time></trkpt><trkpt lat="42.78728946264033" lon="10.226047484333815"><ele>31.999999999999996</ele><time>2026-04-26T10:35:04Z</time></trkpt><trkpt lat="42.787216117761346" lon="10.226023140885502"><ele>32.0</ele><time>2026-04-26T10:35:05Z</time></trkpt><trkpt lat="42.787152415318666" lon="10.226007409173587"><ele>31.999999999999996</ele><time>2026-04-26T10:35:06Z</time></trkpt><trkpt lat="42.787053138463136" lon="10.22597122752367"><ele>32.0</ele><time>2026-04-26T10:35:08Z</time></trkpt><trkpt lat="42.78699854473021" lon="10.225926662818116"><ele>32.0</ele><time>2026-04-26T10:35:08.999Z</time></trkpt><trkpt lat="42.78692934149061" lon="10.225869542074669"><ele>32.0</ele><time>2026-04-26T10:35:09.999Z</time></trkpt><trkpt lat="42.786868115439816" lon="10.225817801262068"><ele>31.999999999999996</ele><time>2026-04-26T10:35:10.999Z</time></trkpt><trkpt lat="42.786764878751825" lon="10.225731532429542"><ele>32.0</ele><time>2026-04-26T10:35:12.999Z</time></trkpt><trkpt lat="42.786677185758656" lon="10.22567288263326"><ele>34.83333333333333</ele><time>2026-04-26T10:35:13.999Z</time></trkpt><trkpt lat="42.78659415062034" lon="10.225617704984757"><ele>37.666666666666664</ele><time>2026-04-26T10:35:14.999Z</time></trkpt><trkpt lat="42.78652226852008" lon="10.225563513862985"><ele>40.5</ele><time>2026-04-26T10:35:15.999Z</time></trkpt><trkpt lat="42.786456830382406" lon="10.225521447319109"><ele>43.33333333333333</ele><time>2026-04-26T10:35:16.999Z</time></trkpt><trkpt lat="42.78639508114011" lon="10.225474863083697"><ele>46.166666666666664</ele><time>2026-04-26T10:35:17.999Z</time></trkpt><trkpt lat="42.78629951889523" lon="10.225360864259157"><ele>49.0</ele><time>2026-04-26T10:35:19.999Z</time></trkpt><trkpt lat="42.786252486732934" lon="10.225287371622743"><ele>48.99999999999999</ele><time>2026-04-26T10:35:20.999Z</time></trkpt><trkpt lat="42.786204636958644" lon="10.225214016483527"><ele>49.0</ele><time>2026-04-26T10:35:21.999Z</time></trkpt><trkpt lat="42.786144805646174" lon="10.225112479717485"><ele>49.0</ele><time>2026-04-26T10:35:23.999Z</time></trkpt><trkpt lat="42.78618018367986" lon="10.225024358403575"><ele>49.0</ele><time>2026-04-26T10:35:25.999Z</time></trkpt><trkpt lat="42.7862638920631" lon="10.22506348949231"><ele>48.99999999999999</ele><time>2026-04-26T10:35:27.999Z</time></trkpt><trkpt lat="42.78631375434141" lon="10.225133541726562"><ele>49.0</ele><time>2026-04-26T10:35:28.999Z</time></trkpt><trkpt lat="42.78637510294814" lon="10.225172172362523"><ele>48.99999999999999</ele><time>2026-04-26T10:35:29.999Z</time></trkpt><trkpt lat="42.7864565570752" lon="10.22519108640099"><ele>49.0</ele><time>2026-04-26T10:35:30.999Z</time></trkpt><trkpt lat="42.786538901034966" lon="10.225207920564674"><ele>49.0</ele><time>2026-04-26T10:35:31.999Z</time></trkpt><trkpt lat="42.78662721669286" lon="10.225238015792177"><ele>49.0</ele><time>2026-04-26T10:35:32.999Z</time></trkpt><trkpt lat="42.78671791091457" lon="10.22526585891974"><ele>48.99999999999999</ele><time>2026-04-26T10:35:33.999Z</time></trkpt><trkpt lat="42.786806067647646" lon="10.22528615755172"><ele>49.0</ele><time>2026-04-26T10:35:34.999Z</time></trkpt><trkpt lat="42.78687397794166" lon="10.225299557992926"><ele>48.666666666666664</ele><time>2026-04-26T10:35:35.999Z</time></trkpt><trkpt lat="42.78695889790362" lon="10.225295244025993"><ele>48.33333333333333</ele><time>2026-04-26T10:35:37.999Z</time></trkpt><trkpt lat="42.78704002241163" lon="10.225208016336236"><ele>48.0</ele><time>2026-04-26T10:35:39.999Z</time></trkpt><trkpt lat="42.78710693652171" lon="10.225175965484194"><ele>47.666666666666664</ele><time>2026-04-26T10:35:40.999Z</time></trkpt><trkpt lat="42.787206979879" lon="10.225107800793175"><ele>47.33333333333333</ele><time>2026-04-26T10:35:42.999Z</time></trkpt><trkpt lat="42.78724089616189" lon="10.225023001250868"><ele>47.0</ele><time>2026-04-26T10:35:43.999Z</time></trkpt><trkpt lat="42.787246525735284" lon="10.224931414195563"><ele>47.0</ele><time>2026-04-26T10:35:44.999Z</time></trkpt><trkpt lat="42.78720874742994" lon="10.224821649619821"><ele>47.0</ele><time>2026-04-26T10:35:45.999Z</time></trkpt><trkpt lat="42.787210725806716" lon="10.224700414445959"><ele>47.0</ele><time>2026-04-26T10:35:46.999Z</time></trkpt><trkpt lat="42.78719440916001" lon="10.224575489138203"><ele>47.0</ele><time>2026-04-26T10:35:47.999Z</time></trkpt><trkpt lat="42.78716915203198" lon="10.224462971689624"><ele>47.0</ele><time>2026-04-26T10:35:48.999Z</time></trkpt><trkpt lat="42.78716689883198" lon="10.22432262712928"><ele>49.8</ele><time>2026-04-26T10:35:50.999Z</time></trkpt><trkpt lat="42.78725951283488" lon="10.224260224446565"><ele>52.6</ele><time>2026-04-26T10:35:53.999Z</time></trkpt><trkpt lat="42.787379409438536" lon="10.224218093935582"><ele>55.39999999999999</ele><time>2026-04-26T10:35:55.999Z</time></trkpt><trkpt lat="42.78742275460074" lon="10.224149005116125"><ele>58.199999999999996</ele><time>2026-04-26T10:35:56.999Z</time></trkpt><trkpt lat="42.78743949083271" lon="10.224014594256072"><ele>61.0</ele><time>2026-04-26T10:35:58.999Z</time></trkpt><trkpt lat="42.78739535178225" lon="10.223943716057747"><ele>64.16666666666666</ele><time>2026-04-26T10:36:00.999Z</time></trkpt><trkpt lat="42.78729836207973" lon="10.223941554373923"><ele>67.33333333333333</ele><time>2026-04-26T10:36:02.999Z</time></trkpt><trkpt lat="42.787227877749736" lon="10.223927019769416"><ele>70.5</ele><time>2026-04-26T10:36:03.999Z</time></trkpt><trkpt lat="42.787142463585916" lon="10.22390940647895"><ele>73.66666666666667</ele><time>2026-04-26T10:36:04.999Z</time></trkpt><trkpt lat="42.787052773010934" lon="10.223890911352228"><ele>76.83333333333334</ele><time>2026-04-26T10:36:05.999Z</time></trkpt><trkpt lat="42.786954777590275" lon="10.22387341281518"><ele>80.0</ele><time>2026-04-26T10:36:06.999Z</time></trkpt><trkpt lat="42.78686013688943" lon="10.223864082996576"><ele>80.0</ele><time>2026-04-26T10:36:07.999Z</time></trkpt><trkpt lat="42.7867716322898" lon="10.223850626249746"><ele>80.0</ele><time>2026-04-26T10:36:08.999Z</time></trkpt><trkpt lat="42.78669820220313" lon="10.223834225640081"><ele>80.0</ele><time>2026-04-26T10:36:09.999Z</time></trkpt><trkpt lat="42.78661911801484" lon="10.223831195966062"><ele>80.0</ele><time>2026-04-26T10:36:10.999Z</time></trkpt><trkpt lat="42.786528684776606" lon="10.223783764265686"><ele>80.0</ele><time>2026-04-26T10:36:12.999Z</time></trkpt><trkpt lat="42.78649251589636" lon="10.223712652952855"><ele>80.0</ele><time>2026-04-26T10:36:13.999Z</time></trkpt><trkpt lat="42.78645003329292" lon="10.223580801700168"><ele>80.0</ele><time>2026-04-26T10:36:16.001Z</time></trkpt><trkpt lat="42.78647349149435" lon="10.223464420100973"><ele>80.0</ele><time>2026-04-26T10:36:18.001Z</time></trkpt><trkpt lat="42.7865539675549" lon="10.223396834905047"><ele>80.0</ele><time>2026-04-26T10:36:20.001Z</time></trkpt><trkpt lat="42.78662096249714" lon="10.223398593540715"><ele>80.0</ele><time>2026-04-26T10:36:21.001Z</time></trkpt><trkpt lat="42.786694031891415" lon="10.223398995269166"><ele>80.0</ele><time>2026-04-26T10:36:22.001Z</time></trkpt><trkpt lat="42.786773292687435" lon="10.223380168850138"><ele>80.0</ele><time>2026-04-26T10:36:23.001Z</time></trkpt><trkpt lat="42.78684588709179" lon="10.223360225747605"><ele>80.0</ele><time>2026-04-26T10:36:24.001Z</time></trkpt><trkpt lat="42.786953147609054" lon="10.223359380459607"><ele>80.0</ele><time>2026-04-26T10:36:26.001Z</time></trkpt><trkpt lat="42.787008333538765" lon="10.223294289974868"><ele>80.0</ele><time>2026-04-26T10:36:28.001Z</time></trkpt><trkpt lat="42.78698995218763" lon="10.22320678673658"><ele>80.0</ele><time>2026-04-26T10:36:30.001Z</time></trkpt><trkpt lat="42.786891386040516" lon="10.223181305044664"><ele>80.0</ele><time>2026-04-26T10:36:33.001Z</time></trkpt><trkpt lat="42.78681259350838" lon="10.223098511865492"><ele>80.0</ele><time>2026-04-26T10:36:35Z</time></trkpt><trkpt lat="42.78678522511998" lon="10.223017876219743"><ele>82.2</ele><time>2026-04-26T10:36:36Z</time></trkpt><trkpt lat="42.786746114591615" lon="10.222924639390703"><ele>84.4</ele><time>2026-04-26T10:36:37Z</time></trkpt><trkpt lat="42.78670559362566" lon="10.222824645856281"><ele>86.6</ele><time>2026-04-26T10:36:38Z</time></trkpt><trkpt lat="42.78667470120731" lon="10.222738984981428"><ele>88.8</ele><time>2026-04-26T10:36:39Z</time></trkpt><trkpt lat="42.786663214213405" lon="10.222596528397494"><ele>91.0</ele><time>2026-04-26T10:36:41Z</time></trkpt><trkpt lat="42.78677559708859" lon="10.22253303339226"><ele>92.0</ele><time>2026-04-26T10:36:43Z</time></trkpt><trkpt lat="42.78684971714931" lon="10.22254333205149"><ele>93.0</ele><time>2026-04-26T10:36:44Z</time></trkpt><trkpt lat="42.78692029054146" lon="10.22252535905831"><ele>94.0</ele><time>2026-04-26T10:36:45Z</time></trkpt><trkpt lat="42.78698076992511" lon="10.222467353828117"><ele>95.0</ele><time>2026-04-26T10:36:46Z</time></trkpt><trkpt lat="42.78705506097222" lon="10.222410706710786"><ele>96.00000000000001</ele><time>2026-04-26T10:36:47Z</time></trkpt><trkpt lat="42.78710840037221" lon="10.222330200564134"><ele>97.0</ele><time>2026-04-26T10:36:48Z</time></trkpt><trkpt lat="42.78717619513478" lon="10.222254982604492"><ele>99.00000000000001</ele><time>2026-04-26T10:36:49Z</time></trkpt><trkpt lat="42.78724971295423" lon="10.222178789956908"><ele>101.0</ele><time>2026-04-26T10:36:50Z</time></trkpt><trkpt lat="42.7873227654771" lon="10.22209699116708"><ele>103.0</ele><time>2026-04-26T10:36:51Z</time></trkpt><trkpt lat="42.78740380427852" lon="10.222049888665264"><ele>105.0</ele><time>2026-04-26T10:36:52Z</time></trkpt><trkpt lat="42.7874650857522" lon="10.22197110800654"><ele>107.00000000000001</ele><time>2026-04-26T10:36:53Z</time></trkpt><trkpt lat="42.78753916121795" lon="10.221915744550376"><ele>109.0</ele><time>2026-04-26T10:36:54Z</time></trkpt><trkpt lat="42.787612107312654" lon="10.221851371837332"><ele>108.83333333333334</ele><time>2026-04-26T10:36:55Z</time></trkpt><trkpt lat="42.78767829290075" lon="10.221791100163642"><ele>108.66666666666667</ele><time>2026-04-26T10:36:56Z</time></trkpt><trkpt lat="42.78773555224695" lon="10.221733171545843"><ele>108.5</ele><time>2026-04-26T10:36:57Z</time></trkpt><trkpt lat="42.78778679912451" lon="10.221680273421414"><ele>108.33333333333334</ele><time>2026-04-26T10:36:58Z</time></trkpt><trkpt lat="42.78786241993896" lon="10.221585483711848"><ele>108.16666666666667</ele><time>2026-04-26T10:37:00Z</time></trkpt><trkpt lat="42.78785422071685" lon="10.221451072500676"><ele>108.0</ele><time>2026-04-26T10:37:02Z</time></trkpt><trkpt lat="42.78780623903991" lon="10.22139044883993"><ele>110.33333333333333</ele><time>2026-04-26T10:37:03Z</time></trkpt><trkpt lat="42.787719165855066" lon="10.221358119552484"><ele>112.66666666666666</ele><time>2026-04-26T10:37:04Z</time></trkpt><trkpt lat="42.78763693316595" lon="10.221315324116878"><ele>115.0</ele><time>2026-04-26T10:37:05Z</time></trkpt><trkpt lat="42.787543580391656" lon="10.22128013813746"><ele>117.33333333333333</ele><time>2026-04-26T10:37:06Z</time></trkpt><trkpt lat="42.787461216682615" lon="10.221244817425559"><ele>119.66666666666666</ele><time>2026-04-26T10:37:07Z</time></trkpt><trkpt lat="42.78739227703121" lon="10.22119690313432"><ele>122.0</ele><time>2026-04-26T10:37:08Z</time></trkpt><trkpt lat="42.78730732410269" lon="10.221093998555599"><ele>121.99999999999999</ele><time>2026-04-26T10:37:10Z</time></trkpt><trkpt lat="42.78729496623124" lon="10.22096805495266"><ele>122.0</ele><time>2026-04-26T10:37:12Z</time></trkpt><trkpt lat="42.78733548956319" lon="10.220828546993294"><ele>122.0</ele><time>2026-04-26T10:37:14Z</time></trkpt><trkpt lat="42.78736752032572" lon="10.220738515675201"><ele>122.0</ele><time>2026-04-26T10:37:15Z</time></trkpt><trkpt lat="42.787387228109274" lon="10.220636228636597"><ele>121.99999999999999</ele><time>2026-04-26T10:37:16Z</time></trkpt><trkpt lat="42.787434727352995" lon="10.22054818724704"><ele>122.0</ele><time>2026-04-26T10:37:17Z</time></trkpt><trkpt lat="42.78747188085269" lon="10.220451553267079"><ele>123.33333333333333</ele><time>2026-04-26T10:37:18Z</time></trkpt><trkpt lat="42.78751420013905" lon="10.220365645796589"><ele>124.66666666666666</ele><time>2026-04-26T10:37:19Z</time></trkpt><trkpt lat="42.78757376482624" lon="10.220273382006846"><ele>126.0</ele><time>2026-04-26T10:37:20Z</time></trkpt><trkpt lat="42.787641729782315" lon="10.220207492743524"><ele>127.33333333333334</ele><time>2026-04-26T10:37:21Z</time></trkpt><trkpt lat="42.78772276132264" lon="10.220163771864016"><ele>128.66666666666669</ele><time>2026-04-26T10:37:22Z</time></trkpt><trkpt lat="42.78780578528264" lon="10.220155010137422"><ele>130.0</ele><time>2026-04-26T10:37:23Z</time></trkpt><trkpt lat="42.78788666073335" lon="10.22014385077972"><ele>131.8</ele><time>2026-04-26T10:37:24Z</time></trkpt><trkpt lat="42.78797299687693" lon="10.2201270473681"><ele>133.6</ele><time>2026-04-26T10:37:25Z</time></trkpt><trkpt lat="42.78806837937977" lon="10.220114523938435"><ele>135.4</ele><time>2026-04-26T10:37:26Z</time></trkpt><trkpt lat="42.78815638907391" lon="10.22009945353018"><ele>137.2</ele><time>2026-04-26T10:37:27Z</time></trkpt><trkpt lat="42.78826832290104" lon="10.220080565722176"><ele>139.0</ele><time>2026-04-26T10:37:29Z</time></trkpt><trkpt lat="42.78831158656306" lon="10.21994496281327"><ele>139.0</ele><time>2026-04-26T10:37:33Z</time></trkpt><trkpt lat="42.788204723820506" lon="10.219871618961722"><ele>139.0</ele><time>2026-04-26T10:37:35Z</time></trkpt><trkpt lat="42.788149199267885" lon="10.219812075650355"><ele>139.0</ele><time>2026-04-26T10:37:35.999Z</time></trkpt><trkpt lat="42.78812207350215" lon="10.219660140734529"><ele>139.0</ele><time>2026-04-26T10:37:37.999Z</time></trkpt><trkpt lat="42.78812042764862" lon="10.219574350367967"><ele>139.0</ele><time>2026-04-26T10:37:38.999Z</time></trkpt><trkpt lat="42.788160776606446" lon="10.219412500015487"><ele>140.8</ele><time>2026-04-26T10:37:40.999Z</time></trkpt><trkpt lat="42.788195990605274" lon="10.219309753479289"><ele>142.60000000000002</ele><time>2026-04-26T10:37:41.999Z</time></trkpt><trkpt lat="42.788213511032325" lon="10.219188951537735"><ele>144.4</ele><time>2026-04-26T10:37:42.999Z</time></trkpt><trkpt lat="42.78821718900406" lon="10.219057436534813"><ele>146.20000000000002</ele><time>2026-04-26T10:37:43.999Z</time></trkpt><trkpt lat="42.7882176251788" lon="10.21892342551794"><ele>148.0</ele><time>2026-04-26T10:37:44.999Z</time></trkpt><trkpt lat="42.78821267142769" lon="10.21880300081041"><ele>149.33333333333334</ele><time>2026-04-26T10:37:45.999Z</time></trkpt><trkpt lat="42.78820270485015" lon="10.218684947177433"><ele>150.66666666666669</ele><time>2026-04-26T10:37:46.999Z</time></trkpt><trkpt lat="42.78817850727323" lon="10.218567020731237"><ele>152.0</ele><time>2026-04-26T10:37:47.999Z</time></trkpt><trkpt lat="42.78815088358743" lon="10.218475920036077"><ele>153.33333333333334</ele><time>2026-04-26T10:37:48.999Z</time></trkpt><trkpt lat="42.78810275560881" lon="10.218360727673874"><ele>154.66666666666666</ele><time>2026-04-26T10:37:50.999Z</time></trkpt><trkpt lat="42.78808489844094" lon="10.21826756901641"><ele>156.0</ele><time>2026-04-26T10:37:52.999Z</time></trkpt><trkpt lat="42.78804693762038" lon="10.218134650839321"><ele>158.4</ele><time>2026-04-26T10:37:54.999Z</time></trkpt><trkpt lat="42.78799905189288" lon="10.218014424536888"><ele>160.8</ele><time>2026-04-26T10:37:56.999Z</time></trkpt><trkpt lat="42.78801226108921" lon="10.21792258341749"><ele>163.20000000000002</ele><time>2026-04-26T10:37:59.999Z</time></trkpt><trkpt lat="42.788082388290206" lon="10.217880034388534"><ele>165.6</ele><time>2026-04-26T10:38:01.999Z</time></trkpt><trkpt lat="42.78818088302676" lon="10.217804326729333"><ele>168.0</ele><time>2026-04-26T10:38:03.999Z</time></trkpt><trkpt lat="42.78827227847578" lon="10.21770427592494"><ele>168.0</ele><time>2026-04-26T10:38:05.999Z</time></trkpt><trkpt lat="42.7883144834613" lon="10.217638147908046"><ele>168.0</ele><time>2026-04-26T10:38:06.999Z</time></trkpt><trkpt lat="42.788361069092616" lon="10.2175706596076"><ele>168.0</ele><time>2026-04-26T10:38:07.999Z</time></trkpt><trkpt lat="42.78844811826737" lon="10.217454073123958"><ele>168.0</ele><time>2026-04-26T10:38:09.999Z</time></trkpt><trkpt lat="42.78853931429377" lon="10.217363461253298"><ele>168.0</ele><time>2026-04-26T10:38:11.999Z</time></trkpt><trkpt lat="42.78858788339275" lon="10.217307296880684"><ele>168.0</ele><time>2026-04-26T10:38:12.999Z</time></trkpt><trkpt lat="42.78862053019369" lon="10.21723234360548"><ele>169.2</ele><time>2026-04-26T10:38:13.999Z</time></trkpt><trkpt lat="42.78866798938669" lon="10.217167591187497"><ele>170.4</ele><time>2026-04-26T10:38:14.999Z</time></trkpt><trkpt lat="42.788728793617715" lon="10.217104305544463"><ele>171.6</ele><time>2026-04-26T10:38:16.999Z</time></trkpt><trkpt lat="42.78877303392615" lon="10.217002205564595"><ele>172.79999999999998</ele><time>2026-04-26T10:38:18.999Z</time></trkpt><trkpt lat="42.78885635284223" lon="10.21688773587842"><ele>174.0</ele><time>2026-04-26T10:38:21.001Z</time></trkpt><trkpt lat="42.788961229244514" lon="10.216811180055288"><ele>174.0</ele><time>2026-04-26T10:38:23.001Z</time></trkpt><trkpt lat="42.78905547694345" lon="10.216707355731542"><ele>174.0</ele><time>2026-04-26T10:38:25.001Z</time></trkpt><trkpt lat="42.789092084006036" lon="10.216627280975302"><ele>174.0</ele><time>2026-04-26T10:38:26.001Z</time></trkpt><trkpt lat="42.789145473945865" lon="10.216578087126015"><ele>174.0</ele><time>2026-04-26T10:38:27.001Z</time></trkpt><trkpt lat="42.78921346442663" lon="10.216468983409124"><ele>174.0</ele><time>2026-04-26T10:38:29.001Z</time></trkpt><trkpt lat="42.78926848280406" lon="10.21637792345176"><ele>174.0</ele><time>2026-04-26T10:38:31.001Z</time></trkpt><trkpt lat="42.78934182947987" lon="10.216262228508905"><ele>175.0</ele><time>2026-04-26T10:38:33.001Z</time></trkpt><trkpt lat="42.78941290813333" lon="10.216171446137585"><ele>176.0</ele><time>2026-04-26T10:38:35.001Z</time></trkpt><trkpt lat="42.789493770961705" lon="10.216098871758408"><ele>177.0</ele><time>2026-04-26T10:38:37.001Z</time></trkpt><trkpt lat="42.78955461327611" lon="10.216054542801814"><ele>178.0</ele><time>2026-04-26T10:38:39.001Z</time></trkpt><trkpt lat="42.78949655851535" lon="10.216098355936081"><ele>179.0</ele><time>2026-04-26T10:39:13Z</time></trkpt><trkpt lat="42.789430818941696" lon="10.216153665303349"><ele>180.0</ele><time>2026-04-26T10:39:16Z</time></trkpt><trkpt lat="42.78935943875397" lon="10.21623609625491"><ele>179.14285714285714</ele><time>2026-04-26T10:39:20Z</time></trkpt><trkpt lat="42.78931055306061" lon="10.21630939854992"><ele>178.2857142857143</ele><time>2026-04-26T10:39:22Z</time></trkpt><trkpt lat="42.78926507826161" lon="10.216383558275504"><ele>177.42857142857144</ele><time>2026-04-26T10:39:25Z</time></trkpt><trkpt lat="42.78921986383572" lon="10.216458391853315"><ele>176.57142857142856</ele><time>2026-04-26T10:40:16.999Z</time></trkpt><trkpt lat="42.78917683144711" lon="10.21652871151595"><ele>175.71428571428572</ele><time>2026-04-26T10:40:24.999Z</time></trkpt><trkpt lat="42.78913302760587" lon="10.216597685171378"><ele>174.85714285714286</ele><time>2026-04-26T10:40:31.001Z</time></trkpt><trkpt lat="42.78908910227578" lon="10.21666273201978"><ele>174.0</ele><time>2026-04-26T10:40:40.001Z</time></trkpt><trkpt lat="42.789026526661225" lon="10.216741119028661"><ele>174.0</ele><time>2026-04-26T10:41:39Z</time></trkpt><trkpt lat="42.788968381822386" lon="10.21680373925948"><ele>174.0</ele><time>2026-04-26T10:41:43.999Z</time></trkpt><trkpt lat="42.78891453657205" lon="10.216857545039032"><ele>174.0</ele><time>2026-04-26T10:41:49.999Z</time></trkpt><trkpt lat="42.788861014480815" lon="10.216908914279912"><ele>174.0</ele><time>2026-04-26T10:41:56.999Z</time></trkpt><trkpt lat="42.78871118765693" lon="10.216639747709877"><ele>174.0</ele><time>2026-04-26T10:41:57.999Z</time></trkpt><trkpt lat="42.788782577505856" lon="10.216643851909671"><ele>174.0</ele><time>2026-04-26T10:42:16.999Z</time></trkpt><trkpt lat="42.78884469168987" lon="10.21662303333727"><ele>174.0</ele><time>2026-04-26T10:42:20.999Z</time></trkpt><trkpt lat="42.78890513909365" lon="10.216596080515707"><ele>174.0</ele><time>2026-04-26T10:42:26.999Z</time></trkpt><trkpt lat="42.78896102084646" lon="10.216535723505874"><ele>174.0</ele><time>2026-04-26T10:42:47.999Z</time></trkpt><trkpt lat="42.789000682845035" lon="10.216460967870768"><ele>174.0</ele><time>2026-04-26T10:42:56Z</time></trkpt><trkpt lat="42.78904004972423" lon="10.216387830704306"><ele>174.0</ele><time>2026-04-26T10:43:09.999Z</time></trkpt><trkpt lat="42.78906651653268" lon="10.2163055640291"><ele>174.0</ele><time>2026-04-26T10:43:22.998Z</time></trkpt><trkpt lat="42.78912065808514" lon="10.21625895983711"><ele>174.0</ele><time>2026-04-26T10:43:27.998Z</time></trkpt><trkpt lat="42.78906969712917" lon="10.21632217027888"><ele>174.0</ele><time>2026-04-26T10:45:50.998Z</time></trkpt><trkpt lat="42.78903945544118" lon="10.216408272912927"><ele>174.0</ele><time>2026-04-26T10:45:58.998Z</time></trkpt><trkpt lat="42.78899648009266" lon="10.216487233344592"><ele>174.0</ele><time>2026-04-26T10:47:44.999Z</time></trkpt><trkpt lat="42.788954001812364" lon="10.216555012643768"><ele>174.0</ele><time>2026-04-26T10:47:55.999Z</time></trkpt><trkpt lat="42.78889567944734" lon="10.216604809289322"><ele>174.0</ele><time>2026-04-26T10:48:05.998Z</time></trkpt><trkpt lat="42.78883671972973" lon="10.216638480185841"><ele>174.0</ele><time>2026-04-26T10:48:15.998Z</time></trkpt><trkpt lat="42.78875980007858" lon="10.216641775601744"><ele>174.0</ele><time>2026-04-26T10:49:04.999Z</time></trkpt><trkpt lat="42.78869412145521" lon="10.21663623908664"><ele>174.0</ele><time>2026-04-26T10:49:08.999Z</time></trkpt><trkpt lat="42.78863252240945" lon="10.216676853208394"><ele>174.0</ele><time>2026-04-26T10:49:14.999Z</time></trkpt><trkpt lat="42.78857761769641" lon="10.21673757698423"><ele>174.0</ele><time>2026-04-26T10:49:16.999Z</time></trkpt><trkpt lat="42.7885185190261" lon="10.216815156525014"><ele>174.0</ele><time>2026-04-26T10:49:18.999Z</time></trkpt><trkpt lat="42.788460100886404" lon="10.216900043640734"><ele>174.0</ele><time>2026-04-26T10:49:20.999Z</time></trkpt><trkpt lat="42.78838082225864" lon="10.216951779126747"><ele>175.83333333333334</ele><time>2026-04-26T10:49:22.999Z</time></trkpt><trkpt lat="42.788305778898945" lon="10.216997985049035"><ele>177.66666666666666</ele><time>2026-04-26T10:49:25.999Z</time></trkpt><trkpt lat="42.788244408079805" lon="10.217063510583802"><ele>179.5</ele><time>2026-04-26T10:49:30.999Z</time></trkpt><trkpt lat="42.78817194775661" lon="10.217104613321512"><ele>181.33333333333331</ele><time>2026-04-26T10:49:33.999Z</time></trkpt><trkpt lat="42.78810766089685" lon="10.217194613062434"><ele>183.16666666666666</ele><time>2026-04-26T10:49:41.999Z</time></trkpt><trkpt lat="42.788049292551136" lon="10.217235550981442"><ele>185.0</ele><time>2026-04-26T10:49:44.999Z</time></trkpt><trkpt lat="42.78799892324186" lon="10.217305204188946"><ele>183.33333333333331</ele><time>2026-04-26T10:49:53.999Z</time></trkpt><trkpt lat="42.78792429896371" lon="10.2173973098374"><ele>181.66666666666666</ele><time>2026-04-26T10:49:56.999Z</time></trkpt><trkpt lat="42.78786101322294" lon="10.217484012719787"><ele>180.0</ele><time>2026-04-26T10:49:59.999Z</time></trkpt><trkpt lat="42.78780469102086" lon="10.217538873967555"><ele>178.33333333333334</ele><time>2026-04-26T10:50:01.999Z</time></trkpt><trkpt lat="42.78773403596737" lon="10.217571209375738"><ele>176.66666666666669</ele><time>2026-04-26T10:50:04.999Z</time></trkpt><trkpt lat="42.78766961070799" lon="10.217577796842066"><ele>175.0</ele><time>2026-04-26T10:50:06.999Z</time></trkpt><trkpt lat="42.787588785600356" lon="10.217584708501523"><ele>175.0</ele><time>2026-04-26T10:50:08.999Z</time></trkpt><trkpt lat="42.78752544058987" lon="10.217578804708227"><ele>175.0</ele><time>2026-04-26T10:50:10.999Z</time></trkpt><trkpt lat="42.78744465286494" lon="10.217570890562024"><ele>175.0</ele><time>2026-04-26T10:50:12.999Z</time></trkpt><trkpt lat="42.787369256782824" lon="10.217549644574408"><ele>175.0</ele><time>2026-04-26T10:50:14.999Z</time></trkpt><trkpt lat="42.787302657706114" lon="10.21759568208228"><ele>175.0</ele><time>2026-04-26T10:50:16.999Z</time></trkpt><trkpt lat="42.78724634188437" lon="10.21764163139557"><ele>175.0</ele><time>2026-04-26T10:50:18.999Z</time></trkpt><trkpt lat="42.78716594020306" lon="10.217758491793369"><ele>175.0</ele><time>2026-04-26T10:50:20.999Z</time></trkpt><trkpt lat="42.78709774111999" lon="10.217810291588407"><ele>175.0</ele><time>2026-04-26T10:50:22.999Z</time></trkpt><trkpt lat="42.7870091645031" lon="10.217823087791267"><ele>175.0</ele><time>2026-04-26T10:50:25.999Z</time></trkpt><trkpt lat="42.78692991262858" lon="10.217796133580237"><ele>175.0</ele><time>2026-04-26T10:50:27.999Z</time></trkpt><trkpt lat="42.78685247767722" lon="10.217775548237318"><ele>175.0</ele><time>2026-04-26T10:50:29.999Z</time></trkpt><trkpt lat="42.78676848640609" lon="10.217731236790732"><ele>175.0</ele><time>2026-04-26T10:50:32.999Z</time></trkpt><trkpt lat="42.78668365676056" lon="10.217709101992808"><ele>176.0</ele><time>2026-04-26T10:50:34.999Z</time></trkpt><trkpt lat="42.7866218272648" lon="10.217733773449762"><ele>177.0</ele><time>2026-04-26T10:50:36.999Z</time></trkpt><trkpt lat="42.78654596633088" lon="10.217760624697037"><ele>178.0</ele><time>2026-04-26T10:50:38.999Z</time></trkpt><trkpt lat="42.786475525626926" lon="10.217790436208064"><ele>179.0</ele><time>2026-04-26T10:50:40.999Z</time></trkpt><trkpt lat="42.78639819774122" lon="10.217797503347255"><ele>180.0</ele><time>2026-04-26T10:50:42.999Z</time></trkpt><trkpt lat="42.786314374038994" lon="10.217745222347602"><ele>181.0</ele><time>2026-04-26T10:50:44.999Z</time></trkpt><trkpt lat="42.78622730627811" lon="10.21777277153098"><ele>181.0</ele><time>2026-04-26T10:50:47.999Z</time></trkpt><trkpt lat="42.78614603899881" lon="10.217830659100827"><ele>181.0</ele><time>2026-04-26T10:50:50.999Z</time></trkpt><trkpt lat="42.786087685685644" lon="10.21787169685474"><ele>181.0</ele><time>2026-04-26T10:50:55Z</time></trkpt><trkpt lat="42.78607082316911" lon="10.21795534344436"><ele>181.0</ele><time>2026-04-26T10:51:30Z</time></trkpt><trkpt lat="42.78604671031449" lon="10.21803868669178"><ele>181.0</ele><time>2026-04-26T10:51:46Z</time></trkpt><trkpt lat="42.78603846550049" lon="10.218128730115032"><ele>181.0</ele><time>2026-04-26T10:51:54Z</time></trkpt><trkpt lat="42.786042823630225" lon="10.21821791442174"><ele>181.0</ele><time>2026-04-26T10:52:11.999Z</time></trkpt><trkpt lat="42.786026184634395" lon="10.218337054175715"><ele>179.33333333333334</ele><time>2026-04-26T10:52:16.999Z</time></trkpt><trkpt lat="42.78600630915241" lon="10.218428626716133"><ele>177.66666666666669</ele><time>2026-04-26T10:52:20.999Z</time></trkpt><trkpt lat="42.78595722172688" lon="10.218532969792943"><ele>176.0</ele><time>2026-04-26T10:52:24.999Z</time></trkpt><trkpt lat="42.78591174293648" lon="10.218601880428603"><ele>174.33333333333334</ele><time>2026-04-26T10:52:26.999Z</time></trkpt><trkpt lat="42.78584474488422" lon="10.218650766446997"><ele>172.66666666666666</ele><time>2026-04-26T10:52:29.999Z</time></trkpt><trkpt lat="42.78577289947676" lon="10.218704243924416"><ele>171.0</ele><time>2026-04-26T10:52:32.999Z</time></trkpt><trkpt lat="42.785689409688025" lon="10.21874708382451"><ele>170.99999999999997</ele><time>2026-04-26T10:52:34.999Z</time></trkpt><trkpt lat="42.78560480449437" lon="10.218707661123911"><ele>171.0</ele><time>2026-04-26T10:52:37.999Z</time></trkpt><trkpt lat="42.78553631089476" lon="10.218698970208887"><ele>171.0</ele><time>2026-04-26T10:52:40.999Z</time></trkpt><trkpt lat="42.78547576500641" lon="10.218761993382213"><ele>171.0</ele><time>2026-04-26T10:52:44.999Z</time></trkpt><trkpt lat="42.78543299545697" lon="10.218831022211472"><ele>171.0</ele><time>2026-04-26T10:52:47.999Z</time></trkpt><trkpt lat="42.78538043856737" lon="10.218883384721556"><ele>170.99999999999997</ele><time>2026-04-26T10:52:51.999Z</time></trkpt><trkpt lat="42.785344100228635" lon="10.218957912534995"><ele>171.0</ele><time>2026-04-26T10:53:38Z</time></trkpt><trkpt lat="42.785281797718156" lon="10.218992870129775"><ele>169.42857142857142</ele><time>2026-04-26T10:53:49Z</time></trkpt><trkpt lat="42.78523544004293" lon="10.219061029897757"><ele>167.85714285714286</ele><time>2026-04-26T10:53:56Z</time></trkpt><trkpt lat="42.78518368376284" lon="10.21911085953082"><ele>166.28571428571428</ele><time>2026-04-26T10:54:03Z</time></trkpt><trkpt lat="42.78512123773482" lon="10.21916127482304"><ele>164.71428571428572</ele><time>2026-04-26T10:54:10Z</time></trkpt><trkpt lat="42.7850683137789" lon="10.219211160980091"><ele>163.14285714285714</ele><time>2026-04-26T10:54:16Z</time></trkpt><trkpt lat="42.785004326574835" lon="10.219253506573395"><ele>161.57142857142856</ele><time>2026-04-26T10:54:22Z</time></trkpt><trkpt lat="42.78495651228471" lon="10.21931549615619"><ele>160.0</ele><time>2026-04-26T10:54:42Z</time></trkpt><trkpt lat="42.78489889254508" lon="10.219350269862089"><ele>160.0</ele><time>2026-04-26T10:54:48Z</time></trkpt><trkpt lat="42.78483611641158" lon="10.21936217902355"><ele>160.0</ele><time>2026-04-26T10:54:55Z</time></trkpt><trkpt lat="42.78476125736493" lon="10.219380656297869"><ele>160.0</ele><time>2026-04-26T10:55:03Z</time></trkpt><trkpt lat="42.78468836833183" lon="10.21940334228158"><ele>160.0</ele><time>2026-04-26T10:55:10.001Z</time></trkpt><trkpt lat="42.784624893172285" lon="10.219389231940122"><ele>160.0</ele><time>2026-04-26T10:55:16.001Z</time></trkpt><trkpt lat="42.78455691431376" lon="10.219400116010123"><ele>160.0</ele><time>2026-04-26T10:55:21.001Z</time></trkpt><trkpt lat="42.784487565438674" lon="10.219409813947227"><ele>160.0</ele><time>2026-04-26T10:55:26.001Z</time></trkpt><trkpt lat="42.784548014422946" lon="10.219383802805554"><ele>160.0</ele><time>2026-04-26T10:56:26Z</time></trkpt><trkpt lat="42.78461911155014" lon="10.219381258784955"><ele>160.0</ele><time>2026-04-26T10:56:33Z</time></trkpt><trkpt lat="42.78469406198627" lon="10.219385018277555"><ele>160.0</ele><time>2026-04-26T10:56:39Z</time></trkpt><trkpt lat="42.78476383505219" lon="10.219378885295198"><ele>160.0</ele><time>2026-04-26T10:56:46Z</time></trkpt><trkpt lat="42.78482727256482" lon="10.21936571139891"><ele>160.0</ele><time>2026-04-26T10:56:53Z</time></trkpt><trkpt lat="42.78489049694633" lon="10.219344600094317"><ele>160.0</ele><time>2026-04-26T10:57:13.001Z</time></trkpt><trkpt lat="42.78494929724564" lon="10.219308297610432"><ele>160.0</ele><time>2026-04-26T10:57:18.001Z</time></trkpt><trkpt lat="42.78500891204062" lon="10.219268008000244"><ele>160.0</ele><time>2026-04-26T10:57:24.001Z</time></trkpt><trkpt lat="42.78505911341702" lon="10.2192042908829"><ele>160.0</ele><time>2026-04-26T10:57:37Z</time></trkpt><trkpt lat="42.78512615106071" lon="10.219159559858602"><ele>160.0</ele><time>2026-04-26T10:57:57Z</time></trkpt><trkpt lat="42.78518469334828" lon="10.219113754824429"><ele>160.0</ele><time>2026-04-26T10:58:04Z</time></trkpt><trkpt lat="42.785250589465676" lon="10.219031255398866"><ele>160.0</ele><time>2026-04-26T10:58:18Z</time></trkpt><trkpt lat="42.7853008272743" lon="10.21897738274435"><ele>160.0</ele><time>2026-04-26T10:58:25Z</time></trkpt><trkpt lat="42.78535730445639" lon="10.218926161495643"><ele>160.0</ele><time>2026-04-26T10:58:55Z</time></trkpt><trkpt lat="42.785279477434024" lon="10.218953202823512"><ele>160.0</ele><time>2026-04-26T11:06:50Z</time></trkpt><trkpt lat="42.785201423909804" lon="10.218930103603384"><ele>160.0</ele><time>2026-04-26T11:07:01Z</time></trkpt><trkpt lat="42.785140982946956" lon="10.218987220045973"><ele>160.0</ele><time>2026-04-26T11:07:11Z</time></trkpt><trkpt lat="42.78511898314676" lon="10.219072665973504"><ele>160.0</ele><time>2026-04-26T11:07:42.002Z</time></trkpt><trkpt lat="42.78507169821232" lon="10.219012200541297"><ele>160.0</ele><time>2026-04-26T11:08:39Z</time></trkpt><trkpt lat="42.78510567361032" lon="10.219125597534582"><ele>160.0</ele><time>2026-04-26T11:09:03Z</time></trkpt><trkpt lat="42.78505676249414" lon="10.219051356209418"><ele>160.0</ele><time>2026-04-26T11:10:36Z</time></trkpt><trkpt lat="42.78498014738209" lon="10.219013748615197"><ele>163.33333333333334</ele><time>2026-04-26T11:10:41Z</time></trkpt><trkpt lat="42.784915575808355" lon="10.218975766008635"><ele>166.66666666666669</ele><time>2026-04-26T11:10:44Z</time></trkpt><trkpt lat="42.78484854066001" lon="10.21895927195638"><ele>170.0</ele><time>2026-04-26T11:10:48Z</time></trkpt><trkpt lat="42.784790976785146" lon="10.218897976815132"><ele>173.33333333333334</ele><time>2026-04-26T11:10:51Z</time></trkpt><trkpt lat="42.78467565801054" lon="10.218846096806391"><ele>176.66666666666666</ele><time>2026-04-26T11:10:59Z</time></trkpt><trkpt lat="42.78461663354114" lon="10.218811345339654"><ele>180.0</ele><time>2026-04-26T11:11:06Z</time></trkpt><trkpt lat="42.7846674662748" lon="10.218904636184014"><ele>180.0</ele><time>2026-04-26T11:11:08.999Z</time></trkpt><trkpt lat="42.784697646110196" lon="10.21901829399012"><ele>180.0</ele><time>2026-04-26T11:11:14.999Z</time></trkpt><trkpt lat="42.78476943211914" lon="10.219094496125635"><ele>180.0</ele><time>2026-04-26T11:11:18.999Z</time></trkpt><trkpt lat="42.78470492070404" lon="10.219060065936539"><ele>180.0</ele><time>2026-04-26T11:11:29.999Z</time></trkpt><trkpt lat="42.7846394631263" lon="10.218998067400383"><ele>180.0</ele><time>2026-04-26T11:11:31.999Z</time></trkpt><trkpt lat="42.78460715054282" lon="10.218913822920799"><ele>180.0</ele><time>2026-04-26T11:11:35.999Z</time></trkpt><trkpt lat="42.784543577242744" lon="10.218935874541224"><ele>176.66666666666666</ele><time>2026-04-26T11:11:43.999Z</time></trkpt><trkpt lat="42.784481494328375" lon="10.219012157677843"><ele>173.33333333333334</ele><time>2026-04-26T11:11:47.999Z</time></trkpt><trkpt lat="42.784418193782784" lon="10.219058308440973"><ele>170.0</ele><time>2026-04-26T11:11:52.001Z</time></trkpt><trkpt lat="42.7843368545334" lon="10.219051167134209"><ele>166.66666666666669</ele><time>2026-04-26T11:11:54.001Z</time></trkpt><trkpt lat="42.784254674028524" lon="10.219102530387023"><ele>163.33333333333334</ele><time>2026-04-26T11:11:58.001Z</time></trkpt><trkpt lat="42.784183890461755" lon="10.219124029666256"><ele>160.0</ele><time>2026-04-26T11:12:01.001Z</time></trkpt><trkpt lat="42.784247584605666" lon="10.219245449639796"><ele>160.0</ele><time>2026-04-26T11:12:04.001Z</time></trkpt><trkpt lat="42.78420579145175" lon="10.219314689909767"><ele>160.0</ele><time>2026-04-26T11:12:07.001Z</time></trkpt><trkpt lat="42.78432877210898" lon="10.219449603443216"><ele>160.0</ele><time>2026-04-26T11:12:44Z</time></trkpt><trkpt lat="42.78438789691625" lon="10.219397893863748"><ele>160.0</ele><time>2026-04-26T11:13:00Z</time></trkpt><trkpt lat="42.78430431372557" lon="10.219342929888375"><ele>160.0</ele><time>2026-04-26T11:13:59Z</time></trkpt><trkpt lat="42.7842392935023" lon="10.219308397218244"><ele>158.2</ele><time>2026-04-26T11:14:01Z</time></trkpt><trkpt lat="42.78414644460942" lon="10.21926138031404"><ele>156.4</ele><time>2026-04-26T11:14:04Z</time></trkpt><trkpt lat="42.78406288571575" lon="10.219208764703733"><ele>154.6</ele><time>2026-04-26T11:14:06Z</time></trkpt><trkpt lat="42.783988150839754" lon="10.21916309029372"><ele>152.8</ele><time>2026-04-26T11:14:08Z</time></trkpt><trkpt lat="42.7838928574162" lon="10.219104875972127"><ele>151.0</ele><time>2026-04-26T11:14:10Z</time></trkpt><trkpt lat="42.78380092525799" lon="10.219037721790627"><ele>153.83333333333334</ele><time>2026-04-26T11:14:12Z</time></trkpt><trkpt lat="42.78372060318953" lon="10.218961875495884"><ele>156.66666666666669</ele><time>2026-04-26T11:14:14Z</time></trkpt><trkpt lat="42.78371778898625" lon="10.218873272274243"><ele>159.5</ele><time>2026-04-26T11:14:15Z</time></trkpt><trkpt lat="42.78367603733133" lon="10.21876593205634"><ele>162.33333333333334</ele><time>2026-04-26T11:14:17Z</time></trkpt><trkpt lat="42.7836598689244" lon="10.218665125659472"><ele>165.16666666666666</ele><time>2026-04-26T11:14:19Z</time></trkpt><trkpt lat="42.783634375088575" lon="10.21853241420025"><ele>168.0</ele><time>2026-04-26T11:14:21Z</time></trkpt><trkpt lat="42.7835662334421" lon="10.218439081485004"><ele>165.0</ele><time>2026-04-26T11:14:23Z</time></trkpt><trkpt lat="42.78345765275564" lon="10.21839723587948"><ele>162.0</ele><time>2026-04-26T11:14:25Z</time></trkpt><trkpt lat="42.78337014274248" lon="10.218325570454835"><ele>159.0</ele><time>2026-04-26T11:14:27Z</time></trkpt><trkpt lat="42.78327814254509" lon="10.21824445172524"><ele>156.0</ele><time>2026-04-26T11:14:29Z</time></trkpt><trkpt lat="42.78318058308743" lon="10.218201466715547"><ele>153.0</ele><time>2026-04-26T11:14:31Z</time></trkpt><trkpt lat="42.78308275954844" lon="10.218239434899838"><ele>153.0</ele><time>2026-04-26T11:14:33Z</time></trkpt><trkpt lat="42.783037077829114" lon="10.218344296190548"><ele>153.0</ele><time>2026-04-26T11:14:35Z</time></trkpt><trkpt lat="42.78304008603622" lon="10.218478643402841"><ele>153.0</ele><time>2026-04-26T11:14:37Z</time></trkpt><trkpt lat="42.783056366330946" lon="10.218633356118305"><ele>153.0</ele><time>2026-04-26T11:14:39Z</time></trkpt><trkpt lat="42.78307339926569" lon="10.218782788297245"><ele>153.0</ele><time>2026-04-26T11:14:41Z</time></trkpt><trkpt lat="42.78306988349296" lon="10.218933074131787"><ele>150.4</ele><time>2026-04-26T11:14:43Z</time></trkpt><trkpt lat="42.783048634311136" lon="10.219073143383438"><ele>147.8</ele><time>2026-04-26T11:14:45Z</time></trkpt><trkpt lat="42.78303659949731" lon="10.21922187572181"><ele>145.2</ele><time>2026-04-26T11:14:46.999Z</time></trkpt><trkpt lat="42.78302138972225" lon="10.21932740766421"><ele>142.6</ele><time>2026-04-26T11:14:48.999Z</time></trkpt><trkpt lat="42.78298956431671" lon="10.219417357921731"><ele>140.0</ele><time>2026-04-26T11:14:50.999Z</time></trkpt><trkpt lat="42.782934304194725" lon="10.21952657367852"><ele>140.0</ele><time>2026-04-26T11:14:52.999Z</time></trkpt><trkpt lat="42.78289316359737" lon="10.219652734684614"><ele>140.0</ele><time>2026-04-26T11:14:54.999Z</time></trkpt><trkpt lat="42.78286394353679" lon="10.219756121106496"><ele>140.0</ele><time>2026-04-26T11:14:57.999Z</time></trkpt><trkpt lat="42.78283689716092" lon="10.219835043337321"><ele>140.0</ele><time>2026-04-26T11:15:00.999Z</time></trkpt><trkpt lat="42.782811034800844" lon="10.219940670524004"><ele>140.0</ele><time>2026-04-26T11:15:16.999Z</time></trkpt><trkpt lat="42.78278723829279" lon="10.220025254830576"><ele>140.0</ele><time>2026-04-26T11:15:20.999Z</time></trkpt><trkpt lat="42.78274568030033" lon="10.22009335517918"><ele>133.0</ele><time>2026-04-26T11:15:31.999Z</time></trkpt><trkpt lat="42.78271195693344" lon="10.22018547974757"><ele>133.0</ele><time>2026-04-26T11:15:34.998Z</time></trkpt><trkpt lat="42.782691101737406" lon="10.220269368813153"><ele>133.0</ele><time>2026-04-26T11:15:38.998Z</time></trkpt><trkpt lat="42.78264100188795" lon="10.220330497068895"><ele>158.0</ele><time>2026-04-26T11:18:11.999Z</time></trkpt><trkpt lat="42.78269015258029" lon="10.220275967329092"><ele>133.0</ele><time>2026-04-26T11:18:36.999Z</time></trkpt><trkpt lat="42.78272198218147" lon="10.220194333342183"><ele>133.0</ele><time>2026-04-26T11:20:20.998Z</time></trkpt></trkseg></trk></gpx>